<?xml version="1.0" encoding="UTF-8" standalone="no" ?>
<gpx xmlns="http://www.topografix.com/GPX/1/1" xmlns:xsi="http://www.w3.org/2001/XMLSchema-instance" xsi:schemaLocation="http://www.topografix.com/GPX/1/1 http://www.topografix.com/GPX/1/1/gpx.xsd" version="1.1" creator="VisuGPX - https://www.visugpx.com">
  <metadata>
    <name>puy de jumes et coquille</name>
  </metadata>
  <trk>
    <name><![CDATA[puy de jumes et coquille_1]]></name>
    <extensions>
      <line xmlns="http://www.topografix.com/GPX/gpx_style/0/2">
        <color>0000FF</color>
        <width>4</width>
      </line>
    </extensions>
    <trkseg>
      <trkpt lat="45.85055" lon="2.92772">
        <ele>903</ele>
        <time>2021-05-30T05:59:49Z</time>
      </trkpt>
      <trkpt lat="45.85054" lon="2.92772">
        <ele>903</ele>
        <time>2021-05-30T05:59:50Z</time>
      </trkpt>
      <trkpt lat="45.85054" lon="2.92773">
        <ele>903</ele>
        <time>2021-05-30T05:59:51Z</time>
      </trkpt>
      <trkpt lat="45.85053" lon="2.92774">
        <ele>903</ele>
        <time>2021-05-30T05:59:52Z</time>
      </trkpt>
      <trkpt lat="45.85053" lon="2.92776">
        <ele>903</ele>
        <time>2021-05-30T05:59:53Z</time>
      </trkpt>
      <trkpt lat="45.85052" lon="2.92777">
        <ele>903</ele>
        <time>2021-05-30T05:59:54Z</time>
      </trkpt>
      <trkpt lat="45.85052" lon="2.92779">
        <ele>903</ele>
        <time>2021-05-30T05:59:55Z</time>
      </trkpt>
      <trkpt lat="45.85051" lon="2.92781">
        <ele>903</ele>
        <time>2021-05-30T05:59:56Z</time>
      </trkpt>
      <trkpt lat="45.8505" lon="2.92782">
        <ele>903</ele>
        <time>2021-05-30T05:59:57Z</time>
      </trkpt>
      <trkpt lat="45.85049" lon="2.92784">
        <ele>903</ele>
        <time>2021-05-30T05:59:58Z</time>
      </trkpt>
      <trkpt lat="45.85049" lon="2.92786">
        <ele>903</ele>
        <time>2021-05-30T05:59:59Z</time>
      </trkpt>
      <trkpt lat="45.85049" lon="2.92788">
        <ele>903</ele>
        <time>2021-05-30T06:00:00Z</time>
      </trkpt>
      <trkpt lat="45.85048" lon="2.9279">
        <ele>903</ele>
        <time>2021-05-30T06:00:01Z</time>
      </trkpt>
      <trkpt lat="45.85048" lon="2.92792">
        <ele>903</ele>
        <time>2021-05-30T06:00:02Z</time>
      </trkpt>
      <trkpt lat="45.85047" lon="2.92794">
        <ele>903</ele>
        <time>2021-05-30T06:00:03Z</time>
      </trkpt>
      <trkpt lat="45.85046" lon="2.92796">
        <ele>903</ele>
        <time>2021-05-30T06:00:04Z</time>
      </trkpt>
      <trkpt lat="45.85046" lon="2.92798">
        <ele>903</ele>
        <time>2021-05-30T06:00:05Z</time>
      </trkpt>
      <trkpt lat="45.85046" lon="2.928">
        <ele>903</ele>
        <time>2021-05-30T06:00:06Z</time>
      </trkpt>
      <trkpt lat="45.85045" lon="2.92802">
        <ele>903</ele>
        <time>2021-05-30T06:00:07Z</time>
      </trkpt>
      <trkpt lat="45.85044" lon="2.92804">
        <ele>903</ele>
        <time>2021-05-30T06:00:08Z</time>
      </trkpt>
      <trkpt lat="45.85043" lon="2.92806">
        <ele>903</ele>
        <time>2021-05-30T06:00:09Z</time>
      </trkpt>
      <trkpt lat="45.85043" lon="2.92808">
        <ele>903</ele>
        <time>2021-05-30T06:00:10Z</time>
      </trkpt>
      <trkpt lat="45.85041" lon="2.9281">
        <ele>903</ele>
        <time>2021-05-30T06:00:11Z</time>
      </trkpt>
      <trkpt lat="45.85041" lon="2.92812">
        <ele>903</ele>
        <time>2021-05-30T06:00:12Z</time>
      </trkpt>
      <trkpt lat="45.8504" lon="2.92814">
        <ele>903</ele>
        <time>2021-05-30T06:00:13Z</time>
      </trkpt>
      <trkpt lat="45.8504" lon="2.92816">
        <ele>903</ele>
        <time>2021-05-30T06:00:14Z</time>
      </trkpt>
      <trkpt lat="45.85039" lon="2.92818">
        <ele>903</ele>
        <time>2021-05-30T06:00:15Z</time>
      </trkpt>
      <trkpt lat="45.85038" lon="2.92821">
        <ele>903</ele>
        <time>2021-05-30T06:00:16Z</time>
      </trkpt>
      <trkpt lat="45.85038" lon="2.92823">
        <ele>903</ele>
        <time>2021-05-30T06:00:17Z</time>
      </trkpt>
      <trkpt lat="45.85037" lon="2.92825">
        <ele>903</ele>
        <time>2021-05-30T06:00:18Z</time>
      </trkpt>
      <trkpt lat="45.85037" lon="2.92827">
        <ele>903</ele>
        <time>2021-05-30T06:00:19Z</time>
      </trkpt>
      <trkpt lat="45.85037" lon="2.9283">
        <ele>903</ele>
        <time>2021-05-30T06:00:20Z</time>
      </trkpt>
      <trkpt lat="45.85036" lon="2.92832">
        <ele>903</ele>
        <time>2021-05-30T06:00:21Z</time>
      </trkpt>
      <trkpt lat="45.85035" lon="2.92834">
        <ele>903</ele>
        <time>2021-05-30T06:00:22Z</time>
      </trkpt>
      <trkpt lat="45.85035" lon="2.92836">
        <ele>903</ele>
        <time>2021-05-30T06:00:23Z</time>
      </trkpt>
      <trkpt lat="45.85034" lon="2.92838">
        <ele>903</ele>
        <time>2021-05-30T06:00:24Z</time>
      </trkpt>
      <trkpt lat="45.85033" lon="2.9284">
        <ele>903</ele>
        <time>2021-05-30T06:00:25Z</time>
      </trkpt>
      <trkpt lat="45.85033" lon="2.92841">
        <ele>903</ele>
        <time>2021-05-30T06:00:26Z</time>
      </trkpt>
      <trkpt lat="45.85032" lon="2.92843">
        <ele>903</ele>
        <time>2021-05-30T06:00:27Z</time>
      </trkpt>
      <trkpt lat="45.85032" lon="2.92845">
        <ele>903</ele>
        <time>2021-05-30T06:00:28Z</time>
      </trkpt>
      <trkpt lat="45.85031" lon="2.92847">
        <ele>903</ele>
        <time>2021-05-30T06:00:29Z</time>
      </trkpt>
      <trkpt lat="45.8503" lon="2.92848">
        <ele>903</ele>
        <time>2021-05-30T06:00:30Z</time>
      </trkpt>
      <trkpt lat="45.8503" lon="2.9285">
        <ele>903</ele>
        <time>2021-05-30T06:00:31Z</time>
      </trkpt>
      <trkpt lat="45.85029" lon="2.92852">
        <ele>903</ele>
        <time>2021-05-30T06:00:32Z</time>
      </trkpt>
      <trkpt lat="45.85029" lon="2.92854">
        <ele>903</ele>
        <time>2021-05-30T06:00:33Z</time>
      </trkpt>
      <trkpt lat="45.85028" lon="2.92856">
        <ele>903</ele>
        <time>2021-05-30T06:00:34Z</time>
      </trkpt>
      <trkpt lat="45.85028" lon="2.92859">
        <ele>903</ele>
        <time>2021-05-30T06:00:35Z</time>
      </trkpt>
      <trkpt lat="45.85027" lon="2.92861">
        <ele>903</ele>
        <time>2021-05-30T06:00:36Z</time>
      </trkpt>
      <trkpt lat="45.85027" lon="2.92863">
        <ele>903</ele>
        <time>2021-05-30T06:00:37Z</time>
      </trkpt>
      <trkpt lat="45.85026" lon="2.92865">
        <ele>903</ele>
        <time>2021-05-30T06:00:38Z</time>
      </trkpt>
      <trkpt lat="45.85025" lon="2.92868">
        <ele>903</ele>
        <time>2021-05-30T06:00:39Z</time>
      </trkpt>
      <trkpt lat="45.85025" lon="2.9287">
        <ele>903</ele>
        <time>2021-05-30T06:00:40Z</time>
      </trkpt>
      <trkpt lat="45.85025" lon="2.92872">
        <ele>903</ele>
        <time>2021-05-30T06:00:41Z</time>
      </trkpt>
      <trkpt lat="45.85025" lon="2.92874">
        <ele>903</ele>
        <time>2021-05-30T06:00:42Z</time>
      </trkpt>
      <trkpt lat="45.85024" lon="2.92876">
        <ele>903</ele>
        <time>2021-05-30T06:00:43Z</time>
      </trkpt>
      <trkpt lat="45.85024" lon="2.92878">
        <ele>903</ele>
        <time>2021-05-30T06:00:44Z</time>
      </trkpt>
      <trkpt lat="45.85023" lon="2.9288">
        <ele>903</ele>
        <time>2021-05-30T06:00:45Z</time>
      </trkpt>
      <trkpt lat="45.85022" lon="2.92883">
        <ele>903</ele>
        <time>2021-05-30T06:00:46Z</time>
      </trkpt>
      <trkpt lat="45.85022" lon="2.92885">
        <ele>903</ele>
        <time>2021-05-30T06:00:47Z</time>
      </trkpt>
      <trkpt lat="45.85022" lon="2.92887">
        <ele>903</ele>
        <time>2021-05-30T06:00:48Z</time>
      </trkpt>
      <trkpt lat="45.85021" lon="2.9289">
        <ele>903</ele>
        <time>2021-05-30T06:00:49Z</time>
      </trkpt>
      <trkpt lat="45.8502" lon="2.92892">
        <ele>903</ele>
        <time>2021-05-30T06:00:50Z</time>
      </trkpt>
      <trkpt lat="45.8502" lon="2.92895">
        <ele>903</ele>
        <time>2021-05-30T06:00:51Z</time>
      </trkpt>
      <trkpt lat="45.85019" lon="2.92897">
        <ele>903</ele>
        <time>2021-05-30T06:00:52Z</time>
      </trkpt>
      <trkpt lat="45.85019" lon="2.92899">
        <ele>903</ele>
        <time>2021-05-30T06:00:53Z</time>
      </trkpt>
      <trkpt lat="45.85018" lon="2.92901">
        <ele>903</ele>
        <time>2021-05-30T06:00:54Z</time>
      </trkpt>
      <trkpt lat="45.85017" lon="2.92903">
        <ele>903</ele>
        <time>2021-05-30T06:00:55Z</time>
      </trkpt>
      <trkpt lat="45.85017" lon="2.92905">
        <ele>903</ele>
        <time>2021-05-30T06:00:56Z</time>
      </trkpt>
      <trkpt lat="45.85016" lon="2.92907">
        <ele>903</ele>
        <time>2021-05-30T06:00:57Z</time>
      </trkpt>
      <trkpt lat="45.85016" lon="2.92909">
        <ele>903</ele>
        <time>2021-05-30T06:00:58Z</time>
      </trkpt>
      <trkpt lat="45.85016" lon="2.9291">
        <ele>903</ele>
        <time>2021-05-30T06:00:59Z</time>
      </trkpt>
      <trkpt lat="45.85016" lon="2.92911">
        <ele>903</ele>
        <time>2021-05-30T06:01:00Z</time>
      </trkpt>
      <trkpt lat="45.85015" lon="2.92912">
        <ele>903</ele>
        <time>2021-05-30T06:01:01Z</time>
      </trkpt>
      <trkpt lat="45.85015" lon="2.92913">
        <ele>903</ele>
        <time>2021-05-30T06:01:02Z</time>
      </trkpt>
      <trkpt lat="45.85015" lon="2.92913">
        <ele>903</ele>
        <time>2021-05-30T06:01:03Z</time>
      </trkpt>
      <trkpt lat="45.85015" lon="2.92913">
        <ele>903</ele>
        <time>2021-05-30T06:01:04Z</time>
      </trkpt>
      <trkpt lat="45.85015" lon="2.92913">
        <ele>903</ele>
        <time>2021-05-30T06:01:05Z</time>
      </trkpt>
      <trkpt lat="45.85014" lon="2.92914">
        <ele>903</ele>
        <time>2021-05-30T06:01:07Z</time>
      </trkpt>
      <trkpt lat="45.85016" lon="2.92915">
        <ele>903</ele>
        <time>2021-05-30T06:01:20Z</time>
      </trkpt>
      <trkpt lat="45.85016" lon="2.92914">
        <ele>903</ele>
        <time>2021-05-30T06:01:21Z</time>
      </trkpt>
      <trkpt lat="45.85016" lon="2.92914">
        <ele>903</ele>
        <time>2021-05-30T06:01:22Z</time>
      </trkpt>
      <trkpt lat="45.85016" lon="2.92914">
        <ele>903</ele>
        <time>2021-05-30T06:01:23Z</time>
      </trkpt>
      <trkpt lat="45.85016" lon="2.92915">
        <ele>903</ele>
        <time>2021-05-30T06:01:39Z</time>
      </trkpt>
      <trkpt lat="45.85016" lon="2.92915">
        <ele>903</ele>
        <time>2021-05-30T06:01:40Z</time>
      </trkpt>
      <trkpt lat="45.85015" lon="2.92916">
        <ele>903</ele>
        <time>2021-05-30T06:01:41Z</time>
      </trkpt>
      <trkpt lat="45.85015" lon="2.92918">
        <ele>903</ele>
        <time>2021-05-30T06:01:42Z</time>
      </trkpt>
      <trkpt lat="45.85014" lon="2.92919">
        <ele>903</ele>
        <time>2021-05-30T06:01:43Z</time>
      </trkpt>
      <trkpt lat="45.85014" lon="2.92921">
        <ele>903</ele>
        <time>2021-05-30T06:01:44Z</time>
      </trkpt>
      <trkpt lat="45.85013" lon="2.92923">
        <ele>903</ele>
        <time>2021-05-30T06:01:45Z</time>
      </trkpt>
      <trkpt lat="45.85013" lon="2.92924">
        <ele>903</ele>
        <time>2021-05-30T06:01:46Z</time>
      </trkpt>
      <trkpt lat="45.85013" lon="2.92926">
        <ele>903</ele>
        <time>2021-05-30T06:01:47Z</time>
      </trkpt>
      <trkpt lat="45.85012" lon="2.92927">
        <ele>903</ele>
        <time>2021-05-30T06:01:48Z</time>
      </trkpt>
      <trkpt lat="45.85012" lon="2.92928">
        <ele>903</ele>
        <time>2021-05-30T06:01:49Z</time>
      </trkpt>
      <trkpt lat="45.85011" lon="2.9293">
        <ele>903</ele>
        <time>2021-05-30T06:01:50Z</time>
      </trkpt>
      <trkpt lat="45.85011" lon="2.92932">
        <ele>903</ele>
        <time>2021-05-30T06:01:51Z</time>
      </trkpt>
      <trkpt lat="45.8501" lon="2.92933">
        <ele>903</ele>
        <time>2021-05-30T06:01:52Z</time>
      </trkpt>
      <trkpt lat="45.8501" lon="2.92935">
        <ele>903</ele>
        <time>2021-05-30T06:01:53Z</time>
      </trkpt>
      <trkpt lat="45.85008" lon="2.9294">
        <ele>903</ele>
        <time>2021-05-30T06:01:54Z</time>
      </trkpt>
      <trkpt lat="45.85008" lon="2.92941">
        <ele>903</ele>
        <time>2021-05-30T06:01:55Z</time>
      </trkpt>
      <trkpt lat="45.85008" lon="2.92942">
        <ele>903</ele>
        <time>2021-05-30T06:01:56Z</time>
      </trkpt>
      <trkpt lat="45.85007" lon="2.92943">
        <ele>903</ele>
        <time>2021-05-30T06:01:57Z</time>
      </trkpt>
      <trkpt lat="45.85007" lon="2.92945">
        <ele>903</ele>
        <time>2021-05-30T06:01:58Z</time>
      </trkpt>
      <trkpt lat="45.85006" lon="2.92947">
        <ele>903</ele>
        <time>2021-05-30T06:01:59Z</time>
      </trkpt>
      <trkpt lat="45.85006" lon="2.92948">
        <ele>903</ele>
        <time>2021-05-30T06:02:00Z</time>
      </trkpt>
      <trkpt lat="45.85005" lon="2.9295">
        <ele>903</ele>
        <time>2021-05-30T06:02:01Z</time>
      </trkpt>
      <trkpt lat="45.85004" lon="2.92953">
        <ele>903</ele>
        <time>2021-05-30T06:02:02Z</time>
      </trkpt>
      <trkpt lat="45.85004" lon="2.92955">
        <ele>903</ele>
        <time>2021-05-30T06:02:03Z</time>
      </trkpt>
      <trkpt lat="45.85004" lon="2.92957">
        <ele>903</ele>
        <time>2021-05-30T06:02:04Z</time>
      </trkpt>
      <trkpt lat="45.85003" lon="2.92959">
        <ele>903</ele>
        <time>2021-05-30T06:02:05Z</time>
      </trkpt>
      <trkpt lat="45.85003" lon="2.92961">
        <ele>903</ele>
        <time>2021-05-30T06:02:06Z</time>
      </trkpt>
      <trkpt lat="45.85002" lon="2.92963">
        <ele>903</ele>
        <time>2021-05-30T06:02:07Z</time>
      </trkpt>
      <trkpt lat="45.85001" lon="2.92965">
        <ele>903</ele>
        <time>2021-05-30T06:02:08Z</time>
      </trkpt>
      <trkpt lat="45.85001" lon="2.92967">
        <ele>903</ele>
        <time>2021-05-30T06:02:09Z</time>
      </trkpt>
      <trkpt lat="45.85001" lon="2.92969">
        <ele>903</ele>
        <time>2021-05-30T06:02:10Z</time>
      </trkpt>
      <trkpt lat="45.85" lon="2.92971">
        <ele>903</ele>
        <time>2021-05-30T06:02:11Z</time>
      </trkpt>
      <trkpt lat="45.85" lon="2.92973">
        <ele>903</ele>
        <time>2021-05-30T06:02:12Z</time>
      </trkpt>
      <trkpt lat="45.84999" lon="2.92975">
        <ele>903</ele>
        <time>2021-05-30T06:02:13Z</time>
      </trkpt>
      <trkpt lat="45.84998" lon="2.92976">
        <ele>903</ele>
        <time>2021-05-30T06:02:14Z</time>
      </trkpt>
      <trkpt lat="45.84998" lon="2.92978">
        <ele>903</ele>
        <time>2021-05-30T06:02:15Z</time>
      </trkpt>
      <trkpt lat="45.84997" lon="2.92979">
        <ele>903</ele>
        <time>2021-05-30T06:02:16Z</time>
      </trkpt>
      <trkpt lat="45.84996" lon="2.92981">
        <ele>903</ele>
        <time>2021-05-30T06:02:17Z</time>
      </trkpt>
      <trkpt lat="45.84996" lon="2.92983">
        <ele>903</ele>
        <time>2021-05-30T06:02:18Z</time>
      </trkpt>
      <trkpt lat="45.84995" lon="2.92986">
        <ele>903</ele>
        <time>2021-05-30T06:02:19Z</time>
      </trkpt>
      <trkpt lat="45.84994" lon="2.92988">
        <ele>903</ele>
        <time>2021-05-30T06:02:20Z</time>
      </trkpt>
      <trkpt lat="45.84994" lon="2.9299">
        <ele>903</ele>
        <time>2021-05-30T06:02:21Z</time>
      </trkpt>
      <trkpt lat="45.84993" lon="2.92992">
        <ele>903</ele>
        <time>2021-05-30T06:02:22Z</time>
      </trkpt>
      <trkpt lat="45.84993" lon="2.92993">
        <ele>903</ele>
        <time>2021-05-30T06:02:23Z</time>
      </trkpt>
      <trkpt lat="45.84992" lon="2.92995">
        <ele>903</ele>
        <time>2021-05-30T06:02:24Z</time>
      </trkpt>
      <trkpt lat="45.84991" lon="2.92997">
        <ele>903</ele>
        <time>2021-05-30T06:02:25Z</time>
      </trkpt>
      <trkpt lat="45.84991" lon="2.92998">
        <ele>903</ele>
        <time>2021-05-30T06:02:26Z</time>
      </trkpt>
      <trkpt lat="45.8499" lon="2.93">
        <ele>903</ele>
        <time>2021-05-30T06:02:27Z</time>
      </trkpt>
      <trkpt lat="45.8499" lon="2.93002">
        <ele>903</ele>
        <time>2021-05-30T06:02:28Z</time>
      </trkpt>
      <trkpt lat="45.84989" lon="2.93004">
        <ele>903</ele>
        <time>2021-05-30T06:02:29Z</time>
      </trkpt>
      <trkpt lat="45.84988" lon="2.93006">
        <ele>903</ele>
        <time>2021-05-30T06:02:30Z</time>
      </trkpt>
      <trkpt lat="45.84988" lon="2.93007">
        <ele>903</ele>
        <time>2021-05-30T06:02:31Z</time>
      </trkpt>
      <trkpt lat="45.84987" lon="2.93009">
        <ele>903</ele>
        <time>2021-05-30T06:02:32Z</time>
      </trkpt>
      <trkpt lat="45.84986" lon="2.9301">
        <ele>903</ele>
        <time>2021-05-30T06:02:33Z</time>
      </trkpt>
      <trkpt lat="45.84985" lon="2.93012">
        <ele>903</ele>
        <time>2021-05-30T06:02:34Z</time>
      </trkpt>
      <trkpt lat="45.84984" lon="2.93014">
        <ele>903</ele>
        <time>2021-05-30T06:02:35Z</time>
      </trkpt>
      <trkpt lat="45.84983" lon="2.93015">
        <ele>903</ele>
        <time>2021-05-30T06:02:36Z</time>
      </trkpt>
      <trkpt lat="45.84982" lon="2.93017">
        <ele>903</ele>
        <time>2021-05-30T06:02:37Z</time>
      </trkpt>
      <trkpt lat="45.84982" lon="2.93019">
        <ele>903</ele>
        <time>2021-05-30T06:02:38Z</time>
      </trkpt>
      <trkpt lat="45.8498" lon="2.9302">
        <ele>903</ele>
        <time>2021-05-30T06:02:39Z</time>
      </trkpt>
      <trkpt lat="45.8498" lon="2.93022">
        <ele>903</ele>
        <time>2021-05-30T06:02:40Z</time>
      </trkpt>
      <trkpt lat="45.84979" lon="2.93023">
        <ele>903</ele>
        <time>2021-05-30T06:02:41Z</time>
      </trkpt>
      <trkpt lat="45.84978" lon="2.93025">
        <ele>903</ele>
        <time>2021-05-30T06:02:42Z</time>
      </trkpt>
      <trkpt lat="45.84977" lon="2.93027">
        <ele>903</ele>
        <time>2021-05-30T06:02:43Z</time>
      </trkpt>
      <trkpt lat="45.84976" lon="2.93028">
        <ele>903</ele>
        <time>2021-05-30T06:02:44Z</time>
      </trkpt>
      <trkpt lat="45.84976" lon="2.9303">
        <ele>903</ele>
        <time>2021-05-30T06:02:45Z</time>
      </trkpt>
      <trkpt lat="45.84975" lon="2.93032">
        <ele>903</ele>
        <time>2021-05-30T06:02:46Z</time>
      </trkpt>
      <trkpt lat="45.84974" lon="2.93034">
        <ele>903</ele>
        <time>2021-05-30T06:02:47Z</time>
      </trkpt>
      <trkpt lat="45.84974" lon="2.93036">
        <ele>903</ele>
        <time>2021-05-30T06:02:48Z</time>
      </trkpt>
      <trkpt lat="45.84973" lon="2.93038">
        <ele>903</ele>
        <time>2021-05-30T06:02:49Z</time>
      </trkpt>
      <trkpt lat="45.84973" lon="2.93041">
        <ele>903</ele>
        <time>2021-05-30T06:02:50Z</time>
      </trkpt>
      <trkpt lat="45.84972" lon="2.93043">
        <ele>903</ele>
        <time>2021-05-30T06:02:51Z</time>
      </trkpt>
      <trkpt lat="45.84971" lon="2.93045">
        <ele>903</ele>
        <time>2021-05-30T06:02:52Z</time>
      </trkpt>
      <trkpt lat="45.8497" lon="2.93047">
        <ele>903</ele>
        <time>2021-05-30T06:02:53Z</time>
      </trkpt>
      <trkpt lat="45.84969" lon="2.9305">
        <ele>903</ele>
        <time>2021-05-30T06:02:54Z</time>
      </trkpt>
      <trkpt lat="45.84969" lon="2.93052">
        <ele>903</ele>
        <time>2021-05-30T06:02:55Z</time>
      </trkpt>
      <trkpt lat="45.84968" lon="2.93054">
        <ele>903</ele>
        <time>2021-05-30T06:02:56Z</time>
      </trkpt>
      <trkpt lat="45.84967" lon="2.93056">
        <ele>903</ele>
        <time>2021-05-30T06:02:57Z</time>
      </trkpt>
      <trkpt lat="45.84967" lon="2.93058">
        <ele>903</ele>
        <time>2021-05-30T06:02:58Z</time>
      </trkpt>
      <trkpt lat="45.84966" lon="2.9306">
        <ele>903</ele>
        <time>2021-05-30T06:02:59Z</time>
      </trkpt>
      <trkpt lat="45.84965" lon="2.93062">
        <ele>903</ele>
        <time>2021-05-30T06:03:00Z</time>
      </trkpt>
      <trkpt lat="45.84965" lon="2.93065">
        <ele>903</ele>
        <time>2021-05-30T06:03:01Z</time>
      </trkpt>
      <trkpt lat="45.84964" lon="2.93066">
        <ele>903</ele>
        <time>2021-05-30T06:03:02Z</time>
      </trkpt>
      <trkpt lat="45.84963" lon="2.93068">
        <ele>903</ele>
        <time>2021-05-30T06:03:03Z</time>
      </trkpt>
      <trkpt lat="45.84962" lon="2.9307">
        <ele>903</ele>
        <time>2021-05-30T06:03:04Z</time>
      </trkpt>
      <trkpt lat="45.84961" lon="2.93072">
        <ele>903</ele>
        <time>2021-05-30T06:03:05Z</time>
      </trkpt>
      <trkpt lat="45.8496" lon="2.93073">
        <ele>903</ele>
        <time>2021-05-30T06:03:06Z</time>
      </trkpt>
      <trkpt lat="45.84959" lon="2.93075">
        <ele>903</ele>
        <time>2021-05-30T06:03:07Z</time>
      </trkpt>
      <trkpt lat="45.84959" lon="2.93077">
        <ele>903</ele>
        <time>2021-05-30T06:03:08Z</time>
      </trkpt>
      <trkpt lat="45.84958" lon="2.93079">
        <ele>903</ele>
        <time>2021-05-30T06:03:09Z</time>
      </trkpt>
      <trkpt lat="45.84956" lon="2.9308">
        <ele>903</ele>
        <time>2021-05-30T06:03:10Z</time>
      </trkpt>
      <trkpt lat="45.84956" lon="2.93082">
        <ele>903</ele>
        <time>2021-05-30T06:03:11Z</time>
      </trkpt>
      <trkpt lat="45.84955" lon="2.93083">
        <ele>903</ele>
        <time>2021-05-30T06:03:12Z</time>
      </trkpt>
      <trkpt lat="45.84955" lon="2.93085">
        <ele>903</ele>
        <time>2021-05-30T06:03:13Z</time>
      </trkpt>
      <trkpt lat="45.84954" lon="2.93086">
        <ele>903</ele>
        <time>2021-05-30T06:03:14Z</time>
      </trkpt>
      <trkpt lat="45.84953" lon="2.93087">
        <ele>903</ele>
        <time>2021-05-30T06:03:15Z</time>
      </trkpt>
      <trkpt lat="45.84953" lon="2.93089">
        <ele>903</ele>
        <time>2021-05-30T06:03:16Z</time>
      </trkpt>
      <trkpt lat="45.84952" lon="2.9309">
        <ele>903</ele>
        <time>2021-05-30T06:03:17Z</time>
      </trkpt>
      <trkpt lat="45.84952" lon="2.93091">
        <ele>903</ele>
        <time>2021-05-30T06:03:18Z</time>
      </trkpt>
      <trkpt lat="45.84951" lon="2.93093">
        <ele>903</ele>
        <time>2021-05-30T06:03:19Z</time>
      </trkpt>
      <trkpt lat="45.84951" lon="2.93094">
        <ele>903</ele>
        <time>2021-05-30T06:03:20Z</time>
      </trkpt>
      <trkpt lat="45.8495" lon="2.93096">
        <ele>903</ele>
        <time>2021-05-30T06:03:21Z</time>
      </trkpt>
      <trkpt lat="45.8495" lon="2.93097">
        <ele>903</ele>
        <time>2021-05-30T06:03:22Z</time>
      </trkpt>
      <trkpt lat="45.84949" lon="2.93099">
        <ele>903</ele>
        <time>2021-05-30T06:03:23Z</time>
      </trkpt>
      <trkpt lat="45.84948" lon="2.931">
        <ele>903</ele>
        <time>2021-05-30T06:03:24Z</time>
      </trkpt>
      <trkpt lat="45.84947" lon="2.93102">
        <ele>903</ele>
        <time>2021-05-30T06:03:25Z</time>
      </trkpt>
      <trkpt lat="45.84947" lon="2.93104">
        <ele>903</ele>
        <time>2021-05-30T06:03:26Z</time>
      </trkpt>
      <trkpt lat="45.84946" lon="2.93107">
        <ele>903</ele>
        <time>2021-05-30T06:03:27Z</time>
      </trkpt>
      <trkpt lat="45.84945" lon="2.93109">
        <ele>903</ele>
        <time>2021-05-30T06:03:28Z</time>
      </trkpt>
      <trkpt lat="45.84944" lon="2.93111">
        <ele>903</ele>
        <time>2021-05-30T06:03:29Z</time>
      </trkpt>
      <trkpt lat="45.84943" lon="2.93113">
        <ele>903</ele>
        <time>2021-05-30T06:03:30Z</time>
      </trkpt>
      <trkpt lat="45.84943" lon="2.93115">
        <ele>903</ele>
        <time>2021-05-30T06:03:31Z</time>
      </trkpt>
      <trkpt lat="45.84942" lon="2.93117">
        <ele>903</ele>
        <time>2021-05-30T06:03:32Z</time>
      </trkpt>
      <trkpt lat="45.84941" lon="2.93119">
        <ele>903</ele>
        <time>2021-05-30T06:03:33Z</time>
      </trkpt>
      <trkpt lat="45.8494" lon="2.93121">
        <ele>903</ele>
        <time>2021-05-30T06:03:34Z</time>
      </trkpt>
      <trkpt lat="45.8494" lon="2.93123">
        <ele>903</ele>
        <time>2021-05-30T06:03:35Z</time>
      </trkpt>
      <trkpt lat="45.84939" lon="2.93125">
        <ele>903</ele>
        <time>2021-05-30T06:03:36Z</time>
      </trkpt>
      <trkpt lat="45.84938" lon="2.93127">
        <ele>903</ele>
        <time>2021-05-30T06:03:37Z</time>
      </trkpt>
      <trkpt lat="45.84937" lon="2.93129">
        <ele>903</ele>
        <time>2021-05-30T06:03:38Z</time>
      </trkpt>
      <trkpt lat="45.84937" lon="2.93131">
        <ele>903</ele>
        <time>2021-05-30T06:03:39Z</time>
      </trkpt>
      <trkpt lat="45.84936" lon="2.93133">
        <ele>903</ele>
        <time>2021-05-30T06:03:40Z</time>
      </trkpt>
      <trkpt lat="45.84935" lon="2.93135">
        <ele>903</ele>
        <time>2021-05-30T06:03:41Z</time>
      </trkpt>
      <trkpt lat="45.84934" lon="2.93137">
        <ele>903</ele>
        <time>2021-05-30T06:03:42Z</time>
      </trkpt>
      <trkpt lat="45.84934" lon="2.93139">
        <ele>903</ele>
        <time>2021-05-30T06:03:43Z</time>
      </trkpt>
      <trkpt lat="45.84933" lon="2.93141">
        <ele>903</ele>
        <time>2021-05-30T06:03:44Z</time>
      </trkpt>
      <trkpt lat="45.84932" lon="2.93142">
        <ele>903</ele>
        <time>2021-05-30T06:03:45Z</time>
      </trkpt>
      <trkpt lat="45.84931" lon="2.93144">
        <ele>903</ele>
        <time>2021-05-30T06:03:46Z</time>
      </trkpt>
      <trkpt lat="45.8493" lon="2.93146">
        <ele>903</ele>
        <time>2021-05-30T06:03:47Z</time>
      </trkpt>
      <trkpt lat="45.8493" lon="2.93148">
        <ele>903</ele>
        <time>2021-05-30T06:03:48Z</time>
      </trkpt>
      <trkpt lat="45.84929" lon="2.9315">
        <ele>903</ele>
        <time>2021-05-30T06:03:49Z</time>
      </trkpt>
      <trkpt lat="45.84929" lon="2.93152">
        <ele>903</ele>
        <time>2021-05-30T06:03:50Z</time>
      </trkpt>
      <trkpt lat="45.84928" lon="2.93154">
        <ele>903</ele>
        <time>2021-05-30T06:03:51Z</time>
      </trkpt>
      <trkpt lat="45.84927" lon="2.93156">
        <ele>903</ele>
        <time>2021-05-30T06:03:52Z</time>
      </trkpt>
      <trkpt lat="45.84927" lon="2.93158">
        <ele>903</ele>
        <time>2021-05-30T06:03:53Z</time>
      </trkpt>
      <trkpt lat="45.84926" lon="2.9316">
        <ele>903</ele>
        <time>2021-05-30T06:03:54Z</time>
      </trkpt>
      <trkpt lat="45.84926" lon="2.93161">
        <ele>903</ele>
        <time>2021-05-30T06:03:55Z</time>
      </trkpt>
      <trkpt lat="45.84925" lon="2.93163">
        <ele>903</ele>
        <time>2021-05-30T06:03:56Z</time>
      </trkpt>
      <trkpt lat="45.84924" lon="2.93165">
        <ele>903</ele>
        <time>2021-05-30T06:03:57Z</time>
      </trkpt>
      <trkpt lat="45.84924" lon="2.93167">
        <ele>903</ele>
        <time>2021-05-30T06:03:58Z</time>
      </trkpt>
      <trkpt lat="45.84923" lon="2.93168">
        <ele>903</ele>
        <time>2021-05-30T06:03:59Z</time>
      </trkpt>
      <trkpt lat="45.84923" lon="2.9317">
        <ele>903</ele>
        <time>2021-05-30T06:04:00Z</time>
      </trkpt>
      <trkpt lat="45.84922" lon="2.93172">
        <ele>903</ele>
        <time>2021-05-30T06:04:01Z</time>
      </trkpt>
      <trkpt lat="45.84921" lon="2.93174">
        <ele>903</ele>
        <time>2021-05-30T06:04:02Z</time>
      </trkpt>
      <trkpt lat="45.8492" lon="2.93175">
        <ele>903</ele>
        <time>2021-05-30T06:04:02Z</time>
      </trkpt>
      <trkpt lat="45.8492" lon="2.93177">
        <ele>903</ele>
        <time>2021-05-30T06:04:03Z</time>
      </trkpt>
      <trkpt lat="45.84919" lon="2.93179">
        <ele>903</ele>
        <time>2021-05-30T06:04:04Z</time>
      </trkpt>
      <trkpt lat="45.84918" lon="2.93181">
        <ele>903</ele>
        <time>2021-05-30T06:04:05Z</time>
      </trkpt>
      <trkpt lat="45.84917" lon="2.93183">
        <ele>903</ele>
        <time>2021-05-30T06:04:06Z</time>
      </trkpt>
      <trkpt lat="45.84916" lon="2.93184">
        <ele>903</ele>
        <time>2021-05-30T06:04:07Z</time>
      </trkpt>
      <trkpt lat="45.84916" lon="2.93186">
        <ele>903</ele>
        <time>2021-05-30T06:04:08Z</time>
      </trkpt>
      <trkpt lat="45.84916" lon="2.93188">
        <ele>903</ele>
        <time>2021-05-30T06:04:09Z</time>
      </trkpt>
      <trkpt lat="45.84915" lon="2.9319">
        <ele>903</ele>
        <time>2021-05-30T06:04:10Z</time>
      </trkpt>
      <trkpt lat="45.84914" lon="2.93191">
        <ele>903</ele>
        <time>2021-05-30T06:04:11Z</time>
      </trkpt>
      <trkpt lat="45.84914" lon="2.93193">
        <ele>903</ele>
        <time>2021-05-30T06:04:12Z</time>
      </trkpt>
      <trkpt lat="45.84913" lon="2.93194">
        <ele>903</ele>
        <time>2021-05-30T06:04:13Z</time>
      </trkpt>
      <trkpt lat="45.84913" lon="2.93196">
        <ele>903</ele>
        <time>2021-05-30T06:04:14Z</time>
      </trkpt>
      <trkpt lat="45.84912" lon="2.93198">
        <ele>903</ele>
        <time>2021-05-30T06:04:15Z</time>
      </trkpt>
      <trkpt lat="45.84911" lon="2.93199">
        <ele>903</ele>
        <time>2021-05-30T06:04:16Z</time>
      </trkpt>
      <trkpt lat="45.84911" lon="2.93201">
        <ele>903</ele>
        <time>2021-05-30T06:04:17Z</time>
      </trkpt>
      <trkpt lat="45.8491" lon="2.93203">
        <ele>903</ele>
        <time>2021-05-30T06:04:18Z</time>
      </trkpt>
      <trkpt lat="45.84909" lon="2.93204">
        <ele>903</ele>
        <time>2021-05-30T06:04:19Z</time>
      </trkpt>
      <trkpt lat="45.84908" lon="2.93206">
        <ele>903</ele>
        <time>2021-05-30T06:04:20Z</time>
      </trkpt>
      <trkpt lat="45.84908" lon="2.93208">
        <ele>903</ele>
        <time>2021-05-30T06:04:21Z</time>
      </trkpt>
      <trkpt lat="45.84907" lon="2.9321">
        <ele>903</ele>
        <time>2021-05-30T06:04:22Z</time>
      </trkpt>
      <trkpt lat="45.84906" lon="2.93212">
        <ele>903</ele>
        <time>2021-05-30T06:04:23Z</time>
      </trkpt>
      <trkpt lat="45.84906" lon="2.93214">
        <ele>903</ele>
        <time>2021-05-30T06:04:24Z</time>
      </trkpt>
      <trkpt lat="45.84905" lon="2.93216">
        <ele>903</ele>
        <time>2021-05-30T06:04:25Z</time>
      </trkpt>
      <trkpt lat="45.84905" lon="2.93218">
        <ele>903</ele>
        <time>2021-05-30T06:04:26Z</time>
      </trkpt>
      <trkpt lat="45.84904" lon="2.9322">
        <ele>903</ele>
        <time>2021-05-30T06:04:27Z</time>
      </trkpt>
      <trkpt lat="45.84904" lon="2.93222">
        <ele>903</ele>
        <time>2021-05-30T06:04:28Z</time>
      </trkpt>
      <trkpt lat="45.84903" lon="2.93224">
        <ele>903</ele>
        <time>2021-05-30T06:04:29Z</time>
      </trkpt>
      <trkpt lat="45.84902" lon="2.93226">
        <ele>903</ele>
        <time>2021-05-30T06:04:30Z</time>
      </trkpt>
      <trkpt lat="45.84902" lon="2.93228">
        <ele>903</ele>
        <time>2021-05-30T06:04:31Z</time>
      </trkpt>
      <trkpt lat="45.84901" lon="2.9323">
        <ele>903</ele>
        <time>2021-05-30T06:04:32Z</time>
      </trkpt>
      <trkpt lat="45.849" lon="2.93232">
        <ele>903</ele>
        <time>2021-05-30T06:04:33Z</time>
      </trkpt>
      <trkpt lat="45.84899" lon="2.93234">
        <ele>903</ele>
        <time>2021-05-30T06:04:34Z</time>
      </trkpt>
      <trkpt lat="45.84898" lon="2.93236">
        <ele>903</ele>
        <time>2021-05-30T06:04:35Z</time>
      </trkpt>
      <trkpt lat="45.84898" lon="2.93238">
        <ele>903</ele>
        <time>2021-05-30T06:04:36Z</time>
      </trkpt>
      <trkpt lat="45.84897" lon="2.9324">
        <ele>903</ele>
        <time>2021-05-30T06:04:37Z</time>
      </trkpt>
      <trkpt lat="45.84897" lon="2.93242">
        <ele>903</ele>
        <time>2021-05-30T06:04:38Z</time>
      </trkpt>
      <trkpt lat="45.84896" lon="2.93243">
        <ele>903</ele>
        <time>2021-05-30T06:04:39Z</time>
      </trkpt>
      <trkpt lat="45.84895" lon="2.93245">
        <ele>903</ele>
        <time>2021-05-30T06:04:40Z</time>
      </trkpt>
      <trkpt lat="45.84895" lon="2.93247">
        <ele>903</ele>
        <time>2021-05-30T06:04:41Z</time>
      </trkpt>
      <trkpt lat="45.84893" lon="2.93249">
        <ele>903</ele>
        <time>2021-05-30T06:04:42Z</time>
      </trkpt>
      <trkpt lat="45.84892" lon="2.93251">
        <ele>903</ele>
        <time>2021-05-30T06:04:43Z</time>
      </trkpt>
      <trkpt lat="45.84892" lon="2.93253">
        <ele>903</ele>
        <time>2021-05-30T06:04:44Z</time>
      </trkpt>
      <trkpt lat="45.84891" lon="2.93255">
        <ele>903</ele>
        <time>2021-05-30T06:04:45Z</time>
      </trkpt>
      <trkpt lat="45.8489" lon="2.93257">
        <ele>903</ele>
        <time>2021-05-30T06:04:46Z</time>
      </trkpt>
      <trkpt lat="45.84889" lon="2.93259">
        <ele>903</ele>
        <time>2021-05-30T06:04:47Z</time>
      </trkpt>
      <trkpt lat="45.84888" lon="2.93261">
        <ele>903</ele>
        <time>2021-05-30T06:04:48Z</time>
      </trkpt>
      <trkpt lat="45.84887" lon="2.93263">
        <ele>903</ele>
        <time>2021-05-30T06:04:49Z</time>
      </trkpt>
      <trkpt lat="45.84886" lon="2.93264">
        <ele>903</ele>
        <time>2021-05-30T06:04:50Z</time>
      </trkpt>
      <trkpt lat="45.84885" lon="2.93266">
        <ele>903</ele>
        <time>2021-05-30T06:04:51Z</time>
      </trkpt>
      <trkpt lat="45.84885" lon="2.93267">
        <ele>903</ele>
        <time>2021-05-30T06:04:52Z</time>
      </trkpt>
      <trkpt lat="45.84884" lon="2.93269">
        <ele>903</ele>
        <time>2021-05-30T06:04:53Z</time>
      </trkpt>
      <trkpt lat="45.84884" lon="2.9327">
        <ele>903</ele>
        <time>2021-05-30T06:04:54Z</time>
      </trkpt>
      <trkpt lat="45.84883" lon="2.93271">
        <ele>903</ele>
        <time>2021-05-30T06:04:55Z</time>
      </trkpt>
      <trkpt lat="45.84883" lon="2.93273">
        <ele>903</ele>
        <time>2021-05-30T06:04:56Z</time>
      </trkpt>
      <trkpt lat="45.84882" lon="2.93274">
        <ele>903</ele>
        <time>2021-05-30T06:04:57Z</time>
      </trkpt>
      <trkpt lat="45.84882" lon="2.93276">
        <ele>903</ele>
        <time>2021-05-30T06:04:58Z</time>
      </trkpt>
      <trkpt lat="45.84881" lon="2.93278">
        <ele>903</ele>
        <time>2021-05-30T06:04:59Z</time>
      </trkpt>
      <trkpt lat="45.84881" lon="2.93279">
        <ele>903</ele>
        <time>2021-05-30T06:05:00Z</time>
      </trkpt>
      <trkpt lat="45.84881" lon="2.9328">
        <ele>903</ele>
        <time>2021-05-30T06:05:01Z</time>
      </trkpt>
      <trkpt lat="45.8488" lon="2.93282">
        <ele>903</ele>
        <time>2021-05-30T06:05:02Z</time>
      </trkpt>
      <trkpt lat="45.8488" lon="2.93283">
        <ele>903</ele>
        <time>2021-05-30T06:05:03Z</time>
      </trkpt>
      <trkpt lat="45.84879" lon="2.93284">
        <ele>903</ele>
        <time>2021-05-30T06:05:04Z</time>
      </trkpt>
      <trkpt lat="45.84879" lon="2.93286">
        <ele>903</ele>
        <time>2021-05-30T06:05:05Z</time>
      </trkpt>
      <trkpt lat="45.84878" lon="2.93287">
        <ele>903</ele>
        <time>2021-05-30T06:05:06Z</time>
      </trkpt>
      <trkpt lat="45.84878" lon="2.93289">
        <ele>903</ele>
        <time>2021-05-30T06:05:07Z</time>
      </trkpt>
      <trkpt lat="45.84878" lon="2.9329">
        <ele>903</ele>
        <time>2021-05-30T06:05:08Z</time>
      </trkpt>
      <trkpt lat="45.84877" lon="2.93292">
        <ele>903</ele>
        <time>2021-05-30T06:05:09Z</time>
      </trkpt>
      <trkpt lat="45.84877" lon="2.93294">
        <ele>903</ele>
        <time>2021-05-30T06:05:10Z</time>
      </trkpt>
      <trkpt lat="45.84877" lon="2.93295">
        <ele>903</ele>
        <time>2021-05-30T06:05:11Z</time>
      </trkpt>
      <trkpt lat="45.84877" lon="2.93297">
        <ele>903</ele>
        <time>2021-05-30T06:05:12Z</time>
      </trkpt>
      <trkpt lat="45.84877" lon="2.93298">
        <ele>903</ele>
        <time>2021-05-30T06:05:13Z</time>
      </trkpt>
      <trkpt lat="45.84877" lon="2.933">
        <ele>903</ele>
        <time>2021-05-30T06:05:14Z</time>
      </trkpt>
      <trkpt lat="45.84877" lon="2.93302">
        <ele>903</ele>
        <time>2021-05-30T06:05:15Z</time>
      </trkpt>
      <trkpt lat="45.84877" lon="2.93304">
        <ele>903</ele>
        <time>2021-05-30T06:05:16Z</time>
      </trkpt>
      <trkpt lat="45.84877" lon="2.93306">
        <ele>903</ele>
        <time>2021-05-30T06:05:17Z</time>
      </trkpt>
      <trkpt lat="45.84877" lon="2.93308">
        <ele>903</ele>
        <time>2021-05-30T06:05:18Z</time>
      </trkpt>
      <trkpt lat="45.84877" lon="2.93311">
        <ele>903</ele>
        <time>2021-05-30T06:05:19Z</time>
      </trkpt>
      <trkpt lat="45.84877" lon="2.93313">
        <ele>903</ele>
        <time>2021-05-30T06:05:20Z</time>
      </trkpt>
      <trkpt lat="45.84876" lon="2.93315">
        <ele>903</ele>
        <time>2021-05-30T06:05:21Z</time>
      </trkpt>
      <trkpt lat="45.84876" lon="2.93318">
        <ele>903</ele>
        <time>2021-05-30T06:05:22Z</time>
      </trkpt>
      <trkpt lat="45.84875" lon="2.9332">
        <ele>903</ele>
        <time>2021-05-30T06:05:23Z</time>
      </trkpt>
      <trkpt lat="45.84874" lon="2.93323">
        <ele>903</ele>
        <time>2021-05-30T06:05:24Z</time>
      </trkpt>
      <trkpt lat="45.84874" lon="2.93325">
        <ele>903</ele>
        <time>2021-05-30T06:05:25Z</time>
      </trkpt>
      <trkpt lat="45.84874" lon="2.93328">
        <ele>903</ele>
        <time>2021-05-30T06:05:26Z</time>
      </trkpt>
      <trkpt lat="45.84873" lon="2.9333">
        <ele>903</ele>
        <time>2021-05-30T06:05:27Z</time>
      </trkpt>
      <trkpt lat="45.84872" lon="2.93333">
        <ele>903</ele>
        <time>2021-05-30T06:05:28Z</time>
      </trkpt>
      <trkpt lat="45.84872" lon="2.93335">
        <ele>903</ele>
        <time>2021-05-30T06:05:29Z</time>
      </trkpt>
      <trkpt lat="45.84871" lon="2.93336">
        <ele>903</ele>
        <time>2021-05-30T06:05:30Z</time>
      </trkpt>
      <trkpt lat="45.84871" lon="2.93338">
        <ele>903</ele>
        <time>2021-05-30T06:05:31Z</time>
      </trkpt>
      <trkpt lat="45.84871" lon="2.9334">
        <ele>903</ele>
        <time>2021-05-30T06:05:32Z</time>
      </trkpt>
      <trkpt lat="45.84871" lon="2.93342">
        <ele>903</ele>
        <time>2021-05-30T06:05:33Z</time>
      </trkpt>
      <trkpt lat="45.84871" lon="2.93344">
        <ele>903</ele>
        <time>2021-05-30T06:05:34Z</time>
      </trkpt>
      <trkpt lat="45.84871" lon="2.93346">
        <ele>903</ele>
        <time>2021-05-30T06:05:35Z</time>
      </trkpt>
      <trkpt lat="45.8487" lon="2.93348">
        <ele>903</ele>
        <time>2021-05-30T06:05:36Z</time>
      </trkpt>
      <trkpt lat="45.8487" lon="2.9335">
        <ele>903</ele>
        <time>2021-05-30T06:05:37Z</time>
      </trkpt>
      <trkpt lat="45.84869" lon="2.93352">
        <ele>903</ele>
        <time>2021-05-30T06:05:38Z</time>
      </trkpt>
      <trkpt lat="45.84869" lon="2.93354">
        <ele>903</ele>
        <time>2021-05-30T06:05:39Z</time>
      </trkpt>
      <trkpt lat="45.84868" lon="2.93357">
        <ele>903</ele>
        <time>2021-05-30T06:05:40Z</time>
      </trkpt>
      <trkpt lat="45.84868" lon="2.93359">
        <ele>903</ele>
        <time>2021-05-30T06:05:41Z</time>
      </trkpt>
      <trkpt lat="45.84868" lon="2.93362">
        <ele>903</ele>
        <time>2021-05-30T06:05:42Z</time>
      </trkpt>
      <trkpt lat="45.84867" lon="2.93364">
        <ele>903</ele>
        <time>2021-05-30T06:05:43Z</time>
      </trkpt>
      <trkpt lat="45.84867" lon="2.93366">
        <ele>903</ele>
        <time>2021-05-30T06:05:44Z</time>
      </trkpt>
      <trkpt lat="45.84866" lon="2.93368">
        <ele>903</ele>
        <time>2021-05-30T06:05:45Z</time>
      </trkpt>
      <trkpt lat="45.84866" lon="2.93369">
        <ele>903</ele>
        <time>2021-05-30T06:05:46Z</time>
      </trkpt>
      <trkpt lat="45.84866" lon="2.9337">
        <ele>903</ele>
        <time>2021-05-30T06:05:47Z</time>
      </trkpt>
      <trkpt lat="45.84865" lon="2.93372">
        <ele>903</ele>
        <time>2021-05-30T06:05:48Z</time>
      </trkpt>
      <trkpt lat="45.84864" lon="2.93373">
        <ele>903</ele>
        <time>2021-05-30T06:05:49Z</time>
      </trkpt>
      <trkpt lat="45.84863" lon="2.93375">
        <ele>903</ele>
        <time>2021-05-30T06:05:50Z</time>
      </trkpt>
      <trkpt lat="45.84862" lon="2.93376">
        <ele>903</ele>
        <time>2021-05-30T06:05:51Z</time>
      </trkpt>
      <trkpt lat="45.84861" lon="2.93377">
        <ele>903</ele>
        <time>2021-05-30T06:05:52Z</time>
      </trkpt>
      <trkpt lat="45.84861" lon="2.93378">
        <ele>903</ele>
        <time>2021-05-30T06:05:53Z</time>
      </trkpt>
      <trkpt lat="45.8486" lon="2.9338">
        <ele>903</ele>
        <time>2021-05-30T06:05:54Z</time>
      </trkpt>
      <trkpt lat="45.84859" lon="2.93381">
        <ele>903</ele>
        <time>2021-05-30T06:05:55Z</time>
      </trkpt>
      <trkpt lat="45.84858" lon="2.93383">
        <ele>903</ele>
        <time>2021-05-30T06:05:56Z</time>
      </trkpt>
      <trkpt lat="45.84857" lon="2.93385">
        <ele>903</ele>
        <time>2021-05-30T06:05:57Z</time>
      </trkpt>
      <trkpt lat="45.84856" lon="2.93387">
        <ele>903</ele>
        <time>2021-05-30T06:05:58Z</time>
      </trkpt>
      <trkpt lat="45.84856" lon="2.93388">
        <ele>903</ele>
        <time>2021-05-30T06:05:59Z</time>
      </trkpt>
      <trkpt lat="45.84856" lon="2.9339">
        <ele>903</ele>
        <time>2021-05-30T06:06:00Z</time>
      </trkpt>
      <trkpt lat="45.84855" lon="2.93392">
        <ele>903</ele>
        <time>2021-05-30T06:06:01Z</time>
      </trkpt>
      <trkpt lat="45.84854" lon="2.93394">
        <ele>903</ele>
        <time>2021-05-30T06:06:02Z</time>
      </trkpt>
      <trkpt lat="45.84853" lon="2.93396">
        <ele>903</ele>
        <time>2021-05-30T06:06:03Z</time>
      </trkpt>
      <trkpt lat="45.84852" lon="2.93398">
        <ele>903</ele>
        <time>2021-05-30T06:06:04Z</time>
      </trkpt>
      <trkpt lat="45.84851" lon="2.93399">
        <ele>903</ele>
        <time>2021-05-30T06:06:05Z</time>
      </trkpt>
      <trkpt lat="45.8485" lon="2.93401">
        <ele>903</ele>
        <time>2021-05-30T06:06:06Z</time>
      </trkpt>
      <trkpt lat="45.8485" lon="2.93403">
        <ele>903</ele>
        <time>2021-05-30T06:06:07Z</time>
      </trkpt>
      <trkpt lat="45.84848" lon="2.93405">
        <ele>903</ele>
        <time>2021-05-30T06:06:08Z</time>
      </trkpt>
      <trkpt lat="45.84847" lon="2.93406">
        <ele>903</ele>
        <time>2021-05-30T06:06:09Z</time>
      </trkpt>
      <trkpt lat="45.84847" lon="2.93408">
        <ele>903</ele>
        <time>2021-05-30T06:06:10Z</time>
      </trkpt>
      <trkpt lat="45.84846" lon="2.93409">
        <ele>903</ele>
        <time>2021-05-30T06:06:11Z</time>
      </trkpt>
      <trkpt lat="45.84845" lon="2.9341">
        <ele>903</ele>
        <time>2021-05-30T06:06:12Z</time>
      </trkpt>
      <trkpt lat="45.84845" lon="2.93412">
        <ele>903</ele>
        <time>2021-05-30T06:06:13Z</time>
      </trkpt>
      <trkpt lat="45.84844" lon="2.93413">
        <ele>903</ele>
        <time>2021-05-30T06:06:14Z</time>
      </trkpt>
      <trkpt lat="45.84843" lon="2.93415">
        <ele>903</ele>
        <time>2021-05-30T06:06:15Z</time>
      </trkpt>
      <trkpt lat="45.84843" lon="2.93417">
        <ele>903</ele>
        <time>2021-05-30T06:06:16Z</time>
      </trkpt>
      <trkpt lat="45.84842" lon="2.93419">
        <ele>903</ele>
        <time>2021-05-30T06:06:17Z</time>
      </trkpt>
      <trkpt lat="45.84841" lon="2.93421">
        <ele>903</ele>
        <time>2021-05-30T06:06:18Z</time>
      </trkpt>
      <trkpt lat="45.84841" lon="2.93423">
        <ele>903</ele>
        <time>2021-05-30T06:06:19Z</time>
      </trkpt>
      <trkpt lat="45.8484" lon="2.93425">
        <ele>903</ele>
        <time>2021-05-30T06:06:20Z</time>
      </trkpt>
      <trkpt lat="45.84839" lon="2.93427">
        <ele>903</ele>
        <time>2021-05-30T06:06:21Z</time>
      </trkpt>
      <trkpt lat="45.84839" lon="2.93429">
        <ele>903</ele>
        <time>2021-05-30T06:06:22Z</time>
      </trkpt>
      <trkpt lat="45.84838" lon="2.93431">
        <ele>903</ele>
        <time>2021-05-30T06:06:23Z</time>
      </trkpt>
      <trkpt lat="45.84838" lon="2.93433">
        <ele>903</ele>
        <time>2021-05-30T06:06:24Z</time>
      </trkpt>
      <trkpt lat="45.84837" lon="2.93434">
        <ele>903</ele>
        <time>2021-05-30T06:06:25Z</time>
      </trkpt>
      <trkpt lat="45.84836" lon="2.93435">
        <ele>903</ele>
        <time>2021-05-30T06:06:26Z</time>
      </trkpt>
      <trkpt lat="45.84835" lon="2.93437">
        <ele>903</ele>
        <time>2021-05-30T06:06:27Z</time>
      </trkpt>
      <trkpt lat="45.84835" lon="2.93438">
        <ele>903</ele>
        <time>2021-05-30T06:06:28Z</time>
      </trkpt>
      <trkpt lat="45.84834" lon="2.93439">
        <ele>903</ele>
        <time>2021-05-30T06:06:29Z</time>
      </trkpt>
      <trkpt lat="45.84833" lon="2.9344">
        <ele>903</ele>
        <time>2021-05-30T06:06:30Z</time>
      </trkpt>
      <trkpt lat="45.84832" lon="2.93441">
        <ele>903</ele>
        <time>2021-05-30T06:06:31Z</time>
      </trkpt>
      <trkpt lat="45.84832" lon="2.93442">
        <ele>903</ele>
        <time>2021-05-30T06:06:32Z</time>
      </trkpt>
      <trkpt lat="45.84831" lon="2.93443">
        <ele>903</ele>
        <time>2021-05-30T06:06:33Z</time>
      </trkpt>
      <trkpt lat="45.84831" lon="2.93444">
        <ele>903</ele>
        <time>2021-05-30T06:06:34Z</time>
      </trkpt>
      <trkpt lat="45.84829" lon="2.93445">
        <ele>903</ele>
        <time>2021-05-30T06:06:35Z</time>
      </trkpt>
      <trkpt lat="45.84829" lon="2.93446">
        <ele>903</ele>
        <time>2021-05-30T06:06:36Z</time>
      </trkpt>
      <trkpt lat="45.84828" lon="2.93447">
        <ele>903</ele>
        <time>2021-05-30T06:06:37Z</time>
      </trkpt>
      <trkpt lat="45.84827" lon="2.93448">
        <ele>903</ele>
        <time>2021-05-30T06:06:38Z</time>
      </trkpt>
      <trkpt lat="45.84826" lon="2.9345">
        <ele>903</ele>
        <time>2021-05-30T06:06:39Z</time>
      </trkpt>
      <trkpt lat="45.84826" lon="2.93451">
        <ele>903</ele>
        <time>2021-05-30T06:06:40Z</time>
      </trkpt>
      <trkpt lat="45.84825" lon="2.93453">
        <ele>903</ele>
        <time>2021-05-30T06:06:41Z</time>
      </trkpt>
      <trkpt lat="45.84824" lon="2.93454">
        <ele>903</ele>
        <time>2021-05-30T06:06:42Z</time>
      </trkpt>
      <trkpt lat="45.84823" lon="2.93455">
        <ele>903</ele>
        <time>2021-05-30T06:06:43Z</time>
      </trkpt>
      <trkpt lat="45.84823" lon="2.93456">
        <ele>903</ele>
        <time>2021-05-30T06:06:44Z</time>
      </trkpt>
      <trkpt lat="45.84822" lon="2.93457">
        <ele>903</ele>
        <time>2021-05-30T06:06:45Z</time>
      </trkpt>
      <trkpt lat="45.84822" lon="2.93458">
        <ele>903</ele>
        <time>2021-05-30T06:06:46Z</time>
      </trkpt>
      <trkpt lat="45.84821" lon="2.93459">
        <ele>903</ele>
        <time>2021-05-30T06:06:47Z</time>
      </trkpt>
      <trkpt lat="45.8482" lon="2.9346">
        <ele>903</ele>
        <time>2021-05-30T06:06:48Z</time>
      </trkpt>
      <trkpt lat="45.8482" lon="2.93461">
        <ele>903</ele>
        <time>2021-05-30T06:06:49Z</time>
      </trkpt>
      <trkpt lat="45.84819" lon="2.93462">
        <ele>903</ele>
        <time>2021-05-30T06:06:50Z</time>
      </trkpt>
      <trkpt lat="45.84818" lon="2.93463">
        <ele>903</ele>
        <time>2021-05-30T06:06:51Z</time>
      </trkpt>
      <trkpt lat="45.84817" lon="2.93464">
        <ele>903</ele>
        <time>2021-05-30T06:06:52Z</time>
      </trkpt>
      <trkpt lat="45.84816" lon="2.93465">
        <ele>903</ele>
        <time>2021-05-30T06:06:53Z</time>
      </trkpt>
      <trkpt lat="45.84816" lon="2.93466">
        <ele>903</ele>
        <time>2021-05-30T06:06:54Z</time>
      </trkpt>
      <trkpt lat="45.84815" lon="2.93467">
        <ele>903</ele>
        <time>2021-05-30T06:06:55Z</time>
      </trkpt>
      <trkpt lat="45.84814" lon="2.93469">
        <ele>903</ele>
        <time>2021-05-30T06:06:56Z</time>
      </trkpt>
      <trkpt lat="45.84814" lon="2.9347">
        <ele>903</ele>
        <time>2021-05-30T06:06:57Z</time>
      </trkpt>
      <trkpt lat="45.84813" lon="2.93471">
        <ele>903</ele>
        <time>2021-05-30T06:06:58Z</time>
      </trkpt>
      <trkpt lat="45.84812" lon="2.93472">
        <ele>903</ele>
        <time>2021-05-30T06:06:59Z</time>
      </trkpt>
      <trkpt lat="45.84811" lon="2.93473">
        <ele>903</ele>
        <time>2021-05-30T06:07:00Z</time>
      </trkpt>
      <trkpt lat="45.84811" lon="2.93474">
        <ele>903</ele>
        <time>2021-05-30T06:07:01Z</time>
      </trkpt>
      <trkpt lat="45.8481" lon="2.93476">
        <ele>903</ele>
        <time>2021-05-30T06:07:02Z</time>
      </trkpt>
      <trkpt lat="45.8481" lon="2.93477">
        <ele>903</ele>
        <time>2021-05-30T06:07:03Z</time>
      </trkpt>
      <trkpt lat="45.84808" lon="2.93478">
        <ele>903</ele>
        <time>2021-05-30T06:07:04Z</time>
      </trkpt>
      <trkpt lat="45.84808" lon="2.9348">
        <ele>903</ele>
        <time>2021-05-30T06:07:05Z</time>
      </trkpt>
      <trkpt lat="45.84807" lon="2.93481">
        <ele>903</ele>
        <time>2021-05-30T06:07:06Z</time>
      </trkpt>
      <trkpt lat="45.84806" lon="2.93483">
        <ele>903</ele>
        <time>2021-05-30T06:07:07Z</time>
      </trkpt>
      <trkpt lat="45.84805" lon="2.93485">
        <ele>903</ele>
        <time>2021-05-30T06:07:08Z</time>
      </trkpt>
      <trkpt lat="45.84805" lon="2.93486">
        <ele>903</ele>
        <time>2021-05-30T06:07:09Z</time>
      </trkpt>
      <trkpt lat="45.84805" lon="2.93488">
        <ele>903</ele>
        <time>2021-05-30T06:07:10Z</time>
      </trkpt>
      <trkpt lat="45.84805" lon="2.9349">
        <ele>903</ele>
        <time>2021-05-30T06:07:11Z</time>
      </trkpt>
      <trkpt lat="45.84803" lon="2.93491">
        <ele>903</ele>
        <time>2021-05-30T06:07:12Z</time>
      </trkpt>
      <trkpt lat="45.84803" lon="2.93492">
        <ele>903</ele>
        <time>2021-05-30T06:07:13Z</time>
      </trkpt>
      <trkpt lat="45.84802" lon="2.93494">
        <ele>903</ele>
        <time>2021-05-30T06:07:14Z</time>
      </trkpt>
      <trkpt lat="45.84801" lon="2.93494">
        <ele>903</ele>
        <time>2021-05-30T06:07:15Z</time>
      </trkpt>
      <trkpt lat="45.84801" lon="2.93495">
        <ele>903</ele>
        <time>2021-05-30T06:07:16Z</time>
      </trkpt>
      <trkpt lat="45.848" lon="2.93497">
        <ele>903</ele>
        <time>2021-05-30T06:07:17Z</time>
      </trkpt>
      <trkpt lat="45.848" lon="2.93498">
        <ele>903</ele>
        <time>2021-05-30T06:07:18Z</time>
      </trkpt>
      <trkpt lat="45.84799" lon="2.93499">
        <ele>903</ele>
        <time>2021-05-30T06:07:19Z</time>
      </trkpt>
      <trkpt lat="45.84799" lon="2.93501">
        <ele>903</ele>
        <time>2021-05-30T06:07:20Z</time>
      </trkpt>
      <trkpt lat="45.84799" lon="2.93502">
        <ele>903</ele>
        <time>2021-05-30T06:07:21Z</time>
      </trkpt>
      <trkpt lat="45.84798" lon="2.93504">
        <ele>903</ele>
        <time>2021-05-30T06:07:22Z</time>
      </trkpt>
      <trkpt lat="45.84798" lon="2.93506">
        <ele>903</ele>
        <time>2021-05-30T06:07:23Z</time>
      </trkpt>
      <trkpt lat="45.84798" lon="2.93508">
        <ele>903</ele>
        <time>2021-05-30T06:07:24Z</time>
      </trkpt>
      <trkpt lat="45.84797" lon="2.9351">
        <ele>903</ele>
        <time>2021-05-30T06:07:25Z</time>
      </trkpt>
      <trkpt lat="45.84797" lon="2.93512">
        <ele>903</ele>
        <time>2021-05-30T06:07:26Z</time>
      </trkpt>
      <trkpt lat="45.84797" lon="2.93514">
        <ele>903</ele>
        <time>2021-05-30T06:07:27Z</time>
      </trkpt>
      <trkpt lat="45.84796" lon="2.93516">
        <ele>903</ele>
        <time>2021-05-30T06:07:28Z</time>
      </trkpt>
      <trkpt lat="45.84796" lon="2.93519">
        <ele>903</ele>
        <time>2021-05-30T06:07:29Z</time>
      </trkpt>
      <trkpt lat="45.84795" lon="2.93522">
        <ele>903</ele>
        <time>2021-05-30T06:07:30Z</time>
      </trkpt>
      <trkpt lat="45.84794" lon="2.93524">
        <ele>903</ele>
        <time>2021-05-30T06:07:31Z</time>
      </trkpt>
      <trkpt lat="45.84794" lon="2.93527">
        <ele>903</ele>
        <time>2021-05-30T06:07:32Z</time>
      </trkpt>
      <trkpt lat="45.84793" lon="2.93529">
        <ele>903</ele>
        <time>2021-05-30T06:07:33Z</time>
      </trkpt>
      <trkpt lat="45.84792" lon="2.93531">
        <ele>903</ele>
        <time>2021-05-30T06:07:34Z</time>
      </trkpt>
      <trkpt lat="45.84792" lon="2.93532">
        <ele>903</ele>
        <time>2021-05-30T06:07:35Z</time>
      </trkpt>
      <trkpt lat="45.84791" lon="2.93534">
        <ele>903</ele>
        <time>2021-05-30T06:07:36Z</time>
      </trkpt>
      <trkpt lat="45.8479" lon="2.93536">
        <ele>903</ele>
        <time>2021-05-30T06:07:37Z</time>
      </trkpt>
      <trkpt lat="45.8479" lon="2.93538">
        <ele>903</ele>
        <time>2021-05-30T06:07:38Z</time>
      </trkpt>
      <trkpt lat="45.8479" lon="2.9354">
        <ele>903</ele>
        <time>2021-05-30T06:07:39Z</time>
      </trkpt>
      <trkpt lat="45.84789" lon="2.93542">
        <ele>903</ele>
        <time>2021-05-30T06:07:40Z</time>
      </trkpt>
      <trkpt lat="45.84789" lon="2.93545">
        <ele>903</ele>
        <time>2021-05-30T06:07:41Z</time>
      </trkpt>
      <trkpt lat="45.84789" lon="2.93547">
        <ele>903</ele>
        <time>2021-05-30T06:07:42Z</time>
      </trkpt>
      <trkpt lat="45.84788" lon="2.93549">
        <ele>903</ele>
        <time>2021-05-30T06:07:43Z</time>
      </trkpt>
      <trkpt lat="45.84788" lon="2.93551">
        <ele>903</ele>
        <time>2021-05-30T06:07:44Z</time>
      </trkpt>
      <trkpt lat="45.84787" lon="2.93554">
        <ele>903</ele>
        <time>2021-05-30T06:07:45Z</time>
      </trkpt>
      <trkpt lat="45.84787" lon="2.93557">
        <ele>903</ele>
        <time>2021-05-30T06:07:46Z</time>
      </trkpt>
      <trkpt lat="45.84787" lon="2.93559">
        <ele>903</ele>
        <time>2021-05-30T06:07:47Z</time>
      </trkpt>
      <trkpt lat="45.84786" lon="2.93562">
        <ele>903</ele>
        <time>2021-05-30T06:07:48Z</time>
      </trkpt>
      <trkpt lat="45.84786" lon="2.93564">
        <ele>903</ele>
        <time>2021-05-30T06:07:49Z</time>
      </trkpt>
      <trkpt lat="45.84786" lon="2.93565">
        <ele>903</ele>
        <time>2021-05-30T06:07:50Z</time>
      </trkpt>
      <trkpt lat="45.84782" lon="2.93566">
        <ele>903</ele>
        <time>2021-05-30T06:08:12Z</time>
      </trkpt>
      <trkpt lat="45.84781" lon="2.93567">
        <ele>903</ele>
        <time>2021-05-30T06:08:13Z</time>
      </trkpt>
      <trkpt lat="45.84781" lon="2.93568">
        <ele>903</ele>
        <time>2021-05-30T06:08:14Z</time>
      </trkpt>
      <trkpt lat="45.8478" lon="2.9357">
        <ele>903</ele>
        <time>2021-05-30T06:08:15Z</time>
      </trkpt>
      <trkpt lat="45.84779" lon="2.93572">
        <ele>903</ele>
        <time>2021-05-30T06:08:16Z</time>
      </trkpt>
      <trkpt lat="45.84778" lon="2.93575">
        <ele>903</ele>
        <time>2021-05-30T06:08:17Z</time>
      </trkpt>
      <trkpt lat="45.84778" lon="2.93577">
        <ele>903</ele>
        <time>2021-05-30T06:08:17Z</time>
      </trkpt>
      <trkpt lat="45.84777" lon="2.9358">
        <ele>903</ele>
        <time>2021-05-30T06:08:18Z</time>
      </trkpt>
      <trkpt lat="45.84777" lon="2.93582">
        <ele>903</ele>
        <time>2021-05-30T06:08:19Z</time>
      </trkpt>
      <trkpt lat="45.84777" lon="2.93584">
        <ele>903</ele>
        <time>2021-05-30T06:08:20Z</time>
      </trkpt>
      <trkpt lat="45.84777" lon="2.93586">
        <ele>903</ele>
        <time>2021-05-30T06:08:21Z</time>
      </trkpt>
      <trkpt lat="45.84777" lon="2.93589">
        <ele>903</ele>
        <time>2021-05-30T06:08:22Z</time>
      </trkpt>
      <trkpt lat="45.84777" lon="2.93592">
        <ele>903</ele>
        <time>2021-05-30T06:08:23Z</time>
      </trkpt>
      <trkpt lat="45.84776" lon="2.93595">
        <ele>903</ele>
        <time>2021-05-30T06:08:24Z</time>
      </trkpt>
      <trkpt lat="45.84776" lon="2.93597">
        <ele>903</ele>
        <time>2021-05-30T06:08:25Z</time>
      </trkpt>
      <trkpt lat="45.84776" lon="2.93599">
        <ele>903</ele>
        <time>2021-05-30T06:08:26Z</time>
      </trkpt>
      <trkpt lat="45.84775" lon="2.93602">
        <ele>903</ele>
        <time>2021-05-30T06:08:27Z</time>
      </trkpt>
      <trkpt lat="45.84775" lon="2.93604">
        <ele>903</ele>
        <time>2021-05-30T06:08:28Z</time>
      </trkpt>
      <trkpt lat="45.84774" lon="2.93607">
        <ele>903</ele>
        <time>2021-05-30T06:08:29Z</time>
      </trkpt>
      <trkpt lat="45.84774" lon="2.93609">
        <ele>903</ele>
        <time>2021-05-30T06:08:30Z</time>
      </trkpt>
      <trkpt lat="45.84773" lon="2.93611">
        <ele>903</ele>
        <time>2021-05-30T06:08:31Z</time>
      </trkpt>
      <trkpt lat="45.84772" lon="2.93614">
        <ele>903</ele>
        <time>2021-05-30T06:08:32Z</time>
      </trkpt>
      <trkpt lat="45.84771" lon="2.93616">
        <ele>903</ele>
        <time>2021-05-30T06:08:33Z</time>
      </trkpt>
      <trkpt lat="45.84771" lon="2.93619">
        <ele>903</ele>
        <time>2021-05-30T06:08:34Z</time>
      </trkpt>
      <trkpt lat="45.84769" lon="2.93621">
        <ele>903</ele>
        <time>2021-05-30T06:08:35Z</time>
      </trkpt>
      <trkpt lat="45.84769" lon="2.93623">
        <ele>903</ele>
        <time>2021-05-30T06:08:36Z</time>
      </trkpt>
      <trkpt lat="45.84767" lon="2.93625">
        <ele>903</ele>
        <time>2021-05-30T06:08:37Z</time>
      </trkpt>
      <trkpt lat="45.84766" lon="2.93628">
        <ele>903</ele>
        <time>2021-05-30T06:08:38Z</time>
      </trkpt>
      <trkpt lat="45.84765" lon="2.9363">
        <ele>903</ele>
        <time>2021-05-30T06:08:39Z</time>
      </trkpt>
      <trkpt lat="45.84764" lon="2.93632">
        <ele>903</ele>
        <time>2021-05-30T06:08:40Z</time>
      </trkpt>
      <trkpt lat="45.84762" lon="2.93634">
        <ele>903</ele>
        <time>2021-05-30T06:08:41Z</time>
      </trkpt>
      <trkpt lat="45.84761" lon="2.93636">
        <ele>903</ele>
        <time>2021-05-30T06:08:42Z</time>
      </trkpt>
      <trkpt lat="45.8476" lon="2.93638">
        <ele>903</ele>
        <time>2021-05-30T06:08:43Z</time>
      </trkpt>
      <trkpt lat="45.84759" lon="2.9364">
        <ele>903</ele>
        <time>2021-05-30T06:08:44Z</time>
      </trkpt>
      <trkpt lat="45.84757" lon="2.93642">
        <ele>903</ele>
        <time>2021-05-30T06:08:45Z</time>
      </trkpt>
      <trkpt lat="45.84756" lon="2.93644">
        <ele>903</ele>
        <time>2021-05-30T06:08:46Z</time>
      </trkpt>
      <trkpt lat="45.84755" lon="2.93645">
        <ele>903</ele>
        <time>2021-05-30T06:08:47Z</time>
      </trkpt>
      <trkpt lat="45.84754" lon="2.93647">
        <ele>903</ele>
        <time>2021-05-30T06:08:48Z</time>
      </trkpt>
      <trkpt lat="45.84753" lon="2.93649">
        <ele>903</ele>
        <time>2021-05-30T06:08:49Z</time>
      </trkpt>
      <trkpt lat="45.84751" lon="2.93651">
        <ele>903</ele>
        <time>2021-05-30T06:08:50Z</time>
      </trkpt>
      <trkpt lat="45.8475" lon="2.93652">
        <ele>903</ele>
        <time>2021-05-30T06:08:51Z</time>
      </trkpt>
      <trkpt lat="45.84749" lon="2.93654">
        <ele>903</ele>
        <time>2021-05-30T06:08:52Z</time>
      </trkpt>
      <trkpt lat="45.84748" lon="2.93655">
        <ele>903</ele>
        <time>2021-05-30T06:08:53Z</time>
      </trkpt>
      <trkpt lat="45.84746" lon="2.93657">
        <ele>903</ele>
        <time>2021-05-30T06:08:54Z</time>
      </trkpt>
      <trkpt lat="45.84744" lon="2.93659">
        <ele>903</ele>
        <time>2021-05-30T06:08:55Z</time>
      </trkpt>
      <trkpt lat="45.84744" lon="2.9366">
        <ele>903</ele>
        <time>2021-05-30T06:08:57Z</time>
      </trkpt>
      <trkpt lat="45.84738" lon="2.93667">
        <ele>903</ele>
        <time>2021-05-30T06:08:58Z</time>
      </trkpt>
      <trkpt lat="45.84738" lon="2.93667">
        <ele>903</ele>
        <time>2021-05-30T06:08:59Z</time>
      </trkpt>
      <trkpt lat="45.84738" lon="2.93668">
        <ele>903</ele>
        <time>2021-05-30T06:09:00Z</time>
      </trkpt>
      <trkpt lat="45.84737" lon="2.93669">
        <ele>903</ele>
        <time>2021-05-30T06:09:01Z</time>
      </trkpt>
      <trkpt lat="45.84736" lon="2.9367">
        <ele>903</ele>
        <time>2021-05-30T06:09:02Z</time>
      </trkpt>
      <trkpt lat="45.84735" lon="2.93672">
        <ele>903</ele>
        <time>2021-05-30T06:09:03Z</time>
      </trkpt>
      <trkpt lat="45.84734" lon="2.93673">
        <ele>903</ele>
        <time>2021-05-30T06:09:04Z</time>
      </trkpt>
      <trkpt lat="45.84733" lon="2.93675">
        <ele>903</ele>
        <time>2021-05-30T06:09:05Z</time>
      </trkpt>
      <trkpt lat="45.84732" lon="2.93677">
        <ele>903</ele>
        <time>2021-05-30T06:09:06Z</time>
      </trkpt>
      <trkpt lat="45.84731" lon="2.93678">
        <ele>903</ele>
        <time>2021-05-30T06:09:07Z</time>
      </trkpt>
      <trkpt lat="45.8473" lon="2.9368">
        <ele>903</ele>
        <time>2021-05-30T06:09:08Z</time>
      </trkpt>
      <trkpt lat="45.84729" lon="2.93682">
        <ele>903</ele>
        <time>2021-05-30T06:09:09Z</time>
      </trkpt>
      <trkpt lat="45.84728" lon="2.93684">
        <ele>903</ele>
        <time>2021-05-30T06:09:10Z</time>
      </trkpt>
      <trkpt lat="45.84727" lon="2.93685">
        <ele>903</ele>
        <time>2021-05-30T06:09:11Z</time>
      </trkpt>
      <trkpt lat="45.84726" lon="2.93687">
        <ele>903</ele>
        <time>2021-05-30T06:09:12Z</time>
      </trkpt>
      <trkpt lat="45.84725" lon="2.9369">
        <ele>903</ele>
        <time>2021-05-30T06:09:13Z</time>
      </trkpt>
      <trkpt lat="45.84724" lon="2.93692">
        <ele>903</ele>
        <time>2021-05-30T06:09:14Z</time>
      </trkpt>
      <trkpt lat="45.84723" lon="2.93694">
        <ele>903</ele>
        <time>2021-05-30T06:09:15Z</time>
      </trkpt>
      <trkpt lat="45.84722" lon="2.93696">
        <ele>903</ele>
        <time>2021-05-30T06:09:16Z</time>
      </trkpt>
      <trkpt lat="45.84721" lon="2.93699">
        <ele>903</ele>
        <time>2021-05-30T06:09:17Z</time>
      </trkpt>
      <trkpt lat="45.8472" lon="2.93701">
        <ele>903</ele>
        <time>2021-05-30T06:09:18Z</time>
      </trkpt>
      <trkpt lat="45.84719" lon="2.93703">
        <ele>903</ele>
        <time>2021-05-30T06:09:19Z</time>
      </trkpt>
      <trkpt lat="45.84718" lon="2.93706">
        <ele>903</ele>
        <time>2021-05-30T06:09:20Z</time>
      </trkpt>
      <trkpt lat="45.84717" lon="2.93708">
        <ele>903</ele>
        <time>2021-05-30T06:09:21Z</time>
      </trkpt>
      <trkpt lat="45.84716" lon="2.9371">
        <ele>903</ele>
        <time>2021-05-30T06:09:22Z</time>
      </trkpt>
      <trkpt lat="45.84715" lon="2.93712">
        <ele>903</ele>
        <time>2021-05-30T06:09:23Z</time>
      </trkpt>
      <trkpt lat="45.84715" lon="2.93714">
        <ele>903</ele>
        <time>2021-05-30T06:09:24Z</time>
      </trkpt>
      <trkpt lat="45.84714" lon="2.93716">
        <ele>903</ele>
        <time>2021-05-30T06:09:25Z</time>
      </trkpt>
      <trkpt lat="45.84713" lon="2.93717">
        <ele>903</ele>
        <time>2021-05-30T06:09:26Z</time>
      </trkpt>
      <trkpt lat="45.84712" lon="2.93719">
        <ele>903</ele>
        <time>2021-05-30T06:09:27Z</time>
      </trkpt>
      <trkpt lat="45.84711" lon="2.93721">
        <ele>903</ele>
        <time>2021-05-30T06:09:28Z</time>
      </trkpt>
      <trkpt lat="45.84711" lon="2.93723">
        <ele>903</ele>
        <time>2021-05-30T06:09:29Z</time>
      </trkpt>
      <trkpt lat="45.8471" lon="2.93725">
        <ele>903</ele>
        <time>2021-05-30T06:09:30Z</time>
      </trkpt>
      <trkpt lat="45.84709" lon="2.93727">
        <ele>903</ele>
        <time>2021-05-30T06:09:31Z</time>
      </trkpt>
      <trkpt lat="45.84708" lon="2.93728">
        <ele>903</ele>
        <time>2021-05-30T06:09:32Z</time>
      </trkpt>
      <trkpt lat="45.84707" lon="2.9373">
        <ele>903</ele>
        <time>2021-05-30T06:09:33Z</time>
      </trkpt>
      <trkpt lat="45.84706" lon="2.93732">
        <ele>903</ele>
        <time>2021-05-30T06:09:34Z</time>
      </trkpt>
      <trkpt lat="45.84705" lon="2.93734">
        <ele>903</ele>
        <time>2021-05-30T06:09:35Z</time>
      </trkpt>
      <trkpt lat="45.84703" lon="2.93736">
        <ele>903</ele>
        <time>2021-05-30T06:09:36Z</time>
      </trkpt>
      <trkpt lat="45.84702" lon="2.93738">
        <ele>903</ele>
        <time>2021-05-30T06:09:37Z</time>
      </trkpt>
      <trkpt lat="45.84701" lon="2.9374">
        <ele>903</ele>
        <time>2021-05-30T06:09:38Z</time>
      </trkpt>
      <trkpt lat="45.847" lon="2.93742">
        <ele>903</ele>
        <time>2021-05-30T06:09:39Z</time>
      </trkpt>
      <trkpt lat="45.84699" lon="2.93744">
        <ele>903</ele>
        <time>2021-05-30T06:09:40Z</time>
      </trkpt>
      <trkpt lat="45.84697" lon="2.93746">
        <ele>903</ele>
        <time>2021-05-30T06:09:41Z</time>
      </trkpt>
      <trkpt lat="45.84696" lon="2.93748">
        <ele>903</ele>
        <time>2021-05-30T06:09:42Z</time>
      </trkpt>
      <trkpt lat="45.84695" lon="2.93749">
        <ele>903</ele>
        <time>2021-05-30T06:09:43Z</time>
      </trkpt>
      <trkpt lat="45.84693" lon="2.93751">
        <ele>903</ele>
        <time>2021-05-30T06:09:44Z</time>
      </trkpt>
      <trkpt lat="45.84692" lon="2.93752">
        <ele>903</ele>
        <time>2021-05-30T06:09:45Z</time>
      </trkpt>
      <trkpt lat="45.84691" lon="2.93754">
        <ele>903</ele>
        <time>2021-05-30T06:09:46Z</time>
      </trkpt>
      <trkpt lat="45.84689" lon="2.93755">
        <ele>903</ele>
        <time>2021-05-30T06:09:47Z</time>
      </trkpt>
      <trkpt lat="45.84688" lon="2.93756">
        <ele>903</ele>
        <time>2021-05-30T06:09:48Z</time>
      </trkpt>
      <trkpt lat="45.84687" lon="2.93757">
        <ele>903</ele>
        <time>2021-05-30T06:09:49Z</time>
      </trkpt>
      <trkpt lat="45.84685" lon="2.93758">
        <ele>903</ele>
        <time>2021-05-30T06:09:50Z</time>
      </trkpt>
      <trkpt lat="45.84684" lon="2.93759">
        <ele>903</ele>
        <time>2021-05-30T06:09:51Z</time>
      </trkpt>
      <trkpt lat="45.84683" lon="2.93761">
        <ele>903</ele>
        <time>2021-05-30T06:09:52Z</time>
      </trkpt>
      <trkpt lat="45.84681" lon="2.93762">
        <ele>903</ele>
        <time>2021-05-30T06:09:53Z</time>
      </trkpt>
      <trkpt lat="45.84681" lon="2.93763">
        <ele>903</ele>
        <time>2021-05-30T06:09:54Z</time>
      </trkpt>
      <trkpt lat="45.84679" lon="2.93764">
        <ele>903</ele>
        <time>2021-05-30T06:09:55Z</time>
      </trkpt>
      <trkpt lat="45.84678" lon="2.93765">
        <ele>903</ele>
        <time>2021-05-30T06:09:56Z</time>
      </trkpt>
      <trkpt lat="45.84676" lon="2.93766">
        <ele>903</ele>
        <time>2021-05-30T06:09:57Z</time>
      </trkpt>
      <trkpt lat="45.84675" lon="2.93767">
        <ele>903</ele>
        <time>2021-05-30T06:09:58Z</time>
      </trkpt>
      <trkpt lat="45.84674" lon="2.93768">
        <ele>903</ele>
        <time>2021-05-30T06:09:59Z</time>
      </trkpt>
      <trkpt lat="45.84672" lon="2.93769">
        <ele>903</ele>
        <time>2021-05-30T06:10:00Z</time>
      </trkpt>
      <trkpt lat="45.84671" lon="2.9377">
        <ele>903</ele>
        <time>2021-05-30T06:10:01Z</time>
      </trkpt>
      <trkpt lat="45.8467" lon="2.93772">
        <ele>903</ele>
        <time>2021-05-30T06:10:02Z</time>
      </trkpt>
      <trkpt lat="45.84668" lon="2.93773">
        <ele>903</ele>
        <time>2021-05-30T06:10:03Z</time>
      </trkpt>
      <trkpt lat="45.84667" lon="2.93774">
        <ele>903</ele>
        <time>2021-05-30T06:10:04Z</time>
      </trkpt>
      <trkpt lat="45.84666" lon="2.93775">
        <ele>903</ele>
        <time>2021-05-30T06:10:05Z</time>
      </trkpt>
      <trkpt lat="45.84665" lon="2.93776">
        <ele>903</ele>
        <time>2021-05-30T06:10:06Z</time>
      </trkpt>
      <trkpt lat="45.84663" lon="2.93777">
        <ele>903</ele>
        <time>2021-05-30T06:10:07Z</time>
      </trkpt>
      <trkpt lat="45.84662" lon="2.93777">
        <ele>903</ele>
        <time>2021-05-30T06:10:08Z</time>
      </trkpt>
      <trkpt lat="45.84661" lon="2.93778">
        <ele>903</ele>
        <time>2021-05-30T06:10:09Z</time>
      </trkpt>
      <trkpt lat="45.8466" lon="2.93779">
        <ele>903</ele>
        <time>2021-05-30T06:10:10Z</time>
      </trkpt>
      <trkpt lat="45.84658" lon="2.9378">
        <ele>903</ele>
        <time>2021-05-30T06:10:11Z</time>
      </trkpt>
      <trkpt lat="45.84657" lon="2.93781">
        <ele>903</ele>
        <time>2021-05-30T06:10:12Z</time>
      </trkpt>
      <trkpt lat="45.84655" lon="2.93782">
        <ele>903</ele>
        <time>2021-05-30T06:10:13Z</time>
      </trkpt>
      <trkpt lat="45.84654" lon="2.93784">
        <ele>903</ele>
        <time>2021-05-30T06:10:14Z</time>
      </trkpt>
      <trkpt lat="45.84652" lon="2.93785">
        <ele>903</ele>
        <time>2021-05-30T06:10:15Z</time>
      </trkpt>
      <trkpt lat="45.84651" lon="2.93786">
        <ele>903</ele>
        <time>2021-05-30T06:10:16Z</time>
      </trkpt>
      <trkpt lat="45.84649" lon="2.93787">
        <ele>903</ele>
        <time>2021-05-30T06:10:17Z</time>
      </trkpt>
      <trkpt lat="45.84648" lon="2.93789">
        <ele>903</ele>
        <time>2021-05-30T06:10:18Z</time>
      </trkpt>
      <trkpt lat="45.84647" lon="2.9379">
        <ele>903</ele>
        <time>2021-05-30T06:10:19Z</time>
      </trkpt>
      <trkpt lat="45.84645" lon="2.93791">
        <ele>903</ele>
        <time>2021-05-30T06:10:20Z</time>
      </trkpt>
      <trkpt lat="45.84644" lon="2.93792">
        <ele>903</ele>
        <time>2021-05-30T06:10:21Z</time>
      </trkpt>
      <trkpt lat="45.84642" lon="2.93792">
        <ele>903</ele>
        <time>2021-05-30T06:10:22Z</time>
      </trkpt>
      <trkpt lat="45.84641" lon="2.93793">
        <ele>903</ele>
        <time>2021-05-30T06:10:23Z</time>
      </trkpt>
      <trkpt lat="45.84639" lon="2.93794">
        <ele>903</ele>
        <time>2021-05-30T06:10:24Z</time>
      </trkpt>
      <trkpt lat="45.84638" lon="2.93795">
        <ele>903</ele>
        <time>2021-05-30T06:10:25Z</time>
      </trkpt>
      <trkpt lat="45.84637" lon="2.93796">
        <ele>903</ele>
        <time>2021-05-30T06:10:26Z</time>
      </trkpt>
      <trkpt lat="45.84636" lon="2.93797">
        <ele>903</ele>
        <time>2021-05-30T06:10:27Z</time>
      </trkpt>
      <trkpt lat="45.84634" lon="2.93798">
        <ele>903</ele>
        <time>2021-05-30T06:10:28Z</time>
      </trkpt>
      <trkpt lat="45.84633" lon="2.93799">
        <ele>903</ele>
        <time>2021-05-30T06:10:29Z</time>
      </trkpt>
      <trkpt lat="45.84631" lon="2.938">
        <ele>903</ele>
        <time>2021-05-30T06:10:30Z</time>
      </trkpt>
      <trkpt lat="45.84629" lon="2.93801">
        <ele>903</ele>
        <time>2021-05-30T06:10:31Z</time>
      </trkpt>
      <trkpt lat="45.84628" lon="2.93801">
        <ele>903</ele>
        <time>2021-05-30T06:10:32Z</time>
      </trkpt>
      <trkpt lat="45.84626" lon="2.93802">
        <ele>903</ele>
        <time>2021-05-30T06:10:33Z</time>
      </trkpt>
      <trkpt lat="45.84624" lon="2.93803">
        <ele>903</ele>
        <time>2021-05-30T06:10:34Z</time>
      </trkpt>
      <trkpt lat="45.84623" lon="2.93804">
        <ele>903</ele>
        <time>2021-05-30T06:10:35Z</time>
      </trkpt>
      <trkpt lat="45.84621" lon="2.93805">
        <ele>903</ele>
        <time>2021-05-30T06:10:36Z</time>
      </trkpt>
      <trkpt lat="45.8462" lon="2.93806">
        <ele>903</ele>
        <time>2021-05-30T06:10:37Z</time>
      </trkpt>
      <trkpt lat="45.84618" lon="2.93807">
        <ele>903</ele>
        <time>2021-05-30T06:10:38Z</time>
      </trkpt>
      <trkpt lat="45.84617" lon="2.93808">
        <ele>903</ele>
        <time>2021-05-30T06:10:39Z</time>
      </trkpt>
      <trkpt lat="45.84615" lon="2.93809">
        <ele>903</ele>
        <time>2021-05-30T06:10:40Z</time>
      </trkpt>
      <trkpt lat="45.84614" lon="2.9381">
        <ele>903</ele>
        <time>2021-05-30T06:10:41Z</time>
      </trkpt>
      <trkpt lat="45.84612" lon="2.93811">
        <ele>903</ele>
        <time>2021-05-30T06:10:42Z</time>
      </trkpt>
      <trkpt lat="45.84611" lon="2.93811">
        <ele>903</ele>
        <time>2021-05-30T06:10:43Z</time>
      </trkpt>
      <trkpt lat="45.84609" lon="2.93812">
        <ele>903</ele>
        <time>2021-05-30T06:10:44Z</time>
      </trkpt>
      <trkpt lat="45.84607" lon="2.93813">
        <ele>903</ele>
        <time>2021-05-30T06:10:45Z</time>
      </trkpt>
      <trkpt lat="45.84606" lon="2.93813">
        <ele>903</ele>
        <time>2021-05-30T06:10:46Z</time>
      </trkpt>
      <trkpt lat="45.84604" lon="2.93814">
        <ele>903</ele>
        <time>2021-05-30T06:10:47Z</time>
      </trkpt>
      <trkpt lat="45.84603" lon="2.93814">
        <ele>903</ele>
        <time>2021-05-30T06:10:48Z</time>
      </trkpt>
      <trkpt lat="45.84601" lon="2.93815">
        <ele>903</ele>
        <time>2021-05-30T06:10:49Z</time>
      </trkpt>
      <trkpt lat="45.846" lon="2.93816">
        <ele>903</ele>
        <time>2021-05-30T06:10:50Z</time>
      </trkpt>
      <trkpt lat="45.84598" lon="2.93816">
        <ele>903</ele>
        <time>2021-05-30T06:10:51Z</time>
      </trkpt>
      <trkpt lat="45.84597" lon="2.93817">
        <ele>903</ele>
        <time>2021-05-30T06:10:52Z</time>
      </trkpt>
      <trkpt lat="45.84595" lon="2.93818">
        <ele>903</ele>
        <time>2021-05-30T06:10:53Z</time>
      </trkpt>
      <trkpt lat="45.84594" lon="2.93818">
        <ele>903</ele>
        <time>2021-05-30T06:10:54Z</time>
      </trkpt>
      <trkpt lat="45.84592" lon="2.93819">
        <ele>903</ele>
        <time>2021-05-30T06:10:55Z</time>
      </trkpt>
      <trkpt lat="45.8459" lon="2.9382">
        <ele>903</ele>
        <time>2021-05-30T06:10:56Z</time>
      </trkpt>
      <trkpt lat="45.84589" lon="2.93821">
        <ele>903</ele>
        <time>2021-05-30T06:10:57Z</time>
      </trkpt>
      <trkpt lat="45.84588" lon="2.93821">
        <ele>903</ele>
        <time>2021-05-30T06:10:58Z</time>
      </trkpt>
      <trkpt lat="45.84586" lon="2.93822">
        <ele>903</ele>
        <time>2021-05-30T06:10:59Z</time>
      </trkpt>
      <trkpt lat="45.84585" lon="2.93823">
        <ele>903</ele>
        <time>2021-05-30T06:11:00Z</time>
      </trkpt>
      <trkpt lat="45.84583" lon="2.93824">
        <ele>903</ele>
        <time>2021-05-30T06:11:01Z</time>
      </trkpt>
      <trkpt lat="45.84582" lon="2.93825">
        <ele>903</ele>
        <time>2021-05-30T06:11:02Z</time>
      </trkpt>
      <trkpt lat="45.8458" lon="2.93826">
        <ele>903</ele>
        <time>2021-05-30T06:11:03Z</time>
      </trkpt>
      <trkpt lat="45.84579" lon="2.93827">
        <ele>903</ele>
        <time>2021-05-30T06:11:04Z</time>
      </trkpt>
      <trkpt lat="45.84577" lon="2.93827">
        <ele>903</ele>
        <time>2021-05-30T06:11:05Z</time>
      </trkpt>
      <trkpt lat="45.84576" lon="2.93828">
        <ele>903</ele>
        <time>2021-05-30T06:11:06Z</time>
      </trkpt>
      <trkpt lat="45.84574" lon="2.93829">
        <ele>903</ele>
        <time>2021-05-30T06:11:07Z</time>
      </trkpt>
      <trkpt lat="45.84573" lon="2.9383">
        <ele>903</ele>
        <time>2021-05-30T06:11:08Z</time>
      </trkpt>
      <trkpt lat="45.84572" lon="2.93831">
        <ele>903</ele>
        <time>2021-05-30T06:11:09Z</time>
      </trkpt>
      <trkpt lat="45.8457" lon="2.93832">
        <ele>903</ele>
        <time>2021-05-30T06:11:10Z</time>
      </trkpt>
      <trkpt lat="45.84568" lon="2.93833">
        <ele>903</ele>
        <time>2021-05-30T06:11:11Z</time>
      </trkpt>
      <trkpt lat="45.84567" lon="2.93834">
        <ele>903</ele>
        <time>2021-05-30T06:11:12Z</time>
      </trkpt>
      <trkpt lat="45.84565" lon="2.93835">
        <ele>903</ele>
        <time>2021-05-30T06:11:13Z</time>
      </trkpt>
      <trkpt lat="45.84564" lon="2.93836">
        <ele>903</ele>
        <time>2021-05-30T06:11:14Z</time>
      </trkpt>
      <trkpt lat="45.84562" lon="2.93837">
        <ele>903</ele>
        <time>2021-05-30T06:11:15Z</time>
      </trkpt>
      <trkpt lat="45.84561" lon="2.93838">
        <ele>903</ele>
        <time>2021-05-30T06:11:16Z</time>
      </trkpt>
      <trkpt lat="45.84559" lon="2.93839">
        <ele>903</ele>
        <time>2021-05-30T06:11:17Z</time>
      </trkpt>
      <trkpt lat="45.84558" lon="2.9384">
        <ele>903</ele>
        <time>2021-05-30T06:11:18Z</time>
      </trkpt>
      <trkpt lat="45.84556" lon="2.93841">
        <ele>903</ele>
        <time>2021-05-30T06:11:19Z</time>
      </trkpt>
      <trkpt lat="45.84555" lon="2.93842">
        <ele>903</ele>
        <time>2021-05-30T06:11:20Z</time>
      </trkpt>
      <trkpt lat="45.84554" lon="2.93843">
        <ele>903</ele>
        <time>2021-05-30T06:11:21Z</time>
      </trkpt>
      <trkpt lat="45.84552" lon="2.93844">
        <ele>903</ele>
        <time>2021-05-30T06:11:22Z</time>
      </trkpt>
      <trkpt lat="45.84551" lon="2.93845">
        <ele>903</ele>
        <time>2021-05-30T06:11:23Z</time>
      </trkpt>
      <trkpt lat="45.84549" lon="2.93846">
        <ele>903</ele>
        <time>2021-05-30T06:11:24Z</time>
      </trkpt>
      <trkpt lat="45.84548" lon="2.93847">
        <ele>903</ele>
        <time>2021-05-30T06:11:25Z</time>
      </trkpt>
      <trkpt lat="45.84547" lon="2.93848">
        <ele>903</ele>
        <time>2021-05-30T06:11:26Z</time>
      </trkpt>
      <trkpt lat="45.84545" lon="2.93849">
        <ele>903</ele>
        <time>2021-05-30T06:11:27Z</time>
      </trkpt>
      <trkpt lat="45.84544" lon="2.93849">
        <ele>903</ele>
        <time>2021-05-30T06:11:28Z</time>
      </trkpt>
      <trkpt lat="45.84543" lon="2.9385">
        <ele>903</ele>
        <time>2021-05-30T06:11:29Z</time>
      </trkpt>
      <trkpt lat="45.84541" lon="2.93851">
        <ele>903</ele>
        <time>2021-05-30T06:11:30Z</time>
      </trkpt>
      <trkpt lat="45.8454" lon="2.93852">
        <ele>903</ele>
        <time>2021-05-30T06:11:31Z</time>
      </trkpt>
      <trkpt lat="45.84539" lon="2.93853">
        <ele>903</ele>
        <time>2021-05-30T06:11:32Z</time>
      </trkpt>
      <trkpt lat="45.84537" lon="2.93853">
        <ele>903</ele>
        <time>2021-05-30T06:11:33Z</time>
      </trkpt>
      <trkpt lat="45.84536" lon="2.93854">
        <ele>903</ele>
        <time>2021-05-30T06:11:34Z</time>
      </trkpt>
      <trkpt lat="45.84534" lon="2.93855">
        <ele>903</ele>
        <time>2021-05-30T06:11:35Z</time>
      </trkpt>
      <trkpt lat="45.84533" lon="2.93856">
        <ele>903</ele>
        <time>2021-05-30T06:11:36Z</time>
      </trkpt>
      <trkpt lat="45.84531" lon="2.93856">
        <ele>903</ele>
        <time>2021-05-30T06:11:37Z</time>
      </trkpt>
      <trkpt lat="45.8453" lon="2.93857">
        <ele>903</ele>
        <time>2021-05-30T06:11:38Z</time>
      </trkpt>
      <trkpt lat="45.84528" lon="2.93858">
        <ele>903</ele>
        <time>2021-05-30T06:11:39Z</time>
      </trkpt>
      <trkpt lat="45.84526" lon="2.93858">
        <ele>903</ele>
        <time>2021-05-30T06:11:40Z</time>
      </trkpt>
      <trkpt lat="45.84525" lon="2.93859">
        <ele>903</ele>
        <time>2021-05-30T06:11:41Z</time>
      </trkpt>
      <trkpt lat="45.84524" lon="2.93859">
        <ele>903</ele>
        <time>2021-05-30T06:11:42Z</time>
      </trkpt>
      <trkpt lat="45.84522" lon="2.9386">
        <ele>903</ele>
        <time>2021-05-30T06:11:43Z</time>
      </trkpt>
      <trkpt lat="45.84521" lon="2.93861">
        <ele>903</ele>
        <time>2021-05-30T06:11:44Z</time>
      </trkpt>
      <trkpt lat="45.8452" lon="2.93861">
        <ele>903</ele>
        <time>2021-05-30T06:11:45Z</time>
      </trkpt>
      <trkpt lat="45.84518" lon="2.93862">
        <ele>903</ele>
        <time>2021-05-30T06:11:46Z</time>
      </trkpt>
      <trkpt lat="45.84517" lon="2.93863">
        <ele>903</ele>
        <time>2021-05-30T06:11:47Z</time>
      </trkpt>
      <trkpt lat="45.84515" lon="2.93863">
        <ele>903</ele>
        <time>2021-05-30T06:11:48Z</time>
      </trkpt>
      <trkpt lat="45.84514" lon="2.93864">
        <ele>903</ele>
        <time>2021-05-30T06:11:49Z</time>
      </trkpt>
      <trkpt lat="45.84512" lon="2.93865">
        <ele>903</ele>
        <time>2021-05-30T06:11:50Z</time>
      </trkpt>
      <trkpt lat="45.8451" lon="2.93866">
        <ele>903</ele>
        <time>2021-05-30T06:11:51Z</time>
      </trkpt>
      <trkpt lat="45.84509" lon="2.93866">
        <ele>903</ele>
        <time>2021-05-30T06:11:52Z</time>
      </trkpt>
      <trkpt lat="45.84507" lon="2.93867">
        <ele>903</ele>
        <time>2021-05-30T06:11:53Z</time>
      </trkpt>
      <trkpt lat="45.84506" lon="2.93867">
        <ele>903</ele>
        <time>2021-05-30T06:11:54Z</time>
      </trkpt>
      <trkpt lat="45.84505" lon="2.93868">
        <ele>903</ele>
        <time>2021-05-30T06:11:55Z</time>
      </trkpt>
      <trkpt lat="45.84503" lon="2.93869">
        <ele>903</ele>
        <time>2021-05-30T06:11:56Z</time>
      </trkpt>
      <trkpt lat="45.84502" lon="2.9387">
        <ele>903</ele>
        <time>2021-05-30T06:11:57Z</time>
      </trkpt>
      <trkpt lat="45.845" lon="2.9387">
        <ele>903</ele>
        <time>2021-05-30T06:11:58Z</time>
      </trkpt>
      <trkpt lat="45.84499" lon="2.93871">
        <ele>903</ele>
        <time>2021-05-30T06:11:59Z</time>
      </trkpt>
      <trkpt lat="45.84497" lon="2.93872">
        <ele>903</ele>
        <time>2021-05-30T06:12:00Z</time>
      </trkpt>
      <trkpt lat="45.84496" lon="2.93873">
        <ele>903</ele>
        <time>2021-05-30T06:12:01Z</time>
      </trkpt>
      <trkpt lat="45.84495" lon="2.93874">
        <ele>903</ele>
        <time>2021-05-30T06:12:02Z</time>
      </trkpt>
      <trkpt lat="45.84493" lon="2.93874">
        <ele>903</ele>
        <time>2021-05-30T06:12:03Z</time>
      </trkpt>
      <trkpt lat="45.84492" lon="2.93875">
        <ele>903</ele>
        <time>2021-05-30T06:12:04Z</time>
      </trkpt>
      <trkpt lat="45.84491" lon="2.93876">
        <ele>903</ele>
        <time>2021-05-30T06:12:05Z</time>
      </trkpt>
      <trkpt lat="45.8449" lon="2.93876">
        <ele>903</ele>
        <time>2021-05-30T06:12:06Z</time>
      </trkpt>
      <trkpt lat="45.84488" lon="2.93877">
        <ele>903</ele>
        <time>2021-05-30T06:12:07Z</time>
      </trkpt>
      <trkpt lat="45.84488" lon="2.93878">
        <ele>903</ele>
        <time>2021-05-30T06:12:08Z</time>
      </trkpt>
      <trkpt lat="45.84486" lon="2.93878">
        <ele>903</ele>
        <time>2021-05-30T06:12:09Z</time>
      </trkpt>
      <trkpt lat="45.84485" lon="2.93879">
        <ele>903</ele>
        <time>2021-05-30T06:12:10Z</time>
      </trkpt>
      <trkpt lat="45.84483" lon="2.9388">
        <ele>903</ele>
        <time>2021-05-30T06:12:11Z</time>
      </trkpt>
      <trkpt lat="45.84482" lon="2.93881">
        <ele>903</ele>
        <time>2021-05-30T06:12:12Z</time>
      </trkpt>
      <trkpt lat="45.84481" lon="2.93881">
        <ele>903</ele>
        <time>2021-05-30T06:12:13Z</time>
      </trkpt>
      <trkpt lat="45.84479" lon="2.93882">
        <ele>903</ele>
        <time>2021-05-30T06:12:14Z</time>
      </trkpt>
      <trkpt lat="45.84478" lon="2.93883">
        <ele>903</ele>
        <time>2021-05-30T06:12:15Z</time>
      </trkpt>
      <trkpt lat="45.84476" lon="2.93884">
        <ele>903</ele>
        <time>2021-05-30T06:12:16Z</time>
      </trkpt>
      <trkpt lat="45.84475" lon="2.93885">
        <ele>903</ele>
        <time>2021-05-30T06:12:17Z</time>
      </trkpt>
      <trkpt lat="45.84473" lon="2.93886">
        <ele>903</ele>
        <time>2021-05-30T06:12:18Z</time>
      </trkpt>
      <trkpt lat="45.84472" lon="2.93887">
        <ele>903</ele>
        <time>2021-05-30T06:12:19Z</time>
      </trkpt>
      <trkpt lat="45.8447" lon="2.93888">
        <ele>903</ele>
        <time>2021-05-30T06:12:20Z</time>
      </trkpt>
      <trkpt lat="45.84469" lon="2.93889">
        <ele>903</ele>
        <time>2021-05-30T06:12:21Z</time>
      </trkpt>
      <trkpt lat="45.84467" lon="2.9389">
        <ele>903</ele>
        <time>2021-05-30T06:12:22Z</time>
      </trkpt>
      <trkpt lat="45.84465" lon="2.93891">
        <ele>903</ele>
        <time>2021-05-30T06:12:23Z</time>
      </trkpt>
      <trkpt lat="45.84464" lon="2.93892">
        <ele>903</ele>
        <time>2021-05-30T06:12:24Z</time>
      </trkpt>
      <trkpt lat="45.84462" lon="2.93893">
        <ele>903</ele>
        <time>2021-05-30T06:12:25Z</time>
      </trkpt>
      <trkpt lat="45.8446" lon="2.93894">
        <ele>903</ele>
        <time>2021-05-30T06:12:26Z</time>
      </trkpt>
      <trkpt lat="45.84459" lon="2.93895">
        <ele>903</ele>
        <time>2021-05-30T06:12:27Z</time>
      </trkpt>
      <trkpt lat="45.84457" lon="2.93896">
        <ele>903</ele>
        <time>2021-05-30T06:12:28Z</time>
      </trkpt>
      <trkpt lat="45.84456" lon="2.93898">
        <ele>903</ele>
        <time>2021-05-30T06:12:29Z</time>
      </trkpt>
      <trkpt lat="45.84454" lon="2.93899">
        <ele>903</ele>
        <time>2021-05-30T06:12:30Z</time>
      </trkpt>
      <trkpt lat="45.84453" lon="2.939">
        <ele>903</ele>
        <time>2021-05-30T06:12:31Z</time>
      </trkpt>
      <trkpt lat="45.84452" lon="2.93901">
        <ele>903</ele>
        <time>2021-05-30T06:12:32Z</time>
      </trkpt>
      <trkpt lat="45.8445" lon="2.93902">
        <ele>903</ele>
        <time>2021-05-30T06:12:32Z</time>
      </trkpt>
      <trkpt lat="45.84449" lon="2.93903">
        <ele>903</ele>
        <time>2021-05-30T06:12:33Z</time>
      </trkpt>
      <trkpt lat="45.84447" lon="2.93904">
        <ele>903</ele>
        <time>2021-05-30T06:12:34Z</time>
      </trkpt>
      <trkpt lat="45.84446" lon="2.93904">
        <ele>903</ele>
        <time>2021-05-30T06:12:35Z</time>
      </trkpt>
      <trkpt lat="45.84444" lon="2.93905">
        <ele>903</ele>
        <time>2021-05-30T06:12:36Z</time>
      </trkpt>
      <trkpt lat="45.84443" lon="2.93906">
        <ele>903</ele>
        <time>2021-05-30T06:12:37Z</time>
      </trkpt>
      <trkpt lat="45.84441" lon="2.93907">
        <ele>903</ele>
        <time>2021-05-30T06:12:38Z</time>
      </trkpt>
      <trkpt lat="45.8444" lon="2.93908">
        <ele>903</ele>
        <time>2021-05-30T06:12:39Z</time>
      </trkpt>
      <trkpt lat="45.84439" lon="2.93908">
        <ele>903</ele>
        <time>2021-05-30T06:12:40Z</time>
      </trkpt>
      <trkpt lat="45.84437" lon="2.93909">
        <ele>903</ele>
        <time>2021-05-30T06:12:41Z</time>
      </trkpt>
      <trkpt lat="45.84436" lon="2.9391">
        <ele>903</ele>
        <time>2021-05-30T06:12:42Z</time>
      </trkpt>
      <trkpt lat="45.84435" lon="2.93911">
        <ele>903</ele>
        <time>2021-05-30T06:12:43Z</time>
      </trkpt>
      <trkpt lat="45.84433" lon="2.93911">
        <ele>903</ele>
        <time>2021-05-30T06:12:44Z</time>
      </trkpt>
      <trkpt lat="45.84432" lon="2.93912">
        <ele>903</ele>
        <time>2021-05-30T06:12:45Z</time>
      </trkpt>
      <trkpt lat="45.8443" lon="2.93913">
        <ele>903</ele>
        <time>2021-05-30T06:12:46Z</time>
      </trkpt>
      <trkpt lat="45.84428" lon="2.93914">
        <ele>903</ele>
        <time>2021-05-30T06:12:47Z</time>
      </trkpt>
      <trkpt lat="45.84427" lon="2.93915">
        <ele>903</ele>
        <time>2021-05-30T06:12:48Z</time>
      </trkpt>
      <trkpt lat="45.84426" lon="2.93915">
        <ele>903</ele>
        <time>2021-05-30T06:12:49Z</time>
      </trkpt>
      <trkpt lat="45.84425" lon="2.93916">
        <ele>903</ele>
        <time>2021-05-30T06:12:50Z</time>
      </trkpt>
      <trkpt lat="45.84423" lon="2.93917">
        <ele>903</ele>
        <time>2021-05-30T06:12:51Z</time>
      </trkpt>
      <trkpt lat="45.84422" lon="2.93918">
        <ele>903</ele>
        <time>2021-05-30T06:12:52Z</time>
      </trkpt>
      <trkpt lat="45.8442" lon="2.93918">
        <ele>903</ele>
        <time>2021-05-30T06:12:53Z</time>
      </trkpt>
      <trkpt lat="45.84419" lon="2.93919">
        <ele>903</ele>
        <time>2021-05-30T06:12:54Z</time>
      </trkpt>
      <trkpt lat="45.84417" lon="2.9392">
        <ele>903</ele>
        <time>2021-05-30T06:12:55Z</time>
      </trkpt>
      <trkpt lat="45.84416" lon="2.93921">
        <ele>903</ele>
        <time>2021-05-30T06:12:56Z</time>
      </trkpt>
      <trkpt lat="45.84414" lon="2.93922">
        <ele>903</ele>
        <time>2021-05-30T06:12:57Z</time>
      </trkpt>
      <trkpt lat="45.84413" lon="2.93923">
        <ele>903</ele>
        <time>2021-05-30T06:12:58Z</time>
      </trkpt>
      <trkpt lat="45.84411" lon="2.93924">
        <ele>903</ele>
        <time>2021-05-30T06:12:59Z</time>
      </trkpt>
      <trkpt lat="45.8441" lon="2.93925">
        <ele>903</ele>
        <time>2021-05-30T06:13:00Z</time>
      </trkpt>
      <trkpt lat="45.84409" lon="2.93926">
        <ele>903</ele>
        <time>2021-05-30T06:13:01Z</time>
      </trkpt>
      <trkpt lat="45.84407" lon="2.93927">
        <ele>903</ele>
        <time>2021-05-30T06:13:02Z</time>
      </trkpt>
      <trkpt lat="45.84406" lon="2.93928">
        <ele>903</ele>
        <time>2021-05-30T06:13:03Z</time>
      </trkpt>
      <trkpt lat="45.84404" lon="2.93929">
        <ele>903</ele>
        <time>2021-05-30T06:13:04Z</time>
      </trkpt>
      <trkpt lat="45.84403" lon="2.9393">
        <ele>903</ele>
        <time>2021-05-30T06:13:05Z</time>
      </trkpt>
      <trkpt lat="45.84401" lon="2.9393">
        <ele>903</ele>
        <time>2021-05-30T06:13:06Z</time>
      </trkpt>
      <trkpt lat="45.844" lon="2.93931">
        <ele>903</ele>
        <time>2021-05-30T06:13:07Z</time>
      </trkpt>
      <trkpt lat="45.84398" lon="2.93932">
        <ele>903</ele>
        <time>2021-05-30T06:13:08Z</time>
      </trkpt>
      <trkpt lat="45.84397" lon="2.93933">
        <ele>903</ele>
        <time>2021-05-30T06:13:09Z</time>
      </trkpt>
      <trkpt lat="45.84396" lon="2.93934">
        <ele>903</ele>
        <time>2021-05-30T06:13:10Z</time>
      </trkpt>
      <trkpt lat="45.84396" lon="2.9394">
        <ele>903</ele>
        <time>2021-05-30T06:13:27Z</time>
      </trkpt>
      <trkpt lat="45.84396" lon="2.9394">
        <ele>903</ele>
        <time>2021-05-30T06:13:28Z</time>
      </trkpt>
      <trkpt lat="45.84396" lon="2.93941">
        <ele>903</ele>
        <time>2021-05-30T06:13:29Z</time>
      </trkpt>
      <trkpt lat="45.84396" lon="2.93943">
        <ele>903</ele>
        <time>2021-05-30T06:13:30Z</time>
      </trkpt>
      <trkpt lat="45.84397" lon="2.93944">
        <ele>903</ele>
        <time>2021-05-30T06:13:31Z</time>
      </trkpt>
      <trkpt lat="45.84397" lon="2.93945">
        <ele>903</ele>
        <time>2021-05-30T06:13:32Z</time>
      </trkpt>
      <trkpt lat="45.84397" lon="2.93947">
        <ele>903</ele>
        <time>2021-05-30T06:13:33Z</time>
      </trkpt>
      <trkpt lat="45.84398" lon="2.93949">
        <ele>903</ele>
        <time>2021-05-30T06:13:34Z</time>
      </trkpt>
      <trkpt lat="45.84398" lon="2.93951">
        <ele>903</ele>
        <time>2021-05-30T06:13:35Z</time>
      </trkpt>
      <trkpt lat="45.84398" lon="2.93953">
        <ele>903</ele>
        <time>2021-05-30T06:13:36Z</time>
      </trkpt>
      <trkpt lat="45.84399" lon="2.93955">
        <ele>903</ele>
        <time>2021-05-30T06:13:37Z</time>
      </trkpt>
      <trkpt lat="45.84399" lon="2.93957">
        <ele>903</ele>
        <time>2021-05-30T06:13:38Z</time>
      </trkpt>
      <trkpt lat="45.844" lon="2.93959">
        <ele>903</ele>
        <time>2021-05-30T06:13:39Z</time>
      </trkpt>
      <trkpt lat="45.84401" lon="2.93961">
        <ele>903</ele>
        <time>2021-05-30T06:13:40Z</time>
      </trkpt>
      <trkpt lat="45.84401" lon="2.93964">
        <ele>903</ele>
        <time>2021-05-30T06:13:41Z</time>
      </trkpt>
      <trkpt lat="45.84401" lon="2.93966">
        <ele>903</ele>
        <time>2021-05-30T06:13:42Z</time>
      </trkpt>
      <trkpt lat="45.84402" lon="2.93968">
        <ele>903</ele>
        <time>2021-05-30T06:13:43Z</time>
      </trkpt>
      <trkpt lat="45.84403" lon="2.93971">
        <ele>903</ele>
        <time>2021-05-30T06:13:44Z</time>
      </trkpt>
      <trkpt lat="45.84404" lon="2.93973">
        <ele>903</ele>
        <time>2021-05-30T06:13:45Z</time>
      </trkpt>
      <trkpt lat="45.84404" lon="2.93975">
        <ele>903</ele>
        <time>2021-05-30T06:13:46Z</time>
      </trkpt>
      <trkpt lat="45.84404" lon="2.93978">
        <ele>903</ele>
        <time>2021-05-30T06:13:47Z</time>
      </trkpt>
      <trkpt lat="45.84405" lon="2.9398">
        <ele>903</ele>
        <time>2021-05-30T06:13:48Z</time>
      </trkpt>
      <trkpt lat="45.84406" lon="2.93982">
        <ele>903</ele>
        <time>2021-05-30T06:13:49Z</time>
      </trkpt>
      <trkpt lat="45.84407" lon="2.93984">
        <ele>903</ele>
        <time>2021-05-30T06:13:50Z</time>
      </trkpt>
      <trkpt lat="45.84407" lon="2.93986">
        <ele>903</ele>
        <time>2021-05-30T06:13:51Z</time>
      </trkpt>
      <trkpt lat="45.84408" lon="2.93989">
        <ele>903</ele>
        <time>2021-05-30T06:13:52Z</time>
      </trkpt>
      <trkpt lat="45.84409" lon="2.93991">
        <ele>903</ele>
        <time>2021-05-30T06:13:53Z</time>
      </trkpt>
      <trkpt lat="45.84409" lon="2.93992">
        <ele>903</ele>
        <time>2021-05-30T06:13:54Z</time>
      </trkpt>
      <trkpt lat="45.8441" lon="2.93993">
        <ele>903</ele>
        <time>2021-05-30T06:13:56Z</time>
      </trkpt>
      <trkpt lat="45.8441" lon="2.93995">
        <ele>903</ele>
        <time>2021-05-30T06:13:57Z</time>
      </trkpt>
      <trkpt lat="45.84412" lon="2.93998">
        <ele>903</ele>
        <time>2021-05-30T06:13:58Z</time>
      </trkpt>
      <trkpt lat="45.84412" lon="2.93998">
        <ele>903</ele>
        <time>2021-05-30T06:13:59Z</time>
      </trkpt>
      <trkpt lat="45.84412" lon="2.93999">
        <ele>903</ele>
        <time>2021-05-30T06:14:00Z</time>
      </trkpt>
      <trkpt lat="45.84412" lon="2.93999">
        <ele>903</ele>
        <time>2021-05-30T06:14:01Z</time>
      </trkpt>
      <trkpt lat="45.84412" lon="2.94">
        <ele>903</ele>
        <time>2021-05-30T06:14:02Z</time>
      </trkpt>
      <trkpt lat="45.84412" lon="2.94001">
        <ele>903</ele>
        <time>2021-05-30T06:14:03Z</time>
      </trkpt>
      <trkpt lat="45.84412" lon="2.94001">
        <ele>903</ele>
        <time>2021-05-30T06:14:04Z</time>
      </trkpt>
      <trkpt lat="45.84412" lon="2.94002">
        <ele>903</ele>
        <time>2021-05-30T06:14:05Z</time>
      </trkpt>
      <trkpt lat="45.84412" lon="2.94002">
        <ele>903</ele>
        <time>2021-05-30T06:14:06Z</time>
      </trkpt>
      <trkpt lat="45.84412" lon="2.94003">
        <ele>903</ele>
        <time>2021-05-30T06:14:07Z</time>
      </trkpt>
      <trkpt lat="45.84412" lon="2.94004">
        <ele>903</ele>
        <time>2021-05-30T06:14:08Z</time>
      </trkpt>
      <trkpt lat="45.84414" lon="2.94008">
        <ele>903</ele>
        <time>2021-05-30T06:14:15Z</time>
      </trkpt>
      <trkpt lat="45.84414" lon="2.94008">
        <ele>903</ele>
        <time>2021-05-30T06:14:16Z</time>
      </trkpt>
      <trkpt lat="45.84414" lon="2.94009">
        <ele>903</ele>
        <time>2021-05-30T06:14:17Z</time>
      </trkpt>
      <trkpt lat="45.84414" lon="2.9401">
        <ele>903</ele>
        <time>2021-05-30T06:14:18Z</time>
      </trkpt>
      <trkpt lat="45.84415" lon="2.94011">
        <ele>903</ele>
        <time>2021-05-30T06:14:19Z</time>
      </trkpt>
      <trkpt lat="45.84415" lon="2.94012">
        <ele>903</ele>
        <time>2021-05-30T06:14:20Z</time>
      </trkpt>
      <trkpt lat="45.84416" lon="2.94014">
        <ele>903</ele>
        <time>2021-05-30T06:14:21Z</time>
      </trkpt>
      <trkpt lat="45.84417" lon="2.94016">
        <ele>903</ele>
        <time>2021-05-30T06:14:22Z</time>
      </trkpt>
      <trkpt lat="45.84418" lon="2.94018">
        <ele>903</ele>
        <time>2021-05-30T06:14:23Z</time>
      </trkpt>
      <trkpt lat="45.84419" lon="2.94019">
        <ele>903</ele>
        <time>2021-05-30T06:14:24Z</time>
      </trkpt>
      <trkpt lat="45.84419" lon="2.94021">
        <ele>903</ele>
        <time>2021-05-30T06:14:25Z</time>
      </trkpt>
      <trkpt lat="45.8442" lon="2.94023">
        <ele>903</ele>
        <time>2021-05-30T06:14:26Z</time>
      </trkpt>
      <trkpt lat="45.8442" lon="2.94025">
        <ele>903</ele>
        <time>2021-05-30T06:14:27Z</time>
      </trkpt>
      <trkpt lat="45.84422" lon="2.94027">
        <ele>903</ele>
        <time>2021-05-30T06:14:28Z</time>
      </trkpt>
      <trkpt lat="45.84422" lon="2.94029">
        <ele>903</ele>
        <time>2021-05-30T06:14:29Z</time>
      </trkpt>
      <trkpt lat="45.84422" lon="2.9403">
        <ele>903</ele>
        <time>2021-05-30T06:14:30Z</time>
      </trkpt>
      <trkpt lat="45.84423" lon="2.94032">
        <ele>903</ele>
        <time>2021-05-30T06:14:31Z</time>
      </trkpt>
      <trkpt lat="45.84424" lon="2.94034">
        <ele>903</ele>
        <time>2021-05-30T06:14:32Z</time>
      </trkpt>
      <trkpt lat="45.84425" lon="2.94036">
        <ele>903</ele>
        <time>2021-05-30T06:14:33Z</time>
      </trkpt>
      <trkpt lat="45.84425" lon="2.94037">
        <ele>903</ele>
        <time>2021-05-30T06:14:34Z</time>
      </trkpt>
      <trkpt lat="45.84425" lon="2.94039">
        <ele>903</ele>
        <time>2021-05-30T06:14:35Z</time>
      </trkpt>
      <trkpt lat="45.84426" lon="2.9404">
        <ele>903</ele>
        <time>2021-05-30T06:14:36Z</time>
      </trkpt>
      <trkpt lat="45.84427" lon="2.94041">
        <ele>903</ele>
        <time>2021-05-30T06:14:37Z</time>
      </trkpt>
      <trkpt lat="45.84427" lon="2.94043">
        <ele>903</ele>
        <time>2021-05-30T06:14:38Z</time>
      </trkpt>
      <trkpt lat="45.84427" lon="2.94045">
        <ele>903</ele>
        <time>2021-05-30T06:14:39Z</time>
      </trkpt>
      <trkpt lat="45.84427" lon="2.94046">
        <ele>903</ele>
        <time>2021-05-30T06:14:40Z</time>
      </trkpt>
      <trkpt lat="45.84428" lon="2.94048">
        <ele>903</ele>
        <time>2021-05-30T06:14:41Z</time>
      </trkpt>
      <trkpt lat="45.84428" lon="2.9405">
        <ele>903</ele>
        <time>2021-05-30T06:14:42Z</time>
      </trkpt>
      <trkpt lat="45.84428" lon="2.94051">
        <ele>903</ele>
        <time>2021-05-30T06:14:43Z</time>
      </trkpt>
      <trkpt lat="45.84428" lon="2.94053">
        <ele>903</ele>
        <time>2021-05-30T06:14:44Z</time>
      </trkpt>
      <trkpt lat="45.84428" lon="2.94055">
        <ele>903</ele>
        <time>2021-05-30T06:14:45Z</time>
      </trkpt>
      <trkpt lat="45.84429" lon="2.94056">
        <ele>903</ele>
        <time>2021-05-30T06:14:46Z</time>
      </trkpt>
      <trkpt lat="45.8443" lon="2.94058">
        <ele>903</ele>
        <time>2021-05-30T06:14:47Z</time>
      </trkpt>
      <trkpt lat="45.8443" lon="2.9406">
        <ele>903</ele>
        <time>2021-05-30T06:14:48Z</time>
      </trkpt>
      <trkpt lat="45.84431" lon="2.94062">
        <ele>903</ele>
        <time>2021-05-30T06:14:49Z</time>
      </trkpt>
      <trkpt lat="45.84431" lon="2.94064">
        <ele>903</ele>
        <time>2021-05-30T06:14:50Z</time>
      </trkpt>
      <trkpt lat="45.84432" lon="2.94066">
        <ele>903</ele>
        <time>2021-05-30T06:14:51Z</time>
      </trkpt>
      <trkpt lat="45.84433" lon="2.94068">
        <ele>903</ele>
        <time>2021-05-30T06:14:52Z</time>
      </trkpt>
      <trkpt lat="45.84434" lon="2.9407">
        <ele>903</ele>
        <time>2021-05-30T06:14:53Z</time>
      </trkpt>
      <trkpt lat="45.84434" lon="2.94072">
        <ele>903</ele>
        <time>2021-05-30T06:14:54Z</time>
      </trkpt>
      <trkpt lat="45.84434" lon="2.94073">
        <ele>903</ele>
        <time>2021-05-30T06:14:55Z</time>
      </trkpt>
      <trkpt lat="45.84435" lon="2.94075">
        <ele>903</ele>
        <time>2021-05-30T06:14:56Z</time>
      </trkpt>
      <trkpt lat="45.84435" lon="2.94077">
        <ele>903</ele>
        <time>2021-05-30T06:14:57Z</time>
      </trkpt>
      <trkpt lat="45.84435" lon="2.94078">
        <ele>903</ele>
        <time>2021-05-30T06:14:58Z</time>
      </trkpt>
      <trkpt lat="45.84436" lon="2.9408">
        <ele>903</ele>
        <time>2021-05-30T06:14:59Z</time>
      </trkpt>
      <trkpt lat="45.84436" lon="2.94082">
        <ele>903</ele>
        <time>2021-05-30T06:15:00Z</time>
      </trkpt>
      <trkpt lat="45.84436" lon="2.94083">
        <ele>903</ele>
        <time>2021-05-30T06:15:01Z</time>
      </trkpt>
      <trkpt lat="45.84436" lon="2.94085">
        <ele>903</ele>
        <time>2021-05-30T06:15:02Z</time>
      </trkpt>
      <trkpt lat="45.84437" lon="2.94086">
        <ele>903</ele>
        <time>2021-05-30T06:15:03Z</time>
      </trkpt>
      <trkpt lat="45.84437" lon="2.94088">
        <ele>903</ele>
        <time>2021-05-30T06:15:04Z</time>
      </trkpt>
      <trkpt lat="45.84437" lon="2.9409">
        <ele>903</ele>
        <time>2021-05-30T06:15:05Z</time>
      </trkpt>
      <trkpt lat="45.84438" lon="2.94092">
        <ele>903</ele>
        <time>2021-05-30T06:15:06Z</time>
      </trkpt>
      <trkpt lat="45.84438" lon="2.94094">
        <ele>903</ele>
        <time>2021-05-30T06:15:07Z</time>
      </trkpt>
      <trkpt lat="45.84439" lon="2.94096">
        <ele>903</ele>
        <time>2021-05-30T06:15:08Z</time>
      </trkpt>
      <trkpt lat="45.8444" lon="2.94098">
        <ele>903</ele>
        <time>2021-05-30T06:15:09Z</time>
      </trkpt>
      <trkpt lat="45.8444" lon="2.94099">
        <ele>903</ele>
        <time>2021-05-30T06:15:10Z</time>
      </trkpt>
      <trkpt lat="45.8444" lon="2.94101">
        <ele>903</ele>
        <time>2021-05-30T06:15:11Z</time>
      </trkpt>
      <trkpt lat="45.84441" lon="2.94103">
        <ele>903</ele>
        <time>2021-05-30T06:15:12Z</time>
      </trkpt>
      <trkpt lat="45.84441" lon="2.94106">
        <ele>903</ele>
        <time>2021-05-30T06:15:13Z</time>
      </trkpt>
      <trkpt lat="45.84442" lon="2.94108">
        <ele>903</ele>
        <time>2021-05-30T06:15:14Z</time>
      </trkpt>
      <trkpt lat="45.84443" lon="2.94111">
        <ele>903</ele>
        <time>2021-05-30T06:15:15Z</time>
      </trkpt>
      <trkpt lat="45.84443" lon="2.94113">
        <ele>903</ele>
        <time>2021-05-30T06:15:16Z</time>
      </trkpt>
      <trkpt lat="45.84444" lon="2.94116">
        <ele>903</ele>
        <time>2021-05-30T06:15:17Z</time>
      </trkpt>
      <trkpt lat="45.84444" lon="2.94119">
        <ele>903</ele>
        <time>2021-05-30T06:15:18Z</time>
      </trkpt>
      <trkpt lat="45.84446" lon="2.94122">
        <ele>903</ele>
        <time>2021-05-30T06:15:19Z</time>
      </trkpt>
      <trkpt lat="45.84446" lon="2.94124">
        <ele>903</ele>
        <time>2021-05-30T06:15:20Z</time>
      </trkpt>
      <trkpt lat="45.84446" lon="2.94127">
        <ele>903</ele>
        <time>2021-05-30T06:15:21Z</time>
      </trkpt>
      <trkpt lat="45.84447" lon="2.9413">
        <ele>903</ele>
        <time>2021-05-30T06:15:22Z</time>
      </trkpt>
      <trkpt lat="45.84448" lon="2.94132">
        <ele>903</ele>
        <time>2021-05-30T06:15:23Z</time>
      </trkpt>
      <trkpt lat="45.84448" lon="2.94134">
        <ele>903</ele>
        <time>2021-05-30T06:15:24Z</time>
      </trkpt>
      <trkpt lat="45.84449" lon="2.94137">
        <ele>903</ele>
        <time>2021-05-30T06:15:25Z</time>
      </trkpt>
      <trkpt lat="45.84449" lon="2.94139">
        <ele>903</ele>
        <time>2021-05-30T06:15:26Z</time>
      </trkpt>
      <trkpt lat="45.84449" lon="2.94142">
        <ele>903</ele>
        <time>2021-05-30T06:15:27Z</time>
      </trkpt>
      <trkpt lat="45.84451" lon="2.94144">
        <ele>903</ele>
        <time>2021-05-30T06:15:28Z</time>
      </trkpt>
      <trkpt lat="45.84451" lon="2.94147">
        <ele>903</ele>
        <time>2021-05-30T06:15:29Z</time>
      </trkpt>
      <trkpt lat="45.84452" lon="2.9415">
        <ele>903</ele>
        <time>2021-05-30T06:15:30Z</time>
      </trkpt>
      <trkpt lat="45.84452" lon="2.94152">
        <ele>903</ele>
        <time>2021-05-30T06:15:31Z</time>
      </trkpt>
      <trkpt lat="45.84452" lon="2.94155">
        <ele>903</ele>
        <time>2021-05-30T06:15:32Z</time>
      </trkpt>
      <trkpt lat="45.84452" lon="2.94157">
        <ele>903</ele>
        <time>2021-05-30T06:15:33Z</time>
      </trkpt>
      <trkpt lat="45.84453" lon="2.94159">
        <ele>903</ele>
        <time>2021-05-30T06:15:34Z</time>
      </trkpt>
      <trkpt lat="45.84454" lon="2.94162">
        <ele>903</ele>
        <time>2021-05-30T06:15:35Z</time>
      </trkpt>
      <trkpt lat="45.84454" lon="2.94164">
        <ele>903</ele>
        <time>2021-05-30T06:15:36Z</time>
      </trkpt>
      <trkpt lat="45.84455" lon="2.94167">
        <ele>903</ele>
        <time>2021-05-30T06:15:37Z</time>
      </trkpt>
      <trkpt lat="45.84455" lon="2.94169">
        <ele>903</ele>
        <time>2021-05-30T06:15:38Z</time>
      </trkpt>
      <trkpt lat="45.84456" lon="2.94172">
        <ele>903</ele>
        <time>2021-05-30T06:15:39Z</time>
      </trkpt>
      <trkpt lat="45.84456" lon="2.94175">
        <ele>903</ele>
        <time>2021-05-30T06:15:40Z</time>
      </trkpt>
      <trkpt lat="45.84457" lon="2.94178">
        <ele>903</ele>
        <time>2021-05-30T06:15:41Z</time>
      </trkpt>
      <trkpt lat="45.84457" lon="2.94181">
        <ele>903</ele>
        <time>2021-05-30T06:15:42Z</time>
      </trkpt>
      <trkpt lat="45.84458" lon="2.94184">
        <ele>903</ele>
        <time>2021-05-30T06:15:43Z</time>
      </trkpt>
      <trkpt lat="45.84458" lon="2.94187">
        <ele>903</ele>
        <time>2021-05-30T06:15:44Z</time>
      </trkpt>
      <trkpt lat="45.84459" lon="2.94189">
        <ele>903</ele>
        <time>2021-05-30T06:15:45Z</time>
      </trkpt>
      <trkpt lat="45.84459" lon="2.94192">
        <ele>903</ele>
        <time>2021-05-30T06:15:46Z</time>
      </trkpt>
      <trkpt lat="45.8446" lon="2.94194">
        <ele>903</ele>
        <time>2021-05-30T06:15:47Z</time>
      </trkpt>
      <trkpt lat="45.8446" lon="2.94197">
        <ele>903</ele>
        <time>2021-05-30T06:15:48Z</time>
      </trkpt>
      <trkpt lat="45.84461" lon="2.94199">
        <ele>903</ele>
        <time>2021-05-30T06:15:49Z</time>
      </trkpt>
      <trkpt lat="45.84461" lon="2.94201">
        <ele>903</ele>
        <time>2021-05-30T06:15:50Z</time>
      </trkpt>
      <trkpt lat="45.84462" lon="2.94204">
        <ele>903</ele>
        <time>2021-05-30T06:15:51Z</time>
      </trkpt>
      <trkpt lat="45.84462" lon="2.94206">
        <ele>903</ele>
        <time>2021-05-30T06:15:52Z</time>
      </trkpt>
      <trkpt lat="45.84463" lon="2.94208">
        <ele>903</ele>
        <time>2021-05-30T06:15:53Z</time>
      </trkpt>
      <trkpt lat="45.84464" lon="2.9421">
        <ele>903</ele>
        <time>2021-05-30T06:15:54Z</time>
      </trkpt>
      <trkpt lat="45.84464" lon="2.94213">
        <ele>903</ele>
        <time>2021-05-30T06:15:55Z</time>
      </trkpt>
      <trkpt lat="45.84464" lon="2.94215">
        <ele>903</ele>
        <time>2021-05-30T06:15:56Z</time>
      </trkpt>
      <trkpt lat="45.84465" lon="2.94217">
        <ele>903</ele>
        <time>2021-05-30T06:15:57Z</time>
      </trkpt>
      <trkpt lat="45.84465" lon="2.94219">
        <ele>903</ele>
        <time>2021-05-30T06:15:58Z</time>
      </trkpt>
      <trkpt lat="45.84466" lon="2.94221">
        <ele>903</ele>
        <time>2021-05-30T06:15:59Z</time>
      </trkpt>
      <trkpt lat="45.84467" lon="2.94224">
        <ele>903</ele>
        <time>2021-05-30T06:16:00Z</time>
      </trkpt>
      <trkpt lat="45.84467" lon="2.94226">
        <ele>903</ele>
        <time>2021-05-30T06:16:01Z</time>
      </trkpt>
      <trkpt lat="45.84467" lon="2.94228">
        <ele>903</ele>
        <time>2021-05-30T06:16:02Z</time>
      </trkpt>
      <trkpt lat="45.84468" lon="2.94231">
        <ele>903</ele>
        <time>2021-05-30T06:16:03Z</time>
      </trkpt>
      <trkpt lat="45.84469" lon="2.94233">
        <ele>903</ele>
        <time>2021-05-30T06:16:04Z</time>
      </trkpt>
      <trkpt lat="45.84469" lon="2.94235">
        <ele>903</ele>
        <time>2021-05-30T06:16:05Z</time>
      </trkpt>
      <trkpt lat="45.8447" lon="2.94237">
        <ele>903</ele>
        <time>2021-05-30T06:16:06Z</time>
      </trkpt>
      <trkpt lat="45.8447" lon="2.9424">
        <ele>903</ele>
        <time>2021-05-30T06:16:07Z</time>
      </trkpt>
      <trkpt lat="45.8447" lon="2.94242">
        <ele>903</ele>
        <time>2021-05-30T06:16:08Z</time>
      </trkpt>
      <trkpt lat="45.84471" lon="2.94244">
        <ele>903</ele>
        <time>2021-05-30T06:16:09Z</time>
      </trkpt>
      <trkpt lat="45.84472" lon="2.94246">
        <ele>903</ele>
        <time>2021-05-30T06:16:10Z</time>
      </trkpt>
      <trkpt lat="45.84472" lon="2.94247">
        <ele>903</ele>
        <time>2021-05-30T06:16:11Z</time>
      </trkpt>
      <trkpt lat="45.84473" lon="2.94249">
        <ele>903</ele>
        <time>2021-05-30T06:16:12Z</time>
      </trkpt>
      <trkpt lat="45.84473" lon="2.94251">
        <ele>903</ele>
        <time>2021-05-30T06:16:13Z</time>
      </trkpt>
      <trkpt lat="45.84473" lon="2.94253">
        <ele>903</ele>
        <time>2021-05-30T06:16:14Z</time>
      </trkpt>
      <trkpt lat="45.84475" lon="2.94255">
        <ele>903</ele>
        <time>2021-05-30T06:16:15Z</time>
      </trkpt>
      <trkpt lat="45.84475" lon="2.94257">
        <ele>903</ele>
        <time>2021-05-30T06:16:16Z</time>
      </trkpt>
      <trkpt lat="45.84475" lon="2.94259">
        <ele>903</ele>
        <time>2021-05-30T06:16:17Z</time>
      </trkpt>
      <trkpt lat="45.84476" lon="2.94261">
        <ele>903</ele>
        <time>2021-05-30T06:16:18Z</time>
      </trkpt>
      <trkpt lat="45.84476" lon="2.94263">
        <ele>903</ele>
        <time>2021-05-30T06:16:19Z</time>
      </trkpt>
      <trkpt lat="45.84476" lon="2.94265">
        <ele>903</ele>
        <time>2021-05-30T06:16:20Z</time>
      </trkpt>
      <trkpt lat="45.84477" lon="2.94267">
        <ele>903</ele>
        <time>2021-05-30T06:16:21Z</time>
      </trkpt>
      <trkpt lat="45.84477" lon="2.94269">
        <ele>903</ele>
        <time>2021-05-30T06:16:22Z</time>
      </trkpt>
      <trkpt lat="45.84477" lon="2.94271">
        <ele>903</ele>
        <time>2021-05-30T06:16:23Z</time>
      </trkpt>
      <trkpt lat="45.84478" lon="2.94273">
        <ele>903</ele>
        <time>2021-05-30T06:16:24Z</time>
      </trkpt>
      <trkpt lat="45.84478" lon="2.94275">
        <ele>903</ele>
        <time>2021-05-30T06:16:25Z</time>
      </trkpt>
      <trkpt lat="45.84478" lon="2.94277">
        <ele>903</ele>
        <time>2021-05-30T06:16:26Z</time>
      </trkpt>
      <trkpt lat="45.84479" lon="2.94279">
        <ele>903</ele>
        <time>2021-05-30T06:16:27Z</time>
      </trkpt>
      <trkpt lat="45.84479" lon="2.94281">
        <ele>903</ele>
        <time>2021-05-30T06:16:28Z</time>
      </trkpt>
      <trkpt lat="45.84479" lon="2.94283">
        <ele>903</ele>
        <time>2021-05-30T06:16:29Z</time>
      </trkpt>
      <trkpt lat="45.8448" lon="2.94285">
        <ele>903</ele>
        <time>2021-05-30T06:16:30Z</time>
      </trkpt>
      <trkpt lat="45.8448" lon="2.94288">
        <ele>903</ele>
        <time>2021-05-30T06:16:31Z</time>
      </trkpt>
      <trkpt lat="45.8448" lon="2.9429">
        <ele>903</ele>
        <time>2021-05-30T06:16:32Z</time>
      </trkpt>
      <trkpt lat="45.84481" lon="2.94292">
        <ele>903</ele>
        <time>2021-05-30T06:16:33Z</time>
      </trkpt>
      <trkpt lat="45.84481" lon="2.94294">
        <ele>903</ele>
        <time>2021-05-30T06:16:34Z</time>
      </trkpt>
      <trkpt lat="45.84481" lon="2.94297">
        <ele>903</ele>
        <time>2021-05-30T06:16:35Z</time>
      </trkpt>
      <trkpt lat="45.84481" lon="2.94299">
        <ele>903</ele>
        <time>2021-05-30T06:16:36Z</time>
      </trkpt>
      <trkpt lat="45.84482" lon="2.94301">
        <ele>903</ele>
        <time>2021-05-30T06:16:37Z</time>
      </trkpt>
      <trkpt lat="45.84482" lon="2.94303">
        <ele>903</ele>
        <time>2021-05-30T06:16:38Z</time>
      </trkpt>
      <trkpt lat="45.84482" lon="2.94304">
        <ele>903</ele>
        <time>2021-05-30T06:16:39Z</time>
      </trkpt>
      <trkpt lat="45.84482" lon="2.94307">
        <ele>903</ele>
        <time>2021-05-30T06:16:40Z</time>
      </trkpt>
      <trkpt lat="45.84482" lon="2.94309">
        <ele>903</ele>
        <time>2021-05-30T06:16:41Z</time>
      </trkpt>
      <trkpt lat="45.84482" lon="2.94311">
        <ele>903</ele>
        <time>2021-05-30T06:16:42Z</time>
      </trkpt>
      <trkpt lat="45.84482" lon="2.94313">
        <ele>903</ele>
        <time>2021-05-30T06:16:43Z</time>
      </trkpt>
      <trkpt lat="45.84482" lon="2.94315">
        <ele>903</ele>
        <time>2021-05-30T06:16:44Z</time>
      </trkpt>
      <trkpt lat="45.84483" lon="2.94318">
        <ele>903</ele>
        <time>2021-05-30T06:16:45Z</time>
      </trkpt>
      <trkpt lat="45.84483" lon="2.9432">
        <ele>903</ele>
        <time>2021-05-30T06:16:46Z</time>
      </trkpt>
      <trkpt lat="45.84483" lon="2.94322">
        <ele>903</ele>
        <time>2021-05-30T06:16:47Z</time>
      </trkpt>
      <trkpt lat="45.84483" lon="2.94324">
        <ele>903</ele>
        <time>2021-05-30T06:16:47Z</time>
      </trkpt>
      <trkpt lat="45.84483" lon="2.94327">
        <ele>903</ele>
        <time>2021-05-30T06:16:48Z</time>
      </trkpt>
      <trkpt lat="45.84484" lon="2.94329">
        <ele>903</ele>
        <time>2021-05-30T06:16:49Z</time>
      </trkpt>
      <trkpt lat="45.84484" lon="2.94331">
        <ele>903</ele>
        <time>2021-05-30T06:16:50Z</time>
      </trkpt>
      <trkpt lat="45.84485" lon="2.94333">
        <ele>903</ele>
        <time>2021-05-30T06:16:51Z</time>
      </trkpt>
      <trkpt lat="45.84485" lon="2.94336">
        <ele>903</ele>
        <time>2021-05-30T06:16:52Z</time>
      </trkpt>
      <trkpt lat="45.84485" lon="2.94338">
        <ele>903</ele>
        <time>2021-05-30T06:16:53Z</time>
      </trkpt>
      <trkpt lat="45.84486" lon="2.9434">
        <ele>903</ele>
        <time>2021-05-30T06:16:55Z</time>
      </trkpt>
      <trkpt lat="45.84487" lon="2.94349">
        <ele>903</ele>
        <time>2021-05-30T06:16:56Z</time>
      </trkpt>
      <trkpt lat="45.84487" lon="2.9435">
        <ele>903</ele>
        <time>2021-05-30T06:16:57Z</time>
      </trkpt>
      <trkpt lat="45.84487" lon="2.94351">
        <ele>903</ele>
        <time>2021-05-30T06:16:58Z</time>
      </trkpt>
      <trkpt lat="45.84487" lon="2.94352">
        <ele>903</ele>
        <time>2021-05-30T06:16:59Z</time>
      </trkpt>
      <trkpt lat="45.84487" lon="2.94354">
        <ele>903</ele>
        <time>2021-05-30T06:17:00Z</time>
      </trkpt>
      <trkpt lat="45.84488" lon="2.94356">
        <ele>903</ele>
        <time>2021-05-30T06:17:01Z</time>
      </trkpt>
      <trkpt lat="45.84488" lon="2.94358">
        <ele>903</ele>
        <time>2021-05-30T06:17:02Z</time>
      </trkpt>
      <trkpt lat="45.84488" lon="2.9436">
        <ele>903</ele>
        <time>2021-05-30T06:17:03Z</time>
      </trkpt>
      <trkpt lat="45.84488" lon="2.94362">
        <ele>903</ele>
        <time>2021-05-30T06:17:04Z</time>
      </trkpt>
      <trkpt lat="45.84487" lon="2.94364">
        <ele>903</ele>
        <time>2021-05-30T06:17:05Z</time>
      </trkpt>
      <trkpt lat="45.84487" lon="2.94367">
        <ele>903</ele>
        <time>2021-05-30T06:17:06Z</time>
      </trkpt>
      <trkpt lat="45.84487" lon="2.94369">
        <ele>903</ele>
        <time>2021-05-30T06:17:07Z</time>
      </trkpt>
      <trkpt lat="45.84487" lon="2.94372">
        <ele>903</ele>
        <time>2021-05-30T06:17:08Z</time>
      </trkpt>
      <trkpt lat="45.84487" lon="2.94374">
        <ele>903</ele>
        <time>2021-05-30T06:17:09Z</time>
      </trkpt>
      <trkpt lat="45.84487" lon="2.94377">
        <ele>903</ele>
        <time>2021-05-30T06:17:10Z</time>
      </trkpt>
      <trkpt lat="45.84487" lon="2.9438">
        <ele>903</ele>
        <time>2021-05-30T06:17:11Z</time>
      </trkpt>
      <trkpt lat="45.84487" lon="2.94383">
        <ele>903</ele>
        <time>2021-05-30T06:17:12Z</time>
      </trkpt>
      <trkpt lat="45.84487" lon="2.94386">
        <ele>903</ele>
        <time>2021-05-30T06:17:13Z</time>
      </trkpt>
      <trkpt lat="45.84487" lon="2.94388">
        <ele>903</ele>
        <time>2021-05-30T06:17:14Z</time>
      </trkpt>
      <trkpt lat="45.84487" lon="2.9439">
        <ele>903</ele>
        <time>2021-05-30T06:17:15Z</time>
      </trkpt>
      <trkpt lat="45.84487" lon="2.94392">
        <ele>903</ele>
        <time>2021-05-30T06:17:16Z</time>
      </trkpt>
      <trkpt lat="45.84487" lon="2.94394">
        <ele>903</ele>
        <time>2021-05-30T06:17:17Z</time>
      </trkpt>
      <trkpt lat="45.84488" lon="2.94396">
        <ele>903</ele>
        <time>2021-05-30T06:17:18Z</time>
      </trkpt>
      <trkpt lat="45.84488" lon="2.94398">
        <ele>903</ele>
        <time>2021-05-30T06:17:19Z</time>
      </trkpt>
      <trkpt lat="45.84488" lon="2.944">
        <ele>903</ele>
        <time>2021-05-30T06:17:20Z</time>
      </trkpt>
      <trkpt lat="45.84488" lon="2.94403">
        <ele>903</ele>
        <time>2021-05-30T06:17:21Z</time>
      </trkpt>
      <trkpt lat="45.84489" lon="2.94405">
        <ele>903</ele>
        <time>2021-05-30T06:17:22Z</time>
      </trkpt>
      <trkpt lat="45.84489" lon="2.94408">
        <ele>903</ele>
        <time>2021-05-30T06:17:23Z</time>
      </trkpt>
      <trkpt lat="45.84489" lon="2.9441">
        <ele>903</ele>
        <time>2021-05-30T06:17:24Z</time>
      </trkpt>
      <trkpt lat="45.8449" lon="2.94412">
        <ele>903</ele>
        <time>2021-05-30T06:17:25Z</time>
      </trkpt>
      <trkpt lat="45.84491" lon="2.94415">
        <ele>903</ele>
        <time>2021-05-30T06:17:26Z</time>
      </trkpt>
      <trkpt lat="45.84491" lon="2.94417">
        <ele>903</ele>
        <time>2021-05-30T06:17:27Z</time>
      </trkpt>
      <trkpt lat="45.84491" lon="2.94419">
        <ele>903</ele>
        <time>2021-05-30T06:17:28Z</time>
      </trkpt>
      <trkpt lat="45.84493" lon="2.94421">
        <ele>903</ele>
        <time>2021-05-30T06:17:29Z</time>
      </trkpt>
      <trkpt lat="45.84493" lon="2.94423">
        <ele>903</ele>
        <time>2021-05-30T06:17:30Z</time>
      </trkpt>
      <trkpt lat="45.84494" lon="2.94424">
        <ele>903</ele>
        <time>2021-05-30T06:17:31Z</time>
      </trkpt>
      <trkpt lat="45.84495" lon="2.94426">
        <ele>903</ele>
        <time>2021-05-30T06:17:32Z</time>
      </trkpt>
      <trkpt lat="45.84495" lon="2.94427">
        <ele>903</ele>
        <time>2021-05-30T06:17:33Z</time>
      </trkpt>
      <trkpt lat="45.84496" lon="2.94429">
        <ele>903</ele>
        <time>2021-05-30T06:17:34Z</time>
      </trkpt>
      <trkpt lat="45.84496" lon="2.94431">
        <ele>903</ele>
        <time>2021-05-30T06:17:35Z</time>
      </trkpt>
      <trkpt lat="45.84496" lon="2.94433">
        <ele>903</ele>
        <time>2021-05-30T06:17:36Z</time>
      </trkpt>
      <trkpt lat="45.84497" lon="2.94435">
        <ele>903</ele>
        <time>2021-05-30T06:17:37Z</time>
      </trkpt>
      <trkpt lat="45.84497" lon="2.94437">
        <ele>903</ele>
        <time>2021-05-30T06:17:38Z</time>
      </trkpt>
      <trkpt lat="45.84497" lon="2.94439">
        <ele>903</ele>
        <time>2021-05-30T06:17:39Z</time>
      </trkpt>
      <trkpt lat="45.84497" lon="2.94441">
        <ele>903</ele>
        <time>2021-05-30T06:17:40Z</time>
      </trkpt>
      <trkpt lat="45.84497" lon="2.94443">
        <ele>903</ele>
        <time>2021-05-30T06:17:41Z</time>
      </trkpt>
      <trkpt lat="45.84497" lon="2.94446">
        <ele>903</ele>
        <time>2021-05-30T06:17:42Z</time>
      </trkpt>
      <trkpt lat="45.84498" lon="2.94448">
        <ele>903</ele>
        <time>2021-05-30T06:17:43Z</time>
      </trkpt>
      <trkpt lat="45.84498" lon="2.94449">
        <ele>903</ele>
        <time>2021-05-30T06:17:44Z</time>
      </trkpt>
      <trkpt lat="45.84498" lon="2.94451">
        <ele>903</ele>
        <time>2021-05-30T06:17:45Z</time>
      </trkpt>
      <trkpt lat="45.84498" lon="2.94452">
        <ele>903</ele>
        <time>2021-05-30T06:17:46Z</time>
      </trkpt>
      <trkpt lat="45.84498" lon="2.94453">
        <ele>903</ele>
        <time>2021-05-30T06:17:47Z</time>
      </trkpt>
      <trkpt lat="45.84499" lon="2.94454">
        <ele>903</ele>
        <time>2021-05-30T06:17:48Z</time>
      </trkpt>
      <trkpt lat="45.84499" lon="2.94456">
        <ele>903</ele>
        <time>2021-05-30T06:17:49Z</time>
      </trkpt>
      <trkpt lat="45.84499" lon="2.94457">
        <ele>903</ele>
        <time>2021-05-30T06:17:50Z</time>
      </trkpt>
      <trkpt lat="45.84499" lon="2.94459">
        <ele>903</ele>
        <time>2021-05-30T06:17:51Z</time>
      </trkpt>
      <trkpt lat="45.84499" lon="2.9446">
        <ele>903</ele>
        <time>2021-05-30T06:17:52Z</time>
      </trkpt>
      <trkpt lat="45.845" lon="2.94461">
        <ele>903</ele>
        <time>2021-05-30T06:17:53Z</time>
      </trkpt>
      <trkpt lat="45.845" lon="2.94463">
        <ele>903</ele>
        <time>2021-05-30T06:17:54Z</time>
      </trkpt>
      <trkpt lat="45.845" lon="2.94464">
        <ele>903</ele>
        <time>2021-05-30T06:17:55Z</time>
      </trkpt>
      <trkpt lat="45.845" lon="2.94466">
        <ele>903</ele>
        <time>2021-05-30T06:17:56Z</time>
      </trkpt>
      <trkpt lat="45.84501" lon="2.94468">
        <ele>903</ele>
        <time>2021-05-30T06:17:57Z</time>
      </trkpt>
      <trkpt lat="45.84501" lon="2.94469">
        <ele>903</ele>
        <time>2021-05-30T06:17:58Z</time>
      </trkpt>
      <trkpt lat="45.84501" lon="2.94471">
        <ele>903</ele>
        <time>2021-05-30T06:17:59Z</time>
      </trkpt>
      <trkpt lat="45.84501" lon="2.94472">
        <ele>903</ele>
        <time>2021-05-30T06:18:00Z</time>
      </trkpt>
      <trkpt lat="45.84501" lon="2.94474">
        <ele>903</ele>
        <time>2021-05-30T06:18:01Z</time>
      </trkpt>
      <trkpt lat="45.84501" lon="2.94476">
        <ele>903</ele>
        <time>2021-05-30T06:18:02Z</time>
      </trkpt>
      <trkpt lat="45.84501" lon="2.94477">
        <ele>903</ele>
        <time>2021-05-30T06:18:03Z</time>
      </trkpt>
      <trkpt lat="45.84502" lon="2.94479">
        <ele>903</ele>
        <time>2021-05-30T06:18:04Z</time>
      </trkpt>
      <trkpt lat="45.84501" lon="2.9448">
        <ele>903</ele>
        <time>2021-05-30T06:18:05Z</time>
      </trkpt>
      <trkpt lat="45.84501" lon="2.94481">
        <ele>903</ele>
        <time>2021-05-30T06:18:06Z</time>
      </trkpt>
      <trkpt lat="45.84501" lon="2.94482">
        <ele>903</ele>
        <time>2021-05-30T06:18:07Z</time>
      </trkpt>
      <trkpt lat="45.84501" lon="2.94484">
        <ele>903</ele>
        <time>2021-05-30T06:18:08Z</time>
      </trkpt>
      <trkpt lat="45.84501" lon="2.94485">
        <ele>903</ele>
        <time>2021-05-30T06:18:09Z</time>
      </trkpt>
      <trkpt lat="45.84501" lon="2.94487">
        <ele>903</ele>
        <time>2021-05-30T06:18:10Z</time>
      </trkpt>
      <trkpt lat="45.84501" lon="2.94488">
        <ele>903</ele>
        <time>2021-05-30T06:18:11Z</time>
      </trkpt>
      <trkpt lat="45.84501" lon="2.9449">
        <ele>903</ele>
        <time>2021-05-30T06:18:12Z</time>
      </trkpt>
      <trkpt lat="45.84501" lon="2.94492">
        <ele>903</ele>
        <time>2021-05-30T06:18:13Z</time>
      </trkpt>
      <trkpt lat="45.84502" lon="2.94493">
        <ele>903</ele>
        <time>2021-05-30T06:18:14Z</time>
      </trkpt>
      <trkpt lat="45.84502" lon="2.94495">
        <ele>903</ele>
        <time>2021-05-30T06:18:15Z</time>
      </trkpt>
      <trkpt lat="45.84502" lon="2.94496">
        <ele>903</ele>
        <time>2021-05-30T06:18:16Z</time>
      </trkpt>
      <trkpt lat="45.84502" lon="2.94498">
        <ele>903</ele>
        <time>2021-05-30T06:18:17Z</time>
      </trkpt>
      <trkpt lat="45.84502" lon="2.94499">
        <ele>903</ele>
        <time>2021-05-30T06:18:18Z</time>
      </trkpt>
      <trkpt lat="45.84503" lon="2.94501">
        <ele>903</ele>
        <time>2021-05-30T06:18:19Z</time>
      </trkpt>
      <trkpt lat="45.84503" lon="2.94503">
        <ele>903</ele>
        <time>2021-05-30T06:18:20Z</time>
      </trkpt>
      <trkpt lat="45.84503" lon="2.94505">
        <ele>903</ele>
        <time>2021-05-30T06:18:21Z</time>
      </trkpt>
      <trkpt lat="45.84503" lon="2.94507">
        <ele>903</ele>
        <time>2021-05-30T06:18:22Z</time>
      </trkpt>
      <trkpt lat="45.84503" lon="2.9451">
        <ele>903</ele>
        <time>2021-05-30T06:18:23Z</time>
      </trkpt>
      <trkpt lat="45.84503" lon="2.94512">
        <ele>903</ele>
        <time>2021-05-30T06:18:24Z</time>
      </trkpt>
      <trkpt lat="45.84503" lon="2.94514">
        <ele>903</ele>
        <time>2021-05-30T06:18:25Z</time>
      </trkpt>
      <trkpt lat="45.84503" lon="2.94517">
        <ele>903</ele>
        <time>2021-05-30T06:18:26Z</time>
      </trkpt>
      <trkpt lat="45.84503" lon="2.94519">
        <ele>903</ele>
        <time>2021-05-30T06:18:27Z</time>
      </trkpt>
      <trkpt lat="45.84503" lon="2.94521">
        <ele>903</ele>
        <time>2021-05-30T06:18:28Z</time>
      </trkpt>
      <trkpt lat="45.84503" lon="2.94524">
        <ele>903</ele>
        <time>2021-05-30T06:18:29Z</time>
      </trkpt>
      <trkpt lat="45.84503" lon="2.94526">
        <ele>903</ele>
        <time>2021-05-30T06:18:30Z</time>
      </trkpt>
      <trkpt lat="45.84503" lon="2.94528">
        <ele>903</ele>
        <time>2021-05-30T06:18:31Z</time>
      </trkpt>
      <trkpt lat="45.84503" lon="2.9453">
        <ele>903</ele>
        <time>2021-05-30T06:18:32Z</time>
      </trkpt>
      <trkpt lat="45.84503" lon="2.94532">
        <ele>903</ele>
        <time>2021-05-30T06:18:33Z</time>
      </trkpt>
      <trkpt lat="45.84503" lon="2.94534">
        <ele>903</ele>
        <time>2021-05-30T06:18:34Z</time>
      </trkpt>
      <trkpt lat="45.84503" lon="2.94536">
        <ele>903</ele>
        <time>2021-05-30T06:18:35Z</time>
      </trkpt>
      <trkpt lat="45.84503" lon="2.94537">
        <ele>903</ele>
        <time>2021-05-30T06:18:36Z</time>
      </trkpt>
      <trkpt lat="45.84502" lon="2.94539">
        <ele>903</ele>
        <time>2021-05-30T06:18:37Z</time>
      </trkpt>
      <trkpt lat="45.84502" lon="2.94541">
        <ele>903</ele>
        <time>2021-05-30T06:18:38Z</time>
      </trkpt>
      <trkpt lat="45.84501" lon="2.94544">
        <ele>903</ele>
        <time>2021-05-30T06:18:39Z</time>
      </trkpt>
      <trkpt lat="45.84501" lon="2.94546">
        <ele>903</ele>
        <time>2021-05-30T06:18:40Z</time>
      </trkpt>
      <trkpt lat="45.84501" lon="2.94548">
        <ele>903</ele>
        <time>2021-05-30T06:18:41Z</time>
      </trkpt>
      <trkpt lat="45.84501" lon="2.9455">
        <ele>903</ele>
        <time>2021-05-30T06:18:42Z</time>
      </trkpt>
      <trkpt lat="45.84501" lon="2.94553">
        <ele>903</ele>
        <time>2021-05-30T06:18:43Z</time>
      </trkpt>
      <trkpt lat="45.84501" lon="2.94555">
        <ele>903</ele>
        <time>2021-05-30T06:18:44Z</time>
      </trkpt>
      <trkpt lat="45.84501" lon="2.94558">
        <ele>903</ele>
        <time>2021-05-30T06:18:45Z</time>
      </trkpt>
      <trkpt lat="45.84501" lon="2.9456">
        <ele>903</ele>
        <time>2021-05-30T06:18:46Z</time>
      </trkpt>
      <trkpt lat="45.84501" lon="2.94562">
        <ele>903</ele>
        <time>2021-05-30T06:18:47Z</time>
      </trkpt>
      <trkpt lat="45.84501" lon="2.94565">
        <ele>903</ele>
        <time>2021-05-30T06:18:48Z</time>
      </trkpt>
      <trkpt lat="45.84502" lon="2.94567">
        <ele>903</ele>
        <time>2021-05-30T06:18:49Z</time>
      </trkpt>
      <trkpt lat="45.84502" lon="2.94569">
        <ele>903</ele>
        <time>2021-05-30T06:18:50Z</time>
      </trkpt>
      <trkpt lat="45.84502" lon="2.94571">
        <ele>903</ele>
        <time>2021-05-30T06:18:51Z</time>
      </trkpt>
      <trkpt lat="45.84502" lon="2.94573">
        <ele>903</ele>
        <time>2021-05-30T06:18:52Z</time>
      </trkpt>
      <trkpt lat="45.84503" lon="2.94575">
        <ele>903</ele>
        <time>2021-05-30T06:18:53Z</time>
      </trkpt>
      <trkpt lat="45.84503" lon="2.94577">
        <ele>903</ele>
        <time>2021-05-30T06:18:54Z</time>
      </trkpt>
      <trkpt lat="45.84503" lon="2.9458">
        <ele>903</ele>
        <time>2021-05-30T06:18:55Z</time>
      </trkpt>
      <trkpt lat="45.84504" lon="2.94581">
        <ele>903</ele>
        <time>2021-05-30T06:18:56Z</time>
      </trkpt>
      <trkpt lat="45.84504" lon="2.94583">
        <ele>903</ele>
        <time>2021-05-30T06:18:57Z</time>
      </trkpt>
      <trkpt lat="45.84505" lon="2.94585">
        <ele>903</ele>
        <time>2021-05-30T06:18:58Z</time>
      </trkpt>
      <trkpt lat="45.84506" lon="2.94587">
        <ele>903</ele>
        <time>2021-05-30T06:18:59Z</time>
      </trkpt>
      <trkpt lat="45.84506" lon="2.94589">
        <ele>903</ele>
        <time>2021-05-30T06:19:00Z</time>
      </trkpt>
      <trkpt lat="45.84506" lon="2.94591">
        <ele>903</ele>
        <time>2021-05-30T06:19:01Z</time>
      </trkpt>
      <trkpt lat="45.84506" lon="2.94593">
        <ele>903</ele>
        <time>2021-05-30T06:19:02Z</time>
      </trkpt>
      <trkpt lat="45.84506" lon="2.94595">
        <ele>903</ele>
        <time>2021-05-30T06:19:03Z</time>
      </trkpt>
      <trkpt lat="45.84506" lon="2.94596">
        <ele>903</ele>
        <time>2021-05-30T06:19:04Z</time>
      </trkpt>
      <trkpt lat="45.84507" lon="2.94598">
        <ele>903</ele>
        <time>2021-05-30T06:19:05Z</time>
      </trkpt>
      <trkpt lat="45.84507" lon="2.946">
        <ele>903</ele>
        <time>2021-05-30T06:19:06Z</time>
      </trkpt>
      <trkpt lat="45.84507" lon="2.94602">
        <ele>903</ele>
        <time>2021-05-30T06:19:07Z</time>
      </trkpt>
      <trkpt lat="45.84507" lon="2.94603">
        <ele>903</ele>
        <time>2021-05-30T06:19:08Z</time>
      </trkpt>
      <trkpt lat="45.84507" lon="2.94605">
        <ele>903</ele>
        <time>2021-05-30T06:19:09Z</time>
      </trkpt>
      <trkpt lat="45.84507" lon="2.94607">
        <ele>903</ele>
        <time>2021-05-30T06:19:10Z</time>
      </trkpt>
      <trkpt lat="45.84507" lon="2.94608">
        <ele>903</ele>
        <time>2021-05-30T06:19:11Z</time>
      </trkpt>
      <trkpt lat="45.84507" lon="2.9461">
        <ele>903</ele>
        <time>2021-05-30T06:19:12Z</time>
      </trkpt>
      <trkpt lat="45.84507" lon="2.94612">
        <ele>903</ele>
        <time>2021-05-30T06:19:13Z</time>
      </trkpt>
      <trkpt lat="45.84506" lon="2.94613">
        <ele>903</ele>
        <time>2021-05-30T06:19:14Z</time>
      </trkpt>
      <trkpt lat="45.84506" lon="2.94615">
        <ele>903</ele>
        <time>2021-05-30T06:19:15Z</time>
      </trkpt>
      <trkpt lat="45.84506" lon="2.94617">
        <ele>903</ele>
        <time>2021-05-30T06:19:16Z</time>
      </trkpt>
      <trkpt lat="45.84506" lon="2.94618">
        <ele>903</ele>
        <time>2021-05-30T06:19:17Z</time>
      </trkpt>
      <trkpt lat="45.84506" lon="2.9462">
        <ele>903</ele>
        <time>2021-05-30T06:19:18Z</time>
      </trkpt>
      <trkpt lat="45.84505" lon="2.94622">
        <ele>903</ele>
        <time>2021-05-30T06:19:19Z</time>
      </trkpt>
      <trkpt lat="45.84505" lon="2.94625">
        <ele>903</ele>
        <time>2021-05-30T06:19:20Z</time>
      </trkpt>
      <trkpt lat="45.84505" lon="2.94627">
        <ele>903</ele>
        <time>2021-05-30T06:19:21Z</time>
      </trkpt>
      <trkpt lat="45.84505" lon="2.9463">
        <ele>903</ele>
        <time>2021-05-30T06:19:22Z</time>
      </trkpt>
      <trkpt lat="45.84505" lon="2.94632">
        <ele>903</ele>
        <time>2021-05-30T06:19:23Z</time>
      </trkpt>
      <trkpt lat="45.84505" lon="2.94635">
        <ele>903</ele>
        <time>2021-05-30T06:19:24Z</time>
      </trkpt>
      <trkpt lat="45.84506" lon="2.94637">
        <ele>903</ele>
        <time>2021-05-30T06:19:25Z</time>
      </trkpt>
      <trkpt lat="45.84506" lon="2.9464">
        <ele>903</ele>
        <time>2021-05-30T06:19:26Z</time>
      </trkpt>
      <trkpt lat="45.84506" lon="2.94643">
        <ele>903</ele>
        <time>2021-05-30T06:19:27Z</time>
      </trkpt>
      <trkpt lat="45.84506" lon="2.94645">
        <ele>903</ele>
        <time>2021-05-30T06:19:28Z</time>
      </trkpt>
      <trkpt lat="45.84506" lon="2.94648">
        <ele>903</ele>
        <time>2021-05-30T06:19:29Z</time>
      </trkpt>
      <trkpt lat="45.84506" lon="2.9465">
        <ele>903</ele>
        <time>2021-05-30T06:19:30Z</time>
      </trkpt>
      <trkpt lat="45.84506" lon="2.94653">
        <ele>903</ele>
        <time>2021-05-30T06:19:31Z</time>
      </trkpt>
      <trkpt lat="45.84506" lon="2.94655">
        <ele>903</ele>
        <time>2021-05-30T06:19:32Z</time>
      </trkpt>
      <trkpt lat="45.84506" lon="2.94658">
        <ele>903</ele>
        <time>2021-05-30T06:19:33Z</time>
      </trkpt>
      <trkpt lat="45.84506" lon="2.9466">
        <ele>903</ele>
        <time>2021-05-30T06:19:34Z</time>
      </trkpt>
      <trkpt lat="45.84506" lon="2.94663">
        <ele>903</ele>
        <time>2021-05-30T06:19:35Z</time>
      </trkpt>
      <trkpt lat="45.84506" lon="2.94666">
        <ele>903</ele>
        <time>2021-05-30T06:19:36Z</time>
      </trkpt>
      <trkpt lat="45.84506" lon="2.94669">
        <ele>903</ele>
        <time>2021-05-30T06:19:37Z</time>
      </trkpt>
      <trkpt lat="45.84507" lon="2.94672">
        <ele>903</ele>
        <time>2021-05-30T06:19:38Z</time>
      </trkpt>
      <trkpt lat="45.84507" lon="2.94675">
        <ele>903</ele>
        <time>2021-05-30T06:19:39Z</time>
      </trkpt>
      <trkpt lat="45.84507" lon="2.94678">
        <ele>903</ele>
        <time>2021-05-30T06:19:40Z</time>
      </trkpt>
      <trkpt lat="45.84508" lon="2.94682">
        <ele>903</ele>
        <time>2021-05-30T06:19:41Z</time>
      </trkpt>
      <trkpt lat="45.84509" lon="2.94686">
        <ele>903</ele>
        <time>2021-05-30T06:19:42Z</time>
      </trkpt>
      <trkpt lat="45.84509" lon="2.94689">
        <ele>903</ele>
        <time>2021-05-30T06:19:43Z</time>
      </trkpt>
      <trkpt lat="45.84509" lon="2.94693">
        <ele>903</ele>
        <time>2021-05-30T06:19:44Z</time>
      </trkpt>
      <trkpt lat="45.84509" lon="2.94696">
        <ele>903</ele>
        <time>2021-05-30T06:19:45Z</time>
      </trkpt>
      <trkpt lat="45.84509" lon="2.94699">
        <ele>903</ele>
        <time>2021-05-30T06:19:46Z</time>
      </trkpt>
      <trkpt lat="45.84509" lon="2.94702">
        <ele>903</ele>
        <time>2021-05-30T06:19:47Z</time>
      </trkpt>
      <trkpt lat="45.8451" lon="2.94705">
        <ele>903</ele>
        <time>2021-05-30T06:19:48Z</time>
      </trkpt>
      <trkpt lat="45.8451" lon="2.94708">
        <ele>903</ele>
        <time>2021-05-30T06:19:49Z</time>
      </trkpt>
      <trkpt lat="45.8451" lon="2.94712">
        <ele>903</ele>
        <time>2021-05-30T06:19:50Z</time>
      </trkpt>
      <trkpt lat="45.84511" lon="2.94715">
        <ele>903</ele>
        <time>2021-05-30T06:19:51Z</time>
      </trkpt>
      <trkpt lat="45.84512" lon="2.94717">
        <ele>903</ele>
        <time>2021-05-30T06:19:52Z</time>
      </trkpt>
      <trkpt lat="45.84512" lon="2.9472">
        <ele>903</ele>
        <time>2021-05-30T06:19:53Z</time>
      </trkpt>
      <trkpt lat="45.84512" lon="2.94722">
        <ele>903</ele>
        <time>2021-05-30T06:19:54Z</time>
      </trkpt>
      <trkpt lat="45.84512" lon="2.94725">
        <ele>903</ele>
        <time>2021-05-30T06:19:55Z</time>
      </trkpt>
      <trkpt lat="45.84512" lon="2.94727">
        <ele>903</ele>
        <time>2021-05-30T06:19:56Z</time>
      </trkpt>
      <trkpt lat="45.84513" lon="2.94729">
        <ele>903</ele>
        <time>2021-05-30T06:19:57Z</time>
      </trkpt>
      <trkpt lat="45.84513" lon="2.94731">
        <ele>903</ele>
        <time>2021-05-30T06:19:58Z</time>
      </trkpt>
      <trkpt lat="45.84514" lon="2.94733">
        <ele>903</ele>
        <time>2021-05-30T06:19:59Z</time>
      </trkpt>
      <trkpt lat="45.84514" lon="2.94735">
        <ele>903</ele>
        <time>2021-05-30T06:20:00Z</time>
      </trkpt>
      <trkpt lat="45.84514" lon="2.94737">
        <ele>903</ele>
        <time>2021-05-30T06:20:01Z</time>
      </trkpt>
      <trkpt lat="45.84514" lon="2.94739">
        <ele>903</ele>
        <time>2021-05-30T06:20:02Z</time>
      </trkpt>
      <trkpt lat="45.84515" lon="2.94742">
        <ele>903</ele>
        <time>2021-05-30T06:20:03Z</time>
      </trkpt>
      <trkpt lat="45.84515" lon="2.94744">
        <ele>903</ele>
        <time>2021-05-30T06:20:04Z</time>
      </trkpt>
      <trkpt lat="45.84516" lon="2.94747">
        <ele>903</ele>
        <time>2021-05-30T06:20:05Z</time>
      </trkpt>
      <trkpt lat="45.84516" lon="2.9475">
        <ele>903</ele>
        <time>2021-05-30T06:20:06Z</time>
      </trkpt>
      <trkpt lat="45.84516" lon="2.94753">
        <ele>903</ele>
        <time>2021-05-30T06:20:07Z</time>
      </trkpt>
      <trkpt lat="45.84517" lon="2.94756">
        <ele>903</ele>
        <time>2021-05-30T06:20:08Z</time>
      </trkpt>
      <trkpt lat="45.84517" lon="2.94758">
        <ele>903</ele>
        <time>2021-05-30T06:20:09Z</time>
      </trkpt>
      <trkpt lat="45.84518" lon="2.94761">
        <ele>903</ele>
        <time>2021-05-30T06:20:10Z</time>
      </trkpt>
      <trkpt lat="45.84519" lon="2.94764">
        <ele>903</ele>
        <time>2021-05-30T06:20:11Z</time>
      </trkpt>
      <trkpt lat="45.84519" lon="2.94767">
        <ele>903</ele>
        <time>2021-05-30T06:20:12Z</time>
      </trkpt>
      <trkpt lat="45.8452" lon="2.94771">
        <ele>903</ele>
        <time>2021-05-30T06:20:13Z</time>
      </trkpt>
      <trkpt lat="45.84521" lon="2.94774">
        <ele>903</ele>
        <time>2021-05-30T06:20:14Z</time>
      </trkpt>
      <trkpt lat="45.84522" lon="2.94777">
        <ele>903</ele>
        <time>2021-05-30T06:20:15Z</time>
      </trkpt>
      <trkpt lat="45.84523" lon="2.94779">
        <ele>903</ele>
        <time>2021-05-30T06:20:16Z</time>
      </trkpt>
      <trkpt lat="45.84524" lon="2.94782">
        <ele>903</ele>
        <time>2021-05-30T06:20:17Z</time>
      </trkpt>
      <trkpt lat="45.84525" lon="2.94785">
        <ele>903</ele>
        <time>2021-05-30T06:20:18Z</time>
      </trkpt>
      <trkpt lat="45.84525" lon="2.94788">
        <ele>903</ele>
        <time>2021-05-30T06:20:19Z</time>
      </trkpt>
      <trkpt lat="45.84526" lon="2.94791">
        <ele>903</ele>
        <time>2021-05-30T06:20:20Z</time>
      </trkpt>
      <trkpt lat="45.84527" lon="2.94795">
        <ele>903</ele>
        <time>2021-05-30T06:20:21Z</time>
      </trkpt>
      <trkpt lat="45.84527" lon="2.94798">
        <ele>903</ele>
        <time>2021-05-30T06:20:22Z</time>
      </trkpt>
      <trkpt lat="45.84527" lon="2.94801">
        <ele>903</ele>
        <time>2021-05-30T06:20:23Z</time>
      </trkpt>
      <trkpt lat="45.84528" lon="2.94804">
        <ele>903</ele>
        <time>2021-05-30T06:20:24Z</time>
      </trkpt>
      <trkpt lat="45.84528" lon="2.94807">
        <ele>903</ele>
        <time>2021-05-30T06:20:25Z</time>
      </trkpt>
      <trkpt lat="45.84528" lon="2.94809">
        <ele>903</ele>
        <time>2021-05-30T06:20:26Z</time>
      </trkpt>
      <trkpt lat="45.84528" lon="2.94811">
        <ele>903</ele>
        <time>2021-05-30T06:20:27Z</time>
      </trkpt>
      <trkpt lat="45.8453" lon="2.94813">
        <ele>903</ele>
        <time>2021-05-30T06:20:28Z</time>
      </trkpt>
      <trkpt lat="45.8453" lon="2.94815">
        <ele>903</ele>
        <time>2021-05-30T06:20:29Z</time>
      </trkpt>
      <trkpt lat="45.8453" lon="2.94816">
        <ele>903</ele>
        <time>2021-05-30T06:20:30Z</time>
      </trkpt>
      <trkpt lat="45.84531" lon="2.94818">
        <ele>903</ele>
        <time>2021-05-30T06:20:31Z</time>
      </trkpt>
      <trkpt lat="45.84532" lon="2.94819">
        <ele>903</ele>
        <time>2021-05-30T06:20:32Z</time>
      </trkpt>
      <trkpt lat="45.84533" lon="2.94821">
        <ele>903</ele>
        <time>2021-05-30T06:20:33Z</time>
      </trkpt>
      <trkpt lat="45.84534" lon="2.94823">
        <ele>903</ele>
        <time>2021-05-30T06:20:34Z</time>
      </trkpt>
      <trkpt lat="45.84534" lon="2.94824">
        <ele>903</ele>
        <time>2021-05-30T06:20:35Z</time>
      </trkpt>
      <trkpt lat="45.84535" lon="2.94826">
        <ele>903</ele>
        <time>2021-05-30T06:20:36Z</time>
      </trkpt>
      <trkpt lat="45.84536" lon="2.94827">
        <ele>903</ele>
        <time>2021-05-30T06:20:37Z</time>
      </trkpt>
      <trkpt lat="45.84536" lon="2.94828">
        <ele>903</ele>
        <time>2021-05-30T06:20:38Z</time>
      </trkpt>
      <trkpt lat="45.84537" lon="2.9483">
        <ele>903</ele>
        <time>2021-05-30T06:20:39Z</time>
      </trkpt>
      <trkpt lat="45.84537" lon="2.94831">
        <ele>903</ele>
        <time>2021-05-30T06:20:40Z</time>
      </trkpt>
      <trkpt lat="45.84538" lon="2.94833">
        <ele>903</ele>
        <time>2021-05-30T06:20:41Z</time>
      </trkpt>
      <trkpt lat="45.84538" lon="2.94834">
        <ele>903</ele>
        <time>2021-05-30T06:20:42Z</time>
      </trkpt>
      <trkpt lat="45.84539" lon="2.94836">
        <ele>903</ele>
        <time>2021-05-30T06:20:43Z</time>
      </trkpt>
      <trkpt lat="45.8454" lon="2.94837">
        <ele>903</ele>
        <time>2021-05-30T06:20:44Z</time>
      </trkpt>
      <trkpt lat="45.8454" lon="2.94838">
        <ele>903</ele>
        <time>2021-05-30T06:20:45Z</time>
      </trkpt>
      <trkpt lat="45.84541" lon="2.94838">
        <ele>903</ele>
        <time>2021-05-30T06:20:46Z</time>
      </trkpt>
      <trkpt lat="45.84541" lon="2.94839">
        <ele>903</ele>
        <time>2021-05-30T06:20:47Z</time>
      </trkpt>
      <trkpt lat="45.84542" lon="2.94839">
        <ele>903</ele>
        <time>2021-05-30T06:20:48Z</time>
      </trkpt>
      <trkpt lat="45.84542" lon="2.9484">
        <ele>903</ele>
        <time>2021-05-30T06:20:49Z</time>
      </trkpt>
      <trkpt lat="45.84543" lon="2.94841">
        <ele>903</ele>
        <time>2021-05-30T06:20:50Z</time>
      </trkpt>
      <trkpt lat="45.84543" lon="2.94841">
        <ele>903</ele>
        <time>2021-05-30T06:20:51Z</time>
      </trkpt>
      <trkpt lat="45.84544" lon="2.94842">
        <ele>903</ele>
        <time>2021-05-30T06:20:52Z</time>
      </trkpt>
      <trkpt lat="45.84544" lon="2.94843">
        <ele>903</ele>
        <time>2021-05-30T06:20:53Z</time>
      </trkpt>
      <trkpt lat="45.84545" lon="2.94844">
        <ele>903</ele>
        <time>2021-05-30T06:20:54Z</time>
      </trkpt>
      <trkpt lat="45.84546" lon="2.94844">
        <ele>903</ele>
        <time>2021-05-30T06:20:55Z</time>
      </trkpt>
      <trkpt lat="45.84546" lon="2.94845">
        <ele>903</ele>
        <time>2021-05-30T06:20:56Z</time>
      </trkpt>
      <trkpt lat="45.84547" lon="2.94846">
        <ele>903</ele>
        <time>2021-05-30T06:20:57Z</time>
      </trkpt>
      <trkpt lat="45.84548" lon="2.94847">
        <ele>903</ele>
        <time>2021-05-30T06:20:58Z</time>
      </trkpt>
      <trkpt lat="45.84548" lon="2.94847">
        <ele>903</ele>
        <time>2021-05-30T06:20:59Z</time>
      </trkpt>
      <trkpt lat="45.84549" lon="2.94848">
        <ele>903</ele>
        <time>2021-05-30T06:21:00Z</time>
      </trkpt>
      <trkpt lat="45.84551" lon="2.94849">
        <ele>903</ele>
        <time>2021-05-30T06:21:01Z</time>
      </trkpt>
      <trkpt lat="45.84551" lon="2.9485">
        <ele>903</ele>
        <time>2021-05-30T06:21:02Z</time>
      </trkpt>
      <trkpt lat="45.84552" lon="2.94851">
        <ele>903</ele>
        <time>2021-05-30T06:21:02Z</time>
      </trkpt>
      <trkpt lat="45.84554" lon="2.94852">
        <ele>903</ele>
        <time>2021-05-30T06:21:03Z</time>
      </trkpt>
      <trkpt lat="45.84555" lon="2.94853">
        <ele>903</ele>
        <time>2021-05-30T06:21:04Z</time>
      </trkpt>
      <trkpt lat="45.84555" lon="2.94854">
        <ele>903</ele>
        <time>2021-05-30T06:21:05Z</time>
      </trkpt>
      <trkpt lat="45.84557" lon="2.94855">
        <ele>903</ele>
        <time>2021-05-30T06:21:06Z</time>
      </trkpt>
      <trkpt lat="45.84558" lon="2.94856">
        <ele>903</ele>
        <time>2021-05-30T06:21:07Z</time>
      </trkpt>
      <trkpt lat="45.84559" lon="2.94857">
        <ele>903</ele>
        <time>2021-05-30T06:21:08Z</time>
      </trkpt>
      <trkpt lat="45.8456" lon="2.94858">
        <ele>903</ele>
        <time>2021-05-30T06:21:09Z</time>
      </trkpt>
      <trkpt lat="45.84561" lon="2.94859">
        <ele>903</ele>
        <time>2021-05-30T06:21:10Z</time>
      </trkpt>
      <trkpt lat="45.84562" lon="2.9486">
        <ele>903</ele>
        <time>2021-05-30T06:21:11Z</time>
      </trkpt>
      <trkpt lat="45.84563" lon="2.94861">
        <ele>903</ele>
        <time>2021-05-30T06:21:12Z</time>
      </trkpt>
      <trkpt lat="45.84563" lon="2.94862">
        <ele>903</ele>
        <time>2021-05-30T06:21:13Z</time>
      </trkpt>
      <trkpt lat="45.84564" lon="2.94863">
        <ele>903</ele>
        <time>2021-05-30T06:21:14Z</time>
      </trkpt>
      <trkpt lat="45.84564" lon="2.94863">
        <ele>903</ele>
        <time>2021-05-30T06:21:15Z</time>
      </trkpt>
      <trkpt lat="45.84565" lon="2.94864">
        <ele>903</ele>
        <time>2021-05-30T06:21:16Z</time>
      </trkpt>
      <trkpt lat="45.84566" lon="2.94865">
        <ele>903</ele>
        <time>2021-05-30T06:21:17Z</time>
      </trkpt>
      <trkpt lat="45.84566" lon="2.94865">
        <ele>903</ele>
        <time>2021-05-30T06:21:18Z</time>
      </trkpt>
      <trkpt lat="45.84567" lon="2.94866">
        <ele>903</ele>
        <time>2021-05-30T06:21:19Z</time>
      </trkpt>
      <trkpt lat="45.84568" lon="2.94866">
        <ele>903</ele>
        <time>2021-05-30T06:21:20Z</time>
      </trkpt>
      <trkpt lat="45.84569" lon="2.94867">
        <ele>903</ele>
        <time>2021-05-30T06:21:21Z</time>
      </trkpt>
      <trkpt lat="45.8457" lon="2.94868">
        <ele>903</ele>
        <time>2021-05-30T06:21:22Z</time>
      </trkpt>
      <trkpt lat="45.84571" lon="2.94869">
        <ele>903</ele>
        <time>2021-05-30T06:21:23Z</time>
      </trkpt>
      <trkpt lat="45.84572" lon="2.9487">
        <ele>903</ele>
        <time>2021-05-30T06:21:24Z</time>
      </trkpt>
      <trkpt lat="45.84572" lon="2.94872">
        <ele>903</ele>
        <time>2021-05-30T06:21:25Z</time>
      </trkpt>
      <trkpt lat="45.84573" lon="2.94874">
        <ele>903</ele>
        <time>2021-05-30T06:21:26Z</time>
      </trkpt>
      <trkpt lat="45.84573" lon="2.94875">
        <ele>903</ele>
        <time>2021-05-30T06:21:27Z</time>
      </trkpt>
      <trkpt lat="45.84573" lon="2.94877">
        <ele>903</ele>
        <time>2021-05-30T06:21:28Z</time>
      </trkpt>
      <trkpt lat="45.84573" lon="2.94879">
        <ele>903</ele>
        <time>2021-05-30T06:21:29Z</time>
      </trkpt>
      <trkpt lat="45.84574" lon="2.9488">
        <ele>903</ele>
        <time>2021-05-30T06:21:30Z</time>
      </trkpt>
      <trkpt lat="45.84575" lon="2.94882">
        <ele>903</ele>
        <time>2021-05-30T06:21:31Z</time>
      </trkpt>
      <trkpt lat="45.84575" lon="2.94884">
        <ele>903</ele>
        <time>2021-05-30T06:21:32Z</time>
      </trkpt>
      <trkpt lat="45.84576" lon="2.94886">
        <ele>903</ele>
        <time>2021-05-30T06:21:33Z</time>
      </trkpt>
      <trkpt lat="45.84577" lon="2.94888">
        <ele>903</ele>
        <time>2021-05-30T06:21:34Z</time>
      </trkpt>
      <trkpt lat="45.84578" lon="2.94889">
        <ele>903</ele>
        <time>2021-05-30T06:21:35Z</time>
      </trkpt>
      <trkpt lat="45.84579" lon="2.9489">
        <ele>903</ele>
        <time>2021-05-30T06:21:36Z</time>
      </trkpt>
      <trkpt lat="45.8458" lon="2.94891">
        <ele>903</ele>
        <time>2021-05-30T06:21:37Z</time>
      </trkpt>
      <trkpt lat="45.8458" lon="2.94892">
        <ele>903</ele>
        <time>2021-05-30T06:21:38Z</time>
      </trkpt>
      <trkpt lat="45.84581" lon="2.94894">
        <ele>903</ele>
        <time>2021-05-30T06:21:39Z</time>
      </trkpt>
      <trkpt lat="45.84581" lon="2.94895">
        <ele>903</ele>
        <time>2021-05-30T06:21:40Z</time>
      </trkpt>
      <trkpt lat="45.84582" lon="2.94896">
        <ele>903</ele>
        <time>2021-05-30T06:21:41Z</time>
      </trkpt>
      <trkpt lat="45.84583" lon="2.94897">
        <ele>903</ele>
        <time>2021-05-30T06:21:42Z</time>
      </trkpt>
      <trkpt lat="45.84583" lon="2.94898">
        <ele>903</ele>
        <time>2021-05-30T06:21:43Z</time>
      </trkpt>
      <trkpt lat="45.84584" lon="2.94899">
        <ele>903</ele>
        <time>2021-05-30T06:21:44Z</time>
      </trkpt>
      <trkpt lat="45.84585" lon="2.949">
        <ele>903</ele>
        <time>2021-05-30T06:21:45Z</time>
      </trkpt>
      <trkpt lat="45.84585" lon="2.94901">
        <ele>903</ele>
        <time>2021-05-30T06:21:46Z</time>
      </trkpt>
      <trkpt lat="45.84586" lon="2.94903">
        <ele>903</ele>
        <time>2021-05-30T06:21:47Z</time>
      </trkpt>
      <trkpt lat="45.84587" lon="2.94904">
        <ele>903</ele>
        <time>2021-05-30T06:21:48Z</time>
      </trkpt>
      <trkpt lat="45.84588" lon="2.94906">
        <ele>903</ele>
        <time>2021-05-30T06:21:49Z</time>
      </trkpt>
      <trkpt lat="45.84589" lon="2.94907">
        <ele>903</ele>
        <time>2021-05-30T06:21:50Z</time>
      </trkpt>
      <trkpt lat="45.8459" lon="2.94909">
        <ele>903</ele>
        <time>2021-05-30T06:21:51Z</time>
      </trkpt>
      <trkpt lat="45.8459" lon="2.94911">
        <ele>903</ele>
        <time>2021-05-30T06:21:52Z</time>
      </trkpt>
      <trkpt lat="45.84591" lon="2.94913">
        <ele>903</ele>
        <time>2021-05-30T06:21:53Z</time>
      </trkpt>
      <trkpt lat="45.84592" lon="2.94915">
        <ele>903</ele>
        <time>2021-05-30T06:21:54Z</time>
      </trkpt>
      <trkpt lat="45.84593" lon="2.94916">
        <ele>903</ele>
        <time>2021-05-30T06:21:55Z</time>
      </trkpt>
      <trkpt lat="45.84594" lon="2.94918">
        <ele>903</ele>
        <time>2021-05-30T06:21:56Z</time>
      </trkpt>
      <trkpt lat="45.84595" lon="2.94921">
        <ele>903</ele>
        <time>2021-05-30T06:21:57Z</time>
      </trkpt>
      <trkpt lat="45.84596" lon="2.94923">
        <ele>903</ele>
        <time>2021-05-30T06:21:58Z</time>
      </trkpt>
      <trkpt lat="45.84596" lon="2.94926">
        <ele>903</ele>
        <time>2021-05-30T06:21:59Z</time>
      </trkpt>
      <trkpt lat="45.84597" lon="2.94929">
        <ele>903</ele>
        <time>2021-05-30T06:22:00Z</time>
      </trkpt>
      <trkpt lat="45.84598" lon="2.94931">
        <ele>903</ele>
        <time>2021-05-30T06:22:01Z</time>
      </trkpt>
      <trkpt lat="45.84599" lon="2.94933">
        <ele>903</ele>
        <time>2021-05-30T06:22:02Z</time>
      </trkpt>
      <trkpt lat="45.846" lon="2.94935">
        <ele>903</ele>
        <time>2021-05-30T06:22:03Z</time>
      </trkpt>
      <trkpt lat="45.846" lon="2.94937">
        <ele>903</ele>
        <time>2021-05-30T06:22:04Z</time>
      </trkpt>
      <trkpt lat="45.84602" lon="2.9494">
        <ele>903</ele>
        <time>2021-05-30T06:22:05Z</time>
      </trkpt>
      <trkpt lat="45.84602" lon="2.94942">
        <ele>903</ele>
        <time>2021-05-30T06:22:06Z</time>
      </trkpt>
      <trkpt lat="45.84603" lon="2.94944">
        <ele>903</ele>
        <time>2021-05-30T06:22:07Z</time>
      </trkpt>
      <trkpt lat="45.84603" lon="2.94947">
        <ele>903</ele>
        <time>2021-05-30T06:22:08Z</time>
      </trkpt>
      <trkpt lat="45.84603" lon="2.9495">
        <ele>903</ele>
        <time>2021-05-30T06:22:09Z</time>
      </trkpt>
      <trkpt lat="45.84604" lon="2.94952">
        <ele>903</ele>
        <time>2021-05-30T06:22:10Z</time>
      </trkpt>
      <trkpt lat="45.84604" lon="2.94955">
        <ele>903</ele>
        <time>2021-05-30T06:22:11Z</time>
      </trkpt>
      <trkpt lat="45.84604" lon="2.94957">
        <ele>903</ele>
        <time>2021-05-30T06:22:12Z</time>
      </trkpt>
      <trkpt lat="45.84605" lon="2.94959">
        <ele>903</ele>
        <time>2021-05-30T06:22:13Z</time>
      </trkpt>
      <trkpt lat="45.84606" lon="2.94961">
        <ele>903</ele>
        <time>2021-05-30T06:22:14Z</time>
      </trkpt>
      <trkpt lat="45.84606" lon="2.94963">
        <ele>903</ele>
        <time>2021-05-30T06:22:15Z</time>
      </trkpt>
      <trkpt lat="45.84607" lon="2.94965">
        <ele>903</ele>
        <time>2021-05-30T06:22:16Z</time>
      </trkpt>
      <trkpt lat="45.84608" lon="2.94967">
        <ele>903</ele>
        <time>2021-05-30T06:22:17Z</time>
      </trkpt>
      <trkpt lat="45.84608" lon="2.94968">
        <ele>903</ele>
        <time>2021-05-30T06:22:18Z</time>
      </trkpt>
      <trkpt lat="45.84609" lon="2.9497">
        <ele>903</ele>
        <time>2021-05-30T06:22:19Z</time>
      </trkpt>
      <trkpt lat="45.84609" lon="2.94972">
        <ele>903</ele>
        <time>2021-05-30T06:22:20Z</time>
      </trkpt>
      <trkpt lat="45.8461" lon="2.94974">
        <ele>903</ele>
        <time>2021-05-30T06:22:21Z</time>
      </trkpt>
      <trkpt lat="45.8461" lon="2.94976">
        <ele>903</ele>
        <time>2021-05-30T06:22:22Z</time>
      </trkpt>
      <trkpt lat="45.8461" lon="2.94977">
        <ele>903</ele>
        <time>2021-05-30T06:22:23Z</time>
      </trkpt>
      <trkpt lat="45.84611" lon="2.94979">
        <ele>903</ele>
        <time>2021-05-30T06:22:24Z</time>
      </trkpt>
      <trkpt lat="45.84611" lon="2.94981">
        <ele>903</ele>
        <time>2021-05-30T06:22:25Z</time>
      </trkpt>
      <trkpt lat="45.84612" lon="2.94983">
        <ele>903</ele>
        <time>2021-05-30T06:22:26Z</time>
      </trkpt>
      <trkpt lat="45.84612" lon="2.94985">
        <ele>903</ele>
        <time>2021-05-30T06:22:27Z</time>
      </trkpt>
      <trkpt lat="45.84612" lon="2.94988">
        <ele>903</ele>
        <time>2021-05-30T06:22:28Z</time>
      </trkpt>
      <trkpt lat="45.84613" lon="2.9499">
        <ele>903</ele>
        <time>2021-05-30T06:22:29Z</time>
      </trkpt>
      <trkpt lat="45.84613" lon="2.94992">
        <ele>903</ele>
        <time>2021-05-30T06:22:30Z</time>
      </trkpt>
      <trkpt lat="45.84615" lon="2.94994">
        <ele>903</ele>
        <time>2021-05-30T06:22:31Z</time>
      </trkpt>
      <trkpt lat="45.84615" lon="2.94996">
        <ele>903</ele>
        <time>2021-05-30T06:22:32Z</time>
      </trkpt>
      <trkpt lat="45.84616" lon="2.94998">
        <ele>903</ele>
        <time>2021-05-30T06:22:33Z</time>
      </trkpt>
      <trkpt lat="45.84617" lon="2.95">
        <ele>903</ele>
        <time>2021-05-30T06:22:34Z</time>
      </trkpt>
      <trkpt lat="45.84617" lon="2.95001">
        <ele>903</ele>
        <time>2021-05-30T06:22:35Z</time>
      </trkpt>
      <trkpt lat="45.84618" lon="2.95003">
        <ele>903</ele>
        <time>2021-05-30T06:22:36Z</time>
      </trkpt>
      <trkpt lat="45.84618" lon="2.95005">
        <ele>903</ele>
        <time>2021-05-30T06:22:37Z</time>
      </trkpt>
      <trkpt lat="45.84618" lon="2.95007">
        <ele>903</ele>
        <time>2021-05-30T06:22:38Z</time>
      </trkpt>
      <trkpt lat="45.84619" lon="2.95009">
        <ele>903</ele>
        <time>2021-05-30T06:22:39Z</time>
      </trkpt>
      <trkpt lat="45.8462" lon="2.95011">
        <ele>903</ele>
        <time>2021-05-30T06:22:40Z</time>
      </trkpt>
      <trkpt lat="45.8462" lon="2.95013">
        <ele>903</ele>
        <time>2021-05-30T06:22:41Z</time>
      </trkpt>
      <trkpt lat="45.84621" lon="2.95014">
        <ele>903</ele>
        <time>2021-05-30T06:22:42Z</time>
      </trkpt>
      <trkpt lat="45.84621" lon="2.95016">
        <ele>903</ele>
        <time>2021-05-30T06:22:43Z</time>
      </trkpt>
      <trkpt lat="45.84621" lon="2.95018">
        <ele>903</ele>
        <time>2021-05-30T06:22:44Z</time>
      </trkpt>
      <trkpt lat="45.84622" lon="2.9502">
        <ele>903</ele>
        <time>2021-05-30T06:22:45Z</time>
      </trkpt>
      <trkpt lat="45.84623" lon="2.95022">
        <ele>903</ele>
        <time>2021-05-30T06:22:46Z</time>
      </trkpt>
      <trkpt lat="45.84623" lon="2.95024">
        <ele>903</ele>
        <time>2021-05-30T06:22:47Z</time>
      </trkpt>
      <trkpt lat="45.84623" lon="2.95026">
        <ele>903</ele>
        <time>2021-05-30T06:22:48Z</time>
      </trkpt>
      <trkpt lat="45.84623" lon="2.95028">
        <ele>903</ele>
        <time>2021-05-30T06:22:49Z</time>
      </trkpt>
      <trkpt lat="45.84623" lon="2.9503">
        <ele>903</ele>
        <time>2021-05-30T06:22:50Z</time>
      </trkpt>
      <trkpt lat="45.84623" lon="2.95033">
        <ele>903</ele>
        <time>2021-05-30T06:22:51Z</time>
      </trkpt>
      <trkpt lat="45.84623" lon="2.95036">
        <ele>903</ele>
        <time>2021-05-30T06:22:52Z</time>
      </trkpt>
      <trkpt lat="45.84623" lon="2.95039">
        <ele>903</ele>
        <time>2021-05-30T06:22:53Z</time>
      </trkpt>
      <trkpt lat="45.84623" lon="2.95042">
        <ele>903</ele>
        <time>2021-05-30T06:22:54Z</time>
      </trkpt>
      <trkpt lat="45.84623" lon="2.95045">
        <ele>903</ele>
        <time>2021-05-30T06:22:55Z</time>
      </trkpt>
      <trkpt lat="45.84623" lon="2.95048">
        <ele>903</ele>
        <time>2021-05-30T06:22:56Z</time>
      </trkpt>
      <trkpt lat="45.84623" lon="2.95051">
        <ele>903</ele>
        <time>2021-05-30T06:22:57Z</time>
      </trkpt>
      <trkpt lat="45.84624" lon="2.95053">
        <ele>903</ele>
        <time>2021-05-30T06:22:58Z</time>
      </trkpt>
      <trkpt lat="45.84624" lon="2.95055">
        <ele>903</ele>
        <time>2021-05-30T06:22:59Z</time>
      </trkpt>
      <trkpt lat="45.84624" lon="2.95057">
        <ele>903</ele>
        <time>2021-05-30T06:23:00Z</time>
      </trkpt>
      <trkpt lat="45.84624" lon="2.95059">
        <ele>903</ele>
        <time>2021-05-30T06:23:01Z</time>
      </trkpt>
      <trkpt lat="45.84625" lon="2.95061">
        <ele>903</ele>
        <time>2021-05-30T06:23:02Z</time>
      </trkpt>
      <trkpt lat="45.84625" lon="2.95062">
        <ele>903</ele>
        <time>2021-05-30T06:23:03Z</time>
      </trkpt>
      <trkpt lat="45.84625" lon="2.95063">
        <ele>903</ele>
        <time>2021-05-30T06:23:04Z</time>
      </trkpt>
      <trkpt lat="45.84626" lon="2.95064">
        <ele>903</ele>
        <time>2021-05-30T06:23:05Z</time>
      </trkpt>
      <trkpt lat="45.84626" lon="2.95066">
        <ele>903</ele>
        <time>2021-05-30T06:23:06Z</time>
      </trkpt>
      <trkpt lat="45.84627" lon="2.95068">
        <ele>903</ele>
        <time>2021-05-30T06:23:07Z</time>
      </trkpt>
      <trkpt lat="45.84627" lon="2.95069">
        <ele>903</ele>
        <time>2021-05-30T06:23:08Z</time>
      </trkpt>
      <trkpt lat="45.84627" lon="2.95071">
        <ele>903</ele>
        <time>2021-05-30T06:23:09Z</time>
      </trkpt>
      <trkpt lat="45.84628" lon="2.95072">
        <ele>903</ele>
        <time>2021-05-30T06:23:10Z</time>
      </trkpt>
      <trkpt lat="45.84628" lon="2.95074">
        <ele>903</ele>
        <time>2021-05-30T06:23:11Z</time>
      </trkpt>
      <trkpt lat="45.84629" lon="2.95076">
        <ele>903</ele>
        <time>2021-05-30T06:23:12Z</time>
      </trkpt>
      <trkpt lat="45.84629" lon="2.95077">
        <ele>903</ele>
        <time>2021-05-30T06:23:13Z</time>
      </trkpt>
      <trkpt lat="45.84629" lon="2.95079">
        <ele>903</ele>
        <time>2021-05-30T06:23:14Z</time>
      </trkpt>
      <trkpt lat="45.8463" lon="2.9508">
        <ele>903</ele>
        <time>2021-05-30T06:23:15Z</time>
      </trkpt>
      <trkpt lat="45.8463" lon="2.95082">
        <ele>903</ele>
        <time>2021-05-30T06:23:16Z</time>
      </trkpt>
      <trkpt lat="45.8463" lon="2.95084">
        <ele>903</ele>
        <time>2021-05-30T06:23:17Z</time>
      </trkpt>
      <trkpt lat="45.84631" lon="2.95085">
        <ele>903</ele>
        <time>2021-05-30T06:23:18Z</time>
      </trkpt>
      <trkpt lat="45.84631" lon="2.95087">
        <ele>903</ele>
        <time>2021-05-30T06:23:19Z</time>
      </trkpt>
      <trkpt lat="45.84631" lon="2.95089">
        <ele>903</ele>
        <time>2021-05-30T06:23:20Z</time>
      </trkpt>
      <trkpt lat="45.84632" lon="2.9509">
        <ele>903</ele>
        <time>2021-05-30T06:23:21Z</time>
      </trkpt>
      <trkpt lat="45.84633" lon="2.95092">
        <ele>903</ele>
        <time>2021-05-30T06:23:22Z</time>
      </trkpt>
      <trkpt lat="45.84633" lon="2.95094">
        <ele>903</ele>
        <time>2021-05-30T06:23:23Z</time>
      </trkpt>
      <trkpt lat="45.84633" lon="2.95095">
        <ele>903</ele>
        <time>2021-05-30T06:23:24Z</time>
      </trkpt>
      <trkpt lat="45.84633" lon="2.95097">
        <ele>903</ele>
        <time>2021-05-30T06:23:25Z</time>
      </trkpt>
      <trkpt lat="45.84634" lon="2.95099">
        <ele>903</ele>
        <time>2021-05-30T06:23:26Z</time>
      </trkpt>
      <trkpt lat="45.84634" lon="2.951">
        <ele>903</ele>
        <time>2021-05-30T06:23:27Z</time>
      </trkpt>
      <trkpt lat="45.84634" lon="2.95101">
        <ele>903</ele>
        <time>2021-05-30T06:23:28Z</time>
      </trkpt>
      <trkpt lat="45.84635" lon="2.95102">
        <ele>903</ele>
        <time>2021-05-30T06:23:29Z</time>
      </trkpt>
      <trkpt lat="45.84635" lon="2.95103">
        <ele>903</ele>
        <time>2021-05-30T06:23:30Z</time>
      </trkpt>
      <trkpt lat="45.84636" lon="2.95105">
        <ele>903</ele>
        <time>2021-05-30T06:23:31Z</time>
      </trkpt>
      <trkpt lat="45.84636" lon="2.95106">
        <ele>903</ele>
        <time>2021-05-30T06:23:32Z</time>
      </trkpt>
      <trkpt lat="45.84636" lon="2.95107">
        <ele>903</ele>
        <time>2021-05-30T06:23:33Z</time>
      </trkpt>
      <trkpt lat="45.84636" lon="2.95108">
        <ele>903</ele>
        <time>2021-05-30T06:23:34Z</time>
      </trkpt>
      <trkpt lat="45.84636" lon="2.95109">
        <ele>903</ele>
        <time>2021-05-30T06:23:35Z</time>
      </trkpt>
      <trkpt lat="45.84636" lon="2.95111">
        <ele>903</ele>
        <time>2021-05-30T06:23:36Z</time>
      </trkpt>
      <trkpt lat="45.84636" lon="2.95112">
        <ele>903</ele>
        <time>2021-05-30T06:23:37Z</time>
      </trkpt>
      <trkpt lat="45.84636" lon="2.95114">
        <ele>903</ele>
        <time>2021-05-30T06:23:38Z</time>
      </trkpt>
      <trkpt lat="45.84634" lon="2.9513">
        <ele>903</ele>
        <time>2021-05-30T06:23:49Z</time>
      </trkpt>
      <trkpt lat="45.84634" lon="2.95131">
        <ele>903</ele>
        <time>2021-05-30T06:23:50Z</time>
      </trkpt>
      <trkpt lat="45.84634" lon="2.95131">
        <ele>903</ele>
        <time>2021-05-30T06:23:51Z</time>
      </trkpt>
      <trkpt lat="45.84634" lon="2.95133">
        <ele>903</ele>
        <time>2021-05-30T06:23:52Z</time>
      </trkpt>
      <trkpt lat="45.84638" lon="2.95147">
        <ele>903</ele>
        <time>2021-05-30T06:24:00Z</time>
      </trkpt>
      <trkpt lat="45.84638" lon="2.95147">
        <ele>903</ele>
        <time>2021-05-30T06:24:01Z</time>
      </trkpt>
      <trkpt lat="45.84638" lon="2.95148">
        <ele>903</ele>
        <time>2021-05-30T06:24:02Z</time>
      </trkpt>
      <trkpt lat="45.84639" lon="2.95149">
        <ele>903</ele>
        <time>2021-05-30T06:24:03Z</time>
      </trkpt>
      <trkpt lat="45.84639" lon="2.9515">
        <ele>903</ele>
        <time>2021-05-30T06:24:04Z</time>
      </trkpt>
      <trkpt lat="45.84639" lon="2.95151">
        <ele>903</ele>
        <time>2021-05-30T06:24:05Z</time>
      </trkpt>
      <trkpt lat="45.8464" lon="2.95152">
        <ele>903</ele>
        <time>2021-05-30T06:24:06Z</time>
      </trkpt>
      <trkpt lat="45.84641" lon="2.95155">
        <ele>903</ele>
        <time>2021-05-30T06:24:08Z</time>
      </trkpt>
      <trkpt lat="45.84641" lon="2.95155">
        <ele>903</ele>
        <time>2021-05-30T06:24:09Z</time>
      </trkpt>
      <trkpt lat="45.84641" lon="2.95155">
        <ele>903</ele>
        <time>2021-05-30T06:24:10Z</time>
      </trkpt>
      <trkpt lat="45.84642" lon="2.95155">
        <ele>903</ele>
        <time>2021-05-30T06:24:11Z</time>
      </trkpt>
      <trkpt lat="45.84642" lon="2.95155">
        <ele>903</ele>
        <time>2021-05-30T06:24:12Z</time>
      </trkpt>
      <trkpt lat="45.84644" lon="2.95155">
        <ele>903</ele>
        <time>2021-05-30T06:24:13Z</time>
      </trkpt>
      <trkpt lat="45.84644" lon="2.95156">
        <ele>903</ele>
        <time>2021-05-30T06:24:14Z</time>
      </trkpt>
      <trkpt lat="45.84645" lon="2.95156">
        <ele>903</ele>
        <time>2021-05-30T06:24:15Z</time>
      </trkpt>
      <trkpt lat="45.84646" lon="2.95157">
        <ele>903</ele>
        <time>2021-05-30T06:24:16Z</time>
      </trkpt>
      <trkpt lat="45.84646" lon="2.95158">
        <ele>903</ele>
        <time>2021-05-30T06:24:17Z</time>
      </trkpt>
      <trkpt lat="45.84647" lon="2.95159">
        <ele>903</ele>
        <time>2021-05-30T06:24:18Z</time>
      </trkpt>
      <trkpt lat="45.84647" lon="2.95161">
        <ele>903</ele>
        <time>2021-05-30T06:24:19Z</time>
      </trkpt>
      <trkpt lat="45.84648" lon="2.95162">
        <ele>903</ele>
        <time>2021-05-30T06:24:20Z</time>
      </trkpt>
      <trkpt lat="45.84649" lon="2.95164">
        <ele>903</ele>
        <time>2021-05-30T06:24:21Z</time>
      </trkpt>
      <trkpt lat="45.84649" lon="2.95165">
        <ele>903</ele>
        <time>2021-05-30T06:24:22Z</time>
      </trkpt>
      <trkpt lat="45.8465" lon="2.95167">
        <ele>903</ele>
        <time>2021-05-30T06:24:23Z</time>
      </trkpt>
      <trkpt lat="45.84651" lon="2.95168">
        <ele>903</ele>
        <time>2021-05-30T06:24:24Z</time>
      </trkpt>
      <trkpt lat="45.84651" lon="2.95168">
        <ele>903</ele>
        <time>2021-05-30T06:24:25Z</time>
      </trkpt>
      <trkpt lat="45.84652" lon="2.95169">
        <ele>903</ele>
        <time>2021-05-30T06:24:26Z</time>
      </trkpt>
      <trkpt lat="45.84653" lon="2.9517">
        <ele>903</ele>
        <time>2021-05-30T06:24:27Z</time>
      </trkpt>
      <trkpt lat="45.84654" lon="2.95171">
        <ele>903</ele>
        <time>2021-05-30T06:24:28Z</time>
      </trkpt>
      <trkpt lat="45.84654" lon="2.95172">
        <ele>903</ele>
        <time>2021-05-30T06:24:29Z</time>
      </trkpt>
      <trkpt lat="45.84655" lon="2.95173">
        <ele>903</ele>
        <time>2021-05-30T06:24:30Z</time>
      </trkpt>
      <trkpt lat="45.84657" lon="2.95174">
        <ele>903</ele>
        <time>2021-05-30T06:24:31Z</time>
      </trkpt>
      <trkpt lat="45.84657" lon="2.95175">
        <ele>903</ele>
        <time>2021-05-30T06:24:32Z</time>
      </trkpt>
      <trkpt lat="45.84658" lon="2.95176">
        <ele>903</ele>
        <time>2021-05-30T06:24:33Z</time>
      </trkpt>
      <trkpt lat="45.84659" lon="2.95177">
        <ele>903</ele>
        <time>2021-05-30T06:24:34Z</time>
      </trkpt>
      <trkpt lat="45.8466" lon="2.95178">
        <ele>903</ele>
        <time>2021-05-30T06:24:35Z</time>
      </trkpt>
      <trkpt lat="45.84661" lon="2.95179">
        <ele>903</ele>
        <time>2021-05-30T06:24:36Z</time>
      </trkpt>
      <trkpt lat="45.84662" lon="2.9518">
        <ele>903</ele>
        <time>2021-05-30T06:24:37Z</time>
      </trkpt>
      <trkpt lat="45.84663" lon="2.95181">
        <ele>903</ele>
        <time>2021-05-30T06:24:38Z</time>
      </trkpt>
      <trkpt lat="45.84663" lon="2.95182">
        <ele>903</ele>
        <time>2021-05-30T06:24:39Z</time>
      </trkpt>
      <trkpt lat="45.84664" lon="2.95183">
        <ele>903</ele>
        <time>2021-05-30T06:24:40Z</time>
      </trkpt>
      <trkpt lat="45.84665" lon="2.95183">
        <ele>903</ele>
        <time>2021-05-30T06:24:41Z</time>
      </trkpt>
      <trkpt lat="45.84666" lon="2.95184">
        <ele>903</ele>
        <time>2021-05-30T06:24:42Z</time>
      </trkpt>
      <trkpt lat="45.84666" lon="2.95185">
        <ele>903</ele>
        <time>2021-05-30T06:24:43Z</time>
      </trkpt>
      <trkpt lat="45.84667" lon="2.95185">
        <ele>903</ele>
        <time>2021-05-30T06:24:44Z</time>
      </trkpt>
      <trkpt lat="45.84668" lon="2.95186">
        <ele>903</ele>
        <time>2021-05-30T06:24:45Z</time>
      </trkpt>
      <trkpt lat="45.84668" lon="2.95186">
        <ele>903</ele>
        <time>2021-05-30T06:24:46Z</time>
      </trkpt>
      <trkpt lat="45.84669" lon="2.95187">
        <ele>903</ele>
        <time>2021-05-30T06:24:47Z</time>
      </trkpt>
      <trkpt lat="45.84669" lon="2.95188">
        <ele>903</ele>
        <time>2021-05-30T06:24:48Z</time>
      </trkpt>
      <trkpt lat="45.8467" lon="2.95189">
        <ele>903</ele>
        <time>2021-05-30T06:24:49Z</time>
      </trkpt>
      <trkpt lat="45.84671" lon="2.9519">
        <ele>903</ele>
        <time>2021-05-30T06:24:50Z</time>
      </trkpt>
      <trkpt lat="45.84672" lon="2.95191">
        <ele>903</ele>
        <time>2021-05-30T06:24:51Z</time>
      </trkpt>
      <trkpt lat="45.84672" lon="2.95193">
        <ele>903</ele>
        <time>2021-05-30T06:24:52Z</time>
      </trkpt>
      <trkpt lat="45.84673" lon="2.95194">
        <ele>903</ele>
        <time>2021-05-30T06:24:54Z</time>
      </trkpt>
      <trkpt lat="45.84676" lon="2.952">
        <ele>903</ele>
        <time>2021-05-30T06:24:55Z</time>
      </trkpt>
      <trkpt lat="45.84676" lon="2.952">
        <ele>903</ele>
        <time>2021-05-30T06:24:56Z</time>
      </trkpt>
      <trkpt lat="45.84677" lon="2.95201">
        <ele>903</ele>
        <time>2021-05-30T06:24:57Z</time>
      </trkpt>
      <trkpt lat="45.84678" lon="2.95202">
        <ele>903</ele>
        <time>2021-05-30T06:24:58Z</time>
      </trkpt>
      <trkpt lat="45.84678" lon="2.95204">
        <ele>903</ele>
        <time>2021-05-30T06:24:59Z</time>
      </trkpt>
      <trkpt lat="45.84678" lon="2.95205">
        <ele>903</ele>
        <time>2021-05-30T06:25:00Z</time>
      </trkpt>
      <trkpt lat="45.84679" lon="2.95206">
        <ele>903</ele>
        <time>2021-05-30T06:25:01Z</time>
      </trkpt>
      <trkpt lat="45.8468" lon="2.95207">
        <ele>903</ele>
        <time>2021-05-30T06:25:02Z</time>
      </trkpt>
      <trkpt lat="45.84681" lon="2.95208">
        <ele>903</ele>
        <time>2021-05-30T06:25:03Z</time>
      </trkpt>
      <trkpt lat="45.84681" lon="2.95209">
        <ele>903</ele>
        <time>2021-05-30T06:25:04Z</time>
      </trkpt>
      <trkpt lat="45.84681" lon="2.95211">
        <ele>903</ele>
        <time>2021-05-30T06:25:05Z</time>
      </trkpt>
      <trkpt lat="45.84682" lon="2.95212">
        <ele>903</ele>
        <time>2021-05-30T06:25:06Z</time>
      </trkpt>
      <trkpt lat="45.84683" lon="2.95214">
        <ele>903</ele>
        <time>2021-05-30T06:25:07Z</time>
      </trkpt>
      <trkpt lat="45.84684" lon="2.95216">
        <ele>903</ele>
        <time>2021-05-30T06:25:08Z</time>
      </trkpt>
      <trkpt lat="45.84684" lon="2.95218">
        <ele>903</ele>
        <time>2021-05-30T06:25:09Z</time>
      </trkpt>
      <trkpt lat="45.84684" lon="2.95219">
        <ele>903</ele>
        <time>2021-05-30T06:25:10Z</time>
      </trkpt>
      <trkpt lat="45.84686" lon="2.9522">
        <ele>903</ele>
        <time>2021-05-30T06:25:11Z</time>
      </trkpt>
      <trkpt lat="45.84687" lon="2.95222">
        <ele>903</ele>
        <time>2021-05-30T06:25:12Z</time>
      </trkpt>
      <trkpt lat="45.84687" lon="2.95223">
        <ele>903</ele>
        <time>2021-05-30T06:25:13Z</time>
      </trkpt>
      <trkpt lat="45.84688" lon="2.95224">
        <ele>903</ele>
        <time>2021-05-30T06:25:14Z</time>
      </trkpt>
      <trkpt lat="45.84689" lon="2.95225">
        <ele>903</ele>
        <time>2021-05-30T06:25:15Z</time>
      </trkpt>
      <trkpt lat="45.8469" lon="2.95227">
        <ele>903</ele>
        <time>2021-05-30T06:25:16Z</time>
      </trkpt>
      <trkpt lat="45.8469" lon="2.95228">
        <ele>903</ele>
        <time>2021-05-30T06:25:17Z</time>
      </trkpt>
      <trkpt lat="45.84691" lon="2.9523">
        <ele>903</ele>
        <time>2021-05-30T06:25:17Z</time>
      </trkpt>
      <trkpt lat="45.84692" lon="2.95231">
        <ele>903</ele>
        <time>2021-05-30T06:25:18Z</time>
      </trkpt>
      <trkpt lat="45.84693" lon="2.95233">
        <ele>903</ele>
        <time>2021-05-30T06:25:19Z</time>
      </trkpt>
      <trkpt lat="45.84694" lon="2.95234">
        <ele>903</ele>
        <time>2021-05-30T06:25:20Z</time>
      </trkpt>
      <trkpt lat="45.84695" lon="2.95235">
        <ele>903</ele>
        <time>2021-05-30T06:25:21Z</time>
      </trkpt>
      <trkpt lat="45.84696" lon="2.95237">
        <ele>903</ele>
        <time>2021-05-30T06:25:22Z</time>
      </trkpt>
      <trkpt lat="45.84697" lon="2.95238">
        <ele>903</ele>
        <time>2021-05-30T06:25:23Z</time>
      </trkpt>
      <trkpt lat="45.84699" lon="2.95239">
        <ele>903</ele>
        <time>2021-05-30T06:25:24Z</time>
      </trkpt>
      <trkpt lat="45.847" lon="2.9524">
        <ele>903</ele>
        <time>2021-05-30T06:25:25Z</time>
      </trkpt>
      <trkpt lat="45.84701" lon="2.95241">
        <ele>903</ele>
        <time>2021-05-30T06:25:26Z</time>
      </trkpt>
      <trkpt lat="45.84702" lon="2.95243">
        <ele>903</ele>
        <time>2021-05-30T06:25:27Z</time>
      </trkpt>
      <trkpt lat="45.84703" lon="2.95245">
        <ele>903</ele>
        <time>2021-05-30T06:25:28Z</time>
      </trkpt>
      <trkpt lat="45.84704" lon="2.95246">
        <ele>903</ele>
        <time>2021-05-30T06:25:29Z</time>
      </trkpt>
      <trkpt lat="45.84705" lon="2.95248">
        <ele>903</ele>
        <time>2021-05-30T06:25:30Z</time>
      </trkpt>
      <trkpt lat="45.84706" lon="2.95249">
        <ele>903</ele>
        <time>2021-05-30T06:25:31Z</time>
      </trkpt>
      <trkpt lat="45.84707" lon="2.9525">
        <ele>903</ele>
        <time>2021-05-30T06:25:32Z</time>
      </trkpt>
      <trkpt lat="45.84708" lon="2.95251">
        <ele>903</ele>
        <time>2021-05-30T06:25:33Z</time>
      </trkpt>
      <trkpt lat="45.84709" lon="2.95252">
        <ele>903</ele>
        <time>2021-05-30T06:25:34Z</time>
      </trkpt>
      <trkpt lat="45.8471" lon="2.95254">
        <ele>903</ele>
        <time>2021-05-30T06:25:35Z</time>
      </trkpt>
      <trkpt lat="45.84711" lon="2.95255">
        <ele>903</ele>
        <time>2021-05-30T06:25:36Z</time>
      </trkpt>
      <trkpt lat="45.84712" lon="2.95257">
        <ele>903</ele>
        <time>2021-05-30T06:25:37Z</time>
      </trkpt>
      <trkpt lat="45.84713" lon="2.95258">
        <ele>903</ele>
        <time>2021-05-30T06:25:38Z</time>
      </trkpt>
      <trkpt lat="45.84713" lon="2.95259">
        <ele>903</ele>
        <time>2021-05-30T06:25:39Z</time>
      </trkpt>
      <trkpt lat="45.84714" lon="2.9526">
        <ele>903</ele>
        <time>2021-05-30T06:25:40Z</time>
      </trkpt>
      <trkpt lat="45.84715" lon="2.95261">
        <ele>903</ele>
        <time>2021-05-30T06:25:41Z</time>
      </trkpt>
      <trkpt lat="45.84716" lon="2.95262">
        <ele>903</ele>
        <time>2021-05-30T06:25:42Z</time>
      </trkpt>
      <trkpt lat="45.84717" lon="2.95263">
        <ele>903</ele>
        <time>2021-05-30T06:25:43Z</time>
      </trkpt>
      <trkpt lat="45.84717" lon="2.95264">
        <ele>903</ele>
        <time>2021-05-30T06:25:44Z</time>
      </trkpt>
      <trkpt lat="45.84718" lon="2.95266">
        <ele>903</ele>
        <time>2021-05-30T06:25:45Z</time>
      </trkpt>
      <trkpt lat="45.84719" lon="2.95267">
        <ele>903</ele>
        <time>2021-05-30T06:25:46Z</time>
      </trkpt>
      <trkpt lat="45.8472" lon="2.95269">
        <ele>903</ele>
        <time>2021-05-30T06:25:47Z</time>
      </trkpt>
      <trkpt lat="45.8472" lon="2.9527">
        <ele>903</ele>
        <time>2021-05-30T06:25:48Z</time>
      </trkpt>
      <trkpt lat="45.84721" lon="2.95272">
        <ele>903</ele>
        <time>2021-05-30T06:25:49Z</time>
      </trkpt>
      <trkpt lat="45.84721" lon="2.95274">
        <ele>903</ele>
        <time>2021-05-30T06:25:50Z</time>
      </trkpt>
      <trkpt lat="45.84722" lon="2.95275">
        <ele>903</ele>
        <time>2021-05-30T06:25:51Z</time>
      </trkpt>
      <trkpt lat="45.84723" lon="2.95277">
        <ele>903</ele>
        <time>2021-05-30T06:25:52Z</time>
      </trkpt>
      <trkpt lat="45.84723" lon="2.95278">
        <ele>903</ele>
        <time>2021-05-30T06:25:53Z</time>
      </trkpt>
      <trkpt lat="45.84724" lon="2.9528">
        <ele>903</ele>
        <time>2021-05-30T06:25:54Z</time>
      </trkpt>
      <trkpt lat="45.84726" lon="2.95282">
        <ele>903</ele>
        <time>2021-05-30T06:25:55Z</time>
      </trkpt>
      <trkpt lat="45.84727" lon="2.95284">
        <ele>903</ele>
        <time>2021-05-30T06:25:56Z</time>
      </trkpt>
      <trkpt lat="45.84727" lon="2.95286">
        <ele>903</ele>
        <time>2021-05-30T06:25:57Z</time>
      </trkpt>
      <trkpt lat="45.84728" lon="2.95288">
        <ele>903</ele>
        <time>2021-05-30T06:25:58Z</time>
      </trkpt>
      <trkpt lat="45.84729" lon="2.9529">
        <ele>903</ele>
        <time>2021-05-30T06:25:59Z</time>
      </trkpt>
      <trkpt lat="45.8473" lon="2.95292">
        <ele>903</ele>
        <time>2021-05-30T06:26:00Z</time>
      </trkpt>
      <trkpt lat="45.8473" lon="2.95294">
        <ele>903</ele>
        <time>2021-05-30T06:26:01Z</time>
      </trkpt>
      <trkpt lat="45.84731" lon="2.95296">
        <ele>903</ele>
        <time>2021-05-30T06:26:02Z</time>
      </trkpt>
      <trkpt lat="45.84732" lon="2.95297">
        <ele>903</ele>
        <time>2021-05-30T06:26:03Z</time>
      </trkpt>
      <trkpt lat="45.84732" lon="2.95299">
        <ele>903</ele>
        <time>2021-05-30T06:26:04Z</time>
      </trkpt>
      <trkpt lat="45.84733" lon="2.95301">
        <ele>903</ele>
        <time>2021-05-30T06:26:05Z</time>
      </trkpt>
      <trkpt lat="45.84734" lon="2.95302">
        <ele>903</ele>
        <time>2021-05-30T06:26:06Z</time>
      </trkpt>
      <trkpt lat="45.84735" lon="2.95304">
        <ele>903</ele>
        <time>2021-05-30T06:26:07Z</time>
      </trkpt>
      <trkpt lat="45.84735" lon="2.95306">
        <ele>903</ele>
        <time>2021-05-30T06:26:08Z</time>
      </trkpt>
      <trkpt lat="45.84736" lon="2.95308">
        <ele>903</ele>
        <time>2021-05-30T06:26:09Z</time>
      </trkpt>
      <trkpt lat="45.84737" lon="2.9531">
        <ele>903</ele>
        <time>2021-05-30T06:26:10Z</time>
      </trkpt>
      <trkpt lat="45.84738" lon="2.95312">
        <ele>903</ele>
        <time>2021-05-30T06:26:11Z</time>
      </trkpt>
      <trkpt lat="45.84739" lon="2.95314">
        <ele>903</ele>
        <time>2021-05-30T06:26:12Z</time>
      </trkpt>
      <trkpt lat="45.8474" lon="2.95316">
        <ele>903</ele>
        <time>2021-05-30T06:26:13Z</time>
      </trkpt>
      <trkpt lat="45.84741" lon="2.95318">
        <ele>903</ele>
        <time>2021-05-30T06:26:14Z</time>
      </trkpt>
      <trkpt lat="45.84742" lon="2.9532">
        <ele>903</ele>
        <time>2021-05-30T06:26:15Z</time>
      </trkpt>
      <trkpt lat="45.84744" lon="2.95321">
        <ele>903</ele>
        <time>2021-05-30T06:26:16Z</time>
      </trkpt>
      <trkpt lat="45.84744" lon="2.95322">
        <ele>903</ele>
        <time>2021-05-30T06:26:17Z</time>
      </trkpt>
      <trkpt lat="45.84745" lon="2.95324">
        <ele>903</ele>
        <time>2021-05-30T06:26:18Z</time>
      </trkpt>
      <trkpt lat="45.84746" lon="2.95326">
        <ele>903</ele>
        <time>2021-05-30T06:26:19Z</time>
      </trkpt>
      <trkpt lat="45.84747" lon="2.95328">
        <ele>903</ele>
        <time>2021-05-30T06:26:20Z</time>
      </trkpt>
      <trkpt lat="45.84748" lon="2.95329">
        <ele>903</ele>
        <time>2021-05-30T06:26:21Z</time>
      </trkpt>
      <trkpt lat="45.84749" lon="2.9533">
        <ele>903</ele>
        <time>2021-05-30T06:26:22Z</time>
      </trkpt>
      <trkpt lat="45.8475" lon="2.95332">
        <ele>903</ele>
        <time>2021-05-30T06:26:23Z</time>
      </trkpt>
      <trkpt lat="45.84751" lon="2.95334">
        <ele>903</ele>
        <time>2021-05-30T06:26:24Z</time>
      </trkpt>
      <trkpt lat="45.84751" lon="2.95336">
        <ele>903</ele>
        <time>2021-05-30T06:26:25Z</time>
      </trkpt>
      <trkpt lat="45.84752" lon="2.95338">
        <ele>903</ele>
        <time>2021-05-30T06:26:26Z</time>
      </trkpt>
      <trkpt lat="45.84753" lon="2.9534">
        <ele>903</ele>
        <time>2021-05-30T06:26:27Z</time>
      </trkpt>
      <trkpt lat="45.84754" lon="2.95342">
        <ele>903</ele>
        <time>2021-05-30T06:26:28Z</time>
      </trkpt>
      <trkpt lat="45.84755" lon="2.95344">
        <ele>903</ele>
        <time>2021-05-30T06:26:29Z</time>
      </trkpt>
      <trkpt lat="45.84756" lon="2.95346">
        <ele>903</ele>
        <time>2021-05-30T06:26:30Z</time>
      </trkpt>
      <trkpt lat="45.84756" lon="2.95348">
        <ele>903</ele>
        <time>2021-05-30T06:26:31Z</time>
      </trkpt>
      <trkpt lat="45.84757" lon="2.9535">
        <ele>903</ele>
        <time>2021-05-30T06:26:32Z</time>
      </trkpt>
      <trkpt lat="45.84758" lon="2.95353">
        <ele>903</ele>
        <time>2021-05-30T06:26:33Z</time>
      </trkpt>
      <trkpt lat="45.84759" lon="2.95355">
        <ele>903</ele>
        <time>2021-05-30T06:26:34Z</time>
      </trkpt>
      <trkpt lat="45.8476" lon="2.95357">
        <ele>903</ele>
        <time>2021-05-30T06:26:35Z</time>
      </trkpt>
      <trkpt lat="45.8476" lon="2.95359">
        <ele>903</ele>
        <time>2021-05-30T06:26:36Z</time>
      </trkpt>
      <trkpt lat="45.84761" lon="2.95362">
        <ele>903</ele>
        <time>2021-05-30T06:26:37Z</time>
      </trkpt>
      <trkpt lat="45.84762" lon="2.95364">
        <ele>903</ele>
        <time>2021-05-30T06:26:38Z</time>
      </trkpt>
      <trkpt lat="45.84763" lon="2.95366">
        <ele>903</ele>
        <time>2021-05-30T06:26:39Z</time>
      </trkpt>
      <trkpt lat="45.84764" lon="2.95369">
        <ele>903</ele>
        <time>2021-05-30T06:26:40Z</time>
      </trkpt>
      <trkpt lat="45.84765" lon="2.95371">
        <ele>903</ele>
        <time>2021-05-30T06:26:41Z</time>
      </trkpt>
      <trkpt lat="45.84765" lon="2.95373">
        <ele>903</ele>
        <time>2021-05-30T06:26:42Z</time>
      </trkpt>
      <trkpt lat="45.84765" lon="2.95374">
        <ele>903</ele>
        <time>2021-05-30T06:26:43Z</time>
      </trkpt>
      <trkpt lat="45.84766" lon="2.95376">
        <ele>903</ele>
        <time>2021-05-30T06:26:44Z</time>
      </trkpt>
      <trkpt lat="45.84766" lon="2.95378">
        <ele>903</ele>
        <time>2021-05-30T06:26:45Z</time>
      </trkpt>
      <trkpt lat="45.84767" lon="2.9538">
        <ele>903</ele>
        <time>2021-05-30T06:26:46Z</time>
      </trkpt>
      <trkpt lat="45.84768" lon="2.95381">
        <ele>903</ele>
        <time>2021-05-30T06:26:47Z</time>
      </trkpt>
      <trkpt lat="45.84768" lon="2.95382">
        <ele>903</ele>
        <time>2021-05-30T06:26:48Z</time>
      </trkpt>
      <trkpt lat="45.84769" lon="2.95384">
        <ele>903</ele>
        <time>2021-05-30T06:26:49Z</time>
      </trkpt>
      <trkpt lat="45.8477" lon="2.95385">
        <ele>903</ele>
        <time>2021-05-30T06:26:50Z</time>
      </trkpt>
      <trkpt lat="45.84771" lon="2.95386">
        <ele>903</ele>
        <time>2021-05-30T06:26:51Z</time>
      </trkpt>
      <trkpt lat="45.84771" lon="2.95387">
        <ele>903</ele>
        <time>2021-05-30T06:26:52Z</time>
      </trkpt>
      <trkpt lat="45.84772" lon="2.95389">
        <ele>903</ele>
        <time>2021-05-30T06:26:53Z</time>
      </trkpt>
      <trkpt lat="45.84773" lon="2.9539">
        <ele>903</ele>
        <time>2021-05-30T06:26:54Z</time>
      </trkpt>
      <trkpt lat="45.84774" lon="2.95392">
        <ele>903</ele>
        <time>2021-05-30T06:26:55Z</time>
      </trkpt>
      <trkpt lat="45.84774" lon="2.95394">
        <ele>903</ele>
        <time>2021-05-30T06:26:56Z</time>
      </trkpt>
      <trkpt lat="45.84775" lon="2.95396">
        <ele>903</ele>
        <time>2021-05-30T06:26:57Z</time>
      </trkpt>
      <trkpt lat="45.84776" lon="2.95398">
        <ele>903</ele>
        <time>2021-05-30T06:26:58Z</time>
      </trkpt>
      <trkpt lat="45.84777" lon="2.954">
        <ele>903</ele>
        <time>2021-05-30T06:26:59Z</time>
      </trkpt>
      <trkpt lat="45.84778" lon="2.95402">
        <ele>903</ele>
        <time>2021-05-30T06:27:00Z</time>
      </trkpt>
      <trkpt lat="45.84779" lon="2.95404">
        <ele>903</ele>
        <time>2021-05-30T06:27:01Z</time>
      </trkpt>
      <trkpt lat="45.84779" lon="2.95406">
        <ele>903</ele>
        <time>2021-05-30T06:27:02Z</time>
      </trkpt>
      <trkpt lat="45.8478" lon="2.95408">
        <ele>903</ele>
        <time>2021-05-30T06:27:03Z</time>
      </trkpt>
      <trkpt lat="45.84781" lon="2.95411">
        <ele>903</ele>
        <time>2021-05-30T06:27:04Z</time>
      </trkpt>
      <trkpt lat="45.84782" lon="2.95413">
        <ele>903</ele>
        <time>2021-05-30T06:27:05Z</time>
      </trkpt>
      <trkpt lat="45.84782" lon="2.95415">
        <ele>903</ele>
        <time>2021-05-30T06:27:06Z</time>
      </trkpt>
      <trkpt lat="45.84783" lon="2.95417">
        <ele>903</ele>
        <time>2021-05-30T06:27:07Z</time>
      </trkpt>
      <trkpt lat="45.84783" lon="2.95419">
        <ele>903</ele>
        <time>2021-05-30T06:27:08Z</time>
      </trkpt>
      <trkpt lat="45.84784" lon="2.95421">
        <ele>903</ele>
        <time>2021-05-30T06:27:09Z</time>
      </trkpt>
      <trkpt lat="45.84785" lon="2.95424">
        <ele>903</ele>
        <time>2021-05-30T06:27:10Z</time>
      </trkpt>
      <trkpt lat="45.84786" lon="2.95426">
        <ele>903</ele>
        <time>2021-05-30T06:27:11Z</time>
      </trkpt>
      <trkpt lat="45.84786" lon="2.95428">
        <ele>903</ele>
        <time>2021-05-30T06:27:12Z</time>
      </trkpt>
      <trkpt lat="45.84787" lon="2.95431">
        <ele>903</ele>
        <time>2021-05-30T06:27:13Z</time>
      </trkpt>
      <trkpt lat="45.84787" lon="2.95434">
        <ele>903</ele>
        <time>2021-05-30T06:27:14Z</time>
      </trkpt>
      <trkpt lat="45.84787" lon="2.95436">
        <ele>903</ele>
        <time>2021-05-30T06:27:15Z</time>
      </trkpt>
      <trkpt lat="45.84788" lon="2.95439">
        <ele>903</ele>
        <time>2021-05-30T06:27:16Z</time>
      </trkpt>
      <trkpt lat="45.84789" lon="2.95441">
        <ele>903</ele>
        <time>2021-05-30T06:27:17Z</time>
      </trkpt>
      <trkpt lat="45.84789" lon="2.95444">
        <ele>903</ele>
        <time>2021-05-30T06:27:18Z</time>
      </trkpt>
      <trkpt lat="45.8479" lon="2.95446">
        <ele>903</ele>
        <time>2021-05-30T06:27:19Z</time>
      </trkpt>
      <trkpt lat="45.8479" lon="2.95448">
        <ele>903</ele>
        <time>2021-05-30T06:27:20Z</time>
      </trkpt>
      <trkpt lat="45.8479" lon="2.9545">
        <ele>903</ele>
        <time>2021-05-30T06:27:21Z</time>
      </trkpt>
      <trkpt lat="45.84791" lon="2.95453">
        <ele>903</ele>
        <time>2021-05-30T06:27:22Z</time>
      </trkpt>
      <trkpt lat="45.84792" lon="2.95455">
        <ele>903</ele>
        <time>2021-05-30T06:27:23Z</time>
      </trkpt>
      <trkpt lat="45.84793" lon="2.95457">
        <ele>903</ele>
        <time>2021-05-30T06:27:24Z</time>
      </trkpt>
      <trkpt lat="45.84793" lon="2.95459">
        <ele>903</ele>
        <time>2021-05-30T06:27:25Z</time>
      </trkpt>
      <trkpt lat="45.84793" lon="2.95461">
        <ele>903</ele>
        <time>2021-05-30T06:27:26Z</time>
      </trkpt>
      <trkpt lat="45.84794" lon="2.95462">
        <ele>903</ele>
        <time>2021-05-30T06:27:27Z</time>
      </trkpt>
      <trkpt lat="45.84795" lon="2.95464">
        <ele>903</ele>
        <time>2021-05-30T06:27:28Z</time>
      </trkpt>
      <trkpt lat="45.84795" lon="2.95466">
        <ele>903</ele>
        <time>2021-05-30T06:27:29Z</time>
      </trkpt>
      <trkpt lat="45.84796" lon="2.95468">
        <ele>903</ele>
        <time>2021-05-30T06:27:30Z</time>
      </trkpt>
      <trkpt lat="45.84797" lon="2.95469">
        <ele>903</ele>
        <time>2021-05-30T06:27:31Z</time>
      </trkpt>
      <trkpt lat="45.84797" lon="2.95471">
        <ele>903</ele>
        <time>2021-05-30T06:27:32Z</time>
      </trkpt>
      <trkpt lat="45.84798" lon="2.95472">
        <ele>903</ele>
        <time>2021-05-30T06:27:33Z</time>
      </trkpt>
      <trkpt lat="45.84798" lon="2.95474">
        <ele>903</ele>
        <time>2021-05-30T06:27:34Z</time>
      </trkpt>
      <trkpt lat="45.84799" lon="2.95475">
        <ele>903</ele>
        <time>2021-05-30T06:27:35Z</time>
      </trkpt>
      <trkpt lat="45.848" lon="2.95477">
        <ele>903</ele>
        <time>2021-05-30T06:27:36Z</time>
      </trkpt>
      <trkpt lat="45.84801" lon="2.95479">
        <ele>903</ele>
        <time>2021-05-30T06:27:37Z</time>
      </trkpt>
      <trkpt lat="45.84801" lon="2.95481">
        <ele>903</ele>
        <time>2021-05-30T06:27:38Z</time>
      </trkpt>
      <trkpt lat="45.84802" lon="2.95482">
        <ele>903</ele>
        <time>2021-05-30T06:27:39Z</time>
      </trkpt>
      <trkpt lat="45.84802" lon="2.95484">
        <ele>903</ele>
        <time>2021-05-30T06:27:40Z</time>
      </trkpt>
      <trkpt lat="45.84803" lon="2.95486">
        <ele>903</ele>
        <time>2021-05-30T06:27:41Z</time>
      </trkpt>
      <trkpt lat="45.84804" lon="2.95488">
        <ele>903</ele>
        <time>2021-05-30T06:27:42Z</time>
      </trkpt>
      <trkpt lat="45.84805" lon="2.95489">
        <ele>903</ele>
        <time>2021-05-30T06:27:43Z</time>
      </trkpt>
      <trkpt lat="45.84805" lon="2.95491">
        <ele>903</ele>
        <time>2021-05-30T06:27:44Z</time>
      </trkpt>
      <trkpt lat="45.84805" lon="2.95493">
        <ele>903</ele>
        <time>2021-05-30T06:27:45Z</time>
      </trkpt>
      <trkpt lat="45.84806" lon="2.95494">
        <ele>903</ele>
        <time>2021-05-30T06:27:46Z</time>
      </trkpt>
      <trkpt lat="45.84806" lon="2.95496">
        <ele>903</ele>
        <time>2021-05-30T06:27:47Z</time>
      </trkpt>
      <trkpt lat="45.84807" lon="2.95498">
        <ele>903</ele>
        <time>2021-05-30T06:27:48Z</time>
      </trkpt>
      <trkpt lat="45.84808" lon="2.955">
        <ele>903</ele>
        <time>2021-05-30T06:27:49Z</time>
      </trkpt>
      <trkpt lat="45.84808" lon="2.95502">
        <ele>903</ele>
        <time>2021-05-30T06:27:50Z</time>
      </trkpt>
      <trkpt lat="45.84808" lon="2.95504">
        <ele>903</ele>
        <time>2021-05-30T06:27:51Z</time>
      </trkpt>
      <trkpt lat="45.84809" lon="2.95506">
        <ele>903</ele>
        <time>2021-05-30T06:27:52Z</time>
      </trkpt>
      <trkpt lat="45.8481" lon="2.95508">
        <ele>903</ele>
        <time>2021-05-30T06:27:53Z</time>
      </trkpt>
      <trkpt lat="45.84811" lon="2.9551">
        <ele>903</ele>
        <time>2021-05-30T06:27:54Z</time>
      </trkpt>
      <trkpt lat="45.84811" lon="2.95512">
        <ele>903</ele>
        <time>2021-05-30T06:27:55Z</time>
      </trkpt>
      <trkpt lat="45.84811" lon="2.95514">
        <ele>903</ele>
        <time>2021-05-30T06:27:56Z</time>
      </trkpt>
      <trkpt lat="45.84811" lon="2.95515">
        <ele>903</ele>
        <time>2021-05-30T06:27:57Z</time>
      </trkpt>
      <trkpt lat="45.84812" lon="2.95517">
        <ele>903</ele>
        <time>2021-05-30T06:27:58Z</time>
      </trkpt>
      <trkpt lat="45.84813" lon="2.95518">
        <ele>903</ele>
        <time>2021-05-30T06:27:59Z</time>
      </trkpt>
      <trkpt lat="45.84813" lon="2.9552">
        <ele>903</ele>
        <time>2021-05-30T06:28:00Z</time>
      </trkpt>
      <trkpt lat="45.84814" lon="2.95522">
        <ele>903</ele>
        <time>2021-05-30T06:28:01Z</time>
      </trkpt>
      <trkpt lat="45.84815" lon="2.95523">
        <ele>903</ele>
        <time>2021-05-30T06:28:02Z</time>
      </trkpt>
      <trkpt lat="45.84815" lon="2.95525">
        <ele>903</ele>
        <time>2021-05-30T06:28:03Z</time>
      </trkpt>
      <trkpt lat="45.84816" lon="2.95526">
        <ele>903</ele>
        <time>2021-05-30T06:28:04Z</time>
      </trkpt>
      <trkpt lat="45.84817" lon="2.95527">
        <ele>903</ele>
        <time>2021-05-30T06:28:05Z</time>
      </trkpt>
      <trkpt lat="45.84818" lon="2.95529">
        <ele>903</ele>
        <time>2021-05-30T06:28:06Z</time>
      </trkpt>
      <trkpt lat="45.84818" lon="2.9553">
        <ele>903</ele>
        <time>2021-05-30T06:28:07Z</time>
      </trkpt>
      <trkpt lat="45.84819" lon="2.95532">
        <ele>903</ele>
        <time>2021-05-30T06:28:08Z</time>
      </trkpt>
      <trkpt lat="45.8482" lon="2.95533">
        <ele>903</ele>
        <time>2021-05-30T06:28:09Z</time>
      </trkpt>
      <trkpt lat="45.8482" lon="2.95534">
        <ele>903</ele>
        <time>2021-05-30T06:28:10Z</time>
      </trkpt>
      <trkpt lat="45.84821" lon="2.95535">
        <ele>903</ele>
        <time>2021-05-30T06:28:11Z</time>
      </trkpt>
      <trkpt lat="45.84822" lon="2.95537">
        <ele>903</ele>
        <time>2021-05-30T06:28:12Z</time>
      </trkpt>
      <trkpt lat="45.84822" lon="2.95538">
        <ele>903</ele>
        <time>2021-05-30T06:28:13Z</time>
      </trkpt>
      <trkpt lat="45.84823" lon="2.9554">
        <ele>903</ele>
        <time>2021-05-30T06:28:14Z</time>
      </trkpt>
      <trkpt lat="45.84823" lon="2.95542">
        <ele>903</ele>
        <time>2021-05-30T06:28:15Z</time>
      </trkpt>
      <trkpt lat="45.84823" lon="2.95544">
        <ele>903</ele>
        <time>2021-05-30T06:28:16Z</time>
      </trkpt>
      <trkpt lat="45.84824" lon="2.95546">
        <ele>903</ele>
        <time>2021-05-30T06:28:17Z</time>
      </trkpt>
      <trkpt lat="45.84824" lon="2.95547">
        <ele>903</ele>
        <time>2021-05-30T06:28:18Z</time>
      </trkpt>
      <trkpt lat="45.84824" lon="2.95549">
        <ele>903</ele>
        <time>2021-05-30T06:28:19Z</time>
      </trkpt>
      <trkpt lat="45.84825" lon="2.95551">
        <ele>903</ele>
        <time>2021-05-30T06:28:20Z</time>
      </trkpt>
      <trkpt lat="45.84826" lon="2.95553">
        <ele>903</ele>
        <time>2021-05-30T06:28:21Z</time>
      </trkpt>
      <trkpt lat="45.84826" lon="2.95555">
        <ele>903</ele>
        <time>2021-05-30T06:28:22Z</time>
      </trkpt>
      <trkpt lat="45.84826" lon="2.95556">
        <ele>903</ele>
        <time>2021-05-30T06:28:23Z</time>
      </trkpt>
      <trkpt lat="45.84827" lon="2.95558">
        <ele>903</ele>
        <time>2021-05-30T06:28:24Z</time>
      </trkpt>
      <trkpt lat="45.84827" lon="2.9556">
        <ele>903</ele>
        <time>2021-05-30T06:28:25Z</time>
      </trkpt>
      <trkpt lat="45.84827" lon="2.95561">
        <ele>903</ele>
        <time>2021-05-30T06:28:26Z</time>
      </trkpt>
      <trkpt lat="45.84828" lon="2.95564">
        <ele>903</ele>
        <time>2021-05-30T06:28:27Z</time>
      </trkpt>
      <trkpt lat="45.84828" lon="2.95566">
        <ele>903</ele>
        <time>2021-05-30T06:28:28Z</time>
      </trkpt>
      <trkpt lat="45.84829" lon="2.95568">
        <ele>903</ele>
        <time>2021-05-30T06:28:29Z</time>
      </trkpt>
      <trkpt lat="45.84829" lon="2.95571">
        <ele>903</ele>
        <time>2021-05-30T06:28:30Z</time>
      </trkpt>
      <trkpt lat="45.84829" lon="2.95573">
        <ele>903</ele>
        <time>2021-05-30T06:28:31Z</time>
      </trkpt>
      <trkpt lat="45.8483" lon="2.95576">
        <ele>903</ele>
        <time>2021-05-30T06:28:32Z</time>
      </trkpt>
      <trkpt lat="45.84831" lon="2.95579">
        <ele>903</ele>
        <time>2021-05-30T06:28:33Z</time>
      </trkpt>
      <trkpt lat="45.84831" lon="2.95582">
        <ele>903</ele>
        <time>2021-05-30T06:28:34Z</time>
      </trkpt>
      <trkpt lat="45.84832" lon="2.95584">
        <ele>903</ele>
        <time>2021-05-30T06:28:35Z</time>
      </trkpt>
      <trkpt lat="45.84832" lon="2.95587">
        <ele>903</ele>
        <time>2021-05-30T06:28:36Z</time>
      </trkpt>
      <trkpt lat="45.84833" lon="2.95589">
        <ele>903</ele>
        <time>2021-05-30T06:28:37Z</time>
      </trkpt>
      <trkpt lat="45.84834" lon="2.95592">
        <ele>903</ele>
        <time>2021-05-30T06:28:38Z</time>
      </trkpt>
      <trkpt lat="45.84834" lon="2.95595">
        <ele>903</ele>
        <time>2021-05-30T06:28:39Z</time>
      </trkpt>
      <trkpt lat="45.84835" lon="2.95598">
        <ele>903</ele>
        <time>2021-05-30T06:28:40Z</time>
      </trkpt>
      <trkpt lat="45.84835" lon="2.95601">
        <ele>903</ele>
        <time>2021-05-30T06:28:41Z</time>
      </trkpt>
      <trkpt lat="45.84836" lon="2.95603">
        <ele>903</ele>
        <time>2021-05-30T06:28:42Z</time>
      </trkpt>
      <trkpt lat="45.84837" lon="2.95606">
        <ele>903</ele>
        <time>2021-05-30T06:28:43Z</time>
      </trkpt>
      <trkpt lat="45.84837" lon="2.95608">
        <ele>903</ele>
        <time>2021-05-30T06:28:44Z</time>
      </trkpt>
      <trkpt lat="45.84837" lon="2.9561">
        <ele>903</ele>
        <time>2021-05-30T06:28:45Z</time>
      </trkpt>
      <trkpt lat="45.84838" lon="2.95612">
        <ele>903</ele>
        <time>2021-05-30T06:28:46Z</time>
      </trkpt>
      <trkpt lat="45.84838" lon="2.95615">
        <ele>903</ele>
        <time>2021-05-30T06:28:47Z</time>
      </trkpt>
      <trkpt lat="45.84838" lon="2.95617">
        <ele>903</ele>
        <time>2021-05-30T06:28:48Z</time>
      </trkpt>
      <trkpt lat="45.84839" lon="2.95619">
        <ele>903</ele>
        <time>2021-05-30T06:28:49Z</time>
      </trkpt>
      <trkpt lat="45.84839" lon="2.95622">
        <ele>903</ele>
        <time>2021-05-30T06:28:50Z</time>
      </trkpt>
      <trkpt lat="45.84839" lon="2.95624">
        <ele>903</ele>
        <time>2021-05-30T06:28:51Z</time>
      </trkpt>
      <trkpt lat="45.8484" lon="2.95627">
        <ele>903</ele>
        <time>2021-05-30T06:28:53Z</time>
      </trkpt>
      <trkpt lat="45.84841" lon="2.95637">
        <ele>903</ele>
        <time>2021-05-30T06:28:54Z</time>
      </trkpt>
      <trkpt lat="45.84841" lon="2.95637">
        <ele>903</ele>
        <time>2021-05-30T06:28:55Z</time>
      </trkpt>
      <trkpt lat="45.84842" lon="2.95638">
        <ele>903</ele>
        <time>2021-05-30T06:28:56Z</time>
      </trkpt>
      <trkpt lat="45.84842" lon="2.9564">
        <ele>903</ele>
        <time>2021-05-30T06:28:57Z</time>
      </trkpt>
      <trkpt lat="45.84842" lon="2.95642">
        <ele>903</ele>
        <time>2021-05-30T06:28:58Z</time>
      </trkpt>
      <trkpt lat="45.84843" lon="2.95644">
        <ele>903</ele>
        <time>2021-05-30T06:28:59Z</time>
      </trkpt>
      <trkpt lat="45.84843" lon="2.95646">
        <ele>903</ele>
        <time>2021-05-30T06:29:00Z</time>
      </trkpt>
      <trkpt lat="45.84843" lon="2.95648">
        <ele>903</ele>
        <time>2021-05-30T06:29:01Z</time>
      </trkpt>
      <trkpt lat="45.84844" lon="2.9565">
        <ele>903</ele>
        <time>2021-05-30T06:29:02Z</time>
      </trkpt>
      <trkpt lat="45.84844" lon="2.95652">
        <ele>903</ele>
        <time>2021-05-30T06:29:03Z</time>
      </trkpt>
      <trkpt lat="45.84845" lon="2.95654">
        <ele>903</ele>
        <time>2021-05-30T06:29:04Z</time>
      </trkpt>
      <trkpt lat="45.84845" lon="2.95656">
        <ele>903</ele>
        <time>2021-05-30T06:29:05Z</time>
      </trkpt>
      <trkpt lat="45.84846" lon="2.95659">
        <ele>903</ele>
        <time>2021-05-30T06:29:06Z</time>
      </trkpt>
      <trkpt lat="45.84847" lon="2.95661">
        <ele>903</ele>
        <time>2021-05-30T06:29:07Z</time>
      </trkpt>
      <trkpt lat="45.84847" lon="2.95663">
        <ele>903</ele>
        <time>2021-05-30T06:29:08Z</time>
      </trkpt>
      <trkpt lat="45.84847" lon="2.95666">
        <ele>903</ele>
        <time>2021-05-30T06:29:09Z</time>
      </trkpt>
      <trkpt lat="45.84847" lon="2.95668">
        <ele>903</ele>
        <time>2021-05-30T06:29:10Z</time>
      </trkpt>
      <trkpt lat="45.84848" lon="2.95671">
        <ele>903</ele>
        <time>2021-05-30T06:29:11Z</time>
      </trkpt>
      <trkpt lat="45.84848" lon="2.95674">
        <ele>903</ele>
        <time>2021-05-30T06:29:12Z</time>
      </trkpt>
      <trkpt lat="45.84848" lon="2.95677">
        <ele>903</ele>
        <time>2021-05-30T06:29:13Z</time>
      </trkpt>
      <trkpt lat="45.84848" lon="2.95679">
        <ele>903</ele>
        <time>2021-05-30T06:29:14Z</time>
      </trkpt>
      <trkpt lat="45.84849" lon="2.95682">
        <ele>903</ele>
        <time>2021-05-30T06:29:15Z</time>
      </trkpt>
      <trkpt lat="45.8485" lon="2.95685">
        <ele>903</ele>
        <time>2021-05-30T06:29:16Z</time>
      </trkpt>
      <trkpt lat="45.8485" lon="2.95687">
        <ele>903</ele>
        <time>2021-05-30T06:29:17Z</time>
      </trkpt>
      <trkpt lat="45.8485" lon="2.9569">
        <ele>903</ele>
        <time>2021-05-30T06:29:18Z</time>
      </trkpt>
      <trkpt lat="45.84851" lon="2.95692">
        <ele>903</ele>
        <time>2021-05-30T06:29:19Z</time>
      </trkpt>
      <trkpt lat="45.84852" lon="2.95694">
        <ele>903</ele>
        <time>2021-05-30T06:29:20Z</time>
      </trkpt>
      <trkpt lat="45.84852" lon="2.95696">
        <ele>903</ele>
        <time>2021-05-30T06:29:21Z</time>
      </trkpt>
      <trkpt lat="45.84853" lon="2.95699">
        <ele>903</ele>
        <time>2021-05-30T06:29:22Z</time>
      </trkpt>
      <trkpt lat="45.84853" lon="2.95701">
        <ele>903</ele>
        <time>2021-05-30T06:29:23Z</time>
      </trkpt>
      <trkpt lat="45.84853" lon="2.95704">
        <ele>903</ele>
        <time>2021-05-30T06:29:24Z</time>
      </trkpt>
      <trkpt lat="45.84853" lon="2.95707">
        <ele>903</ele>
        <time>2021-05-30T06:29:25Z</time>
      </trkpt>
      <trkpt lat="45.84853" lon="2.9571">
        <ele>903</ele>
        <time>2021-05-30T06:29:26Z</time>
      </trkpt>
      <trkpt lat="45.84853" lon="2.95712">
        <ele>903</ele>
        <time>2021-05-30T06:29:27Z</time>
      </trkpt>
      <trkpt lat="45.84854" lon="2.95715">
        <ele>903</ele>
        <time>2021-05-30T06:29:28Z</time>
      </trkpt>
      <trkpt lat="45.84855" lon="2.95717">
        <ele>903</ele>
        <time>2021-05-30T06:29:29Z</time>
      </trkpt>
      <trkpt lat="45.84855" lon="2.95719">
        <ele>903</ele>
        <time>2021-05-30T06:29:30Z</time>
      </trkpt>
      <trkpt lat="45.84855" lon="2.95721">
        <ele>903</ele>
        <time>2021-05-30T06:29:31Z</time>
      </trkpt>
      <trkpt lat="45.84855" lon="2.95723">
        <ele>903</ele>
        <time>2021-05-30T06:29:32Z</time>
      </trkpt>
      <trkpt lat="45.84856" lon="2.95725">
        <ele>903</ele>
        <time>2021-05-30T06:29:32Z</time>
      </trkpt>
      <trkpt lat="45.84856" lon="2.95727">
        <ele>903</ele>
        <time>2021-05-30T06:29:33Z</time>
      </trkpt>
      <trkpt lat="45.84856" lon="2.95728">
        <ele>903</ele>
        <time>2021-05-30T06:29:34Z</time>
      </trkpt>
      <trkpt lat="45.84856" lon="2.9573">
        <ele>903</ele>
        <time>2021-05-30T06:29:35Z</time>
      </trkpt>
      <trkpt lat="45.84856" lon="2.95731">
        <ele>903</ele>
        <time>2021-05-30T06:29:36Z</time>
      </trkpt>
      <trkpt lat="45.84856" lon="2.95733">
        <ele>903</ele>
        <time>2021-05-30T06:29:37Z</time>
      </trkpt>
      <trkpt lat="45.84857" lon="2.95734">
        <ele>903</ele>
        <time>2021-05-30T06:29:38Z</time>
      </trkpt>
      <trkpt lat="45.84858" lon="2.95736">
        <ele>903</ele>
        <time>2021-05-30T06:29:39Z</time>
      </trkpt>
      <trkpt lat="45.84858" lon="2.95737">
        <ele>903</ele>
        <time>2021-05-30T06:29:40Z</time>
      </trkpt>
      <trkpt lat="45.84858" lon="2.9574">
        <ele>903</ele>
        <time>2021-05-30T06:29:41Z</time>
      </trkpt>
      <trkpt lat="45.84859" lon="2.95742">
        <ele>903</ele>
        <time>2021-05-30T06:29:42Z</time>
      </trkpt>
      <trkpt lat="45.84859" lon="2.95745">
        <ele>903</ele>
        <time>2021-05-30T06:29:43Z</time>
      </trkpt>
      <trkpt lat="45.84859" lon="2.95748">
        <ele>903</ele>
        <time>2021-05-30T06:29:44Z</time>
      </trkpt>
      <trkpt lat="45.84859" lon="2.9575">
        <ele>903</ele>
        <time>2021-05-30T06:29:45Z</time>
      </trkpt>
      <trkpt lat="45.84859" lon="2.95753">
        <ele>903</ele>
        <time>2021-05-30T06:29:46Z</time>
      </trkpt>
      <trkpt lat="45.84859" lon="2.95755">
        <ele>903</ele>
        <time>2021-05-30T06:29:47Z</time>
      </trkpt>
      <trkpt lat="45.8486" lon="2.95757">
        <ele>903</ele>
        <time>2021-05-30T06:29:48Z</time>
      </trkpt>
      <trkpt lat="45.8486" lon="2.95759">
        <ele>903</ele>
        <time>2021-05-30T06:29:49Z</time>
      </trkpt>
      <trkpt lat="45.8486" lon="2.95761">
        <ele>903</ele>
        <time>2021-05-30T06:29:50Z</time>
      </trkpt>
      <trkpt lat="45.84861" lon="2.95763">
        <ele>903</ele>
        <time>2021-05-30T06:29:51Z</time>
      </trkpt>
      <trkpt lat="45.84861" lon="2.95764">
        <ele>903</ele>
        <time>2021-05-30T06:29:53Z</time>
      </trkpt>
      <trkpt lat="45.84863" lon="2.9577">
        <ele>903</ele>
        <time>2021-05-30T06:29:54Z</time>
      </trkpt>
      <trkpt lat="45.84863" lon="2.9577">
        <ele>903</ele>
        <time>2021-05-30T06:29:55Z</time>
      </trkpt>
      <trkpt lat="45.84863" lon="2.95771">
        <ele>903</ele>
        <time>2021-05-30T06:29:56Z</time>
      </trkpt>
      <trkpt lat="45.84863" lon="2.95771">
        <ele>903</ele>
        <time>2021-05-30T06:29:57Z</time>
      </trkpt>
      <trkpt lat="45.84864" lon="2.95773">
        <ele>903</ele>
        <time>2021-05-30T06:29:58Z</time>
      </trkpt>
      <trkpt lat="45.84864" lon="2.95774">
        <ele>903</ele>
        <time>2021-05-30T06:29:59Z</time>
      </trkpt>
      <trkpt lat="45.84865" lon="2.95775">
        <ele>903</ele>
        <time>2021-05-30T06:30:00Z</time>
      </trkpt>
      <trkpt lat="45.84865" lon="2.95776">
        <ele>903</ele>
        <time>2021-05-30T06:30:01Z</time>
      </trkpt>
      <trkpt lat="45.84866" lon="2.95778">
        <ele>903</ele>
        <time>2021-05-30T06:30:02Z</time>
      </trkpt>
      <trkpt lat="45.84866" lon="2.95779">
        <ele>903</ele>
        <time>2021-05-30T06:30:03Z</time>
      </trkpt>
      <trkpt lat="45.84866" lon="2.9578">
        <ele>903</ele>
        <time>2021-05-30T06:30:04Z</time>
      </trkpt>
      <trkpt lat="45.84867" lon="2.95782">
        <ele>903</ele>
        <time>2021-05-30T06:30:05Z</time>
      </trkpt>
      <trkpt lat="45.84868" lon="2.95783">
        <ele>903</ele>
        <time>2021-05-30T06:30:06Z</time>
      </trkpt>
      <trkpt lat="45.84868" lon="2.95785">
        <ele>903</ele>
        <time>2021-05-30T06:30:07Z</time>
      </trkpt>
      <trkpt lat="45.84868" lon="2.95787">
        <ele>903</ele>
        <time>2021-05-30T06:30:08Z</time>
      </trkpt>
      <trkpt lat="45.84868" lon="2.95789">
        <ele>903</ele>
        <time>2021-05-30T06:30:09Z</time>
      </trkpt>
      <trkpt lat="45.84869" lon="2.9579">
        <ele>903</ele>
        <time>2021-05-30T06:30:10Z</time>
      </trkpt>
      <trkpt lat="45.84869" lon="2.95792">
        <ele>903</ele>
        <time>2021-05-30T06:30:11Z</time>
      </trkpt>
      <trkpt lat="45.8487" lon="2.95793">
        <ele>903</ele>
        <time>2021-05-30T06:30:12Z</time>
      </trkpt>
      <trkpt lat="45.84871" lon="2.95795">
        <ele>903</ele>
        <time>2021-05-30T06:30:13Z</time>
      </trkpt>
      <trkpt lat="45.84871" lon="2.95797">
        <ele>903</ele>
        <time>2021-05-30T06:30:14Z</time>
      </trkpt>
      <trkpt lat="45.84871" lon="2.95798">
        <ele>903</ele>
        <time>2021-05-30T06:30:15Z</time>
      </trkpt>
      <trkpt lat="45.84871" lon="2.958">
        <ele>903</ele>
        <time>2021-05-30T06:30:16Z</time>
      </trkpt>
      <trkpt lat="45.84871" lon="2.95802">
        <ele>903</ele>
        <time>2021-05-30T06:30:17Z</time>
      </trkpt>
      <trkpt lat="45.84871" lon="2.95803">
        <ele>903</ele>
        <time>2021-05-30T06:30:18Z</time>
      </trkpt>
      <trkpt lat="45.84871" lon="2.95805">
        <ele>903</ele>
        <time>2021-05-30T06:30:19Z</time>
      </trkpt>
      <trkpt lat="45.84872" lon="2.95806">
        <ele>903</ele>
        <time>2021-05-30T06:30:20Z</time>
      </trkpt>
      <trkpt lat="45.84872" lon="2.95808">
        <ele>903</ele>
        <time>2021-05-30T06:30:21Z</time>
      </trkpt>
      <trkpt lat="45.84873" lon="2.9581">
        <ele>903</ele>
        <time>2021-05-30T06:30:22Z</time>
      </trkpt>
      <trkpt lat="45.84874" lon="2.95811">
        <ele>903</ele>
        <time>2021-05-30T06:30:23Z</time>
      </trkpt>
      <trkpt lat="45.84874" lon="2.95813">
        <ele>903</ele>
        <time>2021-05-30T06:30:24Z</time>
      </trkpt>
      <trkpt lat="45.84874" lon="2.95814">
        <ele>903</ele>
        <time>2021-05-30T06:30:25Z</time>
      </trkpt>
      <trkpt lat="45.84874" lon="2.95816">
        <ele>903</ele>
        <time>2021-05-30T06:30:26Z</time>
      </trkpt>
      <trkpt lat="45.84876" lon="2.95817">
        <ele>903</ele>
        <time>2021-05-30T06:30:27Z</time>
      </trkpt>
      <trkpt lat="45.84876" lon="2.95819">
        <ele>903</ele>
        <time>2021-05-30T06:30:28Z</time>
      </trkpt>
      <trkpt lat="45.84876" lon="2.95821">
        <ele>903</ele>
        <time>2021-05-30T06:30:29Z</time>
      </trkpt>
      <trkpt lat="45.84877" lon="2.95822">
        <ele>903</ele>
        <time>2021-05-30T06:30:30Z</time>
      </trkpt>
      <trkpt lat="45.84877" lon="2.95824">
        <ele>903</ele>
        <time>2021-05-30T06:30:31Z</time>
      </trkpt>
      <trkpt lat="45.84878" lon="2.95826">
        <ele>903</ele>
        <time>2021-05-30T06:30:32Z</time>
      </trkpt>
      <trkpt lat="45.84879" lon="2.95827">
        <ele>903</ele>
        <time>2021-05-30T06:30:33Z</time>
      </trkpt>
      <trkpt lat="45.84879" lon="2.95829">
        <ele>903</ele>
        <time>2021-05-30T06:30:34Z</time>
      </trkpt>
      <trkpt lat="45.84879" lon="2.95831">
        <ele>903</ele>
        <time>2021-05-30T06:30:35Z</time>
      </trkpt>
      <trkpt lat="45.8488" lon="2.95833">
        <ele>903</ele>
        <time>2021-05-30T06:30:36Z</time>
      </trkpt>
      <trkpt lat="45.8488" lon="2.95834">
        <ele>903</ele>
        <time>2021-05-30T06:30:37Z</time>
      </trkpt>
      <trkpt lat="45.8488" lon="2.95836">
        <ele>903</ele>
        <time>2021-05-30T06:30:38Z</time>
      </trkpt>
      <trkpt lat="45.84881" lon="2.95837">
        <ele>903</ele>
        <time>2021-05-30T06:30:39Z</time>
      </trkpt>
      <trkpt lat="45.84882" lon="2.95839">
        <ele>903</ele>
        <time>2021-05-30T06:30:40Z</time>
      </trkpt>
      <trkpt lat="45.84883" lon="2.9584">
        <ele>903</ele>
        <time>2021-05-30T06:30:41Z</time>
      </trkpt>
      <trkpt lat="45.84883" lon="2.95842">
        <ele>903</ele>
        <time>2021-05-30T06:30:42Z</time>
      </trkpt>
      <trkpt lat="45.84884" lon="2.95843">
        <ele>903</ele>
        <time>2021-05-30T06:30:43Z</time>
      </trkpt>
      <trkpt lat="45.84884" lon="2.95844">
        <ele>903</ele>
        <time>2021-05-30T06:30:44Z</time>
      </trkpt>
      <trkpt lat="45.84885" lon="2.95846">
        <ele>903</ele>
        <time>2021-05-30T06:30:45Z</time>
      </trkpt>
      <trkpt lat="45.84885" lon="2.95847">
        <ele>903</ele>
        <time>2021-05-30T06:30:46Z</time>
      </trkpt>
      <trkpt lat="45.84886" lon="2.95861">
        <ele>903</ele>
        <time>2021-05-30T06:30:50Z</time>
      </trkpt>
      <trkpt lat="45.84886" lon="2.95862">
        <ele>903</ele>
        <time>2021-05-30T06:30:51Z</time>
      </trkpt>
      <trkpt lat="45.84886" lon="2.95864">
        <ele>903</ele>
        <time>2021-05-30T06:30:53Z</time>
      </trkpt>
      <trkpt lat="45.84886" lon="2.95875">
        <ele>903</ele>
        <time>2021-05-30T06:30:54Z</time>
      </trkpt>
      <trkpt lat="45.84886" lon="2.95876">
        <ele>903</ele>
        <time>2021-05-30T06:30:55Z</time>
      </trkpt>
      <trkpt lat="45.84886" lon="2.95878">
        <ele>903</ele>
        <time>2021-05-30T06:30:56Z</time>
      </trkpt>
      <trkpt lat="45.84886" lon="2.9588">
        <ele>903</ele>
        <time>2021-05-30T06:30:57Z</time>
      </trkpt>
      <trkpt lat="45.84886" lon="2.95883">
        <ele>903</ele>
        <time>2021-05-30T06:30:58Z</time>
      </trkpt>
      <trkpt lat="45.84885" lon="2.95886">
        <ele>903</ele>
        <time>2021-05-30T06:30:59Z</time>
      </trkpt>
      <trkpt lat="45.84885" lon="2.95889">
        <ele>903</ele>
        <time>2021-05-30T06:31:00Z</time>
      </trkpt>
      <trkpt lat="45.84885" lon="2.95891">
        <ele>903</ele>
        <time>2021-05-30T06:31:01Z</time>
      </trkpt>
      <trkpt lat="45.84884" lon="2.95893">
        <ele>903</ele>
        <time>2021-05-30T06:31:02Z</time>
      </trkpt>
      <trkpt lat="45.84884" lon="2.95895">
        <ele>903</ele>
        <time>2021-05-30T06:31:03Z</time>
      </trkpt>
      <trkpt lat="45.84884" lon="2.95897">
        <ele>903</ele>
        <time>2021-05-30T06:31:04Z</time>
      </trkpt>
      <trkpt lat="45.84885" lon="2.95898">
        <ele>903</ele>
        <time>2021-05-30T06:31:05Z</time>
      </trkpt>
      <trkpt lat="45.84885" lon="2.959">
        <ele>903</ele>
        <time>2021-05-30T06:31:06Z</time>
      </trkpt>
      <trkpt lat="45.84885" lon="2.95906">
        <ele>903</ele>
        <time>2021-05-30T06:31:08Z</time>
      </trkpt>
      <trkpt lat="45.84886" lon="2.95906">
        <ele>903</ele>
        <time>2021-05-30T06:31:09Z</time>
      </trkpt>
      <trkpt lat="45.84886" lon="2.95906">
        <ele>903</ele>
        <time>2021-05-30T06:31:10Z</time>
      </trkpt>
      <trkpt lat="45.84886" lon="2.95907">
        <ele>903</ele>
        <time>2021-05-30T06:31:11Z</time>
      </trkpt>
      <trkpt lat="45.84887" lon="2.95908">
        <ele>903</ele>
        <time>2021-05-30T06:31:12Z</time>
      </trkpt>
      <trkpt lat="45.84892" lon="2.95924">
        <ele>903</ele>
        <time>2021-05-30T06:31:18Z</time>
      </trkpt>
      <trkpt lat="45.84892" lon="2.95925">
        <ele>903</ele>
        <time>2021-05-30T06:31:19Z</time>
      </trkpt>
      <trkpt lat="45.84892" lon="2.95926">
        <ele>903</ele>
        <time>2021-05-30T06:31:20Z</time>
      </trkpt>
      <trkpt lat="45.84892" lon="2.95928">
        <ele>903</ele>
        <time>2021-05-30T06:31:21Z</time>
      </trkpt>
      <trkpt lat="45.84896" lon="2.95936">
        <ele>903</ele>
        <time>2021-05-30T06:31:23Z</time>
      </trkpt>
      <trkpt lat="45.84896" lon="2.95937">
        <ele>903</ele>
        <time>2021-05-30T06:31:24Z</time>
      </trkpt>
      <trkpt lat="45.84897" lon="2.95938">
        <ele>903</ele>
        <time>2021-05-30T06:31:25Z</time>
      </trkpt>
      <trkpt lat="45.84897" lon="2.9594">
        <ele>903</ele>
        <time>2021-05-30T06:31:26Z</time>
      </trkpt>
      <trkpt lat="45.84898" lon="2.95943">
        <ele>903</ele>
        <time>2021-05-30T06:31:27Z</time>
      </trkpt>
      <trkpt lat="45.84898" lon="2.95945">
        <ele>903</ele>
        <time>2021-05-30T06:31:28Z</time>
      </trkpt>
      <trkpt lat="45.849" lon="2.95948">
        <ele>903</ele>
        <time>2021-05-30T06:31:29Z</time>
      </trkpt>
      <trkpt lat="45.849" lon="2.9595">
        <ele>903</ele>
        <time>2021-05-30T06:31:30Z</time>
      </trkpt>
      <trkpt lat="45.84901" lon="2.95953">
        <ele>903</ele>
        <time>2021-05-30T06:31:31Z</time>
      </trkpt>
      <trkpt lat="45.84902" lon="2.95956">
        <ele>903</ele>
        <time>2021-05-30T06:31:32Z</time>
      </trkpt>
      <trkpt lat="45.84903" lon="2.95959">
        <ele>903</ele>
        <time>2021-05-30T06:31:33Z</time>
      </trkpt>
      <trkpt lat="45.84904" lon="2.95961">
        <ele>903</ele>
        <time>2021-05-30T06:31:34Z</time>
      </trkpt>
      <trkpt lat="45.84905" lon="2.95964">
        <ele>903</ele>
        <time>2021-05-30T06:31:35Z</time>
      </trkpt>
      <trkpt lat="45.84906" lon="2.95966">
        <ele>903</ele>
        <time>2021-05-30T06:31:36Z</time>
      </trkpt>
      <trkpt lat="45.84907" lon="2.95969">
        <ele>903</ele>
        <time>2021-05-30T06:31:37Z</time>
      </trkpt>
      <trkpt lat="45.84908" lon="2.95971">
        <ele>903</ele>
        <time>2021-05-30T06:31:38Z</time>
      </trkpt>
      <trkpt lat="45.84909" lon="2.95973">
        <ele>903</ele>
        <time>2021-05-30T06:31:39Z</time>
      </trkpt>
      <trkpt lat="45.84909" lon="2.95976">
        <ele>903</ele>
        <time>2021-05-30T06:31:40Z</time>
      </trkpt>
      <trkpt lat="45.84909" lon="2.95979">
        <ele>903</ele>
        <time>2021-05-30T06:31:41Z</time>
      </trkpt>
      <trkpt lat="45.84909" lon="2.95982">
        <ele>903</ele>
        <time>2021-05-30T06:31:42Z</time>
      </trkpt>
      <trkpt lat="45.8491" lon="2.95984">
        <ele>903</ele>
        <time>2021-05-30T06:31:43Z</time>
      </trkpt>
      <trkpt lat="45.84911" lon="2.95987">
        <ele>903</ele>
        <time>2021-05-30T06:31:44Z</time>
      </trkpt>
      <trkpt lat="45.84911" lon="2.9599">
        <ele>903</ele>
        <time>2021-05-30T06:31:45Z</time>
      </trkpt>
      <trkpt lat="45.84911" lon="2.95993">
        <ele>903</ele>
        <time>2021-05-30T06:31:46Z</time>
      </trkpt>
      <trkpt lat="45.84913" lon="2.95995">
        <ele>903</ele>
        <time>2021-05-30T06:31:47Z</time>
      </trkpt>
      <trkpt lat="45.84913" lon="2.95998">
        <ele>903</ele>
        <time>2021-05-30T06:31:48Z</time>
      </trkpt>
      <trkpt lat="45.84914" lon="2.96">
        <ele>903</ele>
        <time>2021-05-30T06:31:49Z</time>
      </trkpt>
      <trkpt lat="45.84914" lon="2.96002">
        <ele>903</ele>
        <time>2021-05-30T06:31:50Z</time>
      </trkpt>
      <trkpt lat="45.84916" lon="2.96014">
        <ele>903</ele>
        <time>2021-05-30T06:31:54Z</time>
      </trkpt>
      <trkpt lat="45.84916" lon="2.96014">
        <ele>903</ele>
        <time>2021-05-30T06:31:55Z</time>
      </trkpt>
      <trkpt lat="45.84917" lon="2.96014">
        <ele>903</ele>
        <time>2021-05-30T06:31:56Z</time>
      </trkpt>
      <trkpt lat="45.84917" lon="2.96015">
        <ele>903</ele>
        <time>2021-05-30T06:31:57Z</time>
      </trkpt>
      <trkpt lat="45.84917" lon="2.96015">
        <ele>903</ele>
        <time>2021-05-30T06:31:58Z</time>
      </trkpt>
      <trkpt lat="45.84919" lon="2.96016">
        <ele>903</ele>
        <time>2021-05-30T06:31:59Z</time>
      </trkpt>
      <trkpt lat="45.84919" lon="2.96016">
        <ele>903</ele>
        <time>2021-05-30T06:32:00Z</time>
      </trkpt>
      <trkpt lat="45.8492" lon="2.96017">
        <ele>903</ele>
        <time>2021-05-30T06:32:01Z</time>
      </trkpt>
      <trkpt lat="45.8492" lon="2.96017">
        <ele>903</ele>
        <time>2021-05-30T06:32:02Z</time>
      </trkpt>
      <trkpt lat="45.84921" lon="2.96017">
        <ele>903</ele>
        <time>2021-05-30T06:32:03Z</time>
      </trkpt>
      <trkpt lat="45.84922" lon="2.96018">
        <ele>903</ele>
        <time>2021-05-30T06:32:04Z</time>
      </trkpt>
      <trkpt lat="45.84922" lon="2.96018">
        <ele>903</ele>
        <time>2021-05-30T06:32:05Z</time>
      </trkpt>
      <trkpt lat="45.84923" lon="2.96018">
        <ele>903</ele>
        <time>2021-05-30T06:32:06Z</time>
      </trkpt>
      <trkpt lat="45.84923" lon="2.96019">
        <ele>903</ele>
        <time>2021-05-30T06:32:07Z</time>
      </trkpt>
      <trkpt lat="45.84924" lon="2.96019">
        <ele>903</ele>
        <time>2021-05-30T06:32:08Z</time>
      </trkpt>
      <trkpt lat="45.84924" lon="2.96019">
        <ele>903</ele>
        <time>2021-05-30T06:32:09Z</time>
      </trkpt>
      <trkpt lat="45.84925" lon="2.9602">
        <ele>903</ele>
        <time>2021-05-30T06:32:10Z</time>
      </trkpt>
      <trkpt lat="45.84925" lon="2.9602">
        <ele>903</ele>
        <time>2021-05-30T06:32:11Z</time>
      </trkpt>
      <trkpt lat="45.84925" lon="2.9602">
        <ele>903</ele>
        <time>2021-05-30T06:32:12Z</time>
      </trkpt>
      <trkpt lat="45.84926" lon="2.96021">
        <ele>903</ele>
        <time>2021-05-30T06:32:13Z</time>
      </trkpt>
      <trkpt lat="45.84926" lon="2.96021">
        <ele>903</ele>
        <time>2021-05-30T06:32:14Z</time>
      </trkpt>
      <trkpt lat="45.84927" lon="2.96022">
        <ele>903</ele>
        <time>2021-05-30T06:32:15Z</time>
      </trkpt>
      <trkpt lat="45.84927" lon="2.96022">
        <ele>903</ele>
        <time>2021-05-30T06:32:16Z</time>
      </trkpt>
      <trkpt lat="45.84927" lon="2.96023">
        <ele>903</ele>
        <time>2021-05-30T06:32:17Z</time>
      </trkpt>
      <trkpt lat="45.84928" lon="2.96023">
        <ele>903</ele>
        <time>2021-05-30T06:32:18Z</time>
      </trkpt>
      <trkpt lat="45.84929" lon="2.96024">
        <ele>903</ele>
        <time>2021-05-30T06:32:19Z</time>
      </trkpt>
      <trkpt lat="45.8493" lon="2.96024">
        <ele>903</ele>
        <time>2021-05-30T06:32:20Z</time>
      </trkpt>
      <trkpt lat="45.84932" lon="2.96025">
        <ele>903</ele>
        <time>2021-05-30T06:32:22Z</time>
      </trkpt>
      <trkpt lat="45.84932" lon="2.96025">
        <ele>903</ele>
        <time>2021-05-30T06:32:23Z</time>
      </trkpt>
      <trkpt lat="45.84933" lon="2.96026">
        <ele>903</ele>
        <time>2021-05-30T06:32:24Z</time>
      </trkpt>
      <trkpt lat="45.84934" lon="2.96026">
        <ele>903</ele>
        <time>2021-05-30T06:32:25Z</time>
      </trkpt>
      <trkpt lat="45.84934" lon="2.96026">
        <ele>903</ele>
        <time>2021-05-30T06:32:26Z</time>
      </trkpt>
      <trkpt lat="45.84934" lon="2.96026">
        <ele>903</ele>
        <time>2021-05-30T06:32:27Z</time>
      </trkpt>
      <trkpt lat="45.84935" lon="2.96027">
        <ele>903</ele>
        <time>2021-05-30T06:32:28Z</time>
      </trkpt>
      <trkpt lat="45.84935" lon="2.96027">
        <ele>903</ele>
        <time>2021-05-30T06:32:29Z</time>
      </trkpt>
      <trkpt lat="45.84936" lon="2.96027">
        <ele>903</ele>
        <time>2021-05-30T06:32:30Z</time>
      </trkpt>
      <trkpt lat="45.84937" lon="2.96028">
        <ele>903</ele>
        <time>2021-05-30T06:32:31Z</time>
      </trkpt>
      <trkpt lat="45.84937" lon="2.96028">
        <ele>903</ele>
        <time>2021-05-30T06:32:32Z</time>
      </trkpt>
      <trkpt lat="45.84938" lon="2.96028">
        <ele>903</ele>
        <time>2021-05-30T06:32:33Z</time>
      </trkpt>
      <trkpt lat="45.84938" lon="2.96029">
        <ele>903</ele>
        <time>2021-05-30T06:32:34Z</time>
      </trkpt>
      <trkpt lat="45.84939" lon="2.96029">
        <ele>903</ele>
        <time>2021-05-30T06:32:35Z</time>
      </trkpt>
      <trkpt lat="45.8494" lon="2.96029">
        <ele>903</ele>
        <time>2021-05-30T06:32:36Z</time>
      </trkpt>
      <trkpt lat="45.8494" lon="2.9603">
        <ele>903</ele>
        <time>2021-05-30T06:32:37Z</time>
      </trkpt>
      <trkpt lat="45.8494" lon="2.9603">
        <ele>903</ele>
        <time>2021-05-30T06:32:38Z</time>
      </trkpt>
      <trkpt lat="45.84941" lon="2.96031">
        <ele>903</ele>
        <time>2021-05-30T06:32:39Z</time>
      </trkpt>
      <trkpt lat="45.84941" lon="2.96032">
        <ele>903</ele>
        <time>2021-05-30T06:32:40Z</time>
      </trkpt>
      <trkpt lat="45.84941" lon="2.96032">
        <ele>903</ele>
        <time>2021-05-30T06:32:41Z</time>
      </trkpt>
      <trkpt lat="45.84942" lon="2.96033">
        <ele>903</ele>
        <time>2021-05-30T06:32:42Z</time>
      </trkpt>
      <trkpt lat="45.84942" lon="2.96033">
        <ele>903</ele>
        <time>2021-05-30T06:32:43Z</time>
      </trkpt>
      <trkpt lat="45.84942" lon="2.96034">
        <ele>903</ele>
        <time>2021-05-30T06:32:44Z</time>
      </trkpt>
      <trkpt lat="45.84943" lon="2.96034">
        <ele>903</ele>
        <time>2021-05-30T06:32:45Z</time>
      </trkpt>
      <trkpt lat="45.84943" lon="2.96035">
        <ele>903</ele>
        <time>2021-05-30T06:32:46Z</time>
      </trkpt>
      <trkpt lat="45.84946" lon="2.96038">
        <ele>903</ele>
        <time>2021-05-30T06:32:52Z</time>
      </trkpt>
      <trkpt lat="45.84946" lon="2.96039">
        <ele>903</ele>
        <time>2021-05-30T06:32:53Z</time>
      </trkpt>
      <trkpt lat="45.84946" lon="2.9604">
        <ele>903</ele>
        <time>2021-05-30T06:32:54Z</time>
      </trkpt>
      <trkpt lat="45.84947" lon="2.9604">
        <ele>903</ele>
        <time>2021-05-30T06:32:55Z</time>
      </trkpt>
      <trkpt lat="45.84947" lon="2.96042">
        <ele>903</ele>
        <time>2021-05-30T06:32:56Z</time>
      </trkpt>
      <trkpt lat="45.84947" lon="2.96043">
        <ele>903</ele>
        <time>2021-05-30T06:32:57Z</time>
      </trkpt>
      <trkpt lat="45.84947" lon="2.96044">
        <ele>903</ele>
        <time>2021-05-30T06:32:58Z</time>
      </trkpt>
      <trkpt lat="45.84955" lon="2.96056">
        <ele>903</ele>
        <time>2021-05-30T06:33:06Z</time>
      </trkpt>
      <trkpt lat="45.84955" lon="2.96056">
        <ele>903</ele>
        <time>2021-05-30T06:33:07Z</time>
      </trkpt>
      <trkpt lat="45.84955" lon="2.96056">
        <ele>903</ele>
        <time>2021-05-30T06:33:08Z</time>
      </trkpt>
      <trkpt lat="45.84956" lon="2.96057">
        <ele>903</ele>
        <time>2021-05-30T06:33:09Z</time>
      </trkpt>
      <trkpt lat="45.84961" lon="2.9606">
        <ele>903</ele>
        <time>2021-05-30T06:33:12Z</time>
      </trkpt>
      <trkpt lat="45.84962" lon="2.9606">
        <ele>903</ele>
        <time>2021-05-30T06:33:13Z</time>
      </trkpt>
      <trkpt lat="45.84962" lon="2.9606">
        <ele>903</ele>
        <time>2021-05-30T06:33:14Z</time>
      </trkpt>
      <trkpt lat="45.84962" lon="2.9606">
        <ele>903</ele>
        <time>2021-05-30T06:33:15Z</time>
      </trkpt>
      <trkpt lat="45.84962" lon="2.96061">
        <ele>903</ele>
        <time>2021-05-30T06:33:16Z</time>
      </trkpt>
      <trkpt lat="45.84963" lon="2.96061">
        <ele>903</ele>
        <time>2021-05-30T06:33:17Z</time>
      </trkpt>
      <trkpt lat="45.84963" lon="2.96062">
        <ele>903</ele>
        <time>2021-05-30T06:33:18Z</time>
      </trkpt>
      <trkpt lat="45.84964" lon="2.96063">
        <ele>903</ele>
        <time>2021-05-30T06:33:19Z</time>
      </trkpt>
      <trkpt lat="45.84964" lon="2.96064">
        <ele>903</ele>
        <time>2021-05-30T06:33:20Z</time>
      </trkpt>
      <trkpt lat="45.84965" lon="2.96065">
        <ele>903</ele>
        <time>2021-05-30T06:33:21Z</time>
      </trkpt>
      <trkpt lat="45.84965" lon="2.96066">
        <ele>903</ele>
        <time>2021-05-30T06:33:22Z</time>
      </trkpt>
      <trkpt lat="45.84966" lon="2.96067">
        <ele>903</ele>
        <time>2021-05-30T06:33:23Z</time>
      </trkpt>
      <trkpt lat="45.84966" lon="2.96068">
        <ele>903</ele>
        <time>2021-05-30T06:33:24Z</time>
      </trkpt>
      <trkpt lat="45.84966" lon="2.96068">
        <ele>903</ele>
        <time>2021-05-30T06:33:25Z</time>
      </trkpt>
      <trkpt lat="45.84967" lon="2.96069">
        <ele>903</ele>
        <time>2021-05-30T06:33:26Z</time>
      </trkpt>
      <trkpt lat="45.84967" lon="2.9607">
        <ele>903</ele>
        <time>2021-05-30T06:33:27Z</time>
      </trkpt>
      <trkpt lat="45.84968" lon="2.96071">
        <ele>903</ele>
        <time>2021-05-30T06:33:28Z</time>
      </trkpt>
      <trkpt lat="45.84968" lon="2.96071">
        <ele>903</ele>
        <time>2021-05-30T06:33:29Z</time>
      </trkpt>
      <trkpt lat="45.84969" lon="2.96072">
        <ele>903</ele>
        <time>2021-05-30T06:33:30Z</time>
      </trkpt>
      <trkpt lat="45.8497" lon="2.96072">
        <ele>903</ele>
        <time>2021-05-30T06:33:31Z</time>
      </trkpt>
      <trkpt lat="45.8497" lon="2.96073">
        <ele>903</ele>
        <time>2021-05-30T06:33:32Z</time>
      </trkpt>
      <trkpt lat="45.84971" lon="2.96073">
        <ele>903</ele>
        <time>2021-05-30T06:33:33Z</time>
      </trkpt>
      <trkpt lat="45.84971" lon="2.96074">
        <ele>903</ele>
        <time>2021-05-30T06:33:34Z</time>
      </trkpt>
      <trkpt lat="45.84972" lon="2.96074">
        <ele>903</ele>
        <time>2021-05-30T06:33:35Z</time>
      </trkpt>
      <trkpt lat="45.84973" lon="2.96075">
        <ele>903</ele>
        <time>2021-05-30T06:33:36Z</time>
      </trkpt>
      <trkpt lat="45.84974" lon="2.96075">
        <ele>903</ele>
        <time>2021-05-30T06:33:37Z</time>
      </trkpt>
      <trkpt lat="45.84975" lon="2.96076">
        <ele>903</ele>
        <time>2021-05-30T06:33:38Z</time>
      </trkpt>
      <trkpt lat="45.84975" lon="2.96076">
        <ele>903</ele>
        <time>2021-05-30T06:33:39Z</time>
      </trkpt>
      <trkpt lat="45.84976" lon="2.96076">
        <ele>903</ele>
        <time>2021-05-30T06:33:40Z</time>
      </trkpt>
      <trkpt lat="45.84977" lon="2.96077">
        <ele>903</ele>
        <time>2021-05-30T06:33:41Z</time>
      </trkpt>
      <trkpt lat="45.84977" lon="2.96078">
        <ele>903</ele>
        <time>2021-05-30T06:33:42Z</time>
      </trkpt>
      <trkpt lat="45.84978" lon="2.96078">
        <ele>903</ele>
        <time>2021-05-30T06:33:43Z</time>
      </trkpt>
      <trkpt lat="45.84979" lon="2.96079">
        <ele>903</ele>
        <time>2021-05-30T06:33:44Z</time>
      </trkpt>
      <trkpt lat="45.84979" lon="2.96079">
        <ele>903</ele>
        <time>2021-05-30T06:33:45Z</time>
      </trkpt>
      <trkpt lat="45.8498" lon="2.9608">
        <ele>903</ele>
        <time>2021-05-30T06:33:46Z</time>
      </trkpt>
      <trkpt lat="45.8498" lon="2.96081">
        <ele>903</ele>
        <time>2021-05-30T06:33:47Z</time>
      </trkpt>
      <trkpt lat="45.84981" lon="2.96081">
        <ele>903</ele>
        <time>2021-05-30T06:33:47Z</time>
      </trkpt>
      <trkpt lat="45.84982" lon="2.96082">
        <ele>903</ele>
        <time>2021-05-30T06:33:48Z</time>
      </trkpt>
      <trkpt lat="45.84982" lon="2.96082">
        <ele>903</ele>
        <time>2021-05-30T06:33:49Z</time>
      </trkpt>
      <trkpt lat="45.84983" lon="2.96083">
        <ele>903</ele>
        <time>2021-05-30T06:33:50Z</time>
      </trkpt>
      <trkpt lat="45.84983" lon="2.96083">
        <ele>903</ele>
        <time>2021-05-30T06:33:51Z</time>
      </trkpt>
      <trkpt lat="45.84983" lon="2.96084">
        <ele>903</ele>
        <time>2021-05-30T06:33:52Z</time>
      </trkpt>
      <trkpt lat="45.84984" lon="2.96084">
        <ele>903</ele>
        <time>2021-05-30T06:33:53Z</time>
      </trkpt>
      <trkpt lat="45.84985" lon="2.96085">
        <ele>903</ele>
        <time>2021-05-30T06:33:54Z</time>
      </trkpt>
      <trkpt lat="45.84985" lon="2.96085">
        <ele>903</ele>
        <time>2021-05-30T06:33:55Z</time>
      </trkpt>
      <trkpt lat="45.84986" lon="2.96086">
        <ele>903</ele>
        <time>2021-05-30T06:33:56Z</time>
      </trkpt>
      <trkpt lat="45.84986" lon="2.96086">
        <ele>903</ele>
        <time>2021-05-30T06:33:57Z</time>
      </trkpt>
      <trkpt lat="45.84987" lon="2.96086">
        <ele>903</ele>
        <time>2021-05-30T06:33:58Z</time>
      </trkpt>
      <trkpt lat="45.84987" lon="2.96087">
        <ele>903</ele>
        <time>2021-05-30T06:33:59Z</time>
      </trkpt>
      <trkpt lat="45.84987" lon="2.96087">
        <ele>903</ele>
        <time>2021-05-30T06:34:00Z</time>
      </trkpt>
      <trkpt lat="45.84988" lon="2.96087">
        <ele>903</ele>
        <time>2021-05-30T06:34:01Z</time>
      </trkpt>
      <trkpt lat="45.84988" lon="2.96088">
        <ele>903</ele>
        <time>2021-05-30T06:34:02Z</time>
      </trkpt>
      <trkpt lat="45.84988" lon="2.96088">
        <ele>903</ele>
        <time>2021-05-30T06:34:03Z</time>
      </trkpt>
      <trkpt lat="45.84989" lon="2.96088">
        <ele>903</ele>
        <time>2021-05-30T06:34:04Z</time>
      </trkpt>
      <trkpt lat="45.84989" lon="2.96089">
        <ele>903</ele>
        <time>2021-05-30T06:34:05Z</time>
      </trkpt>
      <trkpt lat="45.8499" lon="2.96089">
        <ele>903</ele>
        <time>2021-05-30T06:34:06Z</time>
      </trkpt>
      <trkpt lat="45.84995" lon="2.96095">
        <ele>903</ele>
        <time>2021-05-30T06:34:17Z</time>
      </trkpt>
      <trkpt lat="45.84995" lon="2.96095">
        <ele>903</ele>
        <time>2021-05-30T06:34:18Z</time>
      </trkpt>
      <trkpt lat="45.84996" lon="2.96096">
        <ele>903</ele>
        <time>2021-05-30T06:34:19Z</time>
      </trkpt>
      <trkpt lat="45.84996" lon="2.96096">
        <ele>903</ele>
        <time>2021-05-30T06:34:20Z</time>
      </trkpt>
      <trkpt lat="45.84998" lon="2.96097">
        <ele>903</ele>
        <time>2021-05-30T06:34:21Z</time>
      </trkpt>
      <trkpt lat="45.84998" lon="2.96098">
        <ele>903</ele>
        <time>2021-05-30T06:34:22Z</time>
      </trkpt>
      <trkpt lat="45.84999" lon="2.96099">
        <ele>903</ele>
        <time>2021-05-30T06:34:23Z</time>
      </trkpt>
      <trkpt lat="45.85" lon="2.96099">
        <ele>903</ele>
        <time>2021-05-30T06:34:24Z</time>
      </trkpt>
      <trkpt lat="45.85001" lon="2.961">
        <ele>903</ele>
        <time>2021-05-30T06:34:25Z</time>
      </trkpt>
      <trkpt lat="45.85001" lon="2.96101">
        <ele>903</ele>
        <time>2021-05-30T06:34:26Z</time>
      </trkpt>
      <trkpt lat="45.85002" lon="2.96102">
        <ele>903</ele>
        <time>2021-05-30T06:34:27Z</time>
      </trkpt>
      <trkpt lat="45.85003" lon="2.96102">
        <ele>903</ele>
        <time>2021-05-30T06:34:28Z</time>
      </trkpt>
      <trkpt lat="45.85004" lon="2.96103">
        <ele>903</ele>
        <time>2021-05-30T06:34:29Z</time>
      </trkpt>
      <trkpt lat="45.85004" lon="2.96104">
        <ele>903</ele>
        <time>2021-05-30T06:34:30Z</time>
      </trkpt>
      <trkpt lat="45.85006" lon="2.96105">
        <ele>903</ele>
        <time>2021-05-30T06:34:32Z</time>
      </trkpt>
      <trkpt lat="45.85006" lon="2.96105">
        <ele>903</ele>
        <time>2021-05-30T06:34:33Z</time>
      </trkpt>
      <trkpt lat="45.85006" lon="2.96105">
        <ele>903</ele>
        <time>2021-05-30T06:34:34Z</time>
      </trkpt>
      <trkpt lat="45.85012" lon="2.96109">
        <ele>903</ele>
        <time>2021-05-30T06:34:44Z</time>
      </trkpt>
      <trkpt lat="45.85012" lon="2.96109">
        <ele>903</ele>
        <time>2021-05-30T06:34:45Z</time>
      </trkpt>
      <trkpt lat="45.85012" lon="2.9611">
        <ele>903</ele>
        <time>2021-05-30T06:34:46Z</time>
      </trkpt>
      <trkpt lat="45.85012" lon="2.9611">
        <ele>903</ele>
        <time>2021-05-30T06:34:47Z</time>
      </trkpt>
      <trkpt lat="45.85012" lon="2.96111">
        <ele>903</ele>
        <time>2021-05-30T06:34:48Z</time>
      </trkpt>
      <trkpt lat="45.85013" lon="2.96112">
        <ele>903</ele>
        <time>2021-05-30T06:34:49Z</time>
      </trkpt>
      <trkpt lat="45.85013" lon="2.96112">
        <ele>903</ele>
        <time>2021-05-30T06:34:50Z</time>
      </trkpt>
      <trkpt lat="45.85015" lon="2.96115">
        <ele>903</ele>
        <time>2021-05-30T06:34:52Z</time>
      </trkpt>
      <trkpt lat="45.85015" lon="2.96115">
        <ele>903</ele>
        <time>2021-05-30T06:34:53Z</time>
      </trkpt>
      <trkpt lat="45.85016" lon="2.96115">
        <ele>903</ele>
        <time>2021-05-30T06:34:54Z</time>
      </trkpt>
      <trkpt lat="45.85017" lon="2.96116">
        <ele>903</ele>
        <time>2021-05-30T06:34:55Z</time>
      </trkpt>
      <trkpt lat="45.85024" lon="2.9612">
        <ele>903</ele>
        <time>2021-05-30T06:34:59Z</time>
      </trkpt>
      <trkpt lat="45.85025" lon="2.9612">
        <ele>903</ele>
        <time>2021-05-30T06:35:00Z</time>
      </trkpt>
      <trkpt lat="45.85025" lon="2.96121">
        <ele>903</ele>
        <time>2021-05-30T06:35:01Z</time>
      </trkpt>
      <trkpt lat="45.85026" lon="2.96121">
        <ele>903</ele>
        <time>2021-05-30T06:35:02Z</time>
      </trkpt>
      <trkpt lat="45.85027" lon="2.96122">
        <ele>903</ele>
        <time>2021-05-30T06:35:03Z</time>
      </trkpt>
      <trkpt lat="45.85028" lon="2.96123">
        <ele>903</ele>
        <time>2021-05-30T06:35:04Z</time>
      </trkpt>
      <trkpt lat="45.85029" lon="2.96123">
        <ele>903</ele>
        <time>2021-05-30T06:35:05Z</time>
      </trkpt>
      <trkpt lat="45.8503" lon="2.96124">
        <ele>903</ele>
        <time>2021-05-30T06:35:06Z</time>
      </trkpt>
      <trkpt lat="45.8503" lon="2.96125">
        <ele>903</ele>
        <time>2021-05-30T06:35:07Z</time>
      </trkpt>
      <trkpt lat="45.85031" lon="2.96126">
        <ele>903</ele>
        <time>2021-05-30T06:35:08Z</time>
      </trkpt>
      <trkpt lat="45.85031" lon="2.96128">
        <ele>903</ele>
        <time>2021-05-30T06:35:09Z</time>
      </trkpt>
      <trkpt lat="45.85032" lon="2.96129">
        <ele>903</ele>
        <time>2021-05-30T06:35:10Z</time>
      </trkpt>
      <trkpt lat="45.85033" lon="2.9613">
        <ele>903</ele>
        <time>2021-05-30T06:35:11Z</time>
      </trkpt>
      <trkpt lat="45.85034" lon="2.96131">
        <ele>903</ele>
        <time>2021-05-30T06:35:12Z</time>
      </trkpt>
      <trkpt lat="45.85036" lon="2.96132">
        <ele>903</ele>
        <time>2021-05-30T06:35:13Z</time>
      </trkpt>
      <trkpt lat="45.85037" lon="2.96133">
        <ele>903</ele>
        <time>2021-05-30T06:35:14Z</time>
      </trkpt>
      <trkpt lat="45.85038" lon="2.96134">
        <ele>903</ele>
        <time>2021-05-30T06:35:15Z</time>
      </trkpt>
      <trkpt lat="45.85038" lon="2.96136">
        <ele>903</ele>
        <time>2021-05-30T06:35:16Z</time>
      </trkpt>
      <trkpt lat="45.8504" lon="2.96136">
        <ele>903</ele>
        <time>2021-05-30T06:35:17Z</time>
      </trkpt>
      <trkpt lat="45.8504" lon="2.9614">
        <ele>903</ele>
        <time>2021-05-30T06:35:18Z</time>
      </trkpt>
      <trkpt lat="45.85041" lon="2.96142">
        <ele>903</ele>
        <time>2021-05-30T06:35:19Z</time>
      </trkpt>
      <trkpt lat="45.85043" lon="2.96143">
        <ele>903</ele>
        <time>2021-05-30T06:35:20Z</time>
      </trkpt>
      <trkpt lat="45.85043" lon="2.96145">
        <ele>903</ele>
        <time>2021-05-30T06:35:21Z</time>
      </trkpt>
      <trkpt lat="45.85043" lon="2.9615">
        <ele>903</ele>
        <time>2021-05-30T06:35:22Z</time>
      </trkpt>
      <trkpt lat="45.85043" lon="2.96154">
        <ele>903</ele>
        <time>2021-05-30T06:35:23Z</time>
      </trkpt>
      <trkpt lat="45.85044" lon="2.9616">
        <ele>903</ele>
        <time>2021-05-30T06:35:24Z</time>
      </trkpt>
      <trkpt lat="45.85045" lon="2.96165">
        <ele>903</ele>
        <time>2021-05-30T06:35:25Z</time>
      </trkpt>
      <trkpt lat="45.85045" lon="2.9617">
        <ele>903</ele>
        <time>2021-05-30T06:35:26Z</time>
      </trkpt>
      <trkpt lat="45.85046" lon="2.96176">
        <ele>903</ele>
        <time>2021-05-30T06:35:27Z</time>
      </trkpt>
      <trkpt lat="45.85046" lon="2.96183">
        <ele>903</ele>
        <time>2021-05-30T06:35:28Z</time>
      </trkpt>
      <trkpt lat="45.85046" lon="2.96191">
        <ele>903</ele>
        <time>2021-05-30T06:35:29Z</time>
      </trkpt>
      <trkpt lat="45.85046" lon="2.96196">
        <ele>903</ele>
        <time>2021-05-30T06:35:30Z</time>
      </trkpt>
      <trkpt lat="45.85046" lon="2.96201">
        <ele>903</ele>
        <time>2021-05-30T06:35:31Z</time>
      </trkpt>
      <trkpt lat="45.85048" lon="2.96205">
        <ele>903</ele>
        <time>2021-05-30T06:35:32Z</time>
      </trkpt>
      <trkpt lat="45.85049" lon="2.96208">
        <ele>903</ele>
        <time>2021-05-30T06:35:33Z</time>
      </trkpt>
      <trkpt lat="45.85058" lon="2.96231">
        <ele>903</ele>
        <time>2021-05-30T06:35:39Z</time>
      </trkpt>
      <trkpt lat="45.85058" lon="2.96232">
        <ele>903</ele>
        <time>2021-05-30T06:35:40Z</time>
      </trkpt>
      <trkpt lat="45.85059" lon="2.96233">
        <ele>903</ele>
        <time>2021-05-30T06:35:41Z</time>
      </trkpt>
      <trkpt lat="45.8506" lon="2.96235">
        <ele>903</ele>
        <time>2021-05-30T06:35:42Z</time>
      </trkpt>
      <trkpt lat="45.85061" lon="2.96236">
        <ele>903</ele>
        <time>2021-05-30T06:35:43Z</time>
      </trkpt>
      <trkpt lat="45.85061" lon="2.96238">
        <ele>903</ele>
        <time>2021-05-30T06:35:44Z</time>
      </trkpt>
      <trkpt lat="45.85061" lon="2.96239">
        <ele>903</ele>
        <time>2021-05-30T06:35:45Z</time>
      </trkpt>
      <trkpt lat="45.85062" lon="2.96241">
        <ele>903</ele>
        <time>2021-05-30T06:35:46Z</time>
      </trkpt>
      <trkpt lat="45.85062" lon="2.96242">
        <ele>903</ele>
        <time>2021-05-30T06:35:47Z</time>
      </trkpt>
      <trkpt lat="45.85063" lon="2.96243">
        <ele>903</ele>
        <time>2021-05-30T06:35:48Z</time>
      </trkpt>
      <trkpt lat="45.85063" lon="2.96245">
        <ele>903</ele>
        <time>2021-05-30T06:35:49Z</time>
      </trkpt>
      <trkpt lat="45.85064" lon="2.96246">
        <ele>903</ele>
        <time>2021-05-30T06:35:50Z</time>
      </trkpt>
      <trkpt lat="45.85064" lon="2.96246">
        <ele>903</ele>
        <time>2021-05-30T06:35:51Z</time>
      </trkpt>
      <trkpt lat="45.85064" lon="2.96247">
        <ele>903</ele>
        <time>2021-05-30T06:35:52Z</time>
      </trkpt>
      <trkpt lat="45.85064" lon="2.96249">
        <ele>903</ele>
        <time>2021-05-30T06:35:53Z</time>
      </trkpt>
      <trkpt lat="45.85064" lon="2.9625">
        <ele>903</ele>
        <time>2021-05-30T06:35:54Z</time>
      </trkpt>
      <trkpt lat="45.85064" lon="2.96251">
        <ele>903</ele>
        <time>2021-05-30T06:35:55Z</time>
      </trkpt>
      <trkpt lat="45.85064" lon="2.96251">
        <ele>903</ele>
        <time>2021-05-30T06:35:56Z</time>
      </trkpt>
      <trkpt lat="45.85063" lon="2.96252">
        <ele>903</ele>
        <time>2021-05-30T06:35:57Z</time>
      </trkpt>
      <trkpt lat="45.85063" lon="2.96254">
        <ele>903</ele>
        <time>2021-05-30T06:35:58Z</time>
      </trkpt>
      <trkpt lat="45.85064" lon="2.96257">
        <ele>903</ele>
        <time>2021-05-30T06:35:59Z</time>
      </trkpt>
      <trkpt lat="45.85064" lon="2.96259">
        <ele>903</ele>
        <time>2021-05-30T06:36:00Z</time>
      </trkpt>
      <trkpt lat="45.85064" lon="2.96265">
        <ele>903</ele>
        <time>2021-05-30T06:36:01Z</time>
      </trkpt>
      <trkpt lat="45.85063" lon="2.96272">
        <ele>903</ele>
        <time>2021-05-30T06:36:02Z</time>
      </trkpt>
      <trkpt lat="45.85063" lon="2.96276">
        <ele>903</ele>
        <time>2021-05-30T06:36:03Z</time>
      </trkpt>
      <trkpt lat="45.85064" lon="2.96279">
        <ele>903</ele>
        <time>2021-05-30T06:36:04Z</time>
      </trkpt>
      <trkpt lat="45.85064" lon="2.96282">
        <ele>903</ele>
        <time>2021-05-30T06:36:05Z</time>
      </trkpt>
      <trkpt lat="45.85064" lon="2.96285">
        <ele>903</ele>
        <time>2021-05-30T06:36:06Z</time>
      </trkpt>
      <trkpt lat="45.85064" lon="2.96288">
        <ele>903</ele>
        <time>2021-05-30T06:36:07Z</time>
      </trkpt>
      <trkpt lat="45.85064" lon="2.9629">
        <ele>903</ele>
        <time>2021-05-30T06:36:08Z</time>
      </trkpt>
      <trkpt lat="45.85067" lon="2.96292">
        <ele>903</ele>
        <time>2021-05-30T06:36:09Z</time>
      </trkpt>
      <trkpt lat="45.85084" lon="2.96369">
        <ele>903</ele>
        <time>2021-05-30T06:36:12Z</time>
      </trkpt>
      <trkpt lat="45.85086" lon="2.9637">
        <ele>903</ele>
        <time>2021-05-30T06:36:13Z</time>
      </trkpt>
      <trkpt lat="45.85086" lon="2.96372">
        <ele>903</ele>
        <time>2021-05-30T06:36:14Z</time>
      </trkpt>
      <trkpt lat="45.85091" lon="2.96389">
        <ele>903</ele>
        <time>2021-05-30T06:36:17Z</time>
      </trkpt>
      <trkpt lat="45.85093" lon="2.9639">
        <ele>903</ele>
        <time>2021-05-30T06:36:18Z</time>
      </trkpt>
      <trkpt lat="45.85096" lon="2.9639">
        <ele>903</ele>
        <time>2021-05-30T06:36:19Z</time>
      </trkpt>
      <trkpt lat="45.85099" lon="2.96391">
        <ele>903</ele>
        <time>2021-05-30T06:36:20Z</time>
      </trkpt>
      <trkpt lat="45.85113" lon="2.96398">
        <ele>903</ele>
        <time>2021-05-30T06:36:22Z</time>
      </trkpt>
      <trkpt lat="45.85113" lon="2.96399">
        <ele>903</ele>
        <time>2021-05-30T06:36:23Z</time>
      </trkpt>
      <trkpt lat="45.85114" lon="2.96402">
        <ele>903</ele>
        <time>2021-05-30T06:36:24Z</time>
      </trkpt>
      <trkpt lat="45.85117" lon="2.96408">
        <ele>903</ele>
        <time>2021-05-30T06:36:26Z</time>
      </trkpt>
      <trkpt lat="45.85117" lon="2.96408">
        <ele>903</ele>
        <time>2021-05-30T06:36:27Z</time>
      </trkpt>
      <trkpt lat="45.85119" lon="2.9641">
        <ele>903</ele>
        <time>2021-05-30T06:36:29Z</time>
      </trkpt>
      <trkpt lat="45.85119" lon="2.9641">
        <ele>903</ele>
        <time>2021-05-30T06:36:30Z</time>
      </trkpt>
      <trkpt lat="45.85119" lon="2.96411">
        <ele>903</ele>
        <time>2021-05-30T06:36:31Z</time>
      </trkpt>
      <trkpt lat="45.8512" lon="2.96411">
        <ele>903</ele>
        <time>2021-05-30T06:36:32Z</time>
      </trkpt>
      <trkpt lat="45.85121" lon="2.96412">
        <ele>903</ele>
        <time>2021-05-30T06:36:33Z</time>
      </trkpt>
      <trkpt lat="45.85131" lon="2.9642">
        <ele>903</ele>
        <time>2021-05-30T06:36:46Z</time>
      </trkpt>
      <trkpt lat="45.85131" lon="2.9642">
        <ele>903</ele>
        <time>2021-05-30T06:36:47Z</time>
      </trkpt>
      <trkpt lat="45.85131" lon="2.9642">
        <ele>903</ele>
        <time>2021-05-30T06:36:48Z</time>
      </trkpt>
      <trkpt lat="45.85132" lon="2.96421">
        <ele>903</ele>
        <time>2021-05-30T06:36:49Z</time>
      </trkpt>
      <trkpt lat="45.85134" lon="2.96425">
        <ele>903</ele>
        <time>2021-05-30T06:36:54Z</time>
      </trkpt>
      <trkpt lat="45.85134" lon="2.96425">
        <ele>903</ele>
        <time>2021-05-30T06:36:55Z</time>
      </trkpt>
      <trkpt lat="45.85134" lon="2.96425">
        <ele>903</ele>
        <time>2021-05-30T06:36:56Z</time>
      </trkpt>
      <trkpt lat="45.85134" lon="2.96426">
        <ele>903</ele>
        <time>2021-05-30T06:36:57Z</time>
      </trkpt>
      <trkpt lat="45.85134" lon="2.96426">
        <ele>903</ele>
        <time>2021-05-30T06:36:58Z</time>
      </trkpt>
      <trkpt lat="45.8513" lon="2.96434">
        <ele>903</ele>
        <time>2021-05-30T06:37:14Z</time>
      </trkpt>
      <trkpt lat="45.8513" lon="2.96434">
        <ele>903</ele>
        <time>2021-05-30T06:37:15Z</time>
      </trkpt>
      <trkpt lat="45.8513" lon="2.96433">
        <ele>903</ele>
        <time>2021-05-30T06:37:16Z</time>
      </trkpt>
      <trkpt lat="45.8513" lon="2.96433">
        <ele>903</ele>
        <time>2021-05-30T06:37:18Z</time>
      </trkpt>
      <trkpt lat="45.8512" lon="2.96436">
        <ele>903</ele>
        <time>2021-05-30T06:37:46Z</time>
      </trkpt>
      <trkpt lat="45.8512" lon="2.96436">
        <ele>903</ele>
        <time>2021-05-30T06:37:47Z</time>
      </trkpt>
      <trkpt lat="45.8512" lon="2.96436">
        <ele>903</ele>
        <time>2021-05-30T06:37:48Z</time>
      </trkpt>
      <trkpt lat="45.85119" lon="2.96436">
        <ele>903</ele>
        <time>2021-05-30T06:37:49Z</time>
      </trkpt>
      <trkpt lat="45.85119" lon="2.96436">
        <ele>903</ele>
        <time>2021-05-30T06:37:50Z</time>
      </trkpt>
      <trkpt lat="45.85118" lon="2.96436">
        <ele>903</ele>
        <time>2021-05-30T06:37:51Z</time>
      </trkpt>
      <trkpt lat="45.85118" lon="2.96436">
        <ele>903</ele>
        <time>2021-05-30T06:37:52Z</time>
      </trkpt>
      <trkpt lat="45.85117" lon="2.96436">
        <ele>903</ele>
        <time>2021-05-30T06:37:53Z</time>
      </trkpt>
      <trkpt lat="45.85117" lon="2.96436">
        <ele>903</ele>
        <time>2021-05-30T06:37:54Z</time>
      </trkpt>
      <trkpt lat="45.85107" lon="2.96441">
        <ele>903</ele>
        <time>2021-05-30T06:38:15Z</time>
      </trkpt>
      <trkpt lat="45.85107" lon="2.96441">
        <ele>903</ele>
        <time>2021-05-30T06:38:16Z</time>
      </trkpt>
      <trkpt lat="45.85106" lon="2.96441">
        <ele>903</ele>
        <time>2021-05-30T06:38:17Z</time>
      </trkpt>
      <trkpt lat="45.85106" lon="2.96442">
        <ele>903</ele>
        <time>2021-05-30T06:38:18Z</time>
      </trkpt>
      <trkpt lat="45.85096" lon="2.96444">
        <ele>903</ele>
        <time>2021-05-30T06:38:37Z</time>
      </trkpt>
      <trkpt lat="45.85096" lon="2.96444">
        <ele>903</ele>
        <time>2021-05-30T06:38:38Z</time>
      </trkpt>
      <trkpt lat="45.85096" lon="2.96444">
        <ele>903</ele>
        <time>2021-05-30T06:38:39Z</time>
      </trkpt>
      <trkpt lat="45.85096" lon="2.96445">
        <ele>903</ele>
        <time>2021-05-30T06:38:40Z</time>
      </trkpt>
      <trkpt lat="45.85086" lon="2.9645">
        <ele>903</ele>
        <time>2021-05-30T06:38:56Z</time>
      </trkpt>
      <trkpt lat="45.85086" lon="2.96451">
        <ele>903</ele>
        <time>2021-05-30T06:38:57Z</time>
      </trkpt>
      <trkpt lat="45.85086" lon="2.96451">
        <ele>903</ele>
        <time>2021-05-30T06:38:58Z</time>
      </trkpt>
      <trkpt lat="45.85085" lon="2.96452">
        <ele>903</ele>
        <time>2021-05-30T06:38:59Z</time>
      </trkpt>
      <trkpt lat="45.85076" lon="2.96458">
        <ele>903</ele>
        <time>2021-05-30T06:39:16Z</time>
      </trkpt>
      <trkpt lat="45.85076" lon="2.96458">
        <ele>903</ele>
        <time>2021-05-30T06:39:17Z</time>
      </trkpt>
      <trkpt lat="45.85075" lon="2.96458">
        <ele>903</ele>
        <time>2021-05-30T06:39:18Z</time>
      </trkpt>
      <trkpt lat="45.85075" lon="2.96458">
        <ele>903</ele>
        <time>2021-05-30T06:39:19Z</time>
      </trkpt>
      <trkpt lat="45.85068" lon="2.96459">
        <ele>903</ele>
        <time>2021-05-30T06:39:31Z</time>
      </trkpt>
      <trkpt lat="45.85068" lon="2.96459">
        <ele>903</ele>
        <time>2021-05-30T06:39:32Z</time>
      </trkpt>
      <trkpt lat="45.85067" lon="2.96459">
        <ele>903</ele>
        <time>2021-05-30T06:39:33Z</time>
      </trkpt>
      <trkpt lat="45.85067" lon="2.96459">
        <ele>903</ele>
        <time>2021-05-30T06:39:34Z</time>
      </trkpt>
      <trkpt lat="45.85062" lon="2.96461">
        <ele>903</ele>
        <time>2021-05-30T06:39:43Z</time>
      </trkpt>
      <trkpt lat="45.85062" lon="2.96461">
        <ele>903</ele>
        <time>2021-05-30T06:39:44Z</time>
      </trkpt>
      <trkpt lat="45.85062" lon="2.96461">
        <ele>903</ele>
        <time>2021-05-30T06:39:45Z</time>
      </trkpt>
      <trkpt lat="45.85062" lon="2.96461">
        <ele>903</ele>
        <time>2021-05-30T06:39:46Z</time>
      </trkpt>
      <trkpt lat="45.85061" lon="2.96461">
        <ele>903</ele>
        <time>2021-05-30T06:39:47Z</time>
      </trkpt>
      <trkpt lat="45.85053" lon="2.96467">
        <ele>903</ele>
        <time>2021-05-30T06:39:58Z</time>
      </trkpt>
      <trkpt lat="45.85052" lon="2.96467">
        <ele>903</ele>
        <time>2021-05-30T06:39:59Z</time>
      </trkpt>
      <trkpt lat="45.85052" lon="2.96467">
        <ele>903</ele>
        <time>2021-05-30T06:40:00Z</time>
      </trkpt>
      <trkpt lat="45.85051" lon="2.96467">
        <ele>903</ele>
        <time>2021-05-30T06:40:01Z</time>
      </trkpt>
      <trkpt lat="45.85046" lon="2.96466">
        <ele>903</ele>
        <time>2021-05-30T06:40:06Z</time>
      </trkpt>
      <trkpt lat="45.85046" lon="2.96465">
        <ele>903</ele>
        <time>2021-05-30T06:40:07Z</time>
      </trkpt>
      <trkpt lat="45.85045" lon="2.96465">
        <ele>903</ele>
        <time>2021-05-30T06:40:08Z</time>
      </trkpt>
      <trkpt lat="45.85045" lon="2.96465">
        <ele>903</ele>
        <time>2021-05-30T06:40:09Z</time>
      </trkpt>
      <trkpt lat="45.85045" lon="2.96465">
        <ele>903</ele>
        <time>2021-05-30T06:40:10Z</time>
      </trkpt>
      <trkpt lat="45.85044" lon="2.96465">
        <ele>903</ele>
        <time>2021-05-30T06:40:11Z</time>
      </trkpt>
      <trkpt lat="45.85043" lon="2.96465">
        <ele>903</ele>
        <time>2021-05-30T06:40:12Z</time>
      </trkpt>
      <trkpt lat="45.85042" lon="2.96465">
        <ele>903</ele>
        <time>2021-05-30T06:40:14Z</time>
      </trkpt>
      <trkpt lat="45.85042" lon="2.96465">
        <ele>903</ele>
        <time>2021-05-30T06:40:15Z</time>
      </trkpt>
      <trkpt lat="45.85041" lon="2.96465">
        <ele>903</ele>
        <time>2021-05-30T06:40:16Z</time>
      </trkpt>
      <trkpt lat="45.85033" lon="2.9647">
        <ele>903</ele>
        <time>2021-05-30T06:40:30Z</time>
      </trkpt>
      <trkpt lat="45.85033" lon="2.9647">
        <ele>903</ele>
        <time>2021-05-30T06:40:31Z</time>
      </trkpt>
      <trkpt lat="45.85032" lon="2.96471">
        <ele>903</ele>
        <time>2021-05-30T06:40:32Z</time>
      </trkpt>
      <trkpt lat="45.85031" lon="2.96471">
        <ele>903</ele>
        <time>2021-05-30T06:40:33Z</time>
      </trkpt>
      <trkpt lat="45.85022" lon="2.96481">
        <ele>903</ele>
        <time>2021-05-30T06:40:42Z</time>
      </trkpt>
      <trkpt lat="45.85022" lon="2.96481">
        <ele>903</ele>
        <time>2021-05-30T06:40:43Z</time>
      </trkpt>
      <trkpt lat="45.85022" lon="2.96481">
        <ele>903</ele>
        <time>2021-05-30T06:40:44Z</time>
      </trkpt>
      <trkpt lat="45.85022" lon="2.96481">
        <ele>903</ele>
        <time>2021-05-30T06:40:45Z</time>
      </trkpt>
      <trkpt lat="45.85012" lon="2.96478">
        <ele>903</ele>
        <time>2021-05-30T06:41:03Z</time>
      </trkpt>
      <trkpt lat="45.85012" lon="2.96478">
        <ele>903</ele>
        <time>2021-05-30T06:41:04Z</time>
      </trkpt>
      <trkpt lat="45.85012" lon="2.96478">
        <ele>903</ele>
        <time>2021-05-30T06:41:05Z</time>
      </trkpt>
      <trkpt lat="45.85011" lon="2.96478">
        <ele>903</ele>
        <time>2021-05-30T06:41:06Z</time>
      </trkpt>
      <trkpt lat="45.85009" lon="2.96479">
        <ele>903</ele>
        <time>2021-05-30T06:41:08Z</time>
      </trkpt>
      <trkpt lat="45.85009" lon="2.96479">
        <ele>903</ele>
        <time>2021-05-30T06:41:09Z</time>
      </trkpt>
      <trkpt lat="45.85008" lon="2.96479">
        <ele>903</ele>
        <time>2021-05-30T06:41:10Z</time>
      </trkpt>
      <trkpt lat="45.85008" lon="2.96479">
        <ele>903</ele>
        <time>2021-05-30T06:41:11Z</time>
      </trkpt>
      <trkpt lat="45.84998" lon="2.96481">
        <ele>903</ele>
        <time>2021-05-30T06:41:27Z</time>
      </trkpt>
      <trkpt lat="45.84998" lon="2.96481">
        <ele>903</ele>
        <time>2021-05-30T06:41:28Z</time>
      </trkpt>
      <trkpt lat="45.84997" lon="2.96481">
        <ele>903</ele>
        <time>2021-05-30T06:41:29Z</time>
      </trkpt>
      <trkpt lat="45.84997" lon="2.96481">
        <ele>903</ele>
        <time>2021-05-30T06:41:30Z</time>
      </trkpt>
      <trkpt lat="45.84991" lon="2.96489">
        <ele>903</ele>
        <time>2021-05-30T06:41:36Z</time>
      </trkpt>
      <trkpt lat="45.84991" lon="2.96489">
        <ele>903</ele>
        <time>2021-05-30T06:41:37Z</time>
      </trkpt>
      <trkpt lat="45.8499" lon="2.9649">
        <ele>903</ele>
        <time>2021-05-30T06:41:38Z</time>
      </trkpt>
      <trkpt lat="45.8499" lon="2.96491">
        <ele>903</ele>
        <time>2021-05-30T06:41:39Z</time>
      </trkpt>
      <trkpt lat="45.84989" lon="2.96491">
        <ele>903</ele>
        <time>2021-05-30T06:41:40Z</time>
      </trkpt>
      <trkpt lat="45.84988" lon="2.96492">
        <ele>903</ele>
        <time>2021-05-30T06:41:41Z</time>
      </trkpt>
      <trkpt lat="45.84988" lon="2.96492">
        <ele>903</ele>
        <time>2021-05-30T06:41:42Z</time>
      </trkpt>
      <trkpt lat="45.84987" lon="2.96492">
        <ele>903</ele>
        <time>2021-05-30T06:41:43Z</time>
      </trkpt>
      <trkpt lat="45.84986" lon="2.96492">
        <ele>903</ele>
        <time>2021-05-30T06:41:44Z</time>
      </trkpt>
      <trkpt lat="45.84986" lon="2.96492">
        <ele>903</ele>
        <time>2021-05-30T06:41:45Z</time>
      </trkpt>
      <trkpt lat="45.84985" lon="2.96492">
        <ele>903</ele>
        <time>2021-05-30T06:41:46Z</time>
      </trkpt>
      <trkpt lat="45.84984" lon="2.96493">
        <ele>903</ele>
        <time>2021-05-30T06:41:47Z</time>
      </trkpt>
      <trkpt lat="45.84977" lon="2.96498">
        <ele>903</ele>
        <time>2021-05-30T06:41:57Z</time>
      </trkpt>
      <trkpt lat="45.84977" lon="2.96498">
        <ele>903</ele>
        <time>2021-05-30T06:41:58Z</time>
      </trkpt>
      <trkpt lat="45.84977" lon="2.96498">
        <ele>903</ele>
        <time>2021-05-30T06:41:59Z</time>
      </trkpt>
      <trkpt lat="45.84976" lon="2.96499">
        <ele>903</ele>
        <time>2021-05-30T06:42:00Z</time>
      </trkpt>
      <trkpt lat="45.84973" lon="2.96504">
        <ele>903</ele>
        <time>2021-05-30T06:42:06Z</time>
      </trkpt>
      <trkpt lat="45.84973" lon="2.96504">
        <ele>903</ele>
        <time>2021-05-30T06:42:07Z</time>
      </trkpt>
      <trkpt lat="45.84973" lon="2.96504">
        <ele>903</ele>
        <time>2021-05-30T06:42:08Z</time>
      </trkpt>
      <trkpt lat="45.84973" lon="2.96504">
        <ele>903</ele>
        <time>2021-05-30T06:42:09Z</time>
      </trkpt>
      <trkpt lat="45.84972" lon="2.96505">
        <ele>903</ele>
        <time>2021-05-30T06:42:10Z</time>
      </trkpt>
      <trkpt lat="45.84972" lon="2.96505">
        <ele>903</ele>
        <time>2021-05-30T06:42:11Z</time>
      </trkpt>
      <trkpt lat="45.84972" lon="2.96505">
        <ele>903</ele>
        <time>2021-05-30T06:42:12Z</time>
      </trkpt>
      <trkpt lat="45.84971" lon="2.96506">
        <ele>903</ele>
        <time>2021-05-30T06:42:13Z</time>
      </trkpt>
      <trkpt lat="45.84971" lon="2.96506">
        <ele>903</ele>
        <time>2021-05-30T06:42:14Z</time>
      </trkpt>
      <trkpt lat="45.8497" lon="2.96507">
        <ele>903</ele>
        <time>2021-05-30T06:42:15Z</time>
      </trkpt>
      <trkpt lat="45.8497" lon="2.96507">
        <ele>903</ele>
        <time>2021-05-30T06:42:16Z</time>
      </trkpt>
      <trkpt lat="45.84968" lon="2.9651">
        <ele>903</ele>
        <time>2021-05-30T06:42:18Z</time>
      </trkpt>
      <trkpt lat="45.84968" lon="2.9651">
        <ele>903</ele>
        <time>2021-05-30T06:42:19Z</time>
      </trkpt>
      <trkpt lat="45.84968" lon="2.9651">
        <ele>903</ele>
        <time>2021-05-30T06:42:20Z</time>
      </trkpt>
      <trkpt lat="45.84968" lon="2.96511">
        <ele>903</ele>
        <time>2021-05-30T06:42:21Z</time>
      </trkpt>
      <trkpt lat="45.84967" lon="2.96511">
        <ele>903</ele>
        <time>2021-05-30T06:42:22Z</time>
      </trkpt>
      <trkpt lat="45.84967" lon="2.96512">
        <ele>903</ele>
        <time>2021-05-30T06:42:23Z</time>
      </trkpt>
      <trkpt lat="45.84967" lon="2.96512">
        <ele>903</ele>
        <time>2021-05-30T06:42:24Z</time>
      </trkpt>
      <trkpt lat="45.84965" lon="2.96515">
        <ele>903</ele>
        <time>2021-05-30T06:42:26Z</time>
      </trkpt>
      <trkpt lat="45.84965" lon="2.96515">
        <ele>903</ele>
        <time>2021-05-30T06:42:27Z</time>
      </trkpt>
      <trkpt lat="45.84965" lon="2.96515">
        <ele>903</ele>
        <time>2021-05-30T06:42:28Z</time>
      </trkpt>
      <trkpt lat="45.84965" lon="2.96516">
        <ele>903</ele>
        <time>2021-05-30T06:42:29Z</time>
      </trkpt>
      <trkpt lat="45.8496" lon="2.96526">
        <ele>903</ele>
        <time>2021-05-30T06:42:46Z</time>
      </trkpt>
      <trkpt lat="45.8496" lon="2.96527">
        <ele>903</ele>
        <time>2021-05-30T06:42:47Z</time>
      </trkpt>
      <trkpt lat="45.84959" lon="2.96527">
        <ele>903</ele>
        <time>2021-05-30T06:42:48Z</time>
      </trkpt>
      <trkpt lat="45.84959" lon="2.96527">
        <ele>903</ele>
        <time>2021-05-30T06:42:49Z</time>
      </trkpt>
      <trkpt lat="45.84959" lon="2.96528">
        <ele>903</ele>
        <time>2021-05-30T06:42:50Z</time>
      </trkpt>
      <trkpt lat="45.84955" lon="2.96534">
        <ele>903</ele>
        <time>2021-05-30T06:42:58Z</time>
      </trkpt>
      <trkpt lat="45.84955" lon="2.96534">
        <ele>903</ele>
        <time>2021-05-30T06:42:59Z</time>
      </trkpt>
      <trkpt lat="45.84955" lon="2.96534">
        <ele>903</ele>
        <time>2021-05-30T06:43:00Z</time>
      </trkpt>
      <trkpt lat="45.84955" lon="2.96535">
        <ele>903</ele>
        <time>2021-05-30T06:43:01Z</time>
      </trkpt>
      <trkpt lat="45.84954" lon="2.96535">
        <ele>903</ele>
        <time>2021-05-30T06:43:02Z</time>
      </trkpt>
      <trkpt lat="45.84953" lon="2.96536">
        <ele>903</ele>
        <time>2021-05-30T06:43:04Z</time>
      </trkpt>
      <trkpt lat="45.84952" lon="2.96536">
        <ele>903</ele>
        <time>2021-05-30T06:43:05Z</time>
      </trkpt>
      <trkpt lat="45.84952" lon="2.96536">
        <ele>903</ele>
        <time>2021-05-30T06:43:06Z</time>
      </trkpt>
      <trkpt lat="45.84952" lon="2.96537">
        <ele>903</ele>
        <time>2021-05-30T06:43:07Z</time>
      </trkpt>
      <trkpt lat="45.84951" lon="2.96538">
        <ele>903</ele>
        <time>2021-05-30T06:43:09Z</time>
      </trkpt>
      <trkpt lat="45.84951" lon="2.96538">
        <ele>903</ele>
        <time>2021-05-30T06:43:10Z</time>
      </trkpt>
      <trkpt lat="45.84951" lon="2.96538">
        <ele>903</ele>
        <time>2021-05-30T06:43:11Z</time>
      </trkpt>
      <trkpt lat="45.84949" lon="2.96541">
        <ele>903</ele>
        <time>2021-05-30T06:43:14Z</time>
      </trkpt>
      <trkpt lat="45.84949" lon="2.96541">
        <ele>903</ele>
        <time>2021-05-30T06:43:15Z</time>
      </trkpt>
      <trkpt lat="45.84949" lon="2.96541">
        <ele>903</ele>
        <time>2021-05-30T06:43:16Z</time>
      </trkpt>
      <trkpt lat="45.84949" lon="2.96541">
        <ele>903</ele>
        <time>2021-05-30T06:43:17Z</time>
      </trkpt>
      <trkpt lat="45.84948" lon="2.96542">
        <ele>903</ele>
        <time>2021-05-30T06:43:18Z</time>
      </trkpt>
      <trkpt lat="45.84948" lon="2.96542">
        <ele>903</ele>
        <time>2021-05-30T06:43:19Z</time>
      </trkpt>
      <trkpt lat="45.84948" lon="2.96542">
        <ele>903</ele>
        <time>2021-05-30T06:43:20Z</time>
      </trkpt>
      <trkpt lat="45.84948" lon="2.96543">
        <ele>903</ele>
        <time>2021-05-30T06:43:21Z</time>
      </trkpt>
      <trkpt lat="45.84948" lon="2.96543">
        <ele>903</ele>
        <time>2021-05-30T06:43:22Z</time>
      </trkpt>
      <trkpt lat="45.84947" lon="2.96544">
        <ele>903</ele>
        <time>2021-05-30T06:43:23Z</time>
      </trkpt>
      <trkpt lat="45.84947" lon="2.96544">
        <ele>903</ele>
        <time>2021-05-30T06:43:24Z</time>
      </trkpt>
      <trkpt lat="45.84947" lon="2.96545">
        <ele>903</ele>
        <time>2021-05-30T06:43:25Z</time>
      </trkpt>
      <trkpt lat="45.84946" lon="2.96545">
        <ele>903</ele>
        <time>2021-05-30T06:43:26Z</time>
      </trkpt>
      <trkpt lat="45.84943" lon="2.9655">
        <ele>903</ele>
        <time>2021-05-30T06:43:31Z</time>
      </trkpt>
      <trkpt lat="45.84943" lon="2.9655">
        <ele>903</ele>
        <time>2021-05-30T06:43:32Z</time>
      </trkpt>
      <trkpt lat="45.84943" lon="2.9655">
        <ele>903</ele>
        <time>2021-05-30T06:43:33Z</time>
      </trkpt>
      <trkpt lat="45.84943" lon="2.96551">
        <ele>903</ele>
        <time>2021-05-30T06:43:34Z</time>
      </trkpt>
      <trkpt lat="45.84942" lon="2.96551">
        <ele>903</ele>
        <time>2021-05-30T06:43:35Z</time>
      </trkpt>
      <trkpt lat="45.84942" lon="2.96552">
        <ele>903</ele>
        <time>2021-05-30T06:43:36Z</time>
      </trkpt>
      <trkpt lat="45.84941" lon="2.96553">
        <ele>903</ele>
        <time>2021-05-30T06:43:37Z</time>
      </trkpt>
      <trkpt lat="45.84937" lon="2.96558">
        <ele>903</ele>
        <time>2021-05-30T06:43:44Z</time>
      </trkpt>
      <trkpt lat="45.84936" lon="2.96558">
        <ele>903</ele>
        <time>2021-05-30T06:43:45Z</time>
      </trkpt>
      <trkpt lat="45.84936" lon="2.96558">
        <ele>903</ele>
        <time>2021-05-30T06:43:46Z</time>
      </trkpt>
      <trkpt lat="45.84935" lon="2.96559">
        <ele>903</ele>
        <time>2021-05-30T06:43:47Z</time>
      </trkpt>
      <trkpt lat="45.84935" lon="2.96559">
        <ele>903</ele>
        <time>2021-05-30T06:43:48Z</time>
      </trkpt>
      <trkpt lat="45.84934" lon="2.9656">
        <ele>903</ele>
        <time>2021-05-30T06:43:49Z</time>
      </trkpt>
      <trkpt lat="45.84934" lon="2.9656">
        <ele>903</ele>
        <time>2021-05-30T06:43:50Z</time>
      </trkpt>
      <trkpt lat="45.84934" lon="2.96561">
        <ele>903</ele>
        <time>2021-05-30T06:43:51Z</time>
      </trkpt>
      <trkpt lat="45.84934" lon="2.96562">
        <ele>903</ele>
        <time>2021-05-30T06:43:52Z</time>
      </trkpt>
      <trkpt lat="45.84933" lon="2.96563">
        <ele>903</ele>
        <time>2021-05-30T06:43:53Z</time>
      </trkpt>
      <trkpt lat="45.84932" lon="2.96564">
        <ele>903</ele>
        <time>2021-05-30T06:43:54Z</time>
      </trkpt>
      <trkpt lat="45.84932" lon="2.96565">
        <ele>903</ele>
        <time>2021-05-30T06:43:55Z</time>
      </trkpt>
      <trkpt lat="45.84931" lon="2.96566">
        <ele>903</ele>
        <time>2021-05-30T06:43:56Z</time>
      </trkpt>
      <trkpt lat="45.8493" lon="2.96567">
        <ele>903</ele>
        <time>2021-05-30T06:43:57Z</time>
      </trkpt>
      <trkpt lat="45.8493" lon="2.96568">
        <ele>903</ele>
        <time>2021-05-30T06:43:58Z</time>
      </trkpt>
      <trkpt lat="45.84929" lon="2.96569">
        <ele>903</ele>
        <time>2021-05-30T06:43:59Z</time>
      </trkpt>
      <trkpt lat="45.84928" lon="2.9657">
        <ele>903</ele>
        <time>2021-05-30T06:44:00Z</time>
      </trkpt>
      <trkpt lat="45.84928" lon="2.96571">
        <ele>903</ele>
        <time>2021-05-30T06:44:01Z</time>
      </trkpt>
      <trkpt lat="45.84927" lon="2.96572">
        <ele>903</ele>
        <time>2021-05-30T06:44:02Z</time>
      </trkpt>
      <trkpt lat="45.84926" lon="2.96572">
        <ele>903</ele>
        <time>2021-05-30T06:44:03Z</time>
      </trkpt>
      <trkpt lat="45.84926" lon="2.96573">
        <ele>903</ele>
        <time>2021-05-30T06:44:04Z</time>
      </trkpt>
      <trkpt lat="45.84925" lon="2.96574">
        <ele>903</ele>
        <time>2021-05-30T06:44:05Z</time>
      </trkpt>
      <trkpt lat="45.84924" lon="2.96575">
        <ele>903</ele>
        <time>2021-05-30T06:44:06Z</time>
      </trkpt>
      <trkpt lat="45.84924" lon="2.96575">
        <ele>903</ele>
        <time>2021-05-30T06:44:07Z</time>
      </trkpt>
      <trkpt lat="45.84923" lon="2.96576">
        <ele>903</ele>
        <time>2021-05-30T06:44:08Z</time>
      </trkpt>
      <trkpt lat="45.84922" lon="2.96577">
        <ele>903</ele>
        <time>2021-05-30T06:44:09Z</time>
      </trkpt>
      <trkpt lat="45.84921" lon="2.96577">
        <ele>903</ele>
        <time>2021-05-30T06:44:10Z</time>
      </trkpt>
      <trkpt lat="45.8492" lon="2.96578">
        <ele>903</ele>
        <time>2021-05-30T06:44:11Z</time>
      </trkpt>
      <trkpt lat="45.84919" lon="2.96579">
        <ele>903</ele>
        <time>2021-05-30T06:44:12Z</time>
      </trkpt>
      <trkpt lat="45.84919" lon="2.9658">
        <ele>903</ele>
        <time>2021-05-30T06:44:13Z</time>
      </trkpt>
      <trkpt lat="45.84917" lon="2.9658">
        <ele>903</ele>
        <time>2021-05-30T06:44:14Z</time>
      </trkpt>
      <trkpt lat="45.84917" lon="2.96581">
        <ele>903</ele>
        <time>2021-05-30T06:44:15Z</time>
      </trkpt>
      <trkpt lat="45.84916" lon="2.96582">
        <ele>903</ele>
        <time>2021-05-30T06:44:16Z</time>
      </trkpt>
      <trkpt lat="45.84916" lon="2.96583">
        <ele>903</ele>
        <time>2021-05-30T06:44:17Z</time>
      </trkpt>
      <trkpt lat="45.84915" lon="2.96583">
        <ele>903</ele>
        <time>2021-05-30T06:44:18Z</time>
      </trkpt>
      <trkpt lat="45.84914" lon="2.96584">
        <ele>903</ele>
        <time>2021-05-30T06:44:19Z</time>
      </trkpt>
      <trkpt lat="45.84914" lon="2.96585">
        <ele>903</ele>
        <time>2021-05-30T06:44:20Z</time>
      </trkpt>
      <trkpt lat="45.84913" lon="2.96586">
        <ele>903</ele>
        <time>2021-05-30T06:44:21Z</time>
      </trkpt>
      <trkpt lat="45.84913" lon="2.96587">
        <ele>903</ele>
        <time>2021-05-30T06:44:22Z</time>
      </trkpt>
      <trkpt lat="45.84912" lon="2.96587">
        <ele>903</ele>
        <time>2021-05-30T06:44:23Z</time>
      </trkpt>
      <trkpt lat="45.84911" lon="2.96588">
        <ele>903</ele>
        <time>2021-05-30T06:44:24Z</time>
      </trkpt>
      <trkpt lat="45.84911" lon="2.96589">
        <ele>903</ele>
        <time>2021-05-30T06:44:25Z</time>
      </trkpt>
      <trkpt lat="45.8491" lon="2.9659">
        <ele>903</ele>
        <time>2021-05-30T06:44:26Z</time>
      </trkpt>
      <trkpt lat="45.84909" lon="2.96591">
        <ele>903</ele>
        <time>2021-05-30T06:44:27Z</time>
      </trkpt>
      <trkpt lat="45.84909" lon="2.96593">
        <ele>903</ele>
        <time>2021-05-30T06:44:28Z</time>
      </trkpt>
      <trkpt lat="45.84908" lon="2.96594">
        <ele>903</ele>
        <time>2021-05-30T06:44:29Z</time>
      </trkpt>
      <trkpt lat="45.84907" lon="2.96594">
        <ele>903</ele>
        <time>2021-05-30T06:44:30Z</time>
      </trkpt>
      <trkpt lat="45.84907" lon="2.96595">
        <ele>903</ele>
        <time>2021-05-30T06:44:31Z</time>
      </trkpt>
      <trkpt lat="45.84906" lon="2.96596">
        <ele>903</ele>
        <time>2021-05-30T06:44:32Z</time>
      </trkpt>
      <trkpt lat="45.84906" lon="2.96597">
        <ele>903</ele>
        <time>2021-05-30T06:44:33Z</time>
      </trkpt>
      <trkpt lat="45.84905" lon="2.96598">
        <ele>903</ele>
        <time>2021-05-30T06:44:34Z</time>
      </trkpt>
      <trkpt lat="45.84904" lon="2.96599">
        <ele>903</ele>
        <time>2021-05-30T06:44:35Z</time>
      </trkpt>
      <trkpt lat="45.84904" lon="2.966">
        <ele>903</ele>
        <time>2021-05-30T06:44:36Z</time>
      </trkpt>
      <trkpt lat="45.84903" lon="2.966">
        <ele>903</ele>
        <time>2021-05-30T06:44:37Z</time>
      </trkpt>
      <trkpt lat="45.84902" lon="2.96601">
        <ele>903</ele>
        <time>2021-05-30T06:44:38Z</time>
      </trkpt>
      <trkpt lat="45.84902" lon="2.96602">
        <ele>903</ele>
        <time>2021-05-30T06:44:39Z</time>
      </trkpt>
      <trkpt lat="45.84901" lon="2.96603">
        <ele>903</ele>
        <time>2021-05-30T06:44:40Z</time>
      </trkpt>
      <trkpt lat="45.849" lon="2.96604">
        <ele>903</ele>
        <time>2021-05-30T06:44:41Z</time>
      </trkpt>
      <trkpt lat="45.84899" lon="2.96604">
        <ele>903</ele>
        <time>2021-05-30T06:44:42Z</time>
      </trkpt>
      <trkpt lat="45.84898" lon="2.96605">
        <ele>903</ele>
        <time>2021-05-30T06:44:43Z</time>
      </trkpt>
      <trkpt lat="45.84898" lon="2.96606">
        <ele>903</ele>
        <time>2021-05-30T06:44:44Z</time>
      </trkpt>
      <trkpt lat="45.84897" lon="2.96607">
        <ele>903</ele>
        <time>2021-05-30T06:44:45Z</time>
      </trkpt>
      <trkpt lat="45.84896" lon="2.96607">
        <ele>903</ele>
        <time>2021-05-30T06:44:46Z</time>
      </trkpt>
      <trkpt lat="45.84895" lon="2.96609">
        <ele>903</ele>
        <time>2021-05-30T06:44:47Z</time>
      </trkpt>
      <trkpt lat="45.84894" lon="2.9661">
        <ele>903</ele>
        <time>2021-05-30T06:44:48Z</time>
      </trkpt>
      <trkpt lat="45.84893" lon="2.96611">
        <ele>903</ele>
        <time>2021-05-30T06:44:49Z</time>
      </trkpt>
      <trkpt lat="45.84892" lon="2.96612">
        <ele>903</ele>
        <time>2021-05-30T06:44:50Z</time>
      </trkpt>
      <trkpt lat="45.84891" lon="2.96613">
        <ele>903</ele>
        <time>2021-05-30T06:44:51Z</time>
      </trkpt>
      <trkpt lat="45.8489" lon="2.96614">
        <ele>903</ele>
        <time>2021-05-30T06:44:52Z</time>
      </trkpt>
      <trkpt lat="45.84889" lon="2.96615">
        <ele>903</ele>
        <time>2021-05-30T06:44:53Z</time>
      </trkpt>
      <trkpt lat="45.84888" lon="2.96616">
        <ele>903</ele>
        <time>2021-05-30T06:44:54Z</time>
      </trkpt>
      <trkpt lat="45.84887" lon="2.96616">
        <ele>903</ele>
        <time>2021-05-30T06:44:55Z</time>
      </trkpt>
      <trkpt lat="45.84886" lon="2.96617">
        <ele>903</ele>
        <time>2021-05-30T06:44:56Z</time>
      </trkpt>
      <trkpt lat="45.84885" lon="2.96618">
        <ele>903</ele>
        <time>2021-05-30T06:44:57Z</time>
      </trkpt>
      <trkpt lat="45.84883" lon="2.9662">
        <ele>903</ele>
        <time>2021-05-30T06:44:58Z</time>
      </trkpt>
      <trkpt lat="45.84882" lon="2.96622">
        <ele>903</ele>
        <time>2021-05-30T06:44:59Z</time>
      </trkpt>
      <trkpt lat="45.84876" lon="2.96622">
        <ele>903</ele>
        <time>2021-05-30T06:45:54Z</time>
      </trkpt>
      <trkpt lat="45.84876" lon="2.96623">
        <ele>903</ele>
        <time>2021-05-30T06:45:55Z</time>
      </trkpt>
      <trkpt lat="45.84875" lon="2.96623">
        <ele>903</ele>
        <time>2021-05-30T06:45:56Z</time>
      </trkpt>
      <trkpt lat="45.84874" lon="2.96623">
        <ele>903</ele>
        <time>2021-05-30T06:45:57Z</time>
      </trkpt>
      <trkpt lat="45.84872" lon="2.96623">
        <ele>903</ele>
        <time>2021-05-30T06:45:58Z</time>
      </trkpt>
      <trkpt lat="45.84869" lon="2.96623">
        <ele>903</ele>
        <time>2021-05-30T06:45:59Z</time>
      </trkpt>
      <trkpt lat="45.84868" lon="2.96624">
        <ele>903</ele>
        <time>2021-05-30T06:46:00Z</time>
      </trkpt>
      <trkpt lat="45.84865" lon="2.96624">
        <ele>903</ele>
        <time>2021-05-30T06:46:01Z</time>
      </trkpt>
      <trkpt lat="45.84864" lon="2.96625">
        <ele>903</ele>
        <time>2021-05-30T06:46:02Z</time>
      </trkpt>
      <trkpt lat="45.84862" lon="2.96625">
        <ele>903</ele>
        <time>2021-05-30T06:46:03Z</time>
      </trkpt>
      <trkpt lat="45.84861" lon="2.96625">
        <ele>903</ele>
        <time>2021-05-30T06:46:04Z</time>
      </trkpt>
      <trkpt lat="45.84859" lon="2.96624">
        <ele>903</ele>
        <time>2021-05-30T06:46:05Z</time>
      </trkpt>
      <trkpt lat="45.84858" lon="2.96624">
        <ele>903</ele>
        <time>2021-05-30T06:46:06Z</time>
      </trkpt>
      <trkpt lat="45.84856" lon="2.96624">
        <ele>903</ele>
        <time>2021-05-30T06:46:07Z</time>
      </trkpt>
      <trkpt lat="45.84854" lon="2.96623">
        <ele>903</ele>
        <time>2021-05-30T06:46:08Z</time>
      </trkpt>
      <trkpt lat="45.84852" lon="2.96623">
        <ele>903</ele>
        <time>2021-05-30T06:46:09Z</time>
      </trkpt>
      <trkpt lat="45.8485" lon="2.96622">
        <ele>903</ele>
        <time>2021-05-30T06:46:10Z</time>
      </trkpt>
      <trkpt lat="45.84848" lon="2.96621">
        <ele>903</ele>
        <time>2021-05-30T06:46:11Z</time>
      </trkpt>
      <trkpt lat="45.84847" lon="2.9662">
        <ele>903</ele>
        <time>2021-05-30T06:46:12Z</time>
      </trkpt>
      <trkpt lat="45.84844" lon="2.9662">
        <ele>903</ele>
        <time>2021-05-30T06:46:13Z</time>
      </trkpt>
      <trkpt lat="45.84843" lon="2.96619">
        <ele>903</ele>
        <time>2021-05-30T06:46:14Z</time>
      </trkpt>
      <trkpt lat="45.84841" lon="2.96618">
        <ele>903</ele>
        <time>2021-05-30T06:46:15Z</time>
      </trkpt>
      <trkpt lat="45.8484" lon="2.96618">
        <ele>903</ele>
        <time>2021-05-30T06:46:16Z</time>
      </trkpt>
      <trkpt lat="45.84838" lon="2.96617">
        <ele>903</ele>
        <time>2021-05-30T06:46:17Z</time>
      </trkpt>
      <trkpt lat="45.84837" lon="2.96616">
        <ele>903</ele>
        <time>2021-05-30T06:46:18Z</time>
      </trkpt>
      <trkpt lat="45.84835" lon="2.96615">
        <ele>903</ele>
        <time>2021-05-30T06:46:19Z</time>
      </trkpt>
      <trkpt lat="45.84833" lon="2.96614">
        <ele>903</ele>
        <time>2021-05-30T06:46:20Z</time>
      </trkpt>
      <trkpt lat="45.84832" lon="2.96613">
        <ele>903</ele>
        <time>2021-05-30T06:46:21Z</time>
      </trkpt>
      <trkpt lat="45.8483" lon="2.96612">
        <ele>903</ele>
        <time>2021-05-30T06:46:22Z</time>
      </trkpt>
      <trkpt lat="45.84829" lon="2.96612">
        <ele>903</ele>
        <time>2021-05-30T06:46:23Z</time>
      </trkpt>
      <trkpt lat="45.84827" lon="2.96611">
        <ele>903</ele>
        <time>2021-05-30T06:46:24Z</time>
      </trkpt>
      <trkpt lat="45.84826" lon="2.9661">
        <ele>903</ele>
        <time>2021-05-30T06:46:25Z</time>
      </trkpt>
      <trkpt lat="45.84824" lon="2.9661">
        <ele>903</ele>
        <time>2021-05-30T06:46:26Z</time>
      </trkpt>
      <trkpt lat="45.84822" lon="2.96609">
        <ele>903</ele>
        <time>2021-05-30T06:46:27Z</time>
      </trkpt>
      <trkpt lat="45.84821" lon="2.96608">
        <ele>903</ele>
        <time>2021-05-30T06:46:28Z</time>
      </trkpt>
      <trkpt lat="45.84819" lon="2.96607">
        <ele>903</ele>
        <time>2021-05-30T06:46:29Z</time>
      </trkpt>
      <trkpt lat="45.84817" lon="2.96606">
        <ele>903</ele>
        <time>2021-05-30T06:46:30Z</time>
      </trkpt>
      <trkpt lat="45.84815" lon="2.96605">
        <ele>903</ele>
        <time>2021-05-30T06:46:31Z</time>
      </trkpt>
      <trkpt lat="45.84813" lon="2.96603">
        <ele>903</ele>
        <time>2021-05-30T06:46:32Z</time>
      </trkpt>
      <trkpt lat="45.84811" lon="2.96602">
        <ele>903</ele>
        <time>2021-05-30T06:46:32Z</time>
      </trkpt>
      <trkpt lat="45.8481" lon="2.966">
        <ele>903</ele>
        <time>2021-05-30T06:46:33Z</time>
      </trkpt>
      <trkpt lat="45.84808" lon="2.96599">
        <ele>903</ele>
        <time>2021-05-30T06:46:34Z</time>
      </trkpt>
      <trkpt lat="45.84806" lon="2.96598">
        <ele>903</ele>
        <time>2021-05-30T06:46:35Z</time>
      </trkpt>
      <trkpt lat="45.84805" lon="2.96597">
        <ele>903</ele>
        <time>2021-05-30T06:46:36Z</time>
      </trkpt>
      <trkpt lat="45.84804" lon="2.96596">
        <ele>903</ele>
        <time>2021-05-30T06:46:37Z</time>
      </trkpt>
      <trkpt lat="45.84803" lon="2.96595">
        <ele>903</ele>
        <time>2021-05-30T06:46:38Z</time>
      </trkpt>
      <trkpt lat="45.84801" lon="2.96594">
        <ele>903</ele>
        <time>2021-05-30T06:46:39Z</time>
      </trkpt>
      <trkpt lat="45.848" lon="2.96594">
        <ele>903</ele>
        <time>2021-05-30T06:46:40Z</time>
      </trkpt>
      <trkpt lat="45.84799" lon="2.96593">
        <ele>903</ele>
        <time>2021-05-30T06:46:41Z</time>
      </trkpt>
      <trkpt lat="45.84798" lon="2.96592">
        <ele>903</ele>
        <time>2021-05-30T06:46:42Z</time>
      </trkpt>
      <trkpt lat="45.84797" lon="2.96592">
        <ele>903</ele>
        <time>2021-05-30T06:46:43Z</time>
      </trkpt>
      <trkpt lat="45.84797" lon="2.96591">
        <ele>903</ele>
        <time>2021-05-30T06:46:44Z</time>
      </trkpt>
      <trkpt lat="45.84795" lon="2.96591">
        <ele>903</ele>
        <time>2021-05-30T06:46:45Z</time>
      </trkpt>
      <trkpt lat="45.84794" lon="2.9659">
        <ele>903</ele>
        <time>2021-05-30T06:46:46Z</time>
      </trkpt>
      <trkpt lat="45.84793" lon="2.96589">
        <ele>903</ele>
        <time>2021-05-30T06:46:47Z</time>
      </trkpt>
      <trkpt lat="45.84792" lon="2.96588">
        <ele>903</ele>
        <time>2021-05-30T06:46:48Z</time>
      </trkpt>
      <trkpt lat="45.84791" lon="2.96588">
        <ele>903</ele>
        <time>2021-05-30T06:46:49Z</time>
      </trkpt>
      <trkpt lat="45.8479" lon="2.96587">
        <ele>903</ele>
        <time>2021-05-30T06:46:50Z</time>
      </trkpt>
      <trkpt lat="45.84789" lon="2.96586">
        <ele>903</ele>
        <time>2021-05-30T06:46:51Z</time>
      </trkpt>
      <trkpt lat="45.84787" lon="2.96584">
        <ele>903</ele>
        <time>2021-05-30T06:46:52Z</time>
      </trkpt>
      <trkpt lat="45.84787" lon="2.96583">
        <ele>903</ele>
        <time>2021-05-30T06:46:53Z</time>
      </trkpt>
      <trkpt lat="45.84786" lon="2.96582">
        <ele>903</ele>
        <time>2021-05-30T06:46:54Z</time>
      </trkpt>
      <trkpt lat="45.84784" lon="2.96581">
        <ele>903</ele>
        <time>2021-05-30T06:46:55Z</time>
      </trkpt>
      <trkpt lat="45.84783" lon="2.9658">
        <ele>903</ele>
        <time>2021-05-30T06:46:56Z</time>
      </trkpt>
      <trkpt lat="45.84782" lon="2.96579">
        <ele>903</ele>
        <time>2021-05-30T06:46:57Z</time>
      </trkpt>
      <trkpt lat="45.84781" lon="2.96578">
        <ele>903</ele>
        <time>2021-05-30T06:46:58Z</time>
      </trkpt>
      <trkpt lat="45.8478" lon="2.96577">
        <ele>903</ele>
        <time>2021-05-30T06:46:59Z</time>
      </trkpt>
      <trkpt lat="45.84779" lon="2.96577">
        <ele>903</ele>
        <time>2021-05-30T06:47:00Z</time>
      </trkpt>
      <trkpt lat="45.84778" lon="2.96576">
        <ele>903</ele>
        <time>2021-05-30T06:47:01Z</time>
      </trkpt>
      <trkpt lat="45.84777" lon="2.96575">
        <ele>903</ele>
        <time>2021-05-30T06:47:02Z</time>
      </trkpt>
      <trkpt lat="45.84776" lon="2.96573">
        <ele>903</ele>
        <time>2021-05-30T06:47:03Z</time>
      </trkpt>
      <trkpt lat="45.84775" lon="2.96571">
        <ele>903</ele>
        <time>2021-05-30T06:47:04Z</time>
      </trkpt>
      <trkpt lat="45.84774" lon="2.96569">
        <ele>903</ele>
        <time>2021-05-30T06:47:05Z</time>
      </trkpt>
      <trkpt lat="45.84772" lon="2.96566">
        <ele>903</ele>
        <time>2021-05-30T06:47:06Z</time>
      </trkpt>
      <trkpt lat="45.84771" lon="2.96564">
        <ele>903</ele>
        <time>2021-05-30T06:47:07Z</time>
      </trkpt>
      <trkpt lat="45.8477" lon="2.96562">
        <ele>903</ele>
        <time>2021-05-30T06:47:08Z</time>
      </trkpt>
      <trkpt lat="45.84769" lon="2.9656">
        <ele>903</ele>
        <time>2021-05-30T06:47:09Z</time>
      </trkpt>
      <trkpt lat="45.84769" lon="2.96558">
        <ele>903</ele>
        <time>2021-05-30T06:47:10Z</time>
      </trkpt>
      <trkpt lat="45.84768" lon="2.96556">
        <ele>903</ele>
        <time>2021-05-30T06:47:11Z</time>
      </trkpt>
      <trkpt lat="45.84767" lon="2.96555">
        <ele>903</ele>
        <time>2021-05-30T06:47:12Z</time>
      </trkpt>
      <trkpt lat="45.84766" lon="2.96553">
        <ele>903</ele>
        <time>2021-05-30T06:47:13Z</time>
      </trkpt>
      <trkpt lat="45.84765" lon="2.96552">
        <ele>903</ele>
        <time>2021-05-30T06:47:14Z</time>
      </trkpt>
      <trkpt lat="45.84764" lon="2.96551">
        <ele>903</ele>
        <time>2021-05-30T06:47:15Z</time>
      </trkpt>
      <trkpt lat="45.84763" lon="2.9655">
        <ele>903</ele>
        <time>2021-05-30T06:47:16Z</time>
      </trkpt>
      <trkpt lat="45.84762" lon="2.96549">
        <ele>903</ele>
        <time>2021-05-30T06:47:17Z</time>
      </trkpt>
      <trkpt lat="45.84761" lon="2.96548">
        <ele>903</ele>
        <time>2021-05-30T06:47:18Z</time>
      </trkpt>
      <trkpt lat="45.8476" lon="2.96547">
        <ele>903</ele>
        <time>2021-05-30T06:47:19Z</time>
      </trkpt>
      <trkpt lat="45.84759" lon="2.96546">
        <ele>903</ele>
        <time>2021-05-30T06:47:20Z</time>
      </trkpt>
      <trkpt lat="45.84758" lon="2.96546">
        <ele>903</ele>
        <time>2021-05-30T06:47:21Z</time>
      </trkpt>
      <trkpt lat="45.84757" lon="2.96545">
        <ele>903</ele>
        <time>2021-05-30T06:47:22Z</time>
      </trkpt>
      <trkpt lat="45.84755" lon="2.96544">
        <ele>903</ele>
        <time>2021-05-30T06:47:23Z</time>
      </trkpt>
      <trkpt lat="45.84754" lon="2.96543">
        <ele>903</ele>
        <time>2021-05-30T06:47:24Z</time>
      </trkpt>
      <trkpt lat="45.84752" lon="2.96543">
        <ele>903</ele>
        <time>2021-05-30T06:47:25Z</time>
      </trkpt>
      <trkpt lat="45.84751" lon="2.96541">
        <ele>903</ele>
        <time>2021-05-30T06:47:26Z</time>
      </trkpt>
      <trkpt lat="45.8475" lon="2.9654">
        <ele>903</ele>
        <time>2021-05-30T06:47:27Z</time>
      </trkpt>
      <trkpt lat="45.84749" lon="2.96539">
        <ele>903</ele>
        <time>2021-05-30T06:47:28Z</time>
      </trkpt>
      <trkpt lat="45.84749" lon="2.96537">
        <ele>903</ele>
        <time>2021-05-30T06:47:29Z</time>
      </trkpt>
      <trkpt lat="45.84749" lon="2.96536">
        <ele>903</ele>
        <time>2021-05-30T06:47:30Z</time>
      </trkpt>
      <trkpt lat="45.84748" lon="2.96535">
        <ele>903</ele>
        <time>2021-05-30T06:47:31Z</time>
      </trkpt>
      <trkpt lat="45.84748" lon="2.96534">
        <ele>903</ele>
        <time>2021-05-30T06:47:32Z</time>
      </trkpt>
      <trkpt lat="45.84747" lon="2.96533">
        <ele>903</ele>
        <time>2021-05-30T06:47:33Z</time>
      </trkpt>
      <trkpt lat="45.84747" lon="2.96532">
        <ele>903</ele>
        <time>2021-05-30T06:47:34Z</time>
      </trkpt>
      <trkpt lat="45.84746" lon="2.96531">
        <ele>903</ele>
        <time>2021-05-30T06:47:35Z</time>
      </trkpt>
      <trkpt lat="45.84745" lon="2.96531">
        <ele>903</ele>
        <time>2021-05-30T06:47:36Z</time>
      </trkpt>
      <trkpt lat="45.84744" lon="2.9653">
        <ele>903</ele>
        <time>2021-05-30T06:47:37Z</time>
      </trkpt>
      <trkpt lat="45.84744" lon="2.9653">
        <ele>903</ele>
        <time>2021-05-30T06:47:38Z</time>
      </trkpt>
      <trkpt lat="45.84744" lon="2.96529">
        <ele>903</ele>
        <time>2021-05-30T06:47:39Z</time>
      </trkpt>
      <trkpt lat="45.84743" lon="2.96528">
        <ele>903</ele>
        <time>2021-05-30T06:47:40Z</time>
      </trkpt>
      <trkpt lat="45.84743" lon="2.96527">
        <ele>903</ele>
        <time>2021-05-30T06:47:41Z</time>
      </trkpt>
      <trkpt lat="45.84742" lon="2.96526">
        <ele>903</ele>
        <time>2021-05-30T06:47:42Z</time>
      </trkpt>
      <trkpt lat="45.84742" lon="2.96525">
        <ele>903</ele>
        <time>2021-05-30T06:47:43Z</time>
      </trkpt>
      <trkpt lat="45.84742" lon="2.96523">
        <ele>903</ele>
        <time>2021-05-30T06:47:44Z</time>
      </trkpt>
      <trkpt lat="45.84741" lon="2.96522">
        <ele>903</ele>
        <time>2021-05-30T06:47:45Z</time>
      </trkpt>
      <trkpt lat="45.8474" lon="2.9652">
        <ele>903</ele>
        <time>2021-05-30T06:47:46Z</time>
      </trkpt>
      <trkpt lat="45.8474" lon="2.96519">
        <ele>903</ele>
        <time>2021-05-30T06:47:47Z</time>
      </trkpt>
      <trkpt lat="45.84739" lon="2.96517">
        <ele>903</ele>
        <time>2021-05-30T06:47:48Z</time>
      </trkpt>
      <trkpt lat="45.84739" lon="2.96516">
        <ele>903</ele>
        <time>2021-05-30T06:47:49Z</time>
      </trkpt>
      <trkpt lat="45.84738" lon="2.96514">
        <ele>903</ele>
        <time>2021-05-30T06:47:50Z</time>
      </trkpt>
      <trkpt lat="45.84737" lon="2.96513">
        <ele>903</ele>
        <time>2021-05-30T06:47:51Z</time>
      </trkpt>
      <trkpt lat="45.84736" lon="2.96512">
        <ele>903</ele>
        <time>2021-05-30T06:47:52Z</time>
      </trkpt>
      <trkpt lat="45.84736" lon="2.9651">
        <ele>903</ele>
        <time>2021-05-30T06:47:53Z</time>
      </trkpt>
      <trkpt lat="45.84735" lon="2.96509">
        <ele>903</ele>
        <time>2021-05-30T06:47:54Z</time>
      </trkpt>
      <trkpt lat="45.84734" lon="2.96508">
        <ele>903</ele>
        <time>2021-05-30T06:47:55Z</time>
      </trkpt>
      <trkpt lat="45.84734" lon="2.96506">
        <ele>903</ele>
        <time>2021-05-30T06:47:56Z</time>
      </trkpt>
      <trkpt lat="45.84734" lon="2.96504">
        <ele>903</ele>
        <time>2021-05-30T06:47:57Z</time>
      </trkpt>
      <trkpt lat="45.84733" lon="2.96503">
        <ele>903</ele>
        <time>2021-05-30T06:47:58Z</time>
      </trkpt>
      <trkpt lat="45.84733" lon="2.96501">
        <ele>903</ele>
        <time>2021-05-30T06:47:59Z</time>
      </trkpt>
      <trkpt lat="45.84733" lon="2.96499">
        <ele>903</ele>
        <time>2021-05-30T06:48:00Z</time>
      </trkpt>
      <trkpt lat="45.84732" lon="2.96497">
        <ele>903</ele>
        <time>2021-05-30T06:48:01Z</time>
      </trkpt>
      <trkpt lat="45.84732" lon="2.96495">
        <ele>903</ele>
        <time>2021-05-30T06:48:02Z</time>
      </trkpt>
      <trkpt lat="45.84731" lon="2.96493">
        <ele>903</ele>
        <time>2021-05-30T06:48:03Z</time>
      </trkpt>
      <trkpt lat="45.8473" lon="2.96491">
        <ele>903</ele>
        <time>2021-05-30T06:48:04Z</time>
      </trkpt>
      <trkpt lat="45.8473" lon="2.96489">
        <ele>903</ele>
        <time>2021-05-30T06:48:05Z</time>
      </trkpt>
      <trkpt lat="45.84729" lon="2.96486">
        <ele>903</ele>
        <time>2021-05-30T06:48:06Z</time>
      </trkpt>
      <trkpt lat="45.84728" lon="2.96485">
        <ele>903</ele>
        <time>2021-05-30T06:48:07Z</time>
      </trkpt>
      <trkpt lat="45.84728" lon="2.96483">
        <ele>903</ele>
        <time>2021-05-30T06:48:08Z</time>
      </trkpt>
      <trkpt lat="45.84727" lon="2.96482">
        <ele>903</ele>
        <time>2021-05-30T06:48:09Z</time>
      </trkpt>
      <trkpt lat="45.84727" lon="2.9648">
        <ele>903</ele>
        <time>2021-05-30T06:48:10Z</time>
      </trkpt>
      <trkpt lat="45.84726" lon="2.96479">
        <ele>903</ele>
        <time>2021-05-30T06:48:11Z</time>
      </trkpt>
      <trkpt lat="45.84726" lon="2.96478">
        <ele>903</ele>
        <time>2021-05-30T06:48:12Z</time>
      </trkpt>
      <trkpt lat="45.84725" lon="2.96476">
        <ele>903</ele>
        <time>2021-05-30T06:48:13Z</time>
      </trkpt>
      <trkpt lat="45.84724" lon="2.96475">
        <ele>903</ele>
        <time>2021-05-30T06:48:14Z</time>
      </trkpt>
      <trkpt lat="45.84723" lon="2.96473">
        <ele>903</ele>
        <time>2021-05-30T06:48:15Z</time>
      </trkpt>
      <trkpt lat="45.84723" lon="2.96472">
        <ele>903</ele>
        <time>2021-05-30T06:48:16Z</time>
      </trkpt>
      <trkpt lat="45.84723" lon="2.9647">
        <ele>903</ele>
        <time>2021-05-30T06:48:17Z</time>
      </trkpt>
      <trkpt lat="45.84722" lon="2.96469">
        <ele>903</ele>
        <time>2021-05-30T06:48:18Z</time>
      </trkpt>
      <trkpt lat="45.84721" lon="2.96467">
        <ele>903</ele>
        <time>2021-05-30T06:48:19Z</time>
      </trkpt>
      <trkpt lat="45.84721" lon="2.96466">
        <ele>903</ele>
        <time>2021-05-30T06:48:20Z</time>
      </trkpt>
      <trkpt lat="45.8472" lon="2.96464">
        <ele>903</ele>
        <time>2021-05-30T06:48:21Z</time>
      </trkpt>
      <trkpt lat="45.8472" lon="2.96463">
        <ele>903</ele>
        <time>2021-05-30T06:48:22Z</time>
      </trkpt>
      <trkpt lat="45.84719" lon="2.96461">
        <ele>903</ele>
        <time>2021-05-30T06:48:23Z</time>
      </trkpt>
      <trkpt lat="45.84718" lon="2.96459">
        <ele>903</ele>
        <time>2021-05-30T06:48:24Z</time>
      </trkpt>
      <trkpt lat="45.84718" lon="2.96457">
        <ele>903</ele>
        <time>2021-05-30T06:48:25Z</time>
      </trkpt>
      <trkpt lat="45.84717" lon="2.96456">
        <ele>903</ele>
        <time>2021-05-30T06:48:26Z</time>
      </trkpt>
      <trkpt lat="45.84716" lon="2.96454">
        <ele>903</ele>
        <time>2021-05-30T06:48:27Z</time>
      </trkpt>
      <trkpt lat="45.84716" lon="2.96452">
        <ele>903</ele>
        <time>2021-05-30T06:48:28Z</time>
      </trkpt>
      <trkpt lat="45.84715" lon="2.96451">
        <ele>903</ele>
        <time>2021-05-30T06:48:29Z</time>
      </trkpt>
      <trkpt lat="45.84715" lon="2.96449">
        <ele>903</ele>
        <time>2021-05-30T06:48:30Z</time>
      </trkpt>
      <trkpt lat="45.84714" lon="2.96447">
        <ele>903</ele>
        <time>2021-05-30T06:48:31Z</time>
      </trkpt>
      <trkpt lat="45.84714" lon="2.96446">
        <ele>903</ele>
        <time>2021-05-30T06:48:32Z</time>
      </trkpt>
      <trkpt lat="45.84713" lon="2.96444">
        <ele>903</ele>
        <time>2021-05-30T06:48:33Z</time>
      </trkpt>
      <trkpt lat="45.84713" lon="2.96442">
        <ele>903</ele>
        <time>2021-05-30T06:48:34Z</time>
      </trkpt>
      <trkpt lat="45.84713" lon="2.9644">
        <ele>903</ele>
        <time>2021-05-30T06:48:35Z</time>
      </trkpt>
      <trkpt lat="45.84712" lon="2.96438">
        <ele>903</ele>
        <time>2021-05-30T06:48:36Z</time>
      </trkpt>
      <trkpt lat="45.84712" lon="2.96436">
        <ele>903</ele>
        <time>2021-05-30T06:48:37Z</time>
      </trkpt>
      <trkpt lat="45.84711" lon="2.96435">
        <ele>903</ele>
        <time>2021-05-30T06:48:38Z</time>
      </trkpt>
      <trkpt lat="45.84711" lon="2.96433">
        <ele>903</ele>
        <time>2021-05-30T06:48:39Z</time>
      </trkpt>
      <trkpt lat="45.84711" lon="2.96432">
        <ele>903</ele>
        <time>2021-05-30T06:48:40Z</time>
      </trkpt>
      <trkpt lat="45.8471" lon="2.9643">
        <ele>903</ele>
        <time>2021-05-30T06:48:41Z</time>
      </trkpt>
      <trkpt lat="45.84709" lon="2.96428">
        <ele>903</ele>
        <time>2021-05-30T06:48:42Z</time>
      </trkpt>
      <trkpt lat="45.84709" lon="2.96426">
        <ele>903</ele>
        <time>2021-05-30T06:48:43Z</time>
      </trkpt>
      <trkpt lat="45.84708" lon="2.96424">
        <ele>903</ele>
        <time>2021-05-30T06:48:44Z</time>
      </trkpt>
      <trkpt lat="45.84707" lon="2.96422">
        <ele>903</ele>
        <time>2021-05-30T06:48:45Z</time>
      </trkpt>
      <trkpt lat="45.84707" lon="2.96421">
        <ele>903</ele>
        <time>2021-05-30T06:48:46Z</time>
      </trkpt>
      <trkpt lat="45.84705" lon="2.96419">
        <ele>903</ele>
        <time>2021-05-30T06:48:47Z</time>
      </trkpt>
      <trkpt lat="45.84705" lon="2.96417">
        <ele>903</ele>
        <time>2021-05-30T06:48:49Z</time>
      </trkpt>
      <trkpt lat="45.84702" lon="2.96412">
        <ele>903</ele>
        <time>2021-05-30T06:48:50Z</time>
      </trkpt>
      <trkpt lat="45.84702" lon="2.96411">
        <ele>903</ele>
        <time>2021-05-30T06:48:51Z</time>
      </trkpt>
      <trkpt lat="45.84702" lon="2.96411">
        <ele>903</ele>
        <time>2021-05-30T06:48:52Z</time>
      </trkpt>
      <trkpt lat="45.84701" lon="2.9641">
        <ele>903</ele>
        <time>2021-05-30T06:48:53Z</time>
      </trkpt>
      <trkpt lat="45.847" lon="2.96409">
        <ele>903</ele>
        <time>2021-05-30T06:48:54Z</time>
      </trkpt>
      <trkpt lat="45.847" lon="2.96408">
        <ele>903</ele>
        <time>2021-05-30T06:48:55Z</time>
      </trkpt>
      <trkpt lat="45.847" lon="2.96407">
        <ele>903</ele>
        <time>2021-05-30T06:48:56Z</time>
      </trkpt>
      <trkpt lat="45.84699" lon="2.96407">
        <ele>903</ele>
        <time>2021-05-30T06:48:57Z</time>
      </trkpt>
      <trkpt lat="45.84699" lon="2.96406">
        <ele>903</ele>
        <time>2021-05-30T06:48:58Z</time>
      </trkpt>
      <trkpt lat="45.84699" lon="2.96405">
        <ele>903</ele>
        <time>2021-05-30T06:48:59Z</time>
      </trkpt>
      <trkpt lat="45.84698" lon="2.96405">
        <ele>903</ele>
        <time>2021-05-30T06:49:00Z</time>
      </trkpt>
      <trkpt lat="45.84697" lon="2.96404">
        <ele>903</ele>
        <time>2021-05-30T06:49:01Z</time>
      </trkpt>
      <trkpt lat="45.84697" lon="2.96404">
        <ele>903</ele>
        <time>2021-05-30T06:49:02Z</time>
      </trkpt>
      <trkpt lat="45.84697" lon="2.96403">
        <ele>903</ele>
        <time>2021-05-30T06:49:03Z</time>
      </trkpt>
      <trkpt lat="45.84696" lon="2.96403">
        <ele>903</ele>
        <time>2021-05-30T06:49:04Z</time>
      </trkpt>
      <trkpt lat="45.84696" lon="2.96402">
        <ele>903</ele>
        <time>2021-05-30T06:49:05Z</time>
      </trkpt>
      <trkpt lat="45.84695" lon="2.96401">
        <ele>903</ele>
        <time>2021-05-30T06:49:09Z</time>
      </trkpt>
      <trkpt lat="45.84695" lon="2.96401">
        <ele>903</ele>
        <time>2021-05-30T06:49:10Z</time>
      </trkpt>
      <trkpt lat="45.84695" lon="2.96402">
        <ele>903</ele>
        <time>2021-05-30T06:49:11Z</time>
      </trkpt>
      <trkpt lat="45.84695" lon="2.96402">
        <ele>903</ele>
        <time>2021-05-30T06:49:12Z</time>
      </trkpt>
      <trkpt lat="45.84694" lon="2.96402">
        <ele>903</ele>
        <time>2021-05-30T06:49:13Z</time>
      </trkpt>
      <trkpt lat="45.84694" lon="2.96403">
        <ele>903</ele>
        <time>2021-05-30T06:49:14Z</time>
      </trkpt>
      <trkpt lat="45.84694" lon="2.96403">
        <ele>903</ele>
        <time>2021-05-30T06:49:15Z</time>
      </trkpt>
      <trkpt lat="45.84694" lon="2.96403">
        <ele>903</ele>
        <time>2021-05-30T06:49:16Z</time>
      </trkpt>
      <trkpt lat="45.84694" lon="2.96403">
        <ele>903</ele>
        <time>2021-05-30T06:49:17Z</time>
      </trkpt>
      <trkpt lat="45.84693" lon="2.96402">
        <ele>903</ele>
        <time>2021-05-30T06:49:18Z</time>
      </trkpt>
      <trkpt lat="45.84693" lon="2.96401">
        <ele>903</ele>
        <time>2021-05-30T06:49:19Z</time>
      </trkpt>
      <trkpt lat="45.84692" lon="2.964">
        <ele>903</ele>
        <time>2021-05-30T06:49:20Z</time>
      </trkpt>
      <trkpt lat="45.84691" lon="2.96399">
        <ele>903</ele>
        <time>2021-05-30T06:49:21Z</time>
      </trkpt>
      <trkpt lat="45.84691" lon="2.96398">
        <ele>903</ele>
        <time>2021-05-30T06:49:22Z</time>
      </trkpt>
      <trkpt lat="45.8469" lon="2.96398">
        <ele>903</ele>
        <time>2021-05-30T06:49:23Z</time>
      </trkpt>
      <trkpt lat="45.84689" lon="2.96397">
        <ele>903</ele>
        <time>2021-05-30T06:49:24Z</time>
      </trkpt>
      <trkpt lat="45.84688" lon="2.96397">
        <ele>903</ele>
        <time>2021-05-30T06:49:25Z</time>
      </trkpt>
      <trkpt lat="45.84687" lon="2.96397">
        <ele>903</ele>
        <time>2021-05-30T06:49:26Z</time>
      </trkpt>
      <trkpt lat="45.84687" lon="2.96397">
        <ele>903</ele>
        <time>2021-05-30T06:49:27Z</time>
      </trkpt>
      <trkpt lat="45.84686" lon="2.96397">
        <ele>903</ele>
        <time>2021-05-30T06:49:28Z</time>
      </trkpt>
      <trkpt lat="45.84684" lon="2.96397">
        <ele>903</ele>
        <time>2021-05-30T06:49:29Z</time>
      </trkpt>
      <trkpt lat="45.84684" lon="2.96397">
        <ele>903</ele>
        <time>2021-05-30T06:49:30Z</time>
      </trkpt>
      <trkpt lat="45.84683" lon="2.96396">
        <ele>903</ele>
        <time>2021-05-30T06:49:31Z</time>
      </trkpt>
      <trkpt lat="45.84682" lon="2.96396">
        <ele>903</ele>
        <time>2021-05-30T06:49:32Z</time>
      </trkpt>
      <trkpt lat="45.84681" lon="2.96396">
        <ele>903</ele>
        <time>2021-05-30T06:49:33Z</time>
      </trkpt>
      <trkpt lat="45.84679" lon="2.96395">
        <ele>903</ele>
        <time>2021-05-30T06:49:34Z</time>
      </trkpt>
      <trkpt lat="45.84678" lon="2.96394">
        <ele>903</ele>
        <time>2021-05-30T06:49:35Z</time>
      </trkpt>
      <trkpt lat="45.84677" lon="2.96393">
        <ele>903</ele>
        <time>2021-05-30T06:49:36Z</time>
      </trkpt>
      <trkpt lat="45.84676" lon="2.96392">
        <ele>903</ele>
        <time>2021-05-30T06:49:37Z</time>
      </trkpt>
      <trkpt lat="45.84675" lon="2.96391">
        <ele>903</ele>
        <time>2021-05-30T06:49:38Z</time>
      </trkpt>
      <trkpt lat="45.84673" lon="2.9639">
        <ele>903</ele>
        <time>2021-05-30T06:49:39Z</time>
      </trkpt>
      <trkpt lat="45.84672" lon="2.96389">
        <ele>903</ele>
        <time>2021-05-30T06:49:40Z</time>
      </trkpt>
      <trkpt lat="45.8467" lon="2.96388">
        <ele>903</ele>
        <time>2021-05-30T06:49:41Z</time>
      </trkpt>
      <trkpt lat="45.84669" lon="2.96386">
        <ele>903</ele>
        <time>2021-05-30T06:49:42Z</time>
      </trkpt>
      <trkpt lat="45.84668" lon="2.96385">
        <ele>903</ele>
        <time>2021-05-30T06:49:43Z</time>
      </trkpt>
      <trkpt lat="45.84666" lon="2.96385">
        <ele>903</ele>
        <time>2021-05-30T06:49:44Z</time>
      </trkpt>
      <trkpt lat="45.84665" lon="2.96384">
        <ele>903</ele>
        <time>2021-05-30T06:49:45Z</time>
      </trkpt>
      <trkpt lat="45.84664" lon="2.96384">
        <ele>903</ele>
        <time>2021-05-30T06:49:46Z</time>
      </trkpt>
      <trkpt lat="45.84663" lon="2.96384">
        <ele>903</ele>
        <time>2021-05-30T06:49:48Z</time>
      </trkpt>
      <trkpt lat="45.8466" lon="2.96385">
        <ele>903</ele>
        <time>2021-05-30T06:49:49Z</time>
      </trkpt>
      <trkpt lat="45.84659" lon="2.96385">
        <ele>903</ele>
        <time>2021-05-30T06:49:50Z</time>
      </trkpt>
      <trkpt lat="45.84658" lon="2.96385">
        <ele>903</ele>
        <time>2021-05-30T06:49:51Z</time>
      </trkpt>
      <trkpt lat="45.84658" lon="2.96385">
        <ele>903</ele>
        <time>2021-05-30T06:49:52Z</time>
      </trkpt>
      <trkpt lat="45.84657" lon="2.96384">
        <ele>903</ele>
        <time>2021-05-30T06:49:53Z</time>
      </trkpt>
      <trkpt lat="45.84657" lon="2.96384">
        <ele>903</ele>
        <time>2021-05-30T06:49:54Z</time>
      </trkpt>
      <trkpt lat="45.84655" lon="2.96384">
        <ele>903</ele>
        <time>2021-05-30T06:49:55Z</time>
      </trkpt>
      <trkpt lat="45.84655" lon="2.96383">
        <ele>903</ele>
        <time>2021-05-30T06:49:56Z</time>
      </trkpt>
      <trkpt lat="45.84654" lon="2.96383">
        <ele>903</ele>
        <time>2021-05-30T06:49:57Z</time>
      </trkpt>
      <trkpt lat="45.84654" lon="2.96382">
        <ele>903</ele>
        <time>2021-05-30T06:49:58Z</time>
      </trkpt>
      <trkpt lat="45.84652" lon="2.96382">
        <ele>903</ele>
        <time>2021-05-30T06:49:59Z</time>
      </trkpt>
      <trkpt lat="45.84651" lon="2.96381">
        <ele>903</ele>
        <time>2021-05-30T06:50:00Z</time>
      </trkpt>
      <trkpt lat="45.8465" lon="2.96381">
        <ele>903</ele>
        <time>2021-05-30T06:50:01Z</time>
      </trkpt>
      <trkpt lat="45.84649" lon="2.9638">
        <ele>903</ele>
        <time>2021-05-30T06:50:02Z</time>
      </trkpt>
      <trkpt lat="45.84649" lon="2.9638">
        <ele>903</ele>
        <time>2021-05-30T06:50:03Z</time>
      </trkpt>
      <trkpt lat="45.84648" lon="2.96379">
        <ele>903</ele>
        <time>2021-05-30T06:50:04Z</time>
      </trkpt>
      <trkpt lat="45.84648" lon="2.96379">
        <ele>903</ele>
        <time>2021-05-30T06:50:05Z</time>
      </trkpt>
      <trkpt lat="45.84648" lon="2.96379">
        <ele>903</ele>
        <time>2021-05-30T06:50:06Z</time>
      </trkpt>
      <trkpt lat="45.84648" lon="2.96378">
        <ele>903</ele>
        <time>2021-05-30T06:50:07Z</time>
      </trkpt>
      <trkpt lat="45.84647" lon="2.96377">
        <ele>903</ele>
        <time>2021-05-30T06:50:08Z</time>
      </trkpt>
      <trkpt lat="45.84647" lon="2.96377">
        <ele>903</ele>
        <time>2021-05-30T06:50:09Z</time>
      </trkpt>
      <trkpt lat="45.84647" lon="2.96376">
        <ele>903</ele>
        <time>2021-05-30T06:50:10Z</time>
      </trkpt>
      <trkpt lat="45.84646" lon="2.96375">
        <ele>903</ele>
        <time>2021-05-30T06:50:11Z</time>
      </trkpt>
      <trkpt lat="45.84646" lon="2.96374">
        <ele>903</ele>
        <time>2021-05-30T06:50:12Z</time>
      </trkpt>
      <trkpt lat="45.84645" lon="2.96373">
        <ele>903</ele>
        <time>2021-05-30T06:50:13Z</time>
      </trkpt>
      <trkpt lat="45.84645" lon="2.96372">
        <ele>903</ele>
        <time>2021-05-30T06:50:14Z</time>
      </trkpt>
      <trkpt lat="45.84645" lon="2.96372">
        <ele>903</ele>
        <time>2021-05-30T06:50:15Z</time>
      </trkpt>
      <trkpt lat="45.84644" lon="2.9637">
        <ele>903</ele>
        <time>2021-05-30T06:50:16Z</time>
      </trkpt>
      <trkpt lat="45.84644" lon="2.96369">
        <ele>903</ele>
        <time>2021-05-30T06:50:17Z</time>
      </trkpt>
      <trkpt lat="45.84644" lon="2.96368">
        <ele>903</ele>
        <time>2021-05-30T06:50:18Z</time>
      </trkpt>
      <trkpt lat="45.84643" lon="2.96367">
        <ele>903</ele>
        <time>2021-05-30T06:50:19Z</time>
      </trkpt>
      <trkpt lat="45.84642" lon="2.96366">
        <ele>903</ele>
        <time>2021-05-30T06:50:20Z</time>
      </trkpt>
      <trkpt lat="45.84642" lon="2.96365">
        <ele>903</ele>
        <time>2021-05-30T06:50:21Z</time>
      </trkpt>
      <trkpt lat="45.84642" lon="2.96364">
        <ele>903</ele>
        <time>2021-05-30T06:50:22Z</time>
      </trkpt>
      <trkpt lat="45.84642" lon="2.96363">
        <ele>903</ele>
        <time>2021-05-30T06:50:23Z</time>
      </trkpt>
      <trkpt lat="45.84642" lon="2.96362">
        <ele>903</ele>
        <time>2021-05-30T06:50:24Z</time>
      </trkpt>
      <trkpt lat="45.84642" lon="2.96361">
        <ele>903</ele>
        <time>2021-05-30T06:50:25Z</time>
      </trkpt>
      <trkpt lat="45.84642" lon="2.96361">
        <ele>903</ele>
        <time>2021-05-30T06:50:26Z</time>
      </trkpt>
      <trkpt lat="45.84642" lon="2.9636">
        <ele>903</ele>
        <time>2021-05-30T06:50:27Z</time>
      </trkpt>
      <trkpt lat="45.84642" lon="2.96359">
        <ele>903</ele>
        <time>2021-05-30T06:50:28Z</time>
      </trkpt>
      <trkpt lat="45.84642" lon="2.96358">
        <ele>903</ele>
        <time>2021-05-30T06:50:29Z</time>
      </trkpt>
      <trkpt lat="45.84642" lon="2.96357">
        <ele>903</ele>
        <time>2021-05-30T06:50:30Z</time>
      </trkpt>
      <trkpt lat="45.84642" lon="2.96355">
        <ele>903</ele>
        <time>2021-05-30T06:50:31Z</time>
      </trkpt>
      <trkpt lat="45.84642" lon="2.96354">
        <ele>903</ele>
        <time>2021-05-30T06:50:32Z</time>
      </trkpt>
      <trkpt lat="45.84641" lon="2.96352">
        <ele>903</ele>
        <time>2021-05-30T06:50:33Z</time>
      </trkpt>
      <trkpt lat="45.84641" lon="2.9635">
        <ele>903</ele>
        <time>2021-05-30T06:50:34Z</time>
      </trkpt>
      <trkpt lat="45.8464" lon="2.96348">
        <ele>903</ele>
        <time>2021-05-30T06:50:35Z</time>
      </trkpt>
      <trkpt lat="45.84639" lon="2.96346">
        <ele>903</ele>
        <time>2021-05-30T06:50:36Z</time>
      </trkpt>
      <trkpt lat="45.84638" lon="2.96344">
        <ele>903</ele>
        <time>2021-05-30T06:50:37Z</time>
      </trkpt>
      <trkpt lat="45.84637" lon="2.96342">
        <ele>903</ele>
        <time>2021-05-30T06:50:38Z</time>
      </trkpt>
      <trkpt lat="45.84636" lon="2.9634">
        <ele>903</ele>
        <time>2021-05-30T06:50:39Z</time>
      </trkpt>
      <trkpt lat="45.84635" lon="2.96338">
        <ele>903</ele>
        <time>2021-05-30T06:50:40Z</time>
      </trkpt>
      <trkpt lat="45.84634" lon="2.96337">
        <ele>903</ele>
        <time>2021-05-30T06:50:41Z</time>
      </trkpt>
      <trkpt lat="45.84634" lon="2.96336">
        <ele>903</ele>
        <time>2021-05-30T06:50:42Z</time>
      </trkpt>
      <trkpt lat="45.84633" lon="2.96335">
        <ele>903</ele>
        <time>2021-05-30T06:50:43Z</time>
      </trkpt>
      <trkpt lat="45.84633" lon="2.96334">
        <ele>903</ele>
        <time>2021-05-30T06:50:44Z</time>
      </trkpt>
      <trkpt lat="45.84633" lon="2.96334">
        <ele>903</ele>
        <time>2021-05-30T06:50:45Z</time>
      </trkpt>
      <trkpt lat="45.84632" lon="2.96333">
        <ele>903</ele>
        <time>2021-05-30T06:50:46Z</time>
      </trkpt>
      <trkpt lat="45.84631" lon="2.96332">
        <ele>903</ele>
        <time>2021-05-30T06:50:47Z</time>
      </trkpt>
      <trkpt lat="45.8463" lon="2.96331">
        <ele>903</ele>
        <time>2021-05-30T06:50:47Z</time>
      </trkpt>
      <trkpt lat="45.84626" lon="2.96326">
        <ele>903</ele>
        <time>2021-05-30T06:50:49Z</time>
      </trkpt>
      <trkpt lat="45.84626" lon="2.96326">
        <ele>903</ele>
        <time>2021-05-30T06:50:50Z</time>
      </trkpt>
      <trkpt lat="45.84625" lon="2.96325">
        <ele>903</ele>
        <time>2021-05-30T06:50:51Z</time>
      </trkpt>
      <trkpt lat="45.84625" lon="2.96325">
        <ele>903</ele>
        <time>2021-05-30T06:50:52Z</time>
      </trkpt>
      <trkpt lat="45.84624" lon="2.96325">
        <ele>903</ele>
        <time>2021-05-30T06:50:53Z</time>
      </trkpt>
      <trkpt lat="45.84623" lon="2.96324">
        <ele>903</ele>
        <time>2021-05-30T06:50:54Z</time>
      </trkpt>
      <trkpt lat="45.84622" lon="2.96324">
        <ele>903</ele>
        <time>2021-05-30T06:50:55Z</time>
      </trkpt>
      <trkpt lat="45.84621" lon="2.96323">
        <ele>903</ele>
        <time>2021-05-30T06:50:56Z</time>
      </trkpt>
      <trkpt lat="45.84621" lon="2.96323">
        <ele>903</ele>
        <time>2021-05-30T06:50:57Z</time>
      </trkpt>
      <trkpt lat="45.8462" lon="2.96323">
        <ele>903</ele>
        <time>2021-05-30T06:50:58Z</time>
      </trkpt>
      <trkpt lat="45.84618" lon="2.96322">
        <ele>903</ele>
        <time>2021-05-30T06:50:59Z</time>
      </trkpt>
      <trkpt lat="45.84618" lon="2.96322">
        <ele>903</ele>
        <time>2021-05-30T06:51:00Z</time>
      </trkpt>
      <trkpt lat="45.84616" lon="2.96321">
        <ele>903</ele>
        <time>2021-05-30T06:51:01Z</time>
      </trkpt>
      <trkpt lat="45.84615" lon="2.96321">
        <ele>903</ele>
        <time>2021-05-30T06:51:02Z</time>
      </trkpt>
      <trkpt lat="45.84614" lon="2.96321">
        <ele>903</ele>
        <time>2021-05-30T06:51:03Z</time>
      </trkpt>
      <trkpt lat="45.84613" lon="2.9632">
        <ele>903</ele>
        <time>2021-05-30T06:51:04Z</time>
      </trkpt>
      <trkpt lat="45.84612" lon="2.9632">
        <ele>903</ele>
        <time>2021-05-30T06:51:05Z</time>
      </trkpt>
      <trkpt lat="45.84612" lon="2.96319">
        <ele>903</ele>
        <time>2021-05-30T06:51:06Z</time>
      </trkpt>
      <trkpt lat="45.8461" lon="2.96319">
        <ele>903</ele>
        <time>2021-05-30T06:51:07Z</time>
      </trkpt>
      <trkpt lat="45.8461" lon="2.96318">
        <ele>903</ele>
        <time>2021-05-30T06:51:08Z</time>
      </trkpt>
      <trkpt lat="45.84609" lon="2.96318">
        <ele>903</ele>
        <time>2021-05-30T06:51:09Z</time>
      </trkpt>
      <trkpt lat="45.84608" lon="2.96317">
        <ele>903</ele>
        <time>2021-05-30T06:51:10Z</time>
      </trkpt>
      <trkpt lat="45.84607" lon="2.96317">
        <ele>903</ele>
        <time>2021-05-30T06:51:11Z</time>
      </trkpt>
      <trkpt lat="45.84606" lon="2.96316">
        <ele>903</ele>
        <time>2021-05-30T06:51:12Z</time>
      </trkpt>
      <trkpt lat="45.84606" lon="2.96316">
        <ele>903</ele>
        <time>2021-05-30T06:51:13Z</time>
      </trkpt>
      <trkpt lat="45.84605" lon="2.96316">
        <ele>903</ele>
        <time>2021-05-30T06:51:14Z</time>
      </trkpt>
      <trkpt lat="45.84604" lon="2.96316">
        <ele>903</ele>
        <time>2021-05-30T06:51:15Z</time>
      </trkpt>
      <trkpt lat="45.84603" lon="2.96315">
        <ele>903</ele>
        <time>2021-05-30T06:51:16Z</time>
      </trkpt>
      <trkpt lat="45.84603" lon="2.96315">
        <ele>903</ele>
        <time>2021-05-30T06:51:17Z</time>
      </trkpt>
      <trkpt lat="45.84602" lon="2.96315">
        <ele>903</ele>
        <time>2021-05-30T06:51:18Z</time>
      </trkpt>
      <trkpt lat="45.84601" lon="2.96315">
        <ele>903</ele>
        <time>2021-05-30T06:51:19Z</time>
      </trkpt>
      <trkpt lat="45.846" lon="2.96314">
        <ele>903</ele>
        <time>2021-05-30T06:51:20Z</time>
      </trkpt>
      <trkpt lat="45.846" lon="2.96314">
        <ele>903</ele>
        <time>2021-05-30T06:51:21Z</time>
      </trkpt>
      <trkpt lat="45.84599" lon="2.96314">
        <ele>903</ele>
        <time>2021-05-30T06:51:22Z</time>
      </trkpt>
      <trkpt lat="45.84599" lon="2.96313">
        <ele>903</ele>
        <time>2021-05-30T06:51:23Z</time>
      </trkpt>
      <trkpt lat="45.84598" lon="2.96313">
        <ele>903</ele>
        <time>2021-05-30T06:51:24Z</time>
      </trkpt>
      <trkpt lat="45.84597" lon="2.96312">
        <ele>903</ele>
        <time>2021-05-30T06:51:25Z</time>
      </trkpt>
      <trkpt lat="45.84597" lon="2.96312">
        <ele>903</ele>
        <time>2021-05-30T06:51:26Z</time>
      </trkpt>
      <trkpt lat="45.84597" lon="2.96312">
        <ele>903</ele>
        <time>2021-05-30T06:51:27Z</time>
      </trkpt>
      <trkpt lat="45.84596" lon="2.96311">
        <ele>903</ele>
        <time>2021-05-30T06:51:28Z</time>
      </trkpt>
      <trkpt lat="45.84592" lon="2.96307">
        <ele>903</ele>
        <time>2021-05-30T06:51:33Z</time>
      </trkpt>
      <trkpt lat="45.84591" lon="2.96307">
        <ele>903</ele>
        <time>2021-05-30T06:51:34Z</time>
      </trkpt>
      <trkpt lat="45.84591" lon="2.96307">
        <ele>903</ele>
        <time>2021-05-30T06:51:35Z</time>
      </trkpt>
      <trkpt lat="45.8459" lon="2.96306">
        <ele>903</ele>
        <time>2021-05-30T06:51:36Z</time>
      </trkpt>
      <trkpt lat="45.8459" lon="2.96306">
        <ele>903</ele>
        <time>2021-05-30T06:51:37Z</time>
      </trkpt>
      <trkpt lat="45.84589" lon="2.96305">
        <ele>903</ele>
        <time>2021-05-30T06:51:38Z</time>
      </trkpt>
      <trkpt lat="45.84589" lon="2.96305">
        <ele>903</ele>
        <time>2021-05-30T06:51:39Z</time>
      </trkpt>
      <trkpt lat="45.84588" lon="2.96304">
        <ele>903</ele>
        <time>2021-05-30T06:51:40Z</time>
      </trkpt>
      <trkpt lat="45.84588" lon="2.96304">
        <ele>903</ele>
        <time>2021-05-30T06:51:41Z</time>
      </trkpt>
      <trkpt lat="45.84587" lon="2.96303">
        <ele>903</ele>
        <time>2021-05-30T06:51:42Z</time>
      </trkpt>
      <trkpt lat="45.84587" lon="2.96303">
        <ele>903</ele>
        <time>2021-05-30T06:51:43Z</time>
      </trkpt>
      <trkpt lat="45.84587" lon="2.96302">
        <ele>903</ele>
        <time>2021-05-30T06:51:44Z</time>
      </trkpt>
      <trkpt lat="45.84586" lon="2.96302">
        <ele>903</ele>
        <time>2021-05-30T06:51:45Z</time>
      </trkpt>
      <trkpt lat="45.84586" lon="2.96301">
        <ele>903</ele>
        <time>2021-05-30T06:51:46Z</time>
      </trkpt>
      <trkpt lat="45.84585" lon="2.963">
        <ele>903</ele>
        <time>2021-05-30T06:51:47Z</time>
      </trkpt>
      <trkpt lat="45.84585" lon="2.96299">
        <ele>903</ele>
        <time>2021-05-30T06:51:48Z</time>
      </trkpt>
      <trkpt lat="45.84585" lon="2.96298">
        <ele>903</ele>
        <time>2021-05-30T06:51:49Z</time>
      </trkpt>
      <trkpt lat="45.84584" lon="2.96297">
        <ele>903</ele>
        <time>2021-05-30T06:51:50Z</time>
      </trkpt>
      <trkpt lat="45.84583" lon="2.96296">
        <ele>903</ele>
        <time>2021-05-30T06:51:51Z</time>
      </trkpt>
      <trkpt lat="45.84582" lon="2.96295">
        <ele>903</ele>
        <time>2021-05-30T06:51:52Z</time>
      </trkpt>
      <trkpt lat="45.84582" lon="2.96293">
        <ele>903</ele>
        <time>2021-05-30T06:51:53Z</time>
      </trkpt>
      <trkpt lat="45.84581" lon="2.96292">
        <ele>903</ele>
        <time>2021-05-30T06:51:54Z</time>
      </trkpt>
      <trkpt lat="45.8458" lon="2.9629">
        <ele>903</ele>
        <time>2021-05-30T06:51:55Z</time>
      </trkpt>
      <trkpt lat="45.84579" lon="2.96288">
        <ele>903</ele>
        <time>2021-05-30T06:51:56Z</time>
      </trkpt>
      <trkpt lat="45.84578" lon="2.96287">
        <ele>903</ele>
        <time>2021-05-30T06:51:57Z</time>
      </trkpt>
      <trkpt lat="45.84577" lon="2.96286">
        <ele>903</ele>
        <time>2021-05-30T06:51:58Z</time>
      </trkpt>
      <trkpt lat="45.84576" lon="2.96284">
        <ele>903</ele>
        <time>2021-05-30T06:51:59Z</time>
      </trkpt>
      <trkpt lat="45.84575" lon="2.96283">
        <ele>903</ele>
        <time>2021-05-30T06:52:00Z</time>
      </trkpt>
      <trkpt lat="45.84573" lon="2.96282">
        <ele>903</ele>
        <time>2021-05-30T06:52:01Z</time>
      </trkpt>
      <trkpt lat="45.84572" lon="2.96281">
        <ele>903</ele>
        <time>2021-05-30T06:52:02Z</time>
      </trkpt>
      <trkpt lat="45.8457" lon="2.96281">
        <ele>903</ele>
        <time>2021-05-30T06:52:03Z</time>
      </trkpt>
      <trkpt lat="45.84568" lon="2.9628">
        <ele>903</ele>
        <time>2021-05-30T06:52:04Z</time>
      </trkpt>
      <trkpt lat="45.84567" lon="2.9628">
        <ele>903</ele>
        <time>2021-05-30T06:52:05Z</time>
      </trkpt>
      <trkpt lat="45.84566" lon="2.9628">
        <ele>903</ele>
        <time>2021-05-30T06:52:06Z</time>
      </trkpt>
      <trkpt lat="45.84565" lon="2.96279">
        <ele>903</ele>
        <time>2021-05-30T06:52:07Z</time>
      </trkpt>
      <trkpt lat="45.84563" lon="2.96279">
        <ele>903</ele>
        <time>2021-05-30T06:52:08Z</time>
      </trkpt>
      <trkpt lat="45.84562" lon="2.96278">
        <ele>903</ele>
        <time>2021-05-30T06:52:09Z</time>
      </trkpt>
      <trkpt lat="45.84561" lon="2.96278">
        <ele>903</ele>
        <time>2021-05-30T06:52:10Z</time>
      </trkpt>
      <trkpt lat="45.8456" lon="2.96277">
        <ele>903</ele>
        <time>2021-05-30T06:52:11Z</time>
      </trkpt>
      <trkpt lat="45.84558" lon="2.96276">
        <ele>903</ele>
        <time>2021-05-30T06:52:12Z</time>
      </trkpt>
      <trkpt lat="45.84557" lon="2.96276">
        <ele>903</ele>
        <time>2021-05-30T06:52:13Z</time>
      </trkpt>
      <trkpt lat="45.84555" lon="2.96275">
        <ele>903</ele>
        <time>2021-05-30T06:52:14Z</time>
      </trkpt>
      <trkpt lat="45.84554" lon="2.96275">
        <ele>903</ele>
        <time>2021-05-30T06:52:15Z</time>
      </trkpt>
      <trkpt lat="45.84553" lon="2.96274">
        <ele>903</ele>
        <time>2021-05-30T06:52:16Z</time>
      </trkpt>
      <trkpt lat="45.84551" lon="2.96274">
        <ele>903</ele>
        <time>2021-05-30T06:52:17Z</time>
      </trkpt>
      <trkpt lat="45.84551" lon="2.96273">
        <ele>903</ele>
        <time>2021-05-30T06:52:18Z</time>
      </trkpt>
      <trkpt lat="45.84549" lon="2.96273">
        <ele>903</ele>
        <time>2021-05-30T06:52:19Z</time>
      </trkpt>
      <trkpt lat="45.84548" lon="2.96272">
        <ele>903</ele>
        <time>2021-05-30T06:52:20Z</time>
      </trkpt>
      <trkpt lat="45.84547" lon="2.96271">
        <ele>903</ele>
        <time>2021-05-30T06:52:21Z</time>
      </trkpt>
      <trkpt lat="45.84546" lon="2.96271">
        <ele>903</ele>
        <time>2021-05-30T06:52:22Z</time>
      </trkpt>
      <trkpt lat="45.84545" lon="2.9627">
        <ele>903</ele>
        <time>2021-05-30T06:52:23Z</time>
      </trkpt>
      <trkpt lat="45.84545" lon="2.96269">
        <ele>903</ele>
        <time>2021-05-30T06:52:24Z</time>
      </trkpt>
      <trkpt lat="45.84545" lon="2.96268">
        <ele>903</ele>
        <time>2021-05-30T06:52:25Z</time>
      </trkpt>
      <trkpt lat="45.84544" lon="2.96267">
        <ele>903</ele>
        <time>2021-05-30T06:52:26Z</time>
      </trkpt>
      <trkpt lat="45.84544" lon="2.96266">
        <ele>903</ele>
        <time>2021-05-30T06:52:27Z</time>
      </trkpt>
      <trkpt lat="45.84543" lon="2.96265">
        <ele>903</ele>
        <time>2021-05-30T06:52:28Z</time>
      </trkpt>
      <trkpt lat="45.84543" lon="2.96264">
        <ele>903</ele>
        <time>2021-05-30T06:52:29Z</time>
      </trkpt>
      <trkpt lat="45.84542" lon="2.96263">
        <ele>903</ele>
        <time>2021-05-30T06:52:30Z</time>
      </trkpt>
      <trkpt lat="45.84541" lon="2.96262">
        <ele>903</ele>
        <time>2021-05-30T06:52:31Z</time>
      </trkpt>
      <trkpt lat="45.8454" lon="2.96261">
        <ele>903</ele>
        <time>2021-05-30T06:52:32Z</time>
      </trkpt>
      <trkpt lat="45.84539" lon="2.9626">
        <ele>903</ele>
        <time>2021-05-30T06:52:33Z</time>
      </trkpt>
      <trkpt lat="45.84538" lon="2.96259">
        <ele>903</ele>
        <time>2021-05-30T06:52:34Z</time>
      </trkpt>
      <trkpt lat="45.84537" lon="2.96258">
        <ele>903</ele>
        <time>2021-05-30T06:52:35Z</time>
      </trkpt>
      <trkpt lat="45.84536" lon="2.96258">
        <ele>903</ele>
        <time>2021-05-30T06:52:36Z</time>
      </trkpt>
      <trkpt lat="45.84535" lon="2.96257">
        <ele>903</ele>
        <time>2021-05-30T06:52:37Z</time>
      </trkpt>
      <trkpt lat="45.84535" lon="2.96256">
        <ele>903</ele>
        <time>2021-05-30T06:52:38Z</time>
      </trkpt>
      <trkpt lat="45.84534" lon="2.96255">
        <ele>903</ele>
        <time>2021-05-30T06:52:39Z</time>
      </trkpt>
      <trkpt lat="45.84533" lon="2.96255">
        <ele>903</ele>
        <time>2021-05-30T06:52:40Z</time>
      </trkpt>
      <trkpt lat="45.84533" lon="2.96254">
        <ele>903</ele>
        <time>2021-05-30T06:52:41Z</time>
      </trkpt>
      <trkpt lat="45.84532" lon="2.96254">
        <ele>903</ele>
        <time>2021-05-30T06:52:42Z</time>
      </trkpt>
      <trkpt lat="45.84531" lon="2.96253">
        <ele>903</ele>
        <time>2021-05-30T06:52:43Z</time>
      </trkpt>
      <trkpt lat="45.84531" lon="2.96252">
        <ele>903</ele>
        <time>2021-05-30T06:52:44Z</time>
      </trkpt>
      <trkpt lat="45.8453" lon="2.96252">
        <ele>903</ele>
        <time>2021-05-30T06:52:45Z</time>
      </trkpt>
      <trkpt lat="45.8453" lon="2.96251">
        <ele>903</ele>
        <time>2021-05-30T06:52:46Z</time>
      </trkpt>
      <trkpt lat="45.8453" lon="2.96251">
        <ele>903</ele>
        <time>2021-05-30T06:52:47Z</time>
      </trkpt>
      <trkpt lat="45.84529" lon="2.9625">
        <ele>903</ele>
        <time>2021-05-30T06:52:48Z</time>
      </trkpt>
      <trkpt lat="45.84528" lon="2.96249">
        <ele>903</ele>
        <time>2021-05-30T06:52:49Z</time>
      </trkpt>
      <trkpt lat="45.84527" lon="2.96249">
        <ele>903</ele>
        <time>2021-05-30T06:52:50Z</time>
      </trkpt>
      <trkpt lat="45.84526" lon="2.96248">
        <ele>903</ele>
        <time>2021-05-30T06:52:51Z</time>
      </trkpt>
      <trkpt lat="45.84526" lon="2.96247">
        <ele>903</ele>
        <time>2021-05-30T06:52:52Z</time>
      </trkpt>
      <trkpt lat="45.84525" lon="2.96246">
        <ele>903</ele>
        <time>2021-05-30T06:52:53Z</time>
      </trkpt>
      <trkpt lat="45.84525" lon="2.96246">
        <ele>903</ele>
        <time>2021-05-30T06:52:54Z</time>
      </trkpt>
      <trkpt lat="45.84524" lon="2.96245">
        <ele>903</ele>
        <time>2021-05-30T06:52:55Z</time>
      </trkpt>
      <trkpt lat="45.84524" lon="2.96244">
        <ele>903</ele>
        <time>2021-05-30T06:52:56Z</time>
      </trkpt>
      <trkpt lat="45.84523" lon="2.96244">
        <ele>903</ele>
        <time>2021-05-30T06:52:57Z</time>
      </trkpt>
      <trkpt lat="45.84523" lon="2.96243">
        <ele>903</ele>
        <time>2021-05-30T06:52:58Z</time>
      </trkpt>
      <trkpt lat="45.84522" lon="2.96242">
        <ele>903</ele>
        <time>2021-05-30T06:52:59Z</time>
      </trkpt>
      <trkpt lat="45.84522" lon="2.96241">
        <ele>903</ele>
        <time>2021-05-30T06:53:00Z</time>
      </trkpt>
      <trkpt lat="45.84521" lon="2.96241">
        <ele>903</ele>
        <time>2021-05-30T06:53:01Z</time>
      </trkpt>
      <trkpt lat="45.84521" lon="2.9624">
        <ele>903</ele>
        <time>2021-05-30T06:53:02Z</time>
      </trkpt>
      <trkpt lat="45.84521" lon="2.9624">
        <ele>903</ele>
        <time>2021-05-30T06:53:03Z</time>
      </trkpt>
      <trkpt lat="45.84512" lon="2.96232">
        <ele>903</ele>
        <time>2021-05-30T06:53:19Z</time>
      </trkpt>
      <trkpt lat="45.84512" lon="2.96232">
        <ele>903</ele>
        <time>2021-05-30T06:53:20Z</time>
      </trkpt>
      <trkpt lat="45.84512" lon="2.96231">
        <ele>903</ele>
        <time>2021-05-30T06:53:21Z</time>
      </trkpt>
      <trkpt lat="45.84511" lon="2.96231">
        <ele>903</ele>
        <time>2021-05-30T06:53:22Z</time>
      </trkpt>
      <trkpt lat="45.84509" lon="2.96229">
        <ele>903</ele>
        <time>2021-05-30T06:53:25Z</time>
      </trkpt>
      <trkpt lat="45.84508" lon="2.96229">
        <ele>903</ele>
        <time>2021-05-30T06:53:26Z</time>
      </trkpt>
      <trkpt lat="45.84508" lon="2.96228">
        <ele>903</ele>
        <time>2021-05-30T06:53:27Z</time>
      </trkpt>
      <trkpt lat="45.84507" lon="2.96228">
        <ele>903</ele>
        <time>2021-05-30T06:53:28Z</time>
      </trkpt>
      <trkpt lat="45.84506" lon="2.96228">
        <ele>903</ele>
        <time>2021-05-30T06:53:29Z</time>
      </trkpt>
      <trkpt lat="45.84506" lon="2.96228">
        <ele>903</ele>
        <time>2021-05-30T06:53:30Z</time>
      </trkpt>
      <trkpt lat="45.84506" lon="2.96227">
        <ele>903</ele>
        <time>2021-05-30T06:53:31Z</time>
      </trkpt>
      <trkpt lat="45.84504" lon="2.96227">
        <ele>903</ele>
        <time>2021-05-30T06:53:32Z</time>
      </trkpt>
      <trkpt lat="45.84504" lon="2.96227">
        <ele>903</ele>
        <time>2021-05-30T06:53:33Z</time>
      </trkpt>
      <trkpt lat="45.84503" lon="2.96227">
        <ele>903</ele>
        <time>2021-05-30T06:53:34Z</time>
      </trkpt>
      <trkpt lat="45.84502" lon="2.96226">
        <ele>903</ele>
        <time>2021-05-30T06:53:35Z</time>
      </trkpt>
      <trkpt lat="45.84501" lon="2.96225">
        <ele>903</ele>
        <time>2021-05-30T06:53:36Z</time>
      </trkpt>
      <trkpt lat="45.845" lon="2.96225">
        <ele>903</ele>
        <time>2021-05-30T06:53:37Z</time>
      </trkpt>
      <trkpt lat="45.84499" lon="2.96224">
        <ele>903</ele>
        <time>2021-05-30T06:53:38Z</time>
      </trkpt>
      <trkpt lat="45.84498" lon="2.96222">
        <ele>903</ele>
        <time>2021-05-30T06:53:39Z</time>
      </trkpt>
      <trkpt lat="45.84498" lon="2.96221">
        <ele>903</ele>
        <time>2021-05-30T06:53:40Z</time>
      </trkpt>
      <trkpt lat="45.84497" lon="2.9622">
        <ele>903</ele>
        <time>2021-05-30T06:53:41Z</time>
      </trkpt>
      <trkpt lat="45.84496" lon="2.96218">
        <ele>903</ele>
        <time>2021-05-30T06:53:42Z</time>
      </trkpt>
      <trkpt lat="45.84495" lon="2.96217">
        <ele>903</ele>
        <time>2021-05-30T06:53:43Z</time>
      </trkpt>
      <trkpt lat="45.84494" lon="2.96216">
        <ele>903</ele>
        <time>2021-05-30T06:53:44Z</time>
      </trkpt>
      <trkpt lat="45.84492" lon="2.96215">
        <ele>903</ele>
        <time>2021-05-30T06:53:45Z</time>
      </trkpt>
      <trkpt lat="45.84491" lon="2.96214">
        <ele>903</ele>
        <time>2021-05-30T06:53:47Z</time>
      </trkpt>
      <trkpt lat="45.84486" lon="2.96211">
        <ele>903</ele>
        <time>2021-05-30T06:53:48Z</time>
      </trkpt>
      <trkpt lat="45.84486" lon="2.96211">
        <ele>903</ele>
        <time>2021-05-30T06:53:49Z</time>
      </trkpt>
      <trkpt lat="45.84485" lon="2.96211">
        <ele>903</ele>
        <time>2021-05-30T06:53:50Z</time>
      </trkpt>
      <trkpt lat="45.84485" lon="2.9621">
        <ele>903</ele>
        <time>2021-05-30T06:53:51Z</time>
      </trkpt>
      <trkpt lat="45.84484" lon="2.96209">
        <ele>903</ele>
        <time>2021-05-30T06:53:52Z</time>
      </trkpt>
      <trkpt lat="45.84483" lon="2.96208">
        <ele>903</ele>
        <time>2021-05-30T06:53:53Z</time>
      </trkpt>
      <trkpt lat="45.84482" lon="2.96206">
        <ele>903</ele>
        <time>2021-05-30T06:53:54Z</time>
      </trkpt>
      <trkpt lat="45.8448" lon="2.96205">
        <ele>903</ele>
        <time>2021-05-30T06:53:55Z</time>
      </trkpt>
      <trkpt lat="45.84479" lon="2.96203">
        <ele>903</ele>
        <time>2021-05-30T06:53:56Z</time>
      </trkpt>
      <trkpt lat="45.84478" lon="2.96202">
        <ele>903</ele>
        <time>2021-05-30T06:53:57Z</time>
      </trkpt>
      <trkpt lat="45.84477" lon="2.96201">
        <ele>903</ele>
        <time>2021-05-30T06:53:58Z</time>
      </trkpt>
      <trkpt lat="45.84476" lon="2.962">
        <ele>903</ele>
        <time>2021-05-30T06:53:59Z</time>
      </trkpt>
      <trkpt lat="45.84475" lon="2.96199">
        <ele>903</ele>
        <time>2021-05-30T06:54:00Z</time>
      </trkpt>
      <trkpt lat="45.84473" lon="2.96198">
        <ele>903</ele>
        <time>2021-05-30T06:54:01Z</time>
      </trkpt>
      <trkpt lat="45.84472" lon="2.96197">
        <ele>903</ele>
        <time>2021-05-30T06:54:02Z</time>
      </trkpt>
      <trkpt lat="45.84471" lon="2.96197">
        <ele>903</ele>
        <time>2021-05-30T06:54:03Z</time>
      </trkpt>
      <trkpt lat="45.8447" lon="2.96196">
        <ele>903</ele>
        <time>2021-05-30T06:54:04Z</time>
      </trkpt>
      <trkpt lat="45.84469" lon="2.96195">
        <ele>903</ele>
        <time>2021-05-30T06:54:05Z</time>
      </trkpt>
      <trkpt lat="45.84467" lon="2.96195">
        <ele>903</ele>
        <time>2021-05-30T06:54:06Z</time>
      </trkpt>
      <trkpt lat="45.84466" lon="2.96194">
        <ele>903</ele>
        <time>2021-05-30T06:54:07Z</time>
      </trkpt>
      <trkpt lat="45.84464" lon="2.96194">
        <ele>903</ele>
        <time>2021-05-30T06:54:08Z</time>
      </trkpt>
      <trkpt lat="45.84463" lon="2.96194">
        <ele>903</ele>
        <time>2021-05-30T06:54:09Z</time>
      </trkpt>
      <trkpt lat="45.84461" lon="2.96194">
        <ele>903</ele>
        <time>2021-05-30T06:54:10Z</time>
      </trkpt>
      <trkpt lat="45.8446" lon="2.96194">
        <ele>903</ele>
        <time>2021-05-30T06:54:11Z</time>
      </trkpt>
      <trkpt lat="45.84458" lon="2.96193">
        <ele>903</ele>
        <time>2021-05-30T06:54:12Z</time>
      </trkpt>
      <trkpt lat="45.84457" lon="2.96193">
        <ele>903</ele>
        <time>2021-05-30T06:54:13Z</time>
      </trkpt>
      <trkpt lat="45.84455" lon="2.96193">
        <ele>903</ele>
        <time>2021-05-30T06:54:14Z</time>
      </trkpt>
      <trkpt lat="45.84454" lon="2.96194">
        <ele>903</ele>
        <time>2021-05-30T06:54:15Z</time>
      </trkpt>
      <trkpt lat="45.84452" lon="2.96194">
        <ele>903</ele>
        <time>2021-05-30T06:54:16Z</time>
      </trkpt>
      <trkpt lat="45.84452" lon="2.96194">
        <ele>903</ele>
        <time>2021-05-30T06:54:17Z</time>
      </trkpt>
      <trkpt lat="45.8445" lon="2.96194">
        <ele>903</ele>
        <time>2021-05-30T06:54:18Z</time>
      </trkpt>
      <trkpt lat="45.84449" lon="2.96195">
        <ele>903</ele>
        <time>2021-05-30T06:54:19Z</time>
      </trkpt>
      <trkpt lat="45.84448" lon="2.96195">
        <ele>903</ele>
        <time>2021-05-30T06:54:20Z</time>
      </trkpt>
      <trkpt lat="45.84446" lon="2.96196">
        <ele>903</ele>
        <time>2021-05-30T06:54:23Z</time>
      </trkpt>
      <trkpt lat="45.84446" lon="2.96196">
        <ele>903</ele>
        <time>2021-05-30T06:54:24Z</time>
      </trkpt>
      <trkpt lat="45.84446" lon="2.96197">
        <ele>903</ele>
        <time>2021-05-30T06:54:25Z</time>
      </trkpt>
      <trkpt lat="45.84446" lon="2.96197">
        <ele>903</ele>
        <time>2021-05-30T06:54:26Z</time>
      </trkpt>
      <trkpt lat="45.84446" lon="2.96198">
        <ele>903</ele>
        <time>2021-05-30T06:54:27Z</time>
      </trkpt>
      <trkpt lat="45.84446" lon="2.96198">
        <ele>903</ele>
        <time>2021-05-30T06:54:28Z</time>
      </trkpt>
      <trkpt lat="45.84446" lon="2.96199">
        <ele>903</ele>
        <time>2021-05-30T06:54:30Z</time>
      </trkpt>
      <trkpt lat="45.84446" lon="2.96199">
        <ele>903</ele>
        <time>2021-05-30T06:54:31Z</time>
      </trkpt>
      <trkpt lat="45.84446" lon="2.96199">
        <ele>903</ele>
        <time>2021-05-30T06:54:32Z</time>
      </trkpt>
      <trkpt lat="45.84446" lon="2.962">
        <ele>903</ele>
        <time>2021-05-30T06:54:33Z</time>
      </trkpt>
      <trkpt lat="45.84446" lon="2.962">
        <ele>903</ele>
        <time>2021-05-30T06:54:34Z</time>
      </trkpt>
      <trkpt lat="45.84446" lon="2.96201">
        <ele>903</ele>
        <time>2021-05-30T06:54:35Z</time>
      </trkpt>
      <trkpt lat="45.84446" lon="2.96202">
        <ele>903</ele>
        <time>2021-05-30T06:54:36Z</time>
      </trkpt>
      <trkpt lat="45.84446" lon="2.96202">
        <ele>903</ele>
        <time>2021-05-30T06:54:37Z</time>
      </trkpt>
      <trkpt lat="45.84446" lon="2.96204">
        <ele>903</ele>
        <time>2021-05-30T06:54:39Z</time>
      </trkpt>
      <trkpt lat="45.84446" lon="2.96204">
        <ele>903</ele>
        <time>2021-05-30T06:54:40Z</time>
      </trkpt>
      <trkpt lat="45.84444" lon="2.96212">
        <ele>903</ele>
        <time>2021-05-30T06:54:55Z</time>
      </trkpt>
      <trkpt lat="45.84444" lon="2.96212">
        <ele>903</ele>
        <time>2021-05-30T06:54:56Z</time>
      </trkpt>
      <trkpt lat="45.84444" lon="2.96213">
        <ele>903</ele>
        <time>2021-05-30T06:54:57Z</time>
      </trkpt>
      <trkpt lat="45.84444" lon="2.96213">
        <ele>903</ele>
        <time>2021-05-30T06:54:58Z</time>
      </trkpt>
      <trkpt lat="45.84444" lon="2.96214">
        <ele>903</ele>
        <time>2021-05-30T06:54:59Z</time>
      </trkpt>
      <trkpt lat="45.84444" lon="2.96216">
        <ele>903</ele>
        <time>2021-05-30T06:55:00Z</time>
      </trkpt>
      <trkpt lat="45.84443" lon="2.96217">
        <ele>903</ele>
        <time>2021-05-30T06:55:01Z</time>
      </trkpt>
      <trkpt lat="45.84443" lon="2.96219">
        <ele>903</ele>
        <time>2021-05-30T06:55:02Z</time>
      </trkpt>
      <trkpt lat="45.84443" lon="2.9622">
        <ele>903</ele>
        <time>2021-05-30T06:55:02Z</time>
      </trkpt>
      <trkpt lat="45.84443" lon="2.96221">
        <ele>903</ele>
        <time>2021-05-30T06:55:03Z</time>
      </trkpt>
      <trkpt lat="45.84442" lon="2.96223">
        <ele>903</ele>
        <time>2021-05-30T06:55:04Z</time>
      </trkpt>
      <trkpt lat="45.84441" lon="2.96224">
        <ele>903</ele>
        <time>2021-05-30T06:55:05Z</time>
      </trkpt>
      <trkpt lat="45.84441" lon="2.96225">
        <ele>903</ele>
        <time>2021-05-30T06:55:06Z</time>
      </trkpt>
      <trkpt lat="45.8444" lon="2.96226">
        <ele>903</ele>
        <time>2021-05-30T06:55:07Z</time>
      </trkpt>
      <trkpt lat="45.8444" lon="2.96227">
        <ele>903</ele>
        <time>2021-05-30T06:55:08Z</time>
      </trkpt>
      <trkpt lat="45.84439" lon="2.96228">
        <ele>903</ele>
        <time>2021-05-30T06:55:09Z</time>
      </trkpt>
      <trkpt lat="45.84438" lon="2.96228">
        <ele>903</ele>
        <time>2021-05-30T06:55:10Z</time>
      </trkpt>
      <trkpt lat="45.84438" lon="2.96229">
        <ele>903</ele>
        <time>2021-05-30T06:55:11Z</time>
      </trkpt>
      <trkpt lat="45.84437" lon="2.9623">
        <ele>903</ele>
        <time>2021-05-30T06:55:12Z</time>
      </trkpt>
      <trkpt lat="45.84436" lon="2.96232">
        <ele>903</ele>
        <time>2021-05-30T06:55:13Z</time>
      </trkpt>
      <trkpt lat="45.84436" lon="2.96233">
        <ele>903</ele>
        <time>2021-05-30T06:55:14Z</time>
      </trkpt>
      <trkpt lat="45.84435" lon="2.96234">
        <ele>903</ele>
        <time>2021-05-30T06:55:15Z</time>
      </trkpt>
      <trkpt lat="45.84435" lon="2.96235">
        <ele>903</ele>
        <time>2021-05-30T06:55:16Z</time>
      </trkpt>
      <trkpt lat="45.84434" lon="2.96237">
        <ele>903</ele>
        <time>2021-05-30T06:55:17Z</time>
      </trkpt>
      <trkpt lat="45.84433" lon="2.96239">
        <ele>903</ele>
        <time>2021-05-30T06:55:18Z</time>
      </trkpt>
      <trkpt lat="45.84432" lon="2.9624">
        <ele>903</ele>
        <time>2021-05-30T06:55:19Z</time>
      </trkpt>
      <trkpt lat="45.84432" lon="2.96242">
        <ele>903</ele>
        <time>2021-05-30T06:55:20Z</time>
      </trkpt>
      <trkpt lat="45.84431" lon="2.96244">
        <ele>903</ele>
        <time>2021-05-30T06:55:21Z</time>
      </trkpt>
      <trkpt lat="45.8443" lon="2.96245">
        <ele>903</ele>
        <time>2021-05-30T06:55:22Z</time>
      </trkpt>
      <trkpt lat="45.8443" lon="2.96246">
        <ele>903</ele>
        <time>2021-05-30T06:55:23Z</time>
      </trkpt>
      <trkpt lat="45.84429" lon="2.96247">
        <ele>903</ele>
        <time>2021-05-30T06:55:24Z</time>
      </trkpt>
      <trkpt lat="45.84428" lon="2.96248">
        <ele>903</ele>
        <time>2021-05-30T06:55:25Z</time>
      </trkpt>
      <trkpt lat="45.84428" lon="2.96249">
        <ele>903</ele>
        <time>2021-05-30T06:55:26Z</time>
      </trkpt>
      <trkpt lat="45.84428" lon="2.9625">
        <ele>903</ele>
        <time>2021-05-30T06:55:27Z</time>
      </trkpt>
      <trkpt lat="45.84427" lon="2.9625">
        <ele>903</ele>
        <time>2021-05-30T06:55:28Z</time>
      </trkpt>
      <trkpt lat="45.84427" lon="2.96251">
        <ele>903</ele>
        <time>2021-05-30T06:55:29Z</time>
      </trkpt>
      <trkpt lat="45.84406" lon="2.96255">
        <ele>903</ele>
        <time>2021-05-30T06:56:44Z</time>
      </trkpt>
      <trkpt lat="45.84405" lon="2.96255">
        <ele>903</ele>
        <time>2021-05-30T06:56:46Z</time>
      </trkpt>
      <trkpt lat="45.84404" lon="2.96256">
        <ele>903</ele>
        <time>2021-05-30T06:56:47Z</time>
      </trkpt>
      <trkpt lat="45.84404" lon="2.96256">
        <ele>903</ele>
        <time>2021-05-30T06:56:48Z</time>
      </trkpt>
      <trkpt lat="45.84403" lon="2.96256">
        <ele>903</ele>
        <time>2021-05-30T06:56:49Z</time>
      </trkpt>
      <trkpt lat="45.84403" lon="2.96255">
        <ele>903</ele>
        <time>2021-05-30T06:56:53Z</time>
      </trkpt>
      <trkpt lat="45.84403" lon="2.96255">
        <ele>903</ele>
        <time>2021-05-30T06:56:54Z</time>
      </trkpt>
      <trkpt lat="45.84399" lon="2.96254">
        <ele>903</ele>
        <time>2021-05-30T06:57:24Z</time>
      </trkpt>
      <trkpt lat="45.84398" lon="2.96254">
        <ele>903</ele>
        <time>2021-05-30T06:57:25Z</time>
      </trkpt>
      <trkpt lat="45.84397" lon="2.96254">
        <ele>903</ele>
        <time>2021-05-30T06:57:26Z</time>
      </trkpt>
      <trkpt lat="45.84396" lon="2.96254">
        <ele>903</ele>
        <time>2021-05-30T06:57:27Z</time>
      </trkpt>
      <trkpt lat="45.84395" lon="2.96254">
        <ele>903</ele>
        <time>2021-05-30T06:57:28Z</time>
      </trkpt>
      <trkpt lat="45.84394" lon="2.96254">
        <ele>903</ele>
        <time>2021-05-30T06:57:29Z</time>
      </trkpt>
      <trkpt lat="45.84393" lon="2.96254">
        <ele>903</ele>
        <time>2021-05-30T06:57:30Z</time>
      </trkpt>
      <trkpt lat="45.84392" lon="2.96254">
        <ele>903</ele>
        <time>2021-05-30T06:57:31Z</time>
      </trkpt>
      <trkpt lat="45.84391" lon="2.96254">
        <ele>903</ele>
        <time>2021-05-30T06:57:32Z</time>
      </trkpt>
      <trkpt lat="45.84389" lon="2.96254">
        <ele>903</ele>
        <time>2021-05-30T06:57:33Z</time>
      </trkpt>
      <trkpt lat="45.84388" lon="2.96253">
        <ele>903</ele>
        <time>2021-05-30T06:57:34Z</time>
      </trkpt>
      <trkpt lat="45.84386" lon="2.96253">
        <ele>903</ele>
        <time>2021-05-30T06:57:35Z</time>
      </trkpt>
      <trkpt lat="45.84385" lon="2.96252">
        <ele>903</ele>
        <time>2021-05-30T06:57:36Z</time>
      </trkpt>
      <trkpt lat="45.84384" lon="2.96251">
        <ele>903</ele>
        <time>2021-05-30T06:57:37Z</time>
      </trkpt>
      <trkpt lat="45.84383" lon="2.96251">
        <ele>903</ele>
        <time>2021-05-30T06:57:38Z</time>
      </trkpt>
      <trkpt lat="45.84382" lon="2.9625">
        <ele>903</ele>
        <time>2021-05-30T06:57:39Z</time>
      </trkpt>
      <trkpt lat="45.8438" lon="2.9625">
        <ele>903</ele>
        <time>2021-05-30T06:57:40Z</time>
      </trkpt>
      <trkpt lat="45.84379" lon="2.96249">
        <ele>903</ele>
        <time>2021-05-30T06:57:41Z</time>
      </trkpt>
      <trkpt lat="45.84377" lon="2.96249">
        <ele>903</ele>
        <time>2021-05-30T06:57:42Z</time>
      </trkpt>
      <trkpt lat="45.84376" lon="2.96248">
        <ele>903</ele>
        <time>2021-05-30T06:57:43Z</time>
      </trkpt>
      <trkpt lat="45.84375" lon="2.96247">
        <ele>903</ele>
        <time>2021-05-30T06:57:44Z</time>
      </trkpt>
      <trkpt lat="45.84374" lon="2.96246">
        <ele>903</ele>
        <time>2021-05-30T06:57:45Z</time>
      </trkpt>
      <trkpt lat="45.84374" lon="2.96245">
        <ele>903</ele>
        <time>2021-05-30T06:57:47Z</time>
      </trkpt>
      <trkpt lat="45.8437" lon="2.9624">
        <ele>903</ele>
        <time>2021-05-30T06:57:48Z</time>
      </trkpt>
      <trkpt lat="45.8437" lon="2.9624">
        <ele>903</ele>
        <time>2021-05-30T06:57:49Z</time>
      </trkpt>
      <trkpt lat="45.84369" lon="2.9624">
        <ele>903</ele>
        <time>2021-05-30T06:57:50Z</time>
      </trkpt>
      <trkpt lat="45.84368" lon="2.96239">
        <ele>903</ele>
        <time>2021-05-30T06:57:51Z</time>
      </trkpt>
      <trkpt lat="45.84368" lon="2.96239">
        <ele>903</ele>
        <time>2021-05-30T06:57:52Z</time>
      </trkpt>
      <trkpt lat="45.84367" lon="2.96238">
        <ele>903</ele>
        <time>2021-05-30T06:57:53Z</time>
      </trkpt>
      <trkpt lat="45.84366" lon="2.96238">
        <ele>903</ele>
        <time>2021-05-30T06:57:54Z</time>
      </trkpt>
      <trkpt lat="45.84366" lon="2.96238">
        <ele>903</ele>
        <time>2021-05-30T06:57:55Z</time>
      </trkpt>
      <trkpt lat="45.84365" lon="2.96237">
        <ele>903</ele>
        <time>2021-05-30T06:57:56Z</time>
      </trkpt>
      <trkpt lat="45.84364" lon="2.96237">
        <ele>903</ele>
        <time>2021-05-30T06:57:57Z</time>
      </trkpt>
      <trkpt lat="45.84362" lon="2.96237">
        <ele>903</ele>
        <time>2021-05-30T06:57:58Z</time>
      </trkpt>
      <trkpt lat="45.84362" lon="2.96237">
        <ele>903</ele>
        <time>2021-05-30T06:57:59Z</time>
      </trkpt>
      <trkpt lat="45.84361" lon="2.96237">
        <ele>903</ele>
        <time>2021-05-30T06:58:00Z</time>
      </trkpt>
      <trkpt lat="45.84359" lon="2.96237">
        <ele>903</ele>
        <time>2021-05-30T06:58:01Z</time>
      </trkpt>
      <trkpt lat="45.84358" lon="2.96237">
        <ele>903</ele>
        <time>2021-05-30T06:58:02Z</time>
      </trkpt>
      <trkpt lat="45.84356" lon="2.96236">
        <ele>903</ele>
        <time>2021-05-30T06:58:03Z</time>
      </trkpt>
      <trkpt lat="45.84354" lon="2.96236">
        <ele>903</ele>
        <time>2021-05-30T06:58:04Z</time>
      </trkpt>
      <trkpt lat="45.84353" lon="2.96235">
        <ele>903</ele>
        <time>2021-05-30T06:58:05Z</time>
      </trkpt>
      <trkpt lat="45.84352" lon="2.96235">
        <ele>903</ele>
        <time>2021-05-30T06:58:06Z</time>
      </trkpt>
      <trkpt lat="45.84351" lon="2.96234">
        <ele>903</ele>
        <time>2021-05-30T06:58:07Z</time>
      </trkpt>
      <trkpt lat="45.8435" lon="2.96234">
        <ele>903</ele>
        <time>2021-05-30T06:58:08Z</time>
      </trkpt>
      <trkpt lat="45.84349" lon="2.96234">
        <ele>903</ele>
        <time>2021-05-30T06:58:09Z</time>
      </trkpt>
      <trkpt lat="45.84348" lon="2.96233">
        <ele>903</ele>
        <time>2021-05-30T06:58:10Z</time>
      </trkpt>
      <trkpt lat="45.84347" lon="2.96233">
        <ele>903</ele>
        <time>2021-05-30T06:58:11Z</time>
      </trkpt>
      <trkpt lat="45.84346" lon="2.96232">
        <ele>903</ele>
        <time>2021-05-30T06:58:12Z</time>
      </trkpt>
      <trkpt lat="45.84345" lon="2.96232">
        <ele>903</ele>
        <time>2021-05-30T06:58:13Z</time>
      </trkpt>
      <trkpt lat="45.84344" lon="2.96232">
        <ele>903</ele>
        <time>2021-05-30T06:58:14Z</time>
      </trkpt>
      <trkpt lat="45.84342" lon="2.96231">
        <ele>903</ele>
        <time>2021-05-30T06:58:15Z</time>
      </trkpt>
      <trkpt lat="45.84341" lon="2.9623">
        <ele>903</ele>
        <time>2021-05-30T06:58:16Z</time>
      </trkpt>
      <trkpt lat="45.8434" lon="2.9623">
        <ele>903</ele>
        <time>2021-05-30T06:58:17Z</time>
      </trkpt>
      <trkpt lat="45.84338" lon="2.96229">
        <ele>903</ele>
        <time>2021-05-30T06:58:18Z</time>
      </trkpt>
      <trkpt lat="45.84337" lon="2.96229">
        <ele>903</ele>
        <time>2021-05-30T06:58:19Z</time>
      </trkpt>
      <trkpt lat="45.84335" lon="2.96228">
        <ele>903</ele>
        <time>2021-05-30T06:58:20Z</time>
      </trkpt>
      <trkpt lat="45.84334" lon="2.96227">
        <ele>903</ele>
        <time>2021-05-30T06:58:21Z</time>
      </trkpt>
      <trkpt lat="45.84333" lon="2.96226">
        <ele>903</ele>
        <time>2021-05-30T06:58:22Z</time>
      </trkpt>
      <trkpt lat="45.84332" lon="2.96225">
        <ele>903</ele>
        <time>2021-05-30T06:58:23Z</time>
      </trkpt>
      <trkpt lat="45.84331" lon="2.96224">
        <ele>903</ele>
        <time>2021-05-30T06:58:24Z</time>
      </trkpt>
      <trkpt lat="45.8433" lon="2.96223">
        <ele>903</ele>
        <time>2021-05-30T06:58:25Z</time>
      </trkpt>
      <trkpt lat="45.84329" lon="2.96222">
        <ele>903</ele>
        <time>2021-05-30T06:58:26Z</time>
      </trkpt>
      <trkpt lat="45.84328" lon="2.96221">
        <ele>903</ele>
        <time>2021-05-30T06:58:27Z</time>
      </trkpt>
      <trkpt lat="45.84327" lon="2.9622">
        <ele>903</ele>
        <time>2021-05-30T06:58:28Z</time>
      </trkpt>
      <trkpt lat="45.84326" lon="2.96219">
        <ele>903</ele>
        <time>2021-05-30T06:58:29Z</time>
      </trkpt>
      <trkpt lat="45.84325" lon="2.96219">
        <ele>903</ele>
        <time>2021-05-30T06:58:30Z</time>
      </trkpt>
      <trkpt lat="45.84324" lon="2.96218">
        <ele>903</ele>
        <time>2021-05-30T06:58:31Z</time>
      </trkpt>
      <trkpt lat="45.84324" lon="2.96217">
        <ele>903</ele>
        <time>2021-05-30T06:58:32Z</time>
      </trkpt>
      <trkpt lat="45.84323" lon="2.96217">
        <ele>903</ele>
        <time>2021-05-30T06:58:33Z</time>
      </trkpt>
      <trkpt lat="45.84322" lon="2.96216">
        <ele>903</ele>
        <time>2021-05-30T06:58:34Z</time>
      </trkpt>
      <trkpt lat="45.8432" lon="2.96216">
        <ele>903</ele>
        <time>2021-05-30T06:58:35Z</time>
      </trkpt>
      <trkpt lat="45.84319" lon="2.96216">
        <ele>903</ele>
        <time>2021-05-30T06:58:36Z</time>
      </trkpt>
      <trkpt lat="45.84319" lon="2.96215">
        <ele>903</ele>
        <time>2021-05-30T06:58:37Z</time>
      </trkpt>
      <trkpt lat="45.84317" lon="2.96215">
        <ele>903</ele>
        <time>2021-05-30T06:58:38Z</time>
      </trkpt>
      <trkpt lat="45.84317" lon="2.96214">
        <ele>903</ele>
        <time>2021-05-30T06:58:39Z</time>
      </trkpt>
      <trkpt lat="45.84316" lon="2.96214">
        <ele>903</ele>
        <time>2021-05-30T06:58:40Z</time>
      </trkpt>
      <trkpt lat="45.84316" lon="2.96213">
        <ele>903</ele>
        <time>2021-05-30T06:58:41Z</time>
      </trkpt>
      <trkpt lat="45.84314" lon="2.96213">
        <ele>903</ele>
        <time>2021-05-30T06:58:42Z</time>
      </trkpt>
      <trkpt lat="45.84313" lon="2.96213">
        <ele>903</ele>
        <time>2021-05-30T06:58:43Z</time>
      </trkpt>
      <trkpt lat="45.84313" lon="2.96212">
        <ele>903</ele>
        <time>2021-05-30T06:58:44Z</time>
      </trkpt>
      <trkpt lat="45.84312" lon="2.96212">
        <ele>903</ele>
        <time>2021-05-30T06:58:45Z</time>
      </trkpt>
      <trkpt lat="45.84311" lon="2.96211">
        <ele>903</ele>
        <time>2021-05-30T06:58:46Z</time>
      </trkpt>
      <trkpt lat="45.8431" lon="2.9621">
        <ele>903</ele>
        <time>2021-05-30T06:58:47Z</time>
      </trkpt>
      <trkpt lat="45.84309" lon="2.9621">
        <ele>903</ele>
        <time>2021-05-30T06:58:48Z</time>
      </trkpt>
      <trkpt lat="45.84308" lon="2.9621">
        <ele>903</ele>
        <time>2021-05-30T06:58:49Z</time>
      </trkpt>
      <trkpt lat="45.84308" lon="2.9621">
        <ele>903</ele>
        <time>2021-05-30T06:58:50Z</time>
      </trkpt>
      <trkpt lat="45.84306" lon="2.96208">
        <ele>903</ele>
        <time>2021-05-30T06:58:52Z</time>
      </trkpt>
      <trkpt lat="45.84306" lon="2.96208">
        <ele>903</ele>
        <time>2021-05-30T06:58:53Z</time>
      </trkpt>
      <trkpt lat="45.84306" lon="2.96208">
        <ele>903</ele>
        <time>2021-05-30T06:58:54Z</time>
      </trkpt>
      <trkpt lat="45.84306" lon="2.96207">
        <ele>903</ele>
        <time>2021-05-30T06:58:55Z</time>
      </trkpt>
      <trkpt lat="45.84305" lon="2.96207">
        <ele>903</ele>
        <time>2021-05-30T06:58:56Z</time>
      </trkpt>
      <trkpt lat="45.84305" lon="2.96207">
        <ele>903</ele>
        <time>2021-05-30T06:58:57Z</time>
      </trkpt>
      <trkpt lat="45.84304" lon="2.96207">
        <ele>903</ele>
        <time>2021-05-30T06:58:58Z</time>
      </trkpt>
      <trkpt lat="45.84304" lon="2.96206">
        <ele>903</ele>
        <time>2021-05-30T06:58:59Z</time>
      </trkpt>
      <trkpt lat="45.84303" lon="2.96206">
        <ele>903</ele>
        <time>2021-05-30T06:59:00Z</time>
      </trkpt>
      <trkpt lat="45.84302" lon="2.96206">
        <ele>903</ele>
        <time>2021-05-30T06:59:01Z</time>
      </trkpt>
      <trkpt lat="45.84302" lon="2.96205">
        <ele>903</ele>
        <time>2021-05-30T06:59:02Z</time>
      </trkpt>
      <trkpt lat="45.84301" lon="2.96205">
        <ele>903</ele>
        <time>2021-05-30T06:59:03Z</time>
      </trkpt>
      <trkpt lat="45.84301" lon="2.96204">
        <ele>903</ele>
        <time>2021-05-30T06:59:04Z</time>
      </trkpt>
      <trkpt lat="45.843" lon="2.96204">
        <ele>903</ele>
        <time>2021-05-30T06:59:05Z</time>
      </trkpt>
      <trkpt lat="45.84299" lon="2.96203">
        <ele>903</ele>
        <time>2021-05-30T06:59:06Z</time>
      </trkpt>
      <trkpt lat="45.84298" lon="2.96203">
        <ele>903</ele>
        <time>2021-05-30T06:59:07Z</time>
      </trkpt>
      <trkpt lat="45.84298" lon="2.96203">
        <ele>903</ele>
        <time>2021-05-30T06:59:08Z</time>
      </trkpt>
      <trkpt lat="45.84297" lon="2.96203">
        <ele>903</ele>
        <time>2021-05-30T06:59:09Z</time>
      </trkpt>
      <trkpt lat="45.84296" lon="2.96202">
        <ele>903</ele>
        <time>2021-05-30T06:59:10Z</time>
      </trkpt>
      <trkpt lat="45.84295" lon="2.96202">
        <ele>903</ele>
        <time>2021-05-30T06:59:11Z</time>
      </trkpt>
      <trkpt lat="45.84295" lon="2.96201">
        <ele>903</ele>
        <time>2021-05-30T06:59:12Z</time>
      </trkpt>
      <trkpt lat="45.84295" lon="2.96201">
        <ele>903</ele>
        <time>2021-05-30T06:59:13Z</time>
      </trkpt>
      <trkpt lat="45.84293" lon="2.962">
        <ele>903</ele>
        <time>2021-05-30T06:59:14Z</time>
      </trkpt>
      <trkpt lat="45.84293" lon="2.962">
        <ele>903</ele>
        <time>2021-05-30T06:59:15Z</time>
      </trkpt>
      <trkpt lat="45.84292" lon="2.96199">
        <ele>903</ele>
        <time>2021-05-30T06:59:16Z</time>
      </trkpt>
      <trkpt lat="45.84292" lon="2.96199">
        <ele>903</ele>
        <time>2021-05-30T06:59:17Z</time>
      </trkpt>
      <trkpt lat="45.84291" lon="2.96198">
        <ele>903</ele>
        <time>2021-05-30T06:59:17Z</time>
      </trkpt>
      <trkpt lat="45.8429" lon="2.96198">
        <ele>903</ele>
        <time>2021-05-30T06:59:18Z</time>
      </trkpt>
      <trkpt lat="45.8429" lon="2.96197">
        <ele>903</ele>
        <time>2021-05-30T06:59:19Z</time>
      </trkpt>
      <trkpt lat="45.8429" lon="2.96197">
        <ele>903</ele>
        <time>2021-05-30T06:59:20Z</time>
      </trkpt>
      <trkpt lat="45.84289" lon="2.96196">
        <ele>903</ele>
        <time>2021-05-30T06:59:21Z</time>
      </trkpt>
      <trkpt lat="45.84289" lon="2.96196">
        <ele>903</ele>
        <time>2021-05-30T06:59:22Z</time>
      </trkpt>
      <trkpt lat="45.84288" lon="2.96196">
        <ele>903</ele>
        <time>2021-05-30T06:59:23Z</time>
      </trkpt>
      <trkpt lat="45.84287" lon="2.96195">
        <ele>903</ele>
        <time>2021-05-30T06:59:24Z</time>
      </trkpt>
      <trkpt lat="45.84287" lon="2.96195">
        <ele>903</ele>
        <time>2021-05-30T06:59:25Z</time>
      </trkpt>
      <trkpt lat="45.84286" lon="2.96194">
        <ele>903</ele>
        <time>2021-05-30T06:59:26Z</time>
      </trkpt>
      <trkpt lat="45.84286" lon="2.96193">
        <ele>903</ele>
        <time>2021-05-30T06:59:27Z</time>
      </trkpt>
      <trkpt lat="45.84285" lon="2.96193">
        <ele>903</ele>
        <time>2021-05-30T06:59:28Z</time>
      </trkpt>
      <trkpt lat="45.84285" lon="2.96192">
        <ele>903</ele>
        <time>2021-05-30T06:59:29Z</time>
      </trkpt>
      <trkpt lat="45.84284" lon="2.96191">
        <ele>903</ele>
        <time>2021-05-30T06:59:30Z</time>
      </trkpt>
      <trkpt lat="45.84284" lon="2.96191">
        <ele>903</ele>
        <time>2021-05-30T06:59:31Z</time>
      </trkpt>
      <trkpt lat="45.84283" lon="2.9619">
        <ele>903</ele>
        <time>2021-05-30T06:59:32Z</time>
      </trkpt>
      <trkpt lat="45.84283" lon="2.9619">
        <ele>903</ele>
        <time>2021-05-30T06:59:33Z</time>
      </trkpt>
      <trkpt lat="45.84279" lon="2.96183">
        <ele>903</ele>
        <time>2021-05-30T06:59:41Z</time>
      </trkpt>
      <trkpt lat="45.84279" lon="2.96183">
        <ele>903</ele>
        <time>2021-05-30T06:59:42Z</time>
      </trkpt>
      <trkpt lat="45.84278" lon="2.96182">
        <ele>903</ele>
        <time>2021-05-30T06:59:43Z</time>
      </trkpt>
      <trkpt lat="45.84277" lon="2.96182">
        <ele>903</ele>
        <time>2021-05-30T06:59:45Z</time>
      </trkpt>
      <trkpt lat="45.84274" lon="2.96179">
        <ele>903</ele>
        <time>2021-05-30T06:59:46Z</time>
      </trkpt>
      <trkpt lat="45.84274" lon="2.96179">
        <ele>903</ele>
        <time>2021-05-30T06:59:47Z</time>
      </trkpt>
      <trkpt lat="45.84274" lon="2.96178">
        <ele>903</ele>
        <time>2021-05-30T06:59:48Z</time>
      </trkpt>
      <trkpt lat="45.84274" lon="2.96178">
        <ele>903</ele>
        <time>2021-05-30T06:59:49Z</time>
      </trkpt>
      <trkpt lat="45.84273" lon="2.96177">
        <ele>903</ele>
        <time>2021-05-30T06:59:50Z</time>
      </trkpt>
      <trkpt lat="45.84272" lon="2.96176">
        <ele>903</ele>
        <time>2021-05-30T06:59:51Z</time>
      </trkpt>
      <trkpt lat="45.84271" lon="2.96176">
        <ele>903</ele>
        <time>2021-05-30T06:59:52Z</time>
      </trkpt>
      <trkpt lat="45.84271" lon="2.96175">
        <ele>903</ele>
        <time>2021-05-30T06:59:53Z</time>
      </trkpt>
      <trkpt lat="45.8427" lon="2.96175">
        <ele>903</ele>
        <time>2021-05-30T06:59:54Z</time>
      </trkpt>
      <trkpt lat="45.84267" lon="2.96173">
        <ele>903</ele>
        <time>2021-05-30T06:59:56Z</time>
      </trkpt>
      <trkpt lat="45.84267" lon="2.96173">
        <ele>903</ele>
        <time>2021-05-30T06:59:57Z</time>
      </trkpt>
      <trkpt lat="45.84266" lon="2.96172">
        <ele>903</ele>
        <time>2021-05-30T06:59:58Z</time>
      </trkpt>
      <trkpt lat="45.84266" lon="2.96171">
        <ele>903</ele>
        <time>2021-05-30T06:59:59Z</time>
      </trkpt>
      <trkpt lat="45.84265" lon="2.9617">
        <ele>903</ele>
        <time>2021-05-30T07:00:00Z</time>
      </trkpt>
      <trkpt lat="45.84264" lon="2.96168">
        <ele>903</ele>
        <time>2021-05-30T07:00:01Z</time>
      </trkpt>
      <trkpt lat="45.84264" lon="2.96167">
        <ele>903</ele>
        <time>2021-05-30T07:00:02Z</time>
      </trkpt>
      <trkpt lat="45.84263" lon="2.96166">
        <ele>903</ele>
        <time>2021-05-30T07:00:03Z</time>
      </trkpt>
      <trkpt lat="45.84262" lon="2.96164">
        <ele>903</ele>
        <time>2021-05-30T07:00:04Z</time>
      </trkpt>
      <trkpt lat="45.84261" lon="2.96163">
        <ele>903</ele>
        <time>2021-05-30T07:00:05Z</time>
      </trkpt>
      <trkpt lat="45.8426" lon="2.96162">
        <ele>903</ele>
        <time>2021-05-30T07:00:06Z</time>
      </trkpt>
      <trkpt lat="45.84259" lon="2.96161">
        <ele>903</ele>
        <time>2021-05-30T07:00:07Z</time>
      </trkpt>
      <trkpt lat="45.84259" lon="2.96161">
        <ele>903</ele>
        <time>2021-05-30T07:00:08Z</time>
      </trkpt>
      <trkpt lat="45.84258" lon="2.9616">
        <ele>903</ele>
        <time>2021-05-30T07:00:09Z</time>
      </trkpt>
      <trkpt lat="45.84257" lon="2.96159">
        <ele>903</ele>
        <time>2021-05-30T07:00:10Z</time>
      </trkpt>
      <trkpt lat="45.84256" lon="2.96159">
        <ele>903</ele>
        <time>2021-05-30T07:00:11Z</time>
      </trkpt>
      <trkpt lat="45.84255" lon="2.96159">
        <ele>903</ele>
        <time>2021-05-30T07:00:12Z</time>
      </trkpt>
      <trkpt lat="45.84254" lon="2.96158">
        <ele>903</ele>
        <time>2021-05-30T07:00:13Z</time>
      </trkpt>
      <trkpt lat="45.84253" lon="2.96158">
        <ele>903</ele>
        <time>2021-05-30T07:00:14Z</time>
      </trkpt>
      <trkpt lat="45.84252" lon="2.96157">
        <ele>903</ele>
        <time>2021-05-30T07:00:15Z</time>
      </trkpt>
      <trkpt lat="45.84251" lon="2.96157">
        <ele>903</ele>
        <time>2021-05-30T07:00:16Z</time>
      </trkpt>
      <trkpt lat="45.8425" lon="2.96157">
        <ele>903</ele>
        <time>2021-05-30T07:00:17Z</time>
      </trkpt>
      <trkpt lat="45.84249" lon="2.96156">
        <ele>903</ele>
        <time>2021-05-30T07:00:18Z</time>
      </trkpt>
      <trkpt lat="45.84248" lon="2.96156">
        <ele>903</ele>
        <time>2021-05-30T07:00:19Z</time>
      </trkpt>
      <trkpt lat="45.84247" lon="2.96155">
        <ele>903</ele>
        <time>2021-05-30T07:00:20Z</time>
      </trkpt>
      <trkpt lat="45.84246" lon="2.96155">
        <ele>903</ele>
        <time>2021-05-30T07:00:21Z</time>
      </trkpt>
      <trkpt lat="45.84245" lon="2.96155">
        <ele>903</ele>
        <time>2021-05-30T07:00:22Z</time>
      </trkpt>
      <trkpt lat="45.84244" lon="2.96154">
        <ele>903</ele>
        <time>2021-05-30T07:00:23Z</time>
      </trkpt>
      <trkpt lat="45.84243" lon="2.96154">
        <ele>903</ele>
        <time>2021-05-30T07:00:24Z</time>
      </trkpt>
      <trkpt lat="45.84242" lon="2.96153">
        <ele>903</ele>
        <time>2021-05-30T07:00:25Z</time>
      </trkpt>
      <trkpt lat="45.84242" lon="2.96153">
        <ele>903</ele>
        <time>2021-05-30T07:00:26Z</time>
      </trkpt>
      <trkpt lat="45.84241" lon="2.96152">
        <ele>903</ele>
        <time>2021-05-30T07:00:27Z</time>
      </trkpt>
      <trkpt lat="45.8424" lon="2.96151">
        <ele>903</ele>
        <time>2021-05-30T07:00:28Z</time>
      </trkpt>
      <trkpt lat="45.84238" lon="2.9615">
        <ele>903</ele>
        <time>2021-05-30T07:00:29Z</time>
      </trkpt>
      <trkpt lat="45.84237" lon="2.96149">
        <ele>903</ele>
        <time>2021-05-30T07:00:30Z</time>
      </trkpt>
      <trkpt lat="45.84237" lon="2.96148">
        <ele>903</ele>
        <time>2021-05-30T07:00:31Z</time>
      </trkpt>
      <trkpt lat="45.84235" lon="2.96148">
        <ele>903</ele>
        <time>2021-05-30T07:00:32Z</time>
      </trkpt>
      <trkpt lat="45.84235" lon="2.96147">
        <ele>903</ele>
        <time>2021-05-30T07:00:33Z</time>
      </trkpt>
      <trkpt lat="45.84234" lon="2.96147">
        <ele>903</ele>
        <time>2021-05-30T07:00:34Z</time>
      </trkpt>
      <trkpt lat="45.84232" lon="2.96146">
        <ele>903</ele>
        <time>2021-05-30T07:00:35Z</time>
      </trkpt>
      <trkpt lat="45.84232" lon="2.96146">
        <ele>903</ele>
        <time>2021-05-30T07:00:36Z</time>
      </trkpt>
      <trkpt lat="45.8422" lon="2.96139">
        <ele>903</ele>
        <time>2021-05-30T07:00:46Z</time>
      </trkpt>
      <trkpt lat="45.84218" lon="2.96138">
        <ele>903</ele>
        <time>2021-05-30T07:00:47Z</time>
      </trkpt>
      <trkpt lat="45.84218" lon="2.96138">
        <ele>903</ele>
        <time>2021-05-30T07:00:48Z</time>
      </trkpt>
      <trkpt lat="45.84217" lon="2.96138">
        <ele>903</ele>
        <time>2021-05-30T07:00:49Z</time>
      </trkpt>
      <trkpt lat="45.84216" lon="2.96138">
        <ele>903</ele>
        <time>2021-05-30T07:00:50Z</time>
      </trkpt>
      <trkpt lat="45.84215" lon="2.96138">
        <ele>903</ele>
        <time>2021-05-30T07:00:51Z</time>
      </trkpt>
      <trkpt lat="45.84214" lon="2.96137">
        <ele>903</ele>
        <time>2021-05-30T07:00:52Z</time>
      </trkpt>
      <trkpt lat="45.84213" lon="2.96137">
        <ele>903</ele>
        <time>2021-05-30T07:00:53Z</time>
      </trkpt>
      <trkpt lat="45.84212" lon="2.96136">
        <ele>903</ele>
        <time>2021-05-30T07:00:54Z</time>
      </trkpt>
      <trkpt lat="45.84211" lon="2.96136">
        <ele>903</ele>
        <time>2021-05-30T07:00:55Z</time>
      </trkpt>
      <trkpt lat="45.8421" lon="2.96135">
        <ele>903</ele>
        <time>2021-05-30T07:00:56Z</time>
      </trkpt>
      <trkpt lat="45.84208" lon="2.96134">
        <ele>903</ele>
        <time>2021-05-30T07:00:57Z</time>
      </trkpt>
      <trkpt lat="45.84208" lon="2.96133">
        <ele>903</ele>
        <time>2021-05-30T07:00:58Z</time>
      </trkpt>
      <trkpt lat="45.84206" lon="2.96132">
        <ele>903</ele>
        <time>2021-05-30T07:00:59Z</time>
      </trkpt>
      <trkpt lat="45.84205" lon="2.96132">
        <ele>903</ele>
        <time>2021-05-30T07:01:00Z</time>
      </trkpt>
      <trkpt lat="45.84204" lon="2.96131">
        <ele>903</ele>
        <time>2021-05-30T07:01:01Z</time>
      </trkpt>
      <trkpt lat="45.84203" lon="2.9613">
        <ele>903</ele>
        <time>2021-05-30T07:01:02Z</time>
      </trkpt>
      <trkpt lat="45.84202" lon="2.96129">
        <ele>903</ele>
        <time>2021-05-30T07:01:03Z</time>
      </trkpt>
      <trkpt lat="45.84201" lon="2.96128">
        <ele>903</ele>
        <time>2021-05-30T07:01:04Z</time>
      </trkpt>
      <trkpt lat="45.842" lon="2.96127">
        <ele>903</ele>
        <time>2021-05-30T07:01:05Z</time>
      </trkpt>
      <trkpt lat="45.84199" lon="2.96126">
        <ele>903</ele>
        <time>2021-05-30T07:01:06Z</time>
      </trkpt>
      <trkpt lat="45.84198" lon="2.96124">
        <ele>903</ele>
        <time>2021-05-30T07:01:07Z</time>
      </trkpt>
      <trkpt lat="45.84197" lon="2.96123">
        <ele>903</ele>
        <time>2021-05-30T07:01:08Z</time>
      </trkpt>
      <trkpt lat="45.84196" lon="2.96122">
        <ele>903</ele>
        <time>2021-05-30T07:01:09Z</time>
      </trkpt>
      <trkpt lat="45.84196" lon="2.96121">
        <ele>903</ele>
        <time>2021-05-30T07:01:10Z</time>
      </trkpt>
      <trkpt lat="45.84195" lon="2.9612">
        <ele>903</ele>
        <time>2021-05-30T07:01:11Z</time>
      </trkpt>
      <trkpt lat="45.84193" lon="2.96119">
        <ele>903</ele>
        <time>2021-05-30T07:01:12Z</time>
      </trkpt>
      <trkpt lat="45.84193" lon="2.96118">
        <ele>903</ele>
        <time>2021-05-30T07:01:13Z</time>
      </trkpt>
      <trkpt lat="45.84192" lon="2.96116">
        <ele>903</ele>
        <time>2021-05-30T07:01:14Z</time>
      </trkpt>
      <trkpt lat="45.8419" lon="2.96115">
        <ele>903</ele>
        <time>2021-05-30T07:01:15Z</time>
      </trkpt>
      <trkpt lat="45.8419" lon="2.96114">
        <ele>903</ele>
        <time>2021-05-30T07:01:16Z</time>
      </trkpt>
      <trkpt lat="45.84189" lon="2.96112">
        <ele>903</ele>
        <time>2021-05-30T07:01:17Z</time>
      </trkpt>
      <trkpt lat="45.84187" lon="2.96111">
        <ele>903</ele>
        <time>2021-05-30T07:01:18Z</time>
      </trkpt>
      <trkpt lat="45.84187" lon="2.9611">
        <ele>903</ele>
        <time>2021-05-30T07:01:19Z</time>
      </trkpt>
      <trkpt lat="45.84186" lon="2.96108">
        <ele>903</ele>
        <time>2021-05-30T07:01:20Z</time>
      </trkpt>
      <trkpt lat="45.84185" lon="2.96107">
        <ele>903</ele>
        <time>2021-05-30T07:01:21Z</time>
      </trkpt>
      <trkpt lat="45.84184" lon="2.96106">
        <ele>903</ele>
        <time>2021-05-30T07:01:22Z</time>
      </trkpt>
      <trkpt lat="45.84183" lon="2.96104">
        <ele>903</ele>
        <time>2021-05-30T07:01:23Z</time>
      </trkpt>
      <trkpt lat="45.84182" lon="2.96103">
        <ele>903</ele>
        <time>2021-05-30T07:01:24Z</time>
      </trkpt>
      <trkpt lat="45.84181" lon="2.96102">
        <ele>903</ele>
        <time>2021-05-30T07:01:25Z</time>
      </trkpt>
      <trkpt lat="45.8418" lon="2.96101">
        <ele>903</ele>
        <time>2021-05-30T07:01:26Z</time>
      </trkpt>
      <trkpt lat="45.84179" lon="2.961">
        <ele>903</ele>
        <time>2021-05-30T07:01:27Z</time>
      </trkpt>
      <trkpt lat="45.84178" lon="2.96099">
        <ele>903</ele>
        <time>2021-05-30T07:01:28Z</time>
      </trkpt>
      <trkpt lat="45.84177" lon="2.96098">
        <ele>903</ele>
        <time>2021-05-30T07:01:29Z</time>
      </trkpt>
      <trkpt lat="45.84177" lon="2.96097">
        <ele>903</ele>
        <time>2021-05-30T07:01:30Z</time>
      </trkpt>
      <trkpt lat="45.84176" lon="2.96096">
        <ele>903</ele>
        <time>2021-05-30T07:01:31Z</time>
      </trkpt>
      <trkpt lat="45.84175" lon="2.96095">
        <ele>903</ele>
        <time>2021-05-30T07:01:32Z</time>
      </trkpt>
      <trkpt lat="45.84175" lon="2.96094">
        <ele>903</ele>
        <time>2021-05-30T07:01:33Z</time>
      </trkpt>
      <trkpt lat="45.84174" lon="2.96094">
        <ele>903</ele>
        <time>2021-05-30T07:01:34Z</time>
      </trkpt>
      <trkpt lat="45.84173" lon="2.96093">
        <ele>903</ele>
        <time>2021-05-30T07:01:35Z</time>
      </trkpt>
      <trkpt lat="45.84172" lon="2.96092">
        <ele>903</ele>
        <time>2021-05-30T07:01:36Z</time>
      </trkpt>
      <trkpt lat="45.84172" lon="2.96091">
        <ele>903</ele>
        <time>2021-05-30T07:01:37Z</time>
      </trkpt>
      <trkpt lat="45.84171" lon="2.96089">
        <ele>903</ele>
        <time>2021-05-30T07:01:38Z</time>
      </trkpt>
      <trkpt lat="45.84159" lon="2.96075">
        <ele>903</ele>
        <time>2021-05-30T07:01:45Z</time>
      </trkpt>
      <trkpt lat="45.84159" lon="2.96074">
        <ele>903</ele>
        <time>2021-05-30T07:01:46Z</time>
      </trkpt>
      <trkpt lat="45.84158" lon="2.96073">
        <ele>903</ele>
        <time>2021-05-30T07:01:47Z</time>
      </trkpt>
      <trkpt lat="45.8415" lon="2.9606">
        <ele>903</ele>
        <time>2021-05-30T07:01:54Z</time>
      </trkpt>
      <trkpt lat="45.8415" lon="2.9606">
        <ele>903</ele>
        <time>2021-05-30T07:01:55Z</time>
      </trkpt>
      <trkpt lat="45.8415" lon="2.96059">
        <ele>903</ele>
        <time>2021-05-30T07:01:56Z</time>
      </trkpt>
      <trkpt lat="45.84149" lon="2.96059">
        <ele>903</ele>
        <time>2021-05-30T07:01:57Z</time>
      </trkpt>
      <trkpt lat="45.84143" lon="2.96051">
        <ele>903</ele>
        <time>2021-05-30T07:02:02Z</time>
      </trkpt>
      <trkpt lat="45.84142" lon="2.9605">
        <ele>903</ele>
        <time>2021-05-30T07:02:03Z</time>
      </trkpt>
      <trkpt lat="45.84142" lon="2.9605">
        <ele>903</ele>
        <time>2021-05-30T07:02:04Z</time>
      </trkpt>
      <trkpt lat="45.84141" lon="2.96049">
        <ele>903</ele>
        <time>2021-05-30T07:02:05Z</time>
      </trkpt>
      <trkpt lat="45.84141" lon="2.96048">
        <ele>903</ele>
        <time>2021-05-30T07:02:06Z</time>
      </trkpt>
      <trkpt lat="45.8414" lon="2.96047">
        <ele>903</ele>
        <time>2021-05-30T07:02:07Z</time>
      </trkpt>
      <trkpt lat="45.84135" lon="2.9604">
        <ele>903</ele>
        <time>2021-05-30T07:02:10Z</time>
      </trkpt>
      <trkpt lat="45.84135" lon="2.9604">
        <ele>903</ele>
        <time>2021-05-30T07:02:11Z</time>
      </trkpt>
      <trkpt lat="45.84135" lon="2.96039">
        <ele>903</ele>
        <time>2021-05-30T07:02:12Z</time>
      </trkpt>
      <trkpt lat="45.84134" lon="2.96038">
        <ele>903</ele>
        <time>2021-05-30T07:02:13Z</time>
      </trkpt>
      <trkpt lat="45.84128" lon="2.96029">
        <ele>903</ele>
        <time>2021-05-30T07:02:16Z</time>
      </trkpt>
      <trkpt lat="45.84127" lon="2.96028">
        <ele>903</ele>
        <time>2021-05-30T07:02:17Z</time>
      </trkpt>
      <trkpt lat="45.84127" lon="2.96027">
        <ele>903</ele>
        <time>2021-05-30T07:02:18Z</time>
      </trkpt>
      <trkpt lat="45.84126" lon="2.96026">
        <ele>903</ele>
        <time>2021-05-30T07:02:19Z</time>
      </trkpt>
      <trkpt lat="45.84125" lon="2.96024">
        <ele>903</ele>
        <time>2021-05-30T07:02:20Z</time>
      </trkpt>
      <trkpt lat="45.84123" lon="2.96022">
        <ele>903</ele>
        <time>2021-05-30T07:02:21Z</time>
      </trkpt>
      <trkpt lat="45.84123" lon="2.9602">
        <ele>903</ele>
        <time>2021-05-30T07:02:22Z</time>
      </trkpt>
      <trkpt lat="45.84121" lon="2.96018">
        <ele>903</ele>
        <time>2021-05-30T07:02:23Z</time>
      </trkpt>
      <trkpt lat="45.84119" lon="2.96016">
        <ele>903</ele>
        <time>2021-05-30T07:02:24Z</time>
      </trkpt>
      <trkpt lat="45.84118" lon="2.96014">
        <ele>903</ele>
        <time>2021-05-30T07:02:25Z</time>
      </trkpt>
      <trkpt lat="45.84116" lon="2.96013">
        <ele>903</ele>
        <time>2021-05-30T07:02:26Z</time>
      </trkpt>
      <trkpt lat="45.84115" lon="2.96011">
        <ele>903</ele>
        <time>2021-05-30T07:02:27Z</time>
      </trkpt>
      <trkpt lat="45.84114" lon="2.96009">
        <ele>903</ele>
        <time>2021-05-30T07:02:28Z</time>
      </trkpt>
      <trkpt lat="45.84113" lon="2.96008">
        <ele>903</ele>
        <time>2021-05-30T07:02:29Z</time>
      </trkpt>
      <trkpt lat="45.84112" lon="2.96007">
        <ele>903</ele>
        <time>2021-05-30T07:02:30Z</time>
      </trkpt>
      <trkpt lat="45.84111" lon="2.96006">
        <ele>903</ele>
        <time>2021-05-30T07:02:31Z</time>
      </trkpt>
      <trkpt lat="45.84111" lon="2.96005">
        <ele>903</ele>
        <time>2021-05-30T07:02:32Z</time>
      </trkpt>
      <trkpt lat="45.84099" lon="2.95989">
        <ele>903</ele>
        <time>2021-05-30T07:02:37Z</time>
      </trkpt>
      <trkpt lat="45.84099" lon="2.95989">
        <ele>903</ele>
        <time>2021-05-30T07:02:38Z</time>
      </trkpt>
      <trkpt lat="45.84097" lon="2.95988">
        <ele>903</ele>
        <time>2021-05-30T07:02:39Z</time>
      </trkpt>
      <trkpt lat="45.84096" lon="2.95987">
        <ele>903</ele>
        <time>2021-05-30T07:02:40Z</time>
      </trkpt>
      <trkpt lat="45.84094" lon="2.95987">
        <ele>903</ele>
        <time>2021-05-30T07:02:41Z</time>
      </trkpt>
      <trkpt lat="45.84093" lon="2.95986">
        <ele>903</ele>
        <time>2021-05-30T07:02:42Z</time>
      </trkpt>
      <trkpt lat="45.84092" lon="2.95986">
        <ele>903</ele>
        <time>2021-05-30T07:02:43Z</time>
      </trkpt>
      <trkpt lat="45.84091" lon="2.95985">
        <ele>903</ele>
        <time>2021-05-30T07:02:44Z</time>
      </trkpt>
      <trkpt lat="45.8409" lon="2.95984">
        <ele>903</ele>
        <time>2021-05-30T07:02:45Z</time>
      </trkpt>
      <trkpt lat="45.84089" lon="2.95984">
        <ele>903</ele>
        <time>2021-05-30T07:02:46Z</time>
      </trkpt>
      <trkpt lat="45.84087" lon="2.95983">
        <ele>903</ele>
        <time>2021-05-30T07:02:47Z</time>
      </trkpt>
      <trkpt lat="45.84087" lon="2.95982">
        <ele>903</ele>
        <time>2021-05-30T07:02:48Z</time>
      </trkpt>
      <trkpt lat="45.84086" lon="2.95981">
        <ele>903</ele>
        <time>2021-05-30T07:02:49Z</time>
      </trkpt>
      <trkpt lat="45.84086" lon="2.95981">
        <ele>903</ele>
        <time>2021-05-30T07:02:50Z</time>
      </trkpt>
      <trkpt lat="45.84079" lon="2.95978">
        <ele>903</ele>
        <time>2021-05-30T07:02:53Z</time>
      </trkpt>
      <trkpt lat="45.84078" lon="2.95977">
        <ele>903</ele>
        <time>2021-05-30T07:02:54Z</time>
      </trkpt>
      <trkpt lat="45.84078" lon="2.95977">
        <ele>903</ele>
        <time>2021-05-30T07:02:55Z</time>
      </trkpt>
      <trkpt lat="45.84076" lon="2.95976">
        <ele>903</ele>
        <time>2021-05-30T07:02:56Z</time>
      </trkpt>
      <trkpt lat="45.84074" lon="2.95975">
        <ele>903</ele>
        <time>2021-05-30T07:02:57Z</time>
      </trkpt>
      <trkpt lat="45.84072" lon="2.95974">
        <ele>903</ele>
        <time>2021-05-30T07:02:58Z</time>
      </trkpt>
      <trkpt lat="45.8407" lon="2.95973">
        <ele>903</ele>
        <time>2021-05-30T07:02:59Z</time>
      </trkpt>
      <trkpt lat="45.84068" lon="2.95973">
        <ele>903</ele>
        <time>2021-05-30T07:03:00Z</time>
      </trkpt>
      <trkpt lat="45.84066" lon="2.95971">
        <ele>903</ele>
        <time>2021-05-30T07:03:01Z</time>
      </trkpt>
      <trkpt lat="45.84065" lon="2.9597">
        <ele>903</ele>
        <time>2021-05-30T07:03:02Z</time>
      </trkpt>
      <trkpt lat="45.84063" lon="2.95968">
        <ele>903</ele>
        <time>2021-05-30T07:03:03Z</time>
      </trkpt>
      <trkpt lat="45.84061" lon="2.95967">
        <ele>903</ele>
        <time>2021-05-30T07:03:04Z</time>
      </trkpt>
      <trkpt lat="45.8406" lon="2.95966">
        <ele>903</ele>
        <time>2021-05-30T07:03:05Z</time>
      </trkpt>
      <trkpt lat="45.84058" lon="2.95965">
        <ele>903</ele>
        <time>2021-05-30T07:03:06Z</time>
      </trkpt>
      <trkpt lat="45.84057" lon="2.95965">
        <ele>903</ele>
        <time>2021-05-30T07:03:07Z</time>
      </trkpt>
      <trkpt lat="45.84055" lon="2.95964">
        <ele>903</ele>
        <time>2021-05-30T07:03:08Z</time>
      </trkpt>
      <trkpt lat="45.84054" lon="2.95964">
        <ele>903</ele>
        <time>2021-05-30T07:03:09Z</time>
      </trkpt>
      <trkpt lat="45.84052" lon="2.95964">
        <ele>903</ele>
        <time>2021-05-30T07:03:10Z</time>
      </trkpt>
      <trkpt lat="45.8405" lon="2.95963">
        <ele>903</ele>
        <time>2021-05-30T07:03:11Z</time>
      </trkpt>
      <trkpt lat="45.84049" lon="2.95963">
        <ele>903</ele>
        <time>2021-05-30T07:03:12Z</time>
      </trkpt>
      <trkpt lat="45.84048" lon="2.95964">
        <ele>903</ele>
        <time>2021-05-30T07:03:13Z</time>
      </trkpt>
      <trkpt lat="45.84046" lon="2.95964">
        <ele>903</ele>
        <time>2021-05-30T07:03:14Z</time>
      </trkpt>
      <trkpt lat="45.84045" lon="2.95964">
        <ele>903</ele>
        <time>2021-05-30T07:03:15Z</time>
      </trkpt>
      <trkpt lat="45.84043" lon="2.95964">
        <ele>903</ele>
        <time>2021-05-30T07:03:16Z</time>
      </trkpt>
      <trkpt lat="45.84042" lon="2.95964">
        <ele>903</ele>
        <time>2021-05-30T07:03:17Z</time>
      </trkpt>
      <trkpt lat="45.84041" lon="2.95963">
        <ele>903</ele>
        <time>2021-05-30T07:03:18Z</time>
      </trkpt>
      <trkpt lat="45.84039" lon="2.95963">
        <ele>903</ele>
        <time>2021-05-30T07:03:19Z</time>
      </trkpt>
      <trkpt lat="45.84038" lon="2.95963">
        <ele>903</ele>
        <time>2021-05-30T07:03:20Z</time>
      </trkpt>
      <trkpt lat="45.84036" lon="2.95962">
        <ele>903</ele>
        <time>2021-05-30T07:03:21Z</time>
      </trkpt>
      <trkpt lat="45.84035" lon="2.95962">
        <ele>903</ele>
        <time>2021-05-30T07:03:22Z</time>
      </trkpt>
      <trkpt lat="45.84033" lon="2.95962">
        <ele>903</ele>
        <time>2021-05-30T07:03:23Z</time>
      </trkpt>
      <trkpt lat="45.84032" lon="2.95961">
        <ele>903</ele>
        <time>2021-05-30T07:03:24Z</time>
      </trkpt>
      <trkpt lat="45.84031" lon="2.95961">
        <ele>903</ele>
        <time>2021-05-30T07:03:25Z</time>
      </trkpt>
      <trkpt lat="45.84029" lon="2.95961">
        <ele>903</ele>
        <time>2021-05-30T07:03:26Z</time>
      </trkpt>
      <trkpt lat="45.84028" lon="2.95961">
        <ele>903</ele>
        <time>2021-05-30T07:03:27Z</time>
      </trkpt>
      <trkpt lat="45.84027" lon="2.95961">
        <ele>903</ele>
        <time>2021-05-30T07:03:28Z</time>
      </trkpt>
      <trkpt lat="45.84025" lon="2.95961">
        <ele>903</ele>
        <time>2021-05-30T07:03:29Z</time>
      </trkpt>
      <trkpt lat="45.84024" lon="2.9596">
        <ele>903</ele>
        <time>2021-05-30T07:03:30Z</time>
      </trkpt>
      <trkpt lat="45.84023" lon="2.9596">
        <ele>903</ele>
        <time>2021-05-30T07:03:31Z</time>
      </trkpt>
      <trkpt lat="45.84021" lon="2.9596">
        <ele>903</ele>
        <time>2021-05-30T07:03:32Z</time>
      </trkpt>
      <trkpt lat="45.8402" lon="2.95961">
        <ele>903</ele>
        <time>2021-05-30T07:03:32Z</time>
      </trkpt>
      <trkpt lat="45.84018" lon="2.95961">
        <ele>903</ele>
        <time>2021-05-30T07:03:33Z</time>
      </trkpt>
      <trkpt lat="45.84016" lon="2.95961">
        <ele>903</ele>
        <time>2021-05-30T07:03:34Z</time>
      </trkpt>
      <trkpt lat="45.84015" lon="2.95961">
        <ele>903</ele>
        <time>2021-05-30T07:03:35Z</time>
      </trkpt>
      <trkpt lat="45.84013" lon="2.95961">
        <ele>903</ele>
        <time>2021-05-30T07:03:36Z</time>
      </trkpt>
      <trkpt lat="45.84011" lon="2.95961">
        <ele>903</ele>
        <time>2021-05-30T07:03:37Z</time>
      </trkpt>
      <trkpt lat="45.8401" lon="2.95961">
        <ele>903</ele>
        <time>2021-05-30T07:03:38Z</time>
      </trkpt>
      <trkpt lat="45.84008" lon="2.9596">
        <ele>903</ele>
        <time>2021-05-30T07:03:39Z</time>
      </trkpt>
      <trkpt lat="45.84007" lon="2.9596">
        <ele>903</ele>
        <time>2021-05-30T07:03:40Z</time>
      </trkpt>
      <trkpt lat="45.84006" lon="2.9596">
        <ele>903</ele>
        <time>2021-05-30T07:03:41Z</time>
      </trkpt>
      <trkpt lat="45.84005" lon="2.95959">
        <ele>903</ele>
        <time>2021-05-30T07:03:42Z</time>
      </trkpt>
      <trkpt lat="45.84003" lon="2.95958">
        <ele>903</ele>
        <time>2021-05-30T07:03:43Z</time>
      </trkpt>
      <trkpt lat="45.84002" lon="2.95957">
        <ele>903</ele>
        <time>2021-05-30T07:03:44Z</time>
      </trkpt>
      <trkpt lat="45.84" lon="2.95956">
        <ele>903</ele>
        <time>2021-05-30T07:03:45Z</time>
      </trkpt>
      <trkpt lat="45.83999" lon="2.95955">
        <ele>903</ele>
        <time>2021-05-30T07:03:46Z</time>
      </trkpt>
      <trkpt lat="45.83998" lon="2.95954">
        <ele>903</ele>
        <time>2021-05-30T07:03:47Z</time>
      </trkpt>
      <trkpt lat="45.83997" lon="2.95954">
        <ele>903</ele>
        <time>2021-05-30T07:03:48Z</time>
      </trkpt>
      <trkpt lat="45.83995" lon="2.95954">
        <ele>903</ele>
        <time>2021-05-30T07:03:49Z</time>
      </trkpt>
      <trkpt lat="45.83994" lon="2.95954">
        <ele>903</ele>
        <time>2021-05-30T07:03:50Z</time>
      </trkpt>
      <trkpt lat="45.83993" lon="2.95954">
        <ele>903</ele>
        <time>2021-05-30T07:03:51Z</time>
      </trkpt>
      <trkpt lat="45.83992" lon="2.95954">
        <ele>903</ele>
        <time>2021-05-30T07:03:52Z</time>
      </trkpt>
      <trkpt lat="45.8399" lon="2.95954">
        <ele>903</ele>
        <time>2021-05-30T07:03:53Z</time>
      </trkpt>
      <trkpt lat="45.83989" lon="2.95955">
        <ele>903</ele>
        <time>2021-05-30T07:03:54Z</time>
      </trkpt>
      <trkpt lat="45.83988" lon="2.95955">
        <ele>903</ele>
        <time>2021-05-30T07:03:55Z</time>
      </trkpt>
      <trkpt lat="45.83987" lon="2.95956">
        <ele>903</ele>
        <time>2021-05-30T07:03:56Z</time>
      </trkpt>
      <trkpt lat="45.83986" lon="2.95957">
        <ele>903</ele>
        <time>2021-05-30T07:03:57Z</time>
      </trkpt>
      <trkpt lat="45.83985" lon="2.95957">
        <ele>903</ele>
        <time>2021-05-30T07:03:58Z</time>
      </trkpt>
      <trkpt lat="45.83984" lon="2.95957">
        <ele>903</ele>
        <time>2021-05-30T07:03:59Z</time>
      </trkpt>
      <trkpt lat="45.83982" lon="2.95957">
        <ele>903</ele>
        <time>2021-05-30T07:04:00Z</time>
      </trkpt>
      <trkpt lat="45.83979" lon="2.95956">
        <ele>903</ele>
        <time>2021-05-30T07:04:01Z</time>
      </trkpt>
      <trkpt lat="45.83978" lon="2.95956">
        <ele>903</ele>
        <time>2021-05-30T07:04:02Z</time>
      </trkpt>
      <trkpt lat="45.83976" lon="2.95956">
        <ele>903</ele>
        <time>2021-05-30T07:04:03Z</time>
      </trkpt>
      <trkpt lat="45.83974" lon="2.95956">
        <ele>903</ele>
        <time>2021-05-30T07:04:04Z</time>
      </trkpt>
      <trkpt lat="45.83972" lon="2.95956">
        <ele>903</ele>
        <time>2021-05-30T07:04:05Z</time>
      </trkpt>
      <trkpt lat="45.8397" lon="2.95957">
        <ele>903</ele>
        <time>2021-05-30T07:04:06Z</time>
      </trkpt>
      <trkpt lat="45.83969" lon="2.95957">
        <ele>903</ele>
        <time>2021-05-30T07:04:07Z</time>
      </trkpt>
      <trkpt lat="45.83967" lon="2.95957">
        <ele>903</ele>
        <time>2021-05-30T07:04:08Z</time>
      </trkpt>
      <trkpt lat="45.83966" lon="2.95957">
        <ele>903</ele>
        <time>2021-05-30T07:04:09Z</time>
      </trkpt>
      <trkpt lat="45.83965" lon="2.95957">
        <ele>903</ele>
        <time>2021-05-30T07:04:10Z</time>
      </trkpt>
      <trkpt lat="45.83964" lon="2.95957">
        <ele>903</ele>
        <time>2021-05-30T07:04:11Z</time>
      </trkpt>
      <trkpt lat="45.83963" lon="2.95957">
        <ele>903</ele>
        <time>2021-05-30T07:04:12Z</time>
      </trkpt>
      <trkpt lat="45.83962" lon="2.95957">
        <ele>903</ele>
        <time>2021-05-30T07:04:13Z</time>
      </trkpt>
      <trkpt lat="45.83957" lon="2.95956">
        <ele>903</ele>
        <time>2021-05-30T07:04:22Z</time>
      </trkpt>
      <trkpt lat="45.83957" lon="2.95956">
        <ele>903</ele>
        <time>2021-05-30T07:04:23Z</time>
      </trkpt>
      <trkpt lat="45.83956" lon="2.95956">
        <ele>903</ele>
        <time>2021-05-30T07:04:24Z</time>
      </trkpt>
      <trkpt lat="45.83955" lon="2.95956">
        <ele>903</ele>
        <time>2021-05-30T07:04:25Z</time>
      </trkpt>
      <trkpt lat="45.83955" lon="2.95956">
        <ele>903</ele>
        <time>2021-05-30T07:04:26Z</time>
      </trkpt>
      <trkpt lat="45.83954" lon="2.95956">
        <ele>903</ele>
        <time>2021-05-30T07:04:27Z</time>
      </trkpt>
      <trkpt lat="45.83954" lon="2.95956">
        <ele>903</ele>
        <time>2021-05-30T07:04:28Z</time>
      </trkpt>
      <trkpt lat="45.83952" lon="2.95957">
        <ele>903</ele>
        <time>2021-05-30T07:04:29Z</time>
      </trkpt>
      <trkpt lat="45.83951" lon="2.95957">
        <ele>903</ele>
        <time>2021-05-30T07:04:30Z</time>
      </trkpt>
      <trkpt lat="45.8395" lon="2.95958">
        <ele>903</ele>
        <time>2021-05-30T07:04:31Z</time>
      </trkpt>
      <trkpt lat="45.83949" lon="2.95958">
        <ele>903</ele>
        <time>2021-05-30T07:04:32Z</time>
      </trkpt>
      <trkpt lat="45.83947" lon="2.95958">
        <ele>903</ele>
        <time>2021-05-30T07:04:33Z</time>
      </trkpt>
      <trkpt lat="45.83946" lon="2.95958">
        <ele>903</ele>
        <time>2021-05-30T07:04:34Z</time>
      </trkpt>
      <trkpt lat="45.83945" lon="2.95958">
        <ele>903</ele>
        <time>2021-05-30T07:04:35Z</time>
      </trkpt>
      <trkpt lat="45.83944" lon="2.95958">
        <ele>903</ele>
        <time>2021-05-30T07:04:36Z</time>
      </trkpt>
      <trkpt lat="45.83944" lon="2.95958">
        <ele>903</ele>
        <time>2021-05-30T07:04:37Z</time>
      </trkpt>
      <trkpt lat="45.83943" lon="2.95959">
        <ele>903</ele>
        <time>2021-05-30T07:04:38Z</time>
      </trkpt>
      <trkpt lat="45.83942" lon="2.95959">
        <ele>903</ele>
        <time>2021-05-30T07:04:39Z</time>
      </trkpt>
      <trkpt lat="45.83941" lon="2.9596">
        <ele>903</ele>
        <time>2021-05-30T07:04:40Z</time>
      </trkpt>
      <trkpt lat="45.8394" lon="2.95961">
        <ele>903</ele>
        <time>2021-05-30T07:04:41Z</time>
      </trkpt>
      <trkpt lat="45.83939" lon="2.95962">
        <ele>903</ele>
        <time>2021-05-30T07:04:42Z</time>
      </trkpt>
      <trkpt lat="45.83938" lon="2.95963">
        <ele>903</ele>
        <time>2021-05-30T07:04:43Z</time>
      </trkpt>
      <trkpt lat="45.83938" lon="2.95963">
        <ele>903</ele>
        <time>2021-05-30T07:04:44Z</time>
      </trkpt>
      <trkpt lat="45.83937" lon="2.95964">
        <ele>903</ele>
        <time>2021-05-30T07:04:45Z</time>
      </trkpt>
      <trkpt lat="45.83936" lon="2.95964">
        <ele>903</ele>
        <time>2021-05-30T07:04:46Z</time>
      </trkpt>
      <trkpt lat="45.83935" lon="2.95963">
        <ele>903</ele>
        <time>2021-05-30T07:04:47Z</time>
      </trkpt>
      <trkpt lat="45.83934" lon="2.95963">
        <ele>903</ele>
        <time>2021-05-30T07:04:48Z</time>
      </trkpt>
      <trkpt lat="45.83933" lon="2.95962">
        <ele>903</ele>
        <time>2021-05-30T07:04:49Z</time>
      </trkpt>
      <trkpt lat="45.83933" lon="2.95961">
        <ele>903</ele>
        <time>2021-05-30T07:04:50Z</time>
      </trkpt>
      <trkpt lat="45.83928" lon="2.95959">
        <ele>903</ele>
        <time>2021-05-30T07:04:52Z</time>
      </trkpt>
      <trkpt lat="45.83928" lon="2.95959">
        <ele>903</ele>
        <time>2021-05-30T07:04:53Z</time>
      </trkpt>
      <trkpt lat="45.83928" lon="2.95959">
        <ele>903</ele>
        <time>2021-05-30T07:04:54Z</time>
      </trkpt>
      <trkpt lat="45.83927" lon="2.95959">
        <ele>903</ele>
        <time>2021-05-30T07:04:55Z</time>
      </trkpt>
      <trkpt lat="45.83926" lon="2.95959">
        <ele>903</ele>
        <time>2021-05-30T07:04:56Z</time>
      </trkpt>
      <trkpt lat="45.83925" lon="2.95959">
        <ele>903</ele>
        <time>2021-05-30T07:04:57Z</time>
      </trkpt>
      <trkpt lat="45.83924" lon="2.95959">
        <ele>903</ele>
        <time>2021-05-30T07:04:58Z</time>
      </trkpt>
      <trkpt lat="45.83924" lon="2.95959">
        <ele>903</ele>
        <time>2021-05-30T07:04:59Z</time>
      </trkpt>
      <trkpt lat="45.83923" lon="2.95959">
        <ele>903</ele>
        <time>2021-05-30T07:05:00Z</time>
      </trkpt>
      <trkpt lat="45.83921" lon="2.95959">
        <ele>903</ele>
        <time>2021-05-30T07:05:01Z</time>
      </trkpt>
      <trkpt lat="45.8392" lon="2.95959">
        <ele>903</ele>
        <time>2021-05-30T07:05:02Z</time>
      </trkpt>
      <trkpt lat="45.83919" lon="2.95959">
        <ele>903</ele>
        <time>2021-05-30T07:05:03Z</time>
      </trkpt>
      <trkpt lat="45.83917" lon="2.95959">
        <ele>903</ele>
        <time>2021-05-30T07:05:04Z</time>
      </trkpt>
      <trkpt lat="45.83916" lon="2.95959">
        <ele>903</ele>
        <time>2021-05-30T07:05:05Z</time>
      </trkpt>
      <trkpt lat="45.83914" lon="2.95959">
        <ele>903</ele>
        <time>2021-05-30T07:05:06Z</time>
      </trkpt>
      <trkpt lat="45.83913" lon="2.95959">
        <ele>903</ele>
        <time>2021-05-30T07:05:07Z</time>
      </trkpt>
      <trkpt lat="45.83912" lon="2.95959">
        <ele>903</ele>
        <time>2021-05-30T07:05:08Z</time>
      </trkpt>
      <trkpt lat="45.8391" lon="2.95958">
        <ele>903</ele>
        <time>2021-05-30T07:05:09Z</time>
      </trkpt>
      <trkpt lat="45.83909" lon="2.95958">
        <ele>903</ele>
        <time>2021-05-30T07:05:10Z</time>
      </trkpt>
      <trkpt lat="45.83907" lon="2.95957">
        <ele>903</ele>
        <time>2021-05-30T07:05:11Z</time>
      </trkpt>
      <trkpt lat="45.83906" lon="2.95957">
        <ele>903</ele>
        <time>2021-05-30T07:05:12Z</time>
      </trkpt>
      <trkpt lat="45.83905" lon="2.95956">
        <ele>903</ele>
        <time>2021-05-30T07:05:13Z</time>
      </trkpt>
      <trkpt lat="45.83903" lon="2.95956">
        <ele>903</ele>
        <time>2021-05-30T07:05:14Z</time>
      </trkpt>
      <trkpt lat="45.83902" lon="2.95956">
        <ele>903</ele>
        <time>2021-05-30T07:05:15Z</time>
      </trkpt>
      <trkpt lat="45.83901" lon="2.95956">
        <ele>903</ele>
        <time>2021-05-30T07:05:16Z</time>
      </trkpt>
      <trkpt lat="45.839" lon="2.95956">
        <ele>903</ele>
        <time>2021-05-30T07:05:17Z</time>
      </trkpt>
      <trkpt lat="45.83899" lon="2.95956">
        <ele>903</ele>
        <time>2021-05-30T07:05:18Z</time>
      </trkpt>
      <trkpt lat="45.83899" lon="2.95956">
        <ele>903</ele>
        <time>2021-05-30T07:05:19Z</time>
      </trkpt>
      <trkpt lat="45.83898" lon="2.95956">
        <ele>903</ele>
        <time>2021-05-30T07:05:20Z</time>
      </trkpt>
      <trkpt lat="45.83897" lon="2.95956">
        <ele>903</ele>
        <time>2021-05-30T07:05:21Z</time>
      </trkpt>
      <trkpt lat="45.83896" lon="2.95956">
        <ele>903</ele>
        <time>2021-05-30T07:05:22Z</time>
      </trkpt>
      <trkpt lat="45.83895" lon="2.95956">
        <ele>903</ele>
        <time>2021-05-30T07:05:23Z</time>
      </trkpt>
      <trkpt lat="45.83894" lon="2.95956">
        <ele>903</ele>
        <time>2021-05-30T07:05:24Z</time>
      </trkpt>
      <trkpt lat="45.83892" lon="2.95956">
        <ele>903</ele>
        <time>2021-05-30T07:05:25Z</time>
      </trkpt>
      <trkpt lat="45.83891" lon="2.95956">
        <ele>903</ele>
        <time>2021-05-30T07:05:26Z</time>
      </trkpt>
      <trkpt lat="45.8389" lon="2.95956">
        <ele>903</ele>
        <time>2021-05-30T07:05:27Z</time>
      </trkpt>
      <trkpt lat="45.83888" lon="2.95956">
        <ele>903</ele>
        <time>2021-05-30T07:05:28Z</time>
      </trkpt>
      <trkpt lat="45.83887" lon="2.95956">
        <ele>903</ele>
        <time>2021-05-30T07:05:29Z</time>
      </trkpt>
      <trkpt lat="45.83885" lon="2.95955">
        <ele>903</ele>
        <time>2021-05-30T07:05:30Z</time>
      </trkpt>
      <trkpt lat="45.83884" lon="2.95955">
        <ele>903</ele>
        <time>2021-05-30T07:05:31Z</time>
      </trkpt>
      <trkpt lat="45.83883" lon="2.95955">
        <ele>903</ele>
        <time>2021-05-30T07:05:32Z</time>
      </trkpt>
      <trkpt lat="45.83881" lon="2.95955">
        <ele>903</ele>
        <time>2021-05-30T07:05:33Z</time>
      </trkpt>
      <trkpt lat="45.8388" lon="2.95954">
        <ele>903</ele>
        <time>2021-05-30T07:05:34Z</time>
      </trkpt>
      <trkpt lat="45.83879" lon="2.95954">
        <ele>903</ele>
        <time>2021-05-30T07:05:35Z</time>
      </trkpt>
      <trkpt lat="45.83878" lon="2.95954">
        <ele>903</ele>
        <time>2021-05-30T07:05:36Z</time>
      </trkpt>
      <trkpt lat="45.83876" lon="2.95954">
        <ele>903</ele>
        <time>2021-05-30T07:05:37Z</time>
      </trkpt>
      <trkpt lat="45.83876" lon="2.95954">
        <ele>903</ele>
        <time>2021-05-30T07:05:38Z</time>
      </trkpt>
      <trkpt lat="45.83875" lon="2.95954">
        <ele>903</ele>
        <time>2021-05-30T07:05:39Z</time>
      </trkpt>
      <trkpt lat="45.83873" lon="2.95954">
        <ele>903</ele>
        <time>2021-05-30T07:05:40Z</time>
      </trkpt>
      <trkpt lat="45.83873" lon="2.95953">
        <ele>903</ele>
        <time>2021-05-30T07:05:41Z</time>
      </trkpt>
      <trkpt lat="45.83872" lon="2.95953">
        <ele>903</ele>
        <time>2021-05-30T07:05:42Z</time>
      </trkpt>
      <trkpt lat="45.8387" lon="2.95953">
        <ele>903</ele>
        <time>2021-05-30T07:05:43Z</time>
      </trkpt>
      <trkpt lat="45.83868" lon="2.95953">
        <ele>903</ele>
        <time>2021-05-30T07:05:44Z</time>
      </trkpt>
      <trkpt lat="45.83867" lon="2.95953">
        <ele>903</ele>
        <time>2021-05-30T07:05:45Z</time>
      </trkpt>
      <trkpt lat="45.83865" lon="2.95953">
        <ele>903</ele>
        <time>2021-05-30T07:05:46Z</time>
      </trkpt>
      <trkpt lat="45.83864" lon="2.95953">
        <ele>903</ele>
        <time>2021-05-30T07:05:47Z</time>
      </trkpt>
      <trkpt lat="45.83862" lon="2.95953">
        <ele>903</ele>
        <time>2021-05-30T07:05:48Z</time>
      </trkpt>
      <trkpt lat="45.83861" lon="2.95953">
        <ele>903</ele>
        <time>2021-05-30T07:05:49Z</time>
      </trkpt>
      <trkpt lat="45.8386" lon="2.95952">
        <ele>903</ele>
        <time>2021-05-30T07:05:50Z</time>
      </trkpt>
      <trkpt lat="45.83858" lon="2.95952">
        <ele>903</ele>
        <time>2021-05-30T07:05:51Z</time>
      </trkpt>
      <trkpt lat="45.83857" lon="2.95952">
        <ele>903</ele>
        <time>2021-05-30T07:05:52Z</time>
      </trkpt>
      <trkpt lat="45.83855" lon="2.95952">
        <ele>903</ele>
        <time>2021-05-30T07:05:53Z</time>
      </trkpt>
      <trkpt lat="45.83855" lon="2.95951">
        <ele>903</ele>
        <time>2021-05-30T07:05:54Z</time>
      </trkpt>
      <trkpt lat="45.83853" lon="2.95951">
        <ele>903</ele>
        <time>2021-05-30T07:05:55Z</time>
      </trkpt>
      <trkpt lat="45.83852" lon="2.95951">
        <ele>903</ele>
        <time>2021-05-30T07:05:56Z</time>
      </trkpt>
      <trkpt lat="45.83851" lon="2.95951">
        <ele>903</ele>
        <time>2021-05-30T07:05:57Z</time>
      </trkpt>
      <trkpt lat="45.83849" lon="2.9595">
        <ele>903</ele>
        <time>2021-05-30T07:05:58Z</time>
      </trkpt>
      <trkpt lat="45.83848" lon="2.9595">
        <ele>903</ele>
        <time>2021-05-30T07:05:59Z</time>
      </trkpt>
      <trkpt lat="45.83846" lon="2.9595">
        <ele>903</ele>
        <time>2021-05-30T07:06:00Z</time>
      </trkpt>
      <trkpt lat="45.83846" lon="2.95949">
        <ele>903</ele>
        <time>2021-05-30T07:06:01Z</time>
      </trkpt>
      <trkpt lat="45.83844" lon="2.95949">
        <ele>903</ele>
        <time>2021-05-30T07:06:02Z</time>
      </trkpt>
      <trkpt lat="45.83843" lon="2.95949">
        <ele>903</ele>
        <time>2021-05-30T07:06:03Z</time>
      </trkpt>
      <trkpt lat="45.83841" lon="2.95949">
        <ele>903</ele>
        <time>2021-05-30T07:06:04Z</time>
      </trkpt>
      <trkpt lat="45.8384" lon="2.95949">
        <ele>903</ele>
        <time>2021-05-30T07:06:05Z</time>
      </trkpt>
      <trkpt lat="45.83839" lon="2.95949">
        <ele>903</ele>
        <time>2021-05-30T07:06:06Z</time>
      </trkpt>
      <trkpt lat="45.83838" lon="2.95949">
        <ele>903</ele>
        <time>2021-05-30T07:06:07Z</time>
      </trkpt>
      <trkpt lat="45.83837" lon="2.95948">
        <ele>903</ele>
        <time>2021-05-30T07:06:08Z</time>
      </trkpt>
      <trkpt lat="45.83836" lon="2.95948">
        <ele>903</ele>
        <time>2021-05-30T07:06:09Z</time>
      </trkpt>
      <trkpt lat="45.83835" lon="2.95947">
        <ele>903</ele>
        <time>2021-05-30T07:06:10Z</time>
      </trkpt>
      <trkpt lat="45.83834" lon="2.95947">
        <ele>903</ele>
        <time>2021-05-30T07:06:11Z</time>
      </trkpt>
      <trkpt lat="45.83832" lon="2.95947">
        <ele>903</ele>
        <time>2021-05-30T07:06:12Z</time>
      </trkpt>
      <trkpt lat="45.83831" lon="2.95947">
        <ele>903</ele>
        <time>2021-05-30T07:06:13Z</time>
      </trkpt>
      <trkpt lat="45.83829" lon="2.95946">
        <ele>903</ele>
        <time>2021-05-30T07:06:14Z</time>
      </trkpt>
      <trkpt lat="45.83828" lon="2.95946">
        <ele>903</ele>
        <time>2021-05-30T07:06:15Z</time>
      </trkpt>
      <trkpt lat="45.83825" lon="2.95947">
        <ele>903</ele>
        <time>2021-05-30T07:06:16Z</time>
      </trkpt>
      <trkpt lat="45.83823" lon="2.95947">
        <ele>903</ele>
        <time>2021-05-30T07:06:17Z</time>
      </trkpt>
      <trkpt lat="45.83822" lon="2.95947">
        <ele>903</ele>
        <time>2021-05-30T07:06:18Z</time>
      </trkpt>
      <trkpt lat="45.8382" lon="2.95947">
        <ele>903</ele>
        <time>2021-05-30T07:06:19Z</time>
      </trkpt>
      <trkpt lat="45.83819" lon="2.95947">
        <ele>903</ele>
        <time>2021-05-30T07:06:20Z</time>
      </trkpt>
      <trkpt lat="45.83817" lon="2.95948">
        <ele>903</ele>
        <time>2021-05-30T07:06:21Z</time>
      </trkpt>
      <trkpt lat="45.83816" lon="2.95948">
        <ele>903</ele>
        <time>2021-05-30T07:06:22Z</time>
      </trkpt>
      <trkpt lat="45.83814" lon="2.95948">
        <ele>903</ele>
        <time>2021-05-30T07:06:23Z</time>
      </trkpt>
      <trkpt lat="45.83813" lon="2.95948">
        <ele>903</ele>
        <time>2021-05-30T07:06:24Z</time>
      </trkpt>
      <trkpt lat="45.83811" lon="2.95948">
        <ele>903</ele>
        <time>2021-05-30T07:06:25Z</time>
      </trkpt>
      <trkpt lat="45.8381" lon="2.95949">
        <ele>903</ele>
        <time>2021-05-30T07:06:26Z</time>
      </trkpt>
      <trkpt lat="45.83809" lon="2.95949">
        <ele>903</ele>
        <time>2021-05-30T07:06:27Z</time>
      </trkpt>
      <trkpt lat="45.83807" lon="2.95949">
        <ele>903</ele>
        <time>2021-05-30T07:06:28Z</time>
      </trkpt>
      <trkpt lat="45.83807" lon="2.95948">
        <ele>903</ele>
        <time>2021-05-30T07:06:29Z</time>
      </trkpt>
      <trkpt lat="45.83805" lon="2.95948">
        <ele>903</ele>
        <time>2021-05-30T07:06:30Z</time>
      </trkpt>
      <trkpt lat="45.83804" lon="2.95948">
        <ele>903</ele>
        <time>2021-05-30T07:06:31Z</time>
      </trkpt>
      <trkpt lat="45.83802" lon="2.95947">
        <ele>903</ele>
        <time>2021-05-30T07:06:32Z</time>
      </trkpt>
      <trkpt lat="45.83801" lon="2.95947">
        <ele>903</ele>
        <time>2021-05-30T07:06:33Z</time>
      </trkpt>
      <trkpt lat="45.838" lon="2.95947">
        <ele>903</ele>
        <time>2021-05-30T07:06:34Z</time>
      </trkpt>
      <trkpt lat="45.83799" lon="2.95946">
        <ele>903</ele>
        <time>2021-05-30T07:06:35Z</time>
      </trkpt>
      <trkpt lat="45.83798" lon="2.95946">
        <ele>903</ele>
        <time>2021-05-30T07:06:36Z</time>
      </trkpt>
      <trkpt lat="45.83797" lon="2.95945">
        <ele>903</ele>
        <time>2021-05-30T07:06:37Z</time>
      </trkpt>
      <trkpt lat="45.83797" lon="2.95945">
        <ele>903</ele>
        <time>2021-05-30T07:06:38Z</time>
      </trkpt>
      <trkpt lat="45.83796" lon="2.95945">
        <ele>903</ele>
        <time>2021-05-30T07:06:39Z</time>
      </trkpt>
      <trkpt lat="45.83795" lon="2.95944">
        <ele>903</ele>
        <time>2021-05-30T07:06:40Z</time>
      </trkpt>
      <trkpt lat="45.83795" lon="2.95944">
        <ele>903</ele>
        <time>2021-05-30T07:06:41Z</time>
      </trkpt>
      <trkpt lat="45.83794" lon="2.95943">
        <ele>903</ele>
        <time>2021-05-30T07:06:42Z</time>
      </trkpt>
      <trkpt lat="45.83793" lon="2.95942">
        <ele>903</ele>
        <time>2021-05-30T07:06:43Z</time>
      </trkpt>
      <trkpt lat="45.83793" lon="2.9594">
        <ele>903</ele>
        <time>2021-05-30T07:06:45Z</time>
      </trkpt>
      <trkpt lat="45.83793" lon="2.9594">
        <ele>903</ele>
        <time>2021-05-30T07:06:46Z</time>
      </trkpt>
      <trkpt lat="45.83792" lon="2.95924">
        <ele>903</ele>
        <time>2021-05-30T07:07:20Z</time>
      </trkpt>
      <trkpt lat="45.83792" lon="2.95924">
        <ele>903</ele>
        <time>2021-05-30T07:07:21Z</time>
      </trkpt>
      <trkpt lat="45.83792" lon="2.95924">
        <ele>903</ele>
        <time>2021-05-30T07:07:22Z</time>
      </trkpt>
      <trkpt lat="45.83791" lon="2.95924">
        <ele>903</ele>
        <time>2021-05-30T07:07:23Z</time>
      </trkpt>
      <trkpt lat="45.83789" lon="2.9591">
        <ele>903</ele>
        <time>2021-05-30T07:07:35Z</time>
      </trkpt>
      <trkpt lat="45.83789" lon="2.95909">
        <ele>903</ele>
        <time>2021-05-30T07:07:36Z</time>
      </trkpt>
      <trkpt lat="45.83789" lon="2.95909">
        <ele>903</ele>
        <time>2021-05-30T07:07:37Z</time>
      </trkpt>
      <trkpt lat="45.83789" lon="2.95908">
        <ele>903</ele>
        <time>2021-05-30T07:07:38Z</time>
      </trkpt>
      <trkpt lat="45.83789" lon="2.95907">
        <ele>903</ele>
        <time>2021-05-30T07:07:39Z</time>
      </trkpt>
      <trkpt lat="45.83789" lon="2.95906">
        <ele>903</ele>
        <time>2021-05-30T07:07:40Z</time>
      </trkpt>
      <trkpt lat="45.83789" lon="2.95905">
        <ele>903</ele>
        <time>2021-05-30T07:07:41Z</time>
      </trkpt>
      <trkpt lat="45.83789" lon="2.95904">
        <ele>903</ele>
        <time>2021-05-30T07:07:42Z</time>
      </trkpt>
      <trkpt lat="45.83789" lon="2.95903">
        <ele>903</ele>
        <time>2021-05-30T07:07:43Z</time>
      </trkpt>
      <trkpt lat="45.83788" lon="2.95902">
        <ele>903</ele>
        <time>2021-05-30T07:07:44Z</time>
      </trkpt>
      <trkpt lat="45.83788" lon="2.95901">
        <ele>903</ele>
        <time>2021-05-30T07:07:45Z</time>
      </trkpt>
      <trkpt lat="45.83788" lon="2.95899">
        <ele>903</ele>
        <time>2021-05-30T07:07:46Z</time>
      </trkpt>
      <trkpt lat="45.83788" lon="2.95898">
        <ele>903</ele>
        <time>2021-05-30T07:07:47Z</time>
      </trkpt>
      <trkpt lat="45.83788" lon="2.95897">
        <ele>903</ele>
        <time>2021-05-30T07:07:47Z</time>
      </trkpt>
      <trkpt lat="45.83788" lon="2.95895">
        <ele>903</ele>
        <time>2021-05-30T07:07:48Z</time>
      </trkpt>
      <trkpt lat="45.83788" lon="2.95894">
        <ele>903</ele>
        <time>2021-05-30T07:07:49Z</time>
      </trkpt>
      <trkpt lat="45.83788" lon="2.95892">
        <ele>903</ele>
        <time>2021-05-30T07:07:50Z</time>
      </trkpt>
      <trkpt lat="45.83788" lon="2.95891">
        <ele>903</ele>
        <time>2021-05-30T07:07:51Z</time>
      </trkpt>
      <trkpt lat="45.83788" lon="2.95889">
        <ele>903</ele>
        <time>2021-05-30T07:07:52Z</time>
      </trkpt>
      <trkpt lat="45.83787" lon="2.95888">
        <ele>903</ele>
        <time>2021-05-30T07:07:53Z</time>
      </trkpt>
      <trkpt lat="45.83787" lon="2.95887">
        <ele>903</ele>
        <time>2021-05-30T07:07:54Z</time>
      </trkpt>
      <trkpt lat="45.83787" lon="2.95887">
        <ele>903</ele>
        <time>2021-05-30T07:07:55Z</time>
      </trkpt>
      <trkpt lat="45.83787" lon="2.95886">
        <ele>903</ele>
        <time>2021-05-30T07:07:56Z</time>
      </trkpt>
      <trkpt lat="45.83787" lon="2.95885">
        <ele>903</ele>
        <time>2021-05-30T07:07:57Z</time>
      </trkpt>
      <trkpt lat="45.83787" lon="2.95885">
        <ele>903</ele>
        <time>2021-05-30T07:07:58Z</time>
      </trkpt>
      <trkpt lat="45.83788" lon="2.95884">
        <ele>903</ele>
        <time>2021-05-30T07:07:59Z</time>
      </trkpt>
      <trkpt lat="45.83789" lon="2.95878">
        <ele>903</ele>
        <time>2021-05-30T07:08:12Z</time>
      </trkpt>
      <trkpt lat="45.8379" lon="2.95878">
        <ele>903</ele>
        <time>2021-05-30T07:08:13Z</time>
      </trkpt>
      <trkpt lat="45.83789" lon="2.95877">
        <ele>903</ele>
        <time>2021-05-30T07:08:14Z</time>
      </trkpt>
      <trkpt lat="45.83789" lon="2.95877">
        <ele>903</ele>
        <time>2021-05-30T07:08:15Z</time>
      </trkpt>
      <trkpt lat="45.83789" lon="2.95875">
        <ele>903</ele>
        <time>2021-05-30T07:08:16Z</time>
      </trkpt>
      <trkpt lat="45.83789" lon="2.95874">
        <ele>903</ele>
        <time>2021-05-30T07:08:17Z</time>
      </trkpt>
      <trkpt lat="45.83789" lon="2.95873">
        <ele>903</ele>
        <time>2021-05-30T07:08:18Z</time>
      </trkpt>
      <trkpt lat="45.83789" lon="2.95872">
        <ele>903</ele>
        <time>2021-05-30T07:08:19Z</time>
      </trkpt>
      <trkpt lat="45.83789" lon="2.95871">
        <ele>903</ele>
        <time>2021-05-30T07:08:20Z</time>
      </trkpt>
      <trkpt lat="45.83789" lon="2.9587">
        <ele>903</ele>
        <time>2021-05-30T07:08:21Z</time>
      </trkpt>
      <trkpt lat="45.83789" lon="2.95869">
        <ele>903</ele>
        <time>2021-05-30T07:08:22Z</time>
      </trkpt>
      <trkpt lat="45.83789" lon="2.95868">
        <ele>903</ele>
        <time>2021-05-30T07:08:23Z</time>
      </trkpt>
      <trkpt lat="45.83789" lon="2.95867">
        <ele>903</ele>
        <time>2021-05-30T07:08:24Z</time>
      </trkpt>
      <trkpt lat="45.83789" lon="2.95866">
        <ele>903</ele>
        <time>2021-05-30T07:08:25Z</time>
      </trkpt>
      <trkpt lat="45.83789" lon="2.95865">
        <ele>903</ele>
        <time>2021-05-30T07:08:26Z</time>
      </trkpt>
      <trkpt lat="45.83789" lon="2.95864">
        <ele>903</ele>
        <time>2021-05-30T07:08:27Z</time>
      </trkpt>
      <trkpt lat="45.83789" lon="2.95863">
        <ele>903</ele>
        <time>2021-05-30T07:08:28Z</time>
      </trkpt>
      <trkpt lat="45.83789" lon="2.95862">
        <ele>903</ele>
        <time>2021-05-30T07:08:29Z</time>
      </trkpt>
      <trkpt lat="45.83789" lon="2.95861">
        <ele>903</ele>
        <time>2021-05-30T07:08:30Z</time>
      </trkpt>
      <trkpt lat="45.83789" lon="2.9586">
        <ele>903</ele>
        <time>2021-05-30T07:08:31Z</time>
      </trkpt>
      <trkpt lat="45.83789" lon="2.95859">
        <ele>903</ele>
        <time>2021-05-30T07:08:32Z</time>
      </trkpt>
      <trkpt lat="45.83789" lon="2.95858">
        <ele>903</ele>
        <time>2021-05-30T07:08:33Z</time>
      </trkpt>
      <trkpt lat="45.83789" lon="2.95857">
        <ele>903</ele>
        <time>2021-05-30T07:08:34Z</time>
      </trkpt>
      <trkpt lat="45.83789" lon="2.95857">
        <ele>903</ele>
        <time>2021-05-30T07:08:35Z</time>
      </trkpt>
      <trkpt lat="45.83789" lon="2.95856">
        <ele>903</ele>
        <time>2021-05-30T07:08:36Z</time>
      </trkpt>
      <trkpt lat="45.83789" lon="2.95855">
        <ele>903</ele>
        <time>2021-05-30T07:08:37Z</time>
      </trkpt>
      <trkpt lat="45.83789" lon="2.95854">
        <ele>903</ele>
        <time>2021-05-30T07:08:38Z</time>
      </trkpt>
      <trkpt lat="45.83789" lon="2.95853">
        <ele>903</ele>
        <time>2021-05-30T07:08:39Z</time>
      </trkpt>
      <trkpt lat="45.8379" lon="2.95838">
        <ele>903</ele>
        <time>2021-05-30T07:08:48Z</time>
      </trkpt>
      <trkpt lat="45.8379" lon="2.95838">
        <ele>903</ele>
        <time>2021-05-30T07:08:49Z</time>
      </trkpt>
      <trkpt lat="45.83789" lon="2.95837">
        <ele>903</ele>
        <time>2021-05-30T07:08:50Z</time>
      </trkpt>
      <trkpt lat="45.83789" lon="2.95836">
        <ele>903</ele>
        <time>2021-05-30T07:08:51Z</time>
      </trkpt>
      <trkpt lat="45.83789" lon="2.95835">
        <ele>903</ele>
        <time>2021-05-30T07:08:52Z</time>
      </trkpt>
      <trkpt lat="45.83788" lon="2.95834">
        <ele>903</ele>
        <time>2021-05-30T07:08:53Z</time>
      </trkpt>
      <trkpt lat="45.83788" lon="2.95833">
        <ele>903</ele>
        <time>2021-05-30T07:08:54Z</time>
      </trkpt>
      <trkpt lat="45.83787" lon="2.95832">
        <ele>903</ele>
        <time>2021-05-30T07:08:55Z</time>
      </trkpt>
      <trkpt lat="45.83786" lon="2.9583">
        <ele>903</ele>
        <time>2021-05-30T07:08:56Z</time>
      </trkpt>
      <trkpt lat="45.83786" lon="2.95828">
        <ele>903</ele>
        <time>2021-05-30T07:08:57Z</time>
      </trkpt>
      <trkpt lat="45.83785" lon="2.95826">
        <ele>903</ele>
        <time>2021-05-30T07:08:58Z</time>
      </trkpt>
      <trkpt lat="45.83783" lon="2.95824">
        <ele>903</ele>
        <time>2021-05-30T07:08:59Z</time>
      </trkpt>
      <trkpt lat="45.83783" lon="2.95822">
        <ele>903</ele>
        <time>2021-05-30T07:09:00Z</time>
      </trkpt>
      <trkpt lat="45.83782" lon="2.95821">
        <ele>903</ele>
        <time>2021-05-30T07:09:01Z</time>
      </trkpt>
      <trkpt lat="45.83781" lon="2.9582">
        <ele>903</ele>
        <time>2021-05-30T07:09:02Z</time>
      </trkpt>
      <trkpt lat="45.8378" lon="2.95818">
        <ele>903</ele>
        <time>2021-05-30T07:09:03Z</time>
      </trkpt>
      <trkpt lat="45.83779" lon="2.95817">
        <ele>903</ele>
        <time>2021-05-30T07:09:04Z</time>
      </trkpt>
      <trkpt lat="45.83778" lon="2.95816">
        <ele>903</ele>
        <time>2021-05-30T07:09:05Z</time>
      </trkpt>
      <trkpt lat="45.83778" lon="2.95814">
        <ele>903</ele>
        <time>2021-05-30T07:09:06Z</time>
      </trkpt>
      <trkpt lat="45.83777" lon="2.95813">
        <ele>903</ele>
        <time>2021-05-30T07:09:07Z</time>
      </trkpt>
      <trkpt lat="45.83776" lon="2.95811">
        <ele>903</ele>
        <time>2021-05-30T07:09:08Z</time>
      </trkpt>
      <trkpt lat="45.83775" lon="2.9581">
        <ele>903</ele>
        <time>2021-05-30T07:09:09Z</time>
      </trkpt>
      <trkpt lat="45.83774" lon="2.95808">
        <ele>903</ele>
        <time>2021-05-30T07:09:10Z</time>
      </trkpt>
      <trkpt lat="45.83773" lon="2.95806">
        <ele>903</ele>
        <time>2021-05-30T07:09:11Z</time>
      </trkpt>
      <trkpt lat="45.83772" lon="2.95805">
        <ele>903</ele>
        <time>2021-05-30T07:09:12Z</time>
      </trkpt>
      <trkpt lat="45.83771" lon="2.95803">
        <ele>903</ele>
        <time>2021-05-30T07:09:13Z</time>
      </trkpt>
      <trkpt lat="45.8377" lon="2.95802">
        <ele>903</ele>
        <time>2021-05-30T07:09:14Z</time>
      </trkpt>
      <trkpt lat="45.83769" lon="2.958">
        <ele>903</ele>
        <time>2021-05-30T07:09:15Z</time>
      </trkpt>
      <trkpt lat="45.83769" lon="2.95799">
        <ele>903</ele>
        <time>2021-05-30T07:09:16Z</time>
      </trkpt>
      <trkpt lat="45.83768" lon="2.95798">
        <ele>903</ele>
        <time>2021-05-30T07:09:17Z</time>
      </trkpt>
      <trkpt lat="45.83766" lon="2.95796">
        <ele>903</ele>
        <time>2021-05-30T07:09:18Z</time>
      </trkpt>
      <trkpt lat="45.83765" lon="2.95795">
        <ele>903</ele>
        <time>2021-05-30T07:09:19Z</time>
      </trkpt>
      <trkpt lat="45.83764" lon="2.95793">
        <ele>903</ele>
        <time>2021-05-30T07:09:20Z</time>
      </trkpt>
      <trkpt lat="45.83762" lon="2.95792">
        <ele>903</ele>
        <time>2021-05-30T07:09:21Z</time>
      </trkpt>
      <trkpt lat="45.83762" lon="2.95791">
        <ele>903</ele>
        <time>2021-05-30T07:09:22Z</time>
      </trkpt>
      <trkpt lat="45.83761" lon="2.9579">
        <ele>903</ele>
        <time>2021-05-30T07:09:23Z</time>
      </trkpt>
      <trkpt lat="45.8376" lon="2.9579">
        <ele>903</ele>
        <time>2021-05-30T07:09:24Z</time>
      </trkpt>
      <trkpt lat="45.83759" lon="2.95789">
        <ele>903</ele>
        <time>2021-05-30T07:09:25Z</time>
      </trkpt>
      <trkpt lat="45.83758" lon="2.95788">
        <ele>903</ele>
        <time>2021-05-30T07:09:26Z</time>
      </trkpt>
      <trkpt lat="45.83757" lon="2.95787">
        <ele>903</ele>
        <time>2021-05-30T07:09:27Z</time>
      </trkpt>
      <trkpt lat="45.83756" lon="2.95786">
        <ele>903</ele>
        <time>2021-05-30T07:09:28Z</time>
      </trkpt>
      <trkpt lat="45.83756" lon="2.95785">
        <ele>903</ele>
        <time>2021-05-30T07:09:29Z</time>
      </trkpt>
      <trkpt lat="45.83755" lon="2.95784">
        <ele>903</ele>
        <time>2021-05-30T07:09:30Z</time>
      </trkpt>
      <trkpt lat="45.83754" lon="2.95783">
        <ele>903</ele>
        <time>2021-05-30T07:09:31Z</time>
      </trkpt>
      <trkpt lat="45.83753" lon="2.95782">
        <ele>903</ele>
        <time>2021-05-30T07:09:32Z</time>
      </trkpt>
      <trkpt lat="45.83752" lon="2.9578">
        <ele>903</ele>
        <time>2021-05-30T07:09:33Z</time>
      </trkpt>
      <trkpt lat="45.83751" lon="2.95779">
        <ele>903</ele>
        <time>2021-05-30T07:09:34Z</time>
      </trkpt>
      <trkpt lat="45.83751" lon="2.95779">
        <ele>903</ele>
        <time>2021-05-30T07:09:35Z</time>
      </trkpt>
      <trkpt lat="45.8375" lon="2.95778">
        <ele>903</ele>
        <time>2021-05-30T07:09:36Z</time>
      </trkpt>
      <trkpt lat="45.8375" lon="2.95778">
        <ele>903</ele>
        <time>2021-05-30T07:09:37Z</time>
      </trkpt>
      <trkpt lat="45.83749" lon="2.95777">
        <ele>903</ele>
        <time>2021-05-30T07:09:38Z</time>
      </trkpt>
      <trkpt lat="45.83749" lon="2.95776">
        <ele>903</ele>
        <time>2021-05-30T07:09:39Z</time>
      </trkpt>
      <trkpt lat="45.83747" lon="2.95772">
        <ele>903</ele>
        <time>2021-05-30T07:09:44Z</time>
      </trkpt>
      <trkpt lat="45.83747" lon="2.95772">
        <ele>903</ele>
        <time>2021-05-30T07:09:45Z</time>
      </trkpt>
      <trkpt lat="45.83747" lon="2.95772">
        <ele>903</ele>
        <time>2021-05-30T07:09:46Z</time>
      </trkpt>
      <trkpt lat="45.83747" lon="2.95772">
        <ele>903</ele>
        <time>2021-05-30T07:09:47Z</time>
      </trkpt>
      <trkpt lat="45.83747" lon="2.95771">
        <ele>903</ele>
        <time>2021-05-30T07:09:48Z</time>
      </trkpt>
      <trkpt lat="45.83747" lon="2.9577">
        <ele>903</ele>
        <time>2021-05-30T07:09:49Z</time>
      </trkpt>
      <trkpt lat="45.83747" lon="2.9577">
        <ele>903</ele>
        <time>2021-05-30T07:09:50Z</time>
      </trkpt>
      <trkpt lat="45.83746" lon="2.95769">
        <ele>903</ele>
        <time>2021-05-30T07:09:51Z</time>
      </trkpt>
      <trkpt lat="45.83746" lon="2.95768">
        <ele>903</ele>
        <time>2021-05-30T07:09:52Z</time>
      </trkpt>
      <trkpt lat="45.83747" lon="2.95768">
        <ele>903</ele>
        <time>2021-05-30T07:09:53Z</time>
      </trkpt>
      <trkpt lat="45.83747" lon="2.95767">
        <ele>903</ele>
        <time>2021-05-30T07:09:54Z</time>
      </trkpt>
      <trkpt lat="45.83747" lon="2.95767">
        <ele>903</ele>
        <time>2021-05-30T07:09:55Z</time>
      </trkpt>
      <trkpt lat="45.83746" lon="2.95766">
        <ele>903</ele>
        <time>2021-05-30T07:09:56Z</time>
      </trkpt>
      <trkpt lat="45.83746" lon="2.95765">
        <ele>903</ele>
        <time>2021-05-30T07:09:57Z</time>
      </trkpt>
      <trkpt lat="45.83746" lon="2.95765">
        <ele>903</ele>
        <time>2021-05-30T07:09:58Z</time>
      </trkpt>
      <trkpt lat="45.83747" lon="2.95764">
        <ele>903</ele>
        <time>2021-05-30T07:09:59Z</time>
      </trkpt>
      <trkpt lat="45.83747" lon="2.95764">
        <ele>903</ele>
        <time>2021-05-30T07:10:00Z</time>
      </trkpt>
      <trkpt lat="45.83748" lon="2.95763">
        <ele>903</ele>
        <time>2021-05-30T07:10:01Z</time>
      </trkpt>
      <trkpt lat="45.83748" lon="2.95763">
        <ele>903</ele>
        <time>2021-05-30T07:10:02Z</time>
      </trkpt>
      <trkpt lat="45.83749" lon="2.95762">
        <ele>903</ele>
        <time>2021-05-30T07:10:03Z</time>
      </trkpt>
      <trkpt lat="45.83749" lon="2.95761">
        <ele>903</ele>
        <time>2021-05-30T07:10:04Z</time>
      </trkpt>
      <trkpt lat="45.83749" lon="2.9576">
        <ele>903</ele>
        <time>2021-05-30T07:10:05Z</time>
      </trkpt>
      <trkpt lat="45.83749" lon="2.95759">
        <ele>903</ele>
        <time>2021-05-30T07:10:06Z</time>
      </trkpt>
      <trkpt lat="45.83749" lon="2.95758">
        <ele>903</ele>
        <time>2021-05-30T07:10:07Z</time>
      </trkpt>
      <trkpt lat="45.83749" lon="2.95757">
        <ele>903</ele>
        <time>2021-05-30T07:10:08Z</time>
      </trkpt>
      <trkpt lat="45.83749" lon="2.95756">
        <ele>903</ele>
        <time>2021-05-30T07:10:09Z</time>
      </trkpt>
      <trkpt lat="45.83748" lon="2.95755">
        <ele>903</ele>
        <time>2021-05-30T07:10:10Z</time>
      </trkpt>
      <trkpt lat="45.83748" lon="2.95753">
        <ele>903</ele>
        <time>2021-05-30T07:10:11Z</time>
      </trkpt>
      <trkpt lat="45.83748" lon="2.95752">
        <ele>903</ele>
        <time>2021-05-30T07:10:12Z</time>
      </trkpt>
      <trkpt lat="45.83749" lon="2.95751">
        <ele>903</ele>
        <time>2021-05-30T07:10:13Z</time>
      </trkpt>
      <trkpt lat="45.83749" lon="2.9575">
        <ele>903</ele>
        <time>2021-05-30T07:10:14Z</time>
      </trkpt>
      <trkpt lat="45.8375" lon="2.95749">
        <ele>903</ele>
        <time>2021-05-30T07:10:15Z</time>
      </trkpt>
      <trkpt lat="45.83751" lon="2.95748">
        <ele>903</ele>
        <time>2021-05-30T07:10:16Z</time>
      </trkpt>
      <trkpt lat="45.83751" lon="2.95747">
        <ele>903</ele>
        <time>2021-05-30T07:10:17Z</time>
      </trkpt>
      <trkpt lat="45.83752" lon="2.95741">
        <ele>903</ele>
        <time>2021-05-30T07:10:19Z</time>
      </trkpt>
      <trkpt lat="45.83752" lon="2.9574">
        <ele>903</ele>
        <time>2021-05-30T07:10:20Z</time>
      </trkpt>
      <trkpt lat="45.83752" lon="2.9574">
        <ele>903</ele>
        <time>2021-05-30T07:10:21Z</time>
      </trkpt>
      <trkpt lat="45.83751" lon="2.95739">
        <ele>903</ele>
        <time>2021-05-30T07:10:22Z</time>
      </trkpt>
      <trkpt lat="45.83751" lon="2.95738">
        <ele>903</ele>
        <time>2021-05-30T07:10:23Z</time>
      </trkpt>
      <trkpt lat="45.83751" lon="2.95736">
        <ele>903</ele>
        <time>2021-05-30T07:10:24Z</time>
      </trkpt>
      <trkpt lat="45.83752" lon="2.95735">
        <ele>903</ele>
        <time>2021-05-30T07:10:25Z</time>
      </trkpt>
      <trkpt lat="45.83752" lon="2.95734">
        <ele>903</ele>
        <time>2021-05-30T07:10:26Z</time>
      </trkpt>
      <trkpt lat="45.83752" lon="2.95732">
        <ele>903</ele>
        <time>2021-05-30T07:10:27Z</time>
      </trkpt>
      <trkpt lat="45.83751" lon="2.95731">
        <ele>903</ele>
        <time>2021-05-30T07:10:28Z</time>
      </trkpt>
      <trkpt lat="45.83751" lon="2.95729">
        <ele>903</ele>
        <time>2021-05-30T07:10:29Z</time>
      </trkpt>
      <trkpt lat="45.8375" lon="2.95727">
        <ele>903</ele>
        <time>2021-05-30T07:10:30Z</time>
      </trkpt>
      <trkpt lat="45.8375" lon="2.95726">
        <ele>903</ele>
        <time>2021-05-30T07:10:31Z</time>
      </trkpt>
      <trkpt lat="45.83749" lon="2.95724">
        <ele>903</ele>
        <time>2021-05-30T07:10:32Z</time>
      </trkpt>
      <trkpt lat="45.83748" lon="2.95722">
        <ele>903</ele>
        <time>2021-05-30T07:10:33Z</time>
      </trkpt>
      <trkpt lat="45.83747" lon="2.9572">
        <ele>903</ele>
        <time>2021-05-30T07:10:34Z</time>
      </trkpt>
      <trkpt lat="45.83746" lon="2.95718">
        <ele>903</ele>
        <time>2021-05-30T07:10:35Z</time>
      </trkpt>
      <trkpt lat="45.83745" lon="2.95717">
        <ele>903</ele>
        <time>2021-05-30T07:10:36Z</time>
      </trkpt>
      <trkpt lat="45.83744" lon="2.95715">
        <ele>903</ele>
        <time>2021-05-30T07:10:37Z</time>
      </trkpt>
      <trkpt lat="45.83743" lon="2.95714">
        <ele>903</ele>
        <time>2021-05-30T07:10:38Z</time>
      </trkpt>
      <trkpt lat="45.83741" lon="2.95712">
        <ele>903</ele>
        <time>2021-05-30T07:10:39Z</time>
      </trkpt>
      <trkpt lat="45.8374" lon="2.9571">
        <ele>903</ele>
        <time>2021-05-30T07:10:40Z</time>
      </trkpt>
      <trkpt lat="45.83739" lon="2.95709">
        <ele>903</ele>
        <time>2021-05-30T07:10:41Z</time>
      </trkpt>
      <trkpt lat="45.83737" lon="2.95706">
        <ele>903</ele>
        <time>2021-05-30T07:10:42Z</time>
      </trkpt>
      <trkpt lat="45.83736" lon="2.95704">
        <ele>903</ele>
        <time>2021-05-30T07:10:43Z</time>
      </trkpt>
      <trkpt lat="45.83735" lon="2.95702">
        <ele>903</ele>
        <time>2021-05-30T07:10:44Z</time>
      </trkpt>
      <trkpt lat="45.83734" lon="2.957">
        <ele>903</ele>
        <time>2021-05-30T07:10:45Z</time>
      </trkpt>
      <trkpt lat="45.83733" lon="2.95698">
        <ele>903</ele>
        <time>2021-05-30T07:10:46Z</time>
      </trkpt>
      <trkpt lat="45.83732" lon="2.95696">
        <ele>903</ele>
        <time>2021-05-30T07:10:47Z</time>
      </trkpt>
      <trkpt lat="45.83732" lon="2.95681">
        <ele>903</ele>
        <time>2021-05-30T07:10:54Z</time>
      </trkpt>
      <trkpt lat="45.83732" lon="2.95681">
        <ele>903</ele>
        <time>2021-05-30T07:10:55Z</time>
      </trkpt>
      <trkpt lat="45.83731" lon="2.9568">
        <ele>903</ele>
        <time>2021-05-30T07:10:56Z</time>
      </trkpt>
      <trkpt lat="45.83731" lon="2.95678">
        <ele>903</ele>
        <time>2021-05-30T07:10:57Z</time>
      </trkpt>
      <trkpt lat="45.83731" lon="2.95676">
        <ele>903</ele>
        <time>2021-05-30T07:10:58Z</time>
      </trkpt>
      <trkpt lat="45.8373" lon="2.95674">
        <ele>903</ele>
        <time>2021-05-30T07:10:59Z</time>
      </trkpt>
      <trkpt lat="45.8373" lon="2.95672">
        <ele>903</ele>
        <time>2021-05-30T07:11:00Z</time>
      </trkpt>
      <trkpt lat="45.8373" lon="2.9567">
        <ele>903</ele>
        <time>2021-05-30T07:11:01Z</time>
      </trkpt>
      <trkpt lat="45.8373" lon="2.95668">
        <ele>903</ele>
        <time>2021-05-30T07:11:02Z</time>
      </trkpt>
      <trkpt lat="45.8373" lon="2.95667">
        <ele>903</ele>
        <time>2021-05-30T07:11:03Z</time>
      </trkpt>
      <trkpt lat="45.8373" lon="2.95665">
        <ele>903</ele>
        <time>2021-05-30T07:11:04Z</time>
      </trkpt>
      <trkpt lat="45.8373" lon="2.95663">
        <ele>903</ele>
        <time>2021-05-30T07:11:05Z</time>
      </trkpt>
      <trkpt lat="45.8373" lon="2.95662">
        <ele>903</ele>
        <time>2021-05-30T07:11:06Z</time>
      </trkpt>
      <trkpt lat="45.8373" lon="2.95661">
        <ele>903</ele>
        <time>2021-05-30T07:11:07Z</time>
      </trkpt>
      <trkpt lat="45.8373" lon="2.95659">
        <ele>903</ele>
        <time>2021-05-30T07:11:08Z</time>
      </trkpt>
      <trkpt lat="45.83735" lon="2.95651">
        <ele>903</ele>
        <time>2021-05-30T07:11:13Z</time>
      </trkpt>
      <trkpt lat="45.83736" lon="2.95651">
        <ele>903</ele>
        <time>2021-05-30T07:11:14Z</time>
      </trkpt>
      <trkpt lat="45.83736" lon="2.9565">
        <ele>903</ele>
        <time>2021-05-30T07:11:15Z</time>
      </trkpt>
      <trkpt lat="45.83736" lon="2.95649">
        <ele>903</ele>
        <time>2021-05-30T07:11:16Z</time>
      </trkpt>
      <trkpt lat="45.83736" lon="2.95648">
        <ele>903</ele>
        <time>2021-05-30T07:11:17Z</time>
      </trkpt>
      <trkpt lat="45.83737" lon="2.95646">
        <ele>903</ele>
        <time>2021-05-30T07:11:18Z</time>
      </trkpt>
      <trkpt lat="45.83737" lon="2.95645">
        <ele>903</ele>
        <time>2021-05-30T07:11:19Z</time>
      </trkpt>
      <trkpt lat="45.83738" lon="2.95643">
        <ele>903</ele>
        <time>2021-05-30T07:11:20Z</time>
      </trkpt>
      <trkpt lat="45.83738" lon="2.95641">
        <ele>903</ele>
        <time>2021-05-30T07:11:21Z</time>
      </trkpt>
      <trkpt lat="45.83739" lon="2.95639">
        <ele>903</ele>
        <time>2021-05-30T07:11:22Z</time>
      </trkpt>
      <trkpt lat="45.83739" lon="2.95637">
        <ele>903</ele>
        <time>2021-05-30T07:11:23Z</time>
      </trkpt>
      <trkpt lat="45.8374" lon="2.95636">
        <ele>903</ele>
        <time>2021-05-30T07:11:24Z</time>
      </trkpt>
      <trkpt lat="45.8374" lon="2.95634">
        <ele>903</ele>
        <time>2021-05-30T07:11:25Z</time>
      </trkpt>
      <trkpt lat="45.8374" lon="2.95633">
        <ele>903</ele>
        <time>2021-05-30T07:11:26Z</time>
      </trkpt>
      <trkpt lat="45.83741" lon="2.95631">
        <ele>903</ele>
        <time>2021-05-30T07:11:27Z</time>
      </trkpt>
      <trkpt lat="45.83741" lon="2.95629">
        <ele>903</ele>
        <time>2021-05-30T07:11:28Z</time>
      </trkpt>
      <trkpt lat="45.83741" lon="2.95628">
        <ele>903</ele>
        <time>2021-05-30T07:11:29Z</time>
      </trkpt>
      <trkpt lat="45.83742" lon="2.95627">
        <ele>903</ele>
        <time>2021-05-30T07:11:30Z</time>
      </trkpt>
      <trkpt lat="45.83743" lon="2.95625">
        <ele>903</ele>
        <time>2021-05-30T07:11:31Z</time>
      </trkpt>
      <trkpt lat="45.83743" lon="2.95624">
        <ele>903</ele>
        <time>2021-05-30T07:11:32Z</time>
      </trkpt>
      <trkpt lat="45.83744" lon="2.95623">
        <ele>903</ele>
        <time>2021-05-30T07:11:33Z</time>
      </trkpt>
      <trkpt lat="45.8375" lon="2.95616">
        <ele>903</ele>
        <time>2021-05-30T07:11:35Z</time>
      </trkpt>
      <trkpt lat="45.8375" lon="2.95616">
        <ele>903</ele>
        <time>2021-05-30T07:11:36Z</time>
      </trkpt>
      <trkpt lat="45.83751" lon="2.95615">
        <ele>903</ele>
        <time>2021-05-30T07:11:37Z</time>
      </trkpt>
      <trkpt lat="45.83752" lon="2.95614">
        <ele>903</ele>
        <time>2021-05-30T07:11:38Z</time>
      </trkpt>
      <trkpt lat="45.83753" lon="2.95612">
        <ele>903</ele>
        <time>2021-05-30T07:11:39Z</time>
      </trkpt>
      <trkpt lat="45.83755" lon="2.9561">
        <ele>903</ele>
        <time>2021-05-30T07:11:40Z</time>
      </trkpt>
      <trkpt lat="45.83756" lon="2.95608">
        <ele>903</ele>
        <time>2021-05-30T07:11:41Z</time>
      </trkpt>
      <trkpt lat="45.83757" lon="2.95606">
        <ele>903</ele>
        <time>2021-05-30T07:11:42Z</time>
      </trkpt>
      <trkpt lat="45.83759" lon="2.95604">
        <ele>903</ele>
        <time>2021-05-30T07:11:43Z</time>
      </trkpt>
      <trkpt lat="45.8376" lon="2.95602">
        <ele>903</ele>
        <time>2021-05-30T07:11:44Z</time>
      </trkpt>
      <trkpt lat="45.83761" lon="2.956">
        <ele>903</ele>
        <time>2021-05-30T07:11:45Z</time>
      </trkpt>
      <trkpt lat="45.83762" lon="2.95599">
        <ele>903</ele>
        <time>2021-05-30T07:11:46Z</time>
      </trkpt>
      <trkpt lat="45.83762" lon="2.95597">
        <ele>903</ele>
        <time>2021-05-30T07:11:47Z</time>
      </trkpt>
      <trkpt lat="45.83764" lon="2.95596">
        <ele>903</ele>
        <time>2021-05-30T07:11:48Z</time>
      </trkpt>
      <trkpt lat="45.83764" lon="2.95595">
        <ele>903</ele>
        <time>2021-05-30T07:11:49Z</time>
      </trkpt>
      <trkpt lat="45.83765" lon="2.95594">
        <ele>903</ele>
        <time>2021-05-30T07:11:50Z</time>
      </trkpt>
      <trkpt lat="45.83765" lon="2.95592">
        <ele>903</ele>
        <time>2021-05-30T07:11:51Z</time>
      </trkpt>
      <trkpt lat="45.83766" lon="2.95591">
        <ele>903</ele>
        <time>2021-05-30T07:11:52Z</time>
      </trkpt>
      <trkpt lat="45.83767" lon="2.9559">
        <ele>903</ele>
        <time>2021-05-30T07:11:53Z</time>
      </trkpt>
      <trkpt lat="45.83768" lon="2.95589">
        <ele>903</ele>
        <time>2021-05-30T07:11:54Z</time>
      </trkpt>
      <trkpt lat="45.83768" lon="2.95588">
        <ele>903</ele>
        <time>2021-05-30T07:11:55Z</time>
      </trkpt>
      <trkpt lat="45.83769" lon="2.95586">
        <ele>903</ele>
        <time>2021-05-30T07:11:56Z</time>
      </trkpt>
      <trkpt lat="45.8377" lon="2.95585">
        <ele>903</ele>
        <time>2021-05-30T07:11:57Z</time>
      </trkpt>
      <trkpt lat="45.8377" lon="2.95584">
        <ele>903</ele>
        <time>2021-05-30T07:11:58Z</time>
      </trkpt>
      <trkpt lat="45.83772" lon="2.95582">
        <ele>903</ele>
        <time>2021-05-30T07:11:59Z</time>
      </trkpt>
      <trkpt lat="45.83773" lon="2.95581">
        <ele>903</ele>
        <time>2021-05-30T07:12:00Z</time>
      </trkpt>
      <trkpt lat="45.83774" lon="2.95579">
        <ele>903</ele>
        <time>2021-05-30T07:12:01Z</time>
      </trkpt>
      <trkpt lat="45.83775" lon="2.95578">
        <ele>903</ele>
        <time>2021-05-30T07:12:02Z</time>
      </trkpt>
      <trkpt lat="45.83776" lon="2.95576">
        <ele>903</ele>
        <time>2021-05-30T07:12:02Z</time>
      </trkpt>
      <trkpt lat="45.83777" lon="2.95574">
        <ele>903</ele>
        <time>2021-05-30T07:12:03Z</time>
      </trkpt>
      <trkpt lat="45.83778" lon="2.95573">
        <ele>903</ele>
        <time>2021-05-30T07:12:04Z</time>
      </trkpt>
      <trkpt lat="45.8378" lon="2.95571">
        <ele>903</ele>
        <time>2021-05-30T07:12:05Z</time>
      </trkpt>
      <trkpt lat="45.83783" lon="2.9557">
        <ele>903</ele>
        <time>2021-05-30T07:12:06Z</time>
      </trkpt>
      <trkpt lat="45.83784" lon="2.95568">
        <ele>903</ele>
        <time>2021-05-30T07:12:07Z</time>
      </trkpt>
      <trkpt lat="45.83786" lon="2.95566">
        <ele>903</ele>
        <time>2021-05-30T07:12:08Z</time>
      </trkpt>
      <trkpt lat="45.83788" lon="2.95565">
        <ele>903</ele>
        <time>2021-05-30T07:12:09Z</time>
      </trkpt>
      <trkpt lat="45.83789" lon="2.95563">
        <ele>903</ele>
        <time>2021-05-30T07:12:10Z</time>
      </trkpt>
      <trkpt lat="45.83791" lon="2.95561">
        <ele>903</ele>
        <time>2021-05-30T07:12:11Z</time>
      </trkpt>
      <trkpt lat="45.83792" lon="2.9556">
        <ele>903</ele>
        <time>2021-05-30T07:12:12Z</time>
      </trkpt>
      <trkpt lat="45.83794" lon="2.95559">
        <ele>903</ele>
        <time>2021-05-30T07:12:13Z</time>
      </trkpt>
      <trkpt lat="45.83795" lon="2.95558">
        <ele>903</ele>
        <time>2021-05-30T07:12:14Z</time>
      </trkpt>
      <trkpt lat="45.83796" lon="2.95557">
        <ele>903</ele>
        <time>2021-05-30T07:12:15Z</time>
      </trkpt>
      <trkpt lat="45.83797" lon="2.95555">
        <ele>903</ele>
        <time>2021-05-30T07:12:16Z</time>
      </trkpt>
      <trkpt lat="45.83798" lon="2.95554">
        <ele>903</ele>
        <time>2021-05-30T07:12:17Z</time>
      </trkpt>
      <trkpt lat="45.83801" lon="2.95553">
        <ele>903</ele>
        <time>2021-05-30T07:12:18Z</time>
      </trkpt>
      <trkpt lat="45.83802" lon="2.95551">
        <ele>903</ele>
        <time>2021-05-30T07:12:19Z</time>
      </trkpt>
      <trkpt lat="45.83804" lon="2.9555">
        <ele>903</ele>
        <time>2021-05-30T07:12:20Z</time>
      </trkpt>
      <trkpt lat="45.83807" lon="2.95549">
        <ele>903</ele>
        <time>2021-05-30T07:12:21Z</time>
      </trkpt>
      <trkpt lat="45.83808" lon="2.95547">
        <ele>903</ele>
        <time>2021-05-30T07:12:22Z</time>
      </trkpt>
      <trkpt lat="45.8381" lon="2.95546">
        <ele>903</ele>
        <time>2021-05-30T07:12:23Z</time>
      </trkpt>
      <trkpt lat="45.83811" lon="2.95544">
        <ele>903</ele>
        <time>2021-05-30T07:12:24Z</time>
      </trkpt>
      <trkpt lat="45.83812" lon="2.95543">
        <ele>903</ele>
        <time>2021-05-30T07:12:25Z</time>
      </trkpt>
      <trkpt lat="45.83814" lon="2.95542">
        <ele>903</ele>
        <time>2021-05-30T07:12:26Z</time>
      </trkpt>
      <trkpt lat="45.83816" lon="2.9554">
        <ele>903</ele>
        <time>2021-05-30T07:12:27Z</time>
      </trkpt>
      <trkpt lat="45.83817" lon="2.95539">
        <ele>903</ele>
        <time>2021-05-30T07:12:28Z</time>
      </trkpt>
      <trkpt lat="45.83819" lon="2.95538">
        <ele>903</ele>
        <time>2021-05-30T07:12:29Z</time>
      </trkpt>
      <trkpt lat="45.8382" lon="2.95537">
        <ele>903</ele>
        <time>2021-05-30T07:12:30Z</time>
      </trkpt>
      <trkpt lat="45.83822" lon="2.95535">
        <ele>903</ele>
        <time>2021-05-30T07:12:31Z</time>
      </trkpt>
      <trkpt lat="45.83823" lon="2.95534">
        <ele>903</ele>
        <time>2021-05-30T07:12:32Z</time>
      </trkpt>
      <trkpt lat="45.83825" lon="2.95532">
        <ele>903</ele>
        <time>2021-05-30T07:12:33Z</time>
      </trkpt>
      <trkpt lat="45.83827" lon="2.9553">
        <ele>903</ele>
        <time>2021-05-30T07:12:34Z</time>
      </trkpt>
      <trkpt lat="45.83828" lon="2.95528">
        <ele>903</ele>
        <time>2021-05-30T07:12:35Z</time>
      </trkpt>
      <trkpt lat="45.83831" lon="2.95527">
        <ele>903</ele>
        <time>2021-05-30T07:12:36Z</time>
      </trkpt>
      <trkpt lat="45.83831" lon="2.95525">
        <ele>903</ele>
        <time>2021-05-30T07:12:37Z</time>
      </trkpt>
      <trkpt lat="45.83833" lon="2.95524">
        <ele>903</ele>
        <time>2021-05-30T07:12:38Z</time>
      </trkpt>
      <trkpt lat="45.83834" lon="2.95522">
        <ele>903</ele>
        <time>2021-05-30T07:12:39Z</time>
      </trkpt>
      <trkpt lat="45.83835" lon="2.9552">
        <ele>903</ele>
        <time>2021-05-30T07:12:40Z</time>
      </trkpt>
      <trkpt lat="45.83836" lon="2.95519">
        <ele>903</ele>
        <time>2021-05-30T07:12:41Z</time>
      </trkpt>
      <trkpt lat="45.83837" lon="2.95517">
        <ele>903</ele>
        <time>2021-05-30T07:12:42Z</time>
      </trkpt>
      <trkpt lat="45.83838" lon="2.95516">
        <ele>903</ele>
        <time>2021-05-30T07:12:43Z</time>
      </trkpt>
      <trkpt lat="45.83839" lon="2.95514">
        <ele>903</ele>
        <time>2021-05-30T07:12:44Z</time>
      </trkpt>
      <trkpt lat="45.8384" lon="2.95512">
        <ele>903</ele>
        <time>2021-05-30T07:12:45Z</time>
      </trkpt>
      <trkpt lat="45.8384" lon="2.9551">
        <ele>903</ele>
        <time>2021-05-30T07:12:46Z</time>
      </trkpt>
      <trkpt lat="45.83841" lon="2.95509">
        <ele>903</ele>
        <time>2021-05-30T07:12:47Z</time>
      </trkpt>
      <trkpt lat="45.83843" lon="2.95507">
        <ele>903</ele>
        <time>2021-05-30T07:12:48Z</time>
      </trkpt>
      <trkpt lat="45.83844" lon="2.95506">
        <ele>903</ele>
        <time>2021-05-30T07:12:49Z</time>
      </trkpt>
      <trkpt lat="45.83845" lon="2.95504">
        <ele>903</ele>
        <time>2021-05-30T07:12:50Z</time>
      </trkpt>
      <trkpt lat="45.83846" lon="2.95503">
        <ele>903</ele>
        <time>2021-05-30T07:12:51Z</time>
      </trkpt>
      <trkpt lat="45.83847" lon="2.95501">
        <ele>903</ele>
        <time>2021-05-30T07:12:52Z</time>
      </trkpt>
      <trkpt lat="45.83849" lon="2.955">
        <ele>903</ele>
        <time>2021-05-30T07:12:53Z</time>
      </trkpt>
      <trkpt lat="45.83851" lon="2.95498">
        <ele>903</ele>
        <time>2021-05-30T07:12:54Z</time>
      </trkpt>
      <trkpt lat="45.83852" lon="2.95497">
        <ele>903</ele>
        <time>2021-05-30T07:12:55Z</time>
      </trkpt>
      <trkpt lat="45.83854" lon="2.95496">
        <ele>903</ele>
        <time>2021-05-30T07:12:56Z</time>
      </trkpt>
      <trkpt lat="45.83855" lon="2.95494">
        <ele>903</ele>
        <time>2021-05-30T07:12:57Z</time>
      </trkpt>
      <trkpt lat="45.83857" lon="2.95493">
        <ele>903</ele>
        <time>2021-05-30T07:12:58Z</time>
      </trkpt>
      <trkpt lat="45.83858" lon="2.95491">
        <ele>903</ele>
        <time>2021-05-30T07:12:59Z</time>
      </trkpt>
      <trkpt lat="45.83859" lon="2.9549">
        <ele>903</ele>
        <time>2021-05-30T07:13:00Z</time>
      </trkpt>
      <trkpt lat="45.8386" lon="2.95489">
        <ele>903</ele>
        <time>2021-05-30T07:13:01Z</time>
      </trkpt>
      <trkpt lat="45.83862" lon="2.95488">
        <ele>903</ele>
        <time>2021-05-30T07:13:02Z</time>
      </trkpt>
      <trkpt lat="45.83863" lon="2.95487">
        <ele>903</ele>
        <time>2021-05-30T07:13:03Z</time>
      </trkpt>
      <trkpt lat="45.83864" lon="2.95486">
        <ele>903</ele>
        <time>2021-05-30T07:13:04Z</time>
      </trkpt>
      <trkpt lat="45.83865" lon="2.95485">
        <ele>903</ele>
        <time>2021-05-30T07:13:05Z</time>
      </trkpt>
      <trkpt lat="45.83867" lon="2.95484">
        <ele>903</ele>
        <time>2021-05-30T07:13:06Z</time>
      </trkpt>
      <trkpt lat="45.83868" lon="2.95483">
        <ele>903</ele>
        <time>2021-05-30T07:13:07Z</time>
      </trkpt>
      <trkpt lat="45.83869" lon="2.95482">
        <ele>903</ele>
        <time>2021-05-30T07:13:08Z</time>
      </trkpt>
      <trkpt lat="45.8387" lon="2.95481">
        <ele>903</ele>
        <time>2021-05-30T07:13:09Z</time>
      </trkpt>
      <trkpt lat="45.83872" lon="2.9548">
        <ele>903</ele>
        <time>2021-05-30T07:13:10Z</time>
      </trkpt>
      <trkpt lat="45.83873" lon="2.95479">
        <ele>903</ele>
        <time>2021-05-30T07:13:11Z</time>
      </trkpt>
      <trkpt lat="45.83875" lon="2.95478">
        <ele>903</ele>
        <time>2021-05-30T07:13:12Z</time>
      </trkpt>
      <trkpt lat="45.83876" lon="2.95477">
        <ele>903</ele>
        <time>2021-05-30T07:13:13Z</time>
      </trkpt>
      <trkpt lat="45.83877" lon="2.95475">
        <ele>903</ele>
        <time>2021-05-30T07:13:14Z</time>
      </trkpt>
      <trkpt lat="45.83879" lon="2.95474">
        <ele>903</ele>
        <time>2021-05-30T07:13:15Z</time>
      </trkpt>
      <trkpt lat="45.83879" lon="2.95472">
        <ele>903</ele>
        <time>2021-05-30T07:13:16Z</time>
      </trkpt>
      <trkpt lat="45.8388" lon="2.95471">
        <ele>903</ele>
        <time>2021-05-30T07:13:17Z</time>
      </trkpt>
      <trkpt lat="45.83881" lon="2.95469">
        <ele>903</ele>
        <time>2021-05-30T07:13:18Z</time>
      </trkpt>
      <trkpt lat="45.83882" lon="2.95468">
        <ele>903</ele>
        <time>2021-05-30T07:13:19Z</time>
      </trkpt>
      <trkpt lat="45.83883" lon="2.95466">
        <ele>903</ele>
        <time>2021-05-30T07:13:20Z</time>
      </trkpt>
      <trkpt lat="45.83884" lon="2.95465">
        <ele>903</ele>
        <time>2021-05-30T07:13:21Z</time>
      </trkpt>
      <trkpt lat="45.83885" lon="2.95463">
        <ele>903</ele>
        <time>2021-05-30T07:13:22Z</time>
      </trkpt>
      <trkpt lat="45.83886" lon="2.95462">
        <ele>903</ele>
        <time>2021-05-30T07:13:23Z</time>
      </trkpt>
      <trkpt lat="45.83888" lon="2.95461">
        <ele>903</ele>
        <time>2021-05-30T07:13:24Z</time>
      </trkpt>
      <trkpt lat="45.83889" lon="2.9546">
        <ele>903</ele>
        <time>2021-05-30T07:13:25Z</time>
      </trkpt>
      <trkpt lat="45.83891" lon="2.95458">
        <ele>903</ele>
        <time>2021-05-30T07:13:26Z</time>
      </trkpt>
      <trkpt lat="45.83891" lon="2.95457">
        <ele>903</ele>
        <time>2021-05-30T07:13:27Z</time>
      </trkpt>
      <trkpt lat="45.83893" lon="2.95456">
        <ele>903</ele>
        <time>2021-05-30T07:13:28Z</time>
      </trkpt>
      <trkpt lat="45.83894" lon="2.95455">
        <ele>903</ele>
        <time>2021-05-30T07:13:29Z</time>
      </trkpt>
      <trkpt lat="45.83896" lon="2.95454">
        <ele>903</ele>
        <time>2021-05-30T07:13:30Z</time>
      </trkpt>
      <trkpt lat="45.83897" lon="2.95453">
        <ele>903</ele>
        <time>2021-05-30T07:13:31Z</time>
      </trkpt>
      <trkpt lat="45.83899" lon="2.95452">
        <ele>903</ele>
        <time>2021-05-30T07:13:32Z</time>
      </trkpt>
      <trkpt lat="45.839" lon="2.95451">
        <ele>903</ele>
        <time>2021-05-30T07:13:33Z</time>
      </trkpt>
      <trkpt lat="45.83901" lon="2.9545">
        <ele>903</ele>
        <time>2021-05-30T07:13:34Z</time>
      </trkpt>
      <trkpt lat="45.83902" lon="2.95448">
        <ele>903</ele>
        <time>2021-05-30T07:13:35Z</time>
      </trkpt>
      <trkpt lat="45.83903" lon="2.95447">
        <ele>903</ele>
        <time>2021-05-30T07:13:36Z</time>
      </trkpt>
      <trkpt lat="45.83904" lon="2.95446">
        <ele>903</ele>
        <time>2021-05-30T07:13:37Z</time>
      </trkpt>
      <trkpt lat="45.83905" lon="2.95445">
        <ele>903</ele>
        <time>2021-05-30T07:13:38Z</time>
      </trkpt>
      <trkpt lat="45.83906" lon="2.95443">
        <ele>903</ele>
        <time>2021-05-30T07:13:39Z</time>
      </trkpt>
      <trkpt lat="45.83908" lon="2.95441">
        <ele>903</ele>
        <time>2021-05-30T07:13:40Z</time>
      </trkpt>
      <trkpt lat="45.83909" lon="2.9544">
        <ele>903</ele>
        <time>2021-05-30T07:13:41Z</time>
      </trkpt>
      <trkpt lat="45.83911" lon="2.95438">
        <ele>903</ele>
        <time>2021-05-30T07:13:42Z</time>
      </trkpt>
      <trkpt lat="45.83912" lon="2.95437">
        <ele>903</ele>
        <time>2021-05-30T07:13:43Z</time>
      </trkpt>
      <trkpt lat="45.83913" lon="2.95436">
        <ele>903</ele>
        <time>2021-05-30T07:13:44Z</time>
      </trkpt>
      <trkpt lat="45.83915" lon="2.95434">
        <ele>903</ele>
        <time>2021-05-30T07:13:45Z</time>
      </trkpt>
      <trkpt lat="45.83916" lon="2.95433">
        <ele>903</ele>
        <time>2021-05-30T07:13:46Z</time>
      </trkpt>
      <trkpt lat="45.83917" lon="2.95432">
        <ele>903</ele>
        <time>2021-05-30T07:13:47Z</time>
      </trkpt>
      <trkpt lat="45.83918" lon="2.9543">
        <ele>903</ele>
        <time>2021-05-30T07:13:48Z</time>
      </trkpt>
      <trkpt lat="45.83919" lon="2.95429">
        <ele>903</ele>
        <time>2021-05-30T07:13:49Z</time>
      </trkpt>
      <trkpt lat="45.8392" lon="2.95427">
        <ele>903</ele>
        <time>2021-05-30T07:13:50Z</time>
      </trkpt>
      <trkpt lat="45.83921" lon="2.95425">
        <ele>903</ele>
        <time>2021-05-30T07:13:51Z</time>
      </trkpt>
      <trkpt lat="45.83922" lon="2.95424">
        <ele>903</ele>
        <time>2021-05-30T07:13:52Z</time>
      </trkpt>
      <trkpt lat="45.83923" lon="2.95422">
        <ele>903</ele>
        <time>2021-05-30T07:13:53Z</time>
      </trkpt>
      <trkpt lat="45.83924" lon="2.95421">
        <ele>903</ele>
        <time>2021-05-30T07:13:54Z</time>
      </trkpt>
      <trkpt lat="45.83925" lon="2.95419">
        <ele>903</ele>
        <time>2021-05-30T07:13:55Z</time>
      </trkpt>
      <trkpt lat="45.83926" lon="2.95417">
        <ele>903</ele>
        <time>2021-05-30T07:13:56Z</time>
      </trkpt>
      <trkpt lat="45.83927" lon="2.95415">
        <ele>903</ele>
        <time>2021-05-30T07:13:57Z</time>
      </trkpt>
      <trkpt lat="45.83928" lon="2.95413">
        <ele>903</ele>
        <time>2021-05-30T07:13:58Z</time>
      </trkpt>
      <trkpt lat="45.83929" lon="2.95412">
        <ele>903</ele>
        <time>2021-05-30T07:13:59Z</time>
      </trkpt>
      <trkpt lat="45.8393" lon="2.9541">
        <ele>903</ele>
        <time>2021-05-30T07:14:00Z</time>
      </trkpt>
      <trkpt lat="45.83931" lon="2.95408">
        <ele>903</ele>
        <time>2021-05-30T07:14:01Z</time>
      </trkpt>
      <trkpt lat="45.83932" lon="2.95407">
        <ele>903</ele>
        <time>2021-05-30T07:14:02Z</time>
      </trkpt>
      <trkpt lat="45.83933" lon="2.95405">
        <ele>903</ele>
        <time>2021-05-30T07:14:03Z</time>
      </trkpt>
      <trkpt lat="45.83933" lon="2.95404">
        <ele>903</ele>
        <time>2021-05-30T07:14:04Z</time>
      </trkpt>
      <trkpt lat="45.83934" lon="2.95403">
        <ele>903</ele>
        <time>2021-05-30T07:14:05Z</time>
      </trkpt>
      <trkpt lat="45.83934" lon="2.95401">
        <ele>903</ele>
        <time>2021-05-30T07:14:06Z</time>
      </trkpt>
      <trkpt lat="45.83935" lon="2.954">
        <ele>903</ele>
        <time>2021-05-30T07:14:07Z</time>
      </trkpt>
      <trkpt lat="45.83936" lon="2.95399">
        <ele>903</ele>
        <time>2021-05-30T07:14:08Z</time>
      </trkpt>
      <trkpt lat="45.83936" lon="2.95398">
        <ele>903</ele>
        <time>2021-05-30T07:14:09Z</time>
      </trkpt>
      <trkpt lat="45.83936" lon="2.95397">
        <ele>903</ele>
        <time>2021-05-30T07:14:10Z</time>
      </trkpt>
      <trkpt lat="45.83937" lon="2.95396">
        <ele>903</ele>
        <time>2021-05-30T07:14:11Z</time>
      </trkpt>
      <trkpt lat="45.83938" lon="2.95396">
        <ele>903</ele>
        <time>2021-05-30T07:14:12Z</time>
      </trkpt>
      <trkpt lat="45.83938" lon="2.95395">
        <ele>903</ele>
        <time>2021-05-30T07:14:13Z</time>
      </trkpt>
      <trkpt lat="45.83942" lon="2.9539">
        <ele>903</ele>
        <time>2021-05-30T07:14:16Z</time>
      </trkpt>
      <trkpt lat="45.83942" lon="2.9539">
        <ele>903</ele>
        <time>2021-05-30T07:14:17Z</time>
      </trkpt>
      <trkpt lat="45.83942" lon="2.95389">
        <ele>903</ele>
        <time>2021-05-30T07:14:18Z</time>
      </trkpt>
      <trkpt lat="45.83942" lon="2.95388">
        <ele>903</ele>
        <time>2021-05-30T07:14:19Z</time>
      </trkpt>
      <trkpt lat="45.83942" lon="2.95387">
        <ele>903</ele>
        <time>2021-05-30T07:14:20Z</time>
      </trkpt>
      <trkpt lat="45.83942" lon="2.95385">
        <ele>903</ele>
        <time>2021-05-30T07:14:21Z</time>
      </trkpt>
      <trkpt lat="45.83943" lon="2.95384">
        <ele>903</ele>
        <time>2021-05-30T07:14:22Z</time>
      </trkpt>
      <trkpt lat="45.83943" lon="2.95382">
        <ele>903</ele>
        <time>2021-05-30T07:14:23Z</time>
      </trkpt>
      <trkpt lat="45.83943" lon="2.9538">
        <ele>903</ele>
        <time>2021-05-30T07:14:24Z</time>
      </trkpt>
      <trkpt lat="45.83944" lon="2.95378">
        <ele>903</ele>
        <time>2021-05-30T07:14:25Z</time>
      </trkpt>
      <trkpt lat="45.83944" lon="2.95376">
        <ele>903</ele>
        <time>2021-05-30T07:14:26Z</time>
      </trkpt>
      <trkpt lat="45.83945" lon="2.95375">
        <ele>903</ele>
        <time>2021-05-30T07:14:27Z</time>
      </trkpt>
      <trkpt lat="45.83945" lon="2.95372">
        <ele>903</ele>
        <time>2021-05-30T07:14:28Z</time>
      </trkpt>
      <trkpt lat="45.83946" lon="2.9537">
        <ele>903</ele>
        <time>2021-05-30T07:14:29Z</time>
      </trkpt>
      <trkpt lat="45.83946" lon="2.95368">
        <ele>903</ele>
        <time>2021-05-30T07:14:30Z</time>
      </trkpt>
      <trkpt lat="45.83946" lon="2.95365">
        <ele>903</ele>
        <time>2021-05-30T07:14:31Z</time>
      </trkpt>
      <trkpt lat="45.83947" lon="2.95363">
        <ele>903</ele>
        <time>2021-05-30T07:14:32Z</time>
      </trkpt>
      <trkpt lat="45.83947" lon="2.95361">
        <ele>903</ele>
        <time>2021-05-30T07:14:33Z</time>
      </trkpt>
      <trkpt lat="45.83948" lon="2.9536">
        <ele>903</ele>
        <time>2021-05-30T07:14:34Z</time>
      </trkpt>
      <trkpt lat="45.83948" lon="2.95358">
        <ele>903</ele>
        <time>2021-05-30T07:14:35Z</time>
      </trkpt>
      <trkpt lat="45.83949" lon="2.95356">
        <ele>903</ele>
        <time>2021-05-30T07:14:36Z</time>
      </trkpt>
      <trkpt lat="45.83949" lon="2.95354">
        <ele>903</ele>
        <time>2021-05-30T07:14:37Z</time>
      </trkpt>
      <trkpt lat="45.83949" lon="2.95353">
        <ele>903</ele>
        <time>2021-05-30T07:14:38Z</time>
      </trkpt>
      <trkpt lat="45.83949" lon="2.95351">
        <ele>903</ele>
        <time>2021-05-30T07:14:39Z</time>
      </trkpt>
      <trkpt lat="45.83949" lon="2.95349">
        <ele>903</ele>
        <time>2021-05-30T07:14:40Z</time>
      </trkpt>
      <trkpt lat="45.8395" lon="2.95348">
        <ele>903</ele>
        <time>2021-05-30T07:14:42Z</time>
      </trkpt>
      <trkpt lat="45.83951" lon="2.95342">
        <ele>903</ele>
        <time>2021-05-30T07:14:43Z</time>
      </trkpt>
      <trkpt lat="45.83951" lon="2.95341">
        <ele>903</ele>
        <time>2021-05-30T07:14:44Z</time>
      </trkpt>
      <trkpt lat="45.83952" lon="2.95341">
        <ele>903</ele>
        <time>2021-05-30T07:14:45Z</time>
      </trkpt>
      <trkpt lat="45.83952" lon="2.95339">
        <ele>903</ele>
        <time>2021-05-30T07:14:46Z</time>
      </trkpt>
      <trkpt lat="45.83952" lon="2.95338">
        <ele>903</ele>
        <time>2021-05-30T07:14:47Z</time>
      </trkpt>
      <trkpt lat="45.83952" lon="2.95336">
        <ele>903</ele>
        <time>2021-05-30T07:14:48Z</time>
      </trkpt>
      <trkpt lat="45.83953" lon="2.95335">
        <ele>903</ele>
        <time>2021-05-30T07:14:49Z</time>
      </trkpt>
      <trkpt lat="45.83953" lon="2.95334">
        <ele>903</ele>
        <time>2021-05-30T07:14:50Z</time>
      </trkpt>
      <trkpt lat="45.83954" lon="2.95333">
        <ele>903</ele>
        <time>2021-05-30T07:14:51Z</time>
      </trkpt>
      <trkpt lat="45.83954" lon="2.95331">
        <ele>903</ele>
        <time>2021-05-30T07:14:52Z</time>
      </trkpt>
      <trkpt lat="45.83954" lon="2.9533">
        <ele>903</ele>
        <time>2021-05-30T07:14:53Z</time>
      </trkpt>
      <trkpt lat="45.83954" lon="2.95328">
        <ele>903</ele>
        <time>2021-05-30T07:14:54Z</time>
      </trkpt>
      <trkpt lat="45.83954" lon="2.95327">
        <ele>903</ele>
        <time>2021-05-30T07:14:55Z</time>
      </trkpt>
      <trkpt lat="45.83954" lon="2.95325">
        <ele>903</ele>
        <time>2021-05-30T07:14:56Z</time>
      </trkpt>
      <trkpt lat="45.83955" lon="2.95323">
        <ele>903</ele>
        <time>2021-05-30T07:14:57Z</time>
      </trkpt>
      <trkpt lat="45.83955" lon="2.95322">
        <ele>903</ele>
        <time>2021-05-30T07:14:58Z</time>
      </trkpt>
      <trkpt lat="45.83955" lon="2.9532">
        <ele>903</ele>
        <time>2021-05-30T07:14:59Z</time>
      </trkpt>
      <trkpt lat="45.83955" lon="2.95318">
        <ele>903</ele>
        <time>2021-05-30T07:15:00Z</time>
      </trkpt>
      <trkpt lat="45.83955" lon="2.95316">
        <ele>903</ele>
        <time>2021-05-30T07:15:01Z</time>
      </trkpt>
      <trkpt lat="45.83955" lon="2.95315">
        <ele>903</ele>
        <time>2021-05-30T07:15:02Z</time>
      </trkpt>
      <trkpt lat="45.83955" lon="2.95313">
        <ele>903</ele>
        <time>2021-05-30T07:15:03Z</time>
      </trkpt>
      <trkpt lat="45.83955" lon="2.95312">
        <ele>903</ele>
        <time>2021-05-30T07:15:04Z</time>
      </trkpt>
      <trkpt lat="45.83955" lon="2.95311">
        <ele>903</ele>
        <time>2021-05-30T07:15:05Z</time>
      </trkpt>
      <trkpt lat="45.83956" lon="2.95309">
        <ele>903</ele>
        <time>2021-05-30T07:15:06Z</time>
      </trkpt>
      <trkpt lat="45.83956" lon="2.95307">
        <ele>903</ele>
        <time>2021-05-30T07:15:07Z</time>
      </trkpt>
      <trkpt lat="45.83957" lon="2.95305">
        <ele>903</ele>
        <time>2021-05-30T07:15:08Z</time>
      </trkpt>
      <trkpt lat="45.83957" lon="2.95303">
        <ele>903</ele>
        <time>2021-05-30T07:15:09Z</time>
      </trkpt>
      <trkpt lat="45.83957" lon="2.95302">
        <ele>903</ele>
        <time>2021-05-30T07:15:10Z</time>
      </trkpt>
      <trkpt lat="45.83958" lon="2.953">
        <ele>903</ele>
        <time>2021-05-30T07:15:11Z</time>
      </trkpt>
      <trkpt lat="45.83958" lon="2.95299">
        <ele>903</ele>
        <time>2021-05-30T07:15:12Z</time>
      </trkpt>
      <trkpt lat="45.83958" lon="2.95298">
        <ele>903</ele>
        <time>2021-05-30T07:15:13Z</time>
      </trkpt>
      <trkpt lat="45.83958" lon="2.95297">
        <ele>903</ele>
        <time>2021-05-30T07:15:14Z</time>
      </trkpt>
      <trkpt lat="45.83958" lon="2.95296">
        <ele>903</ele>
        <time>2021-05-30T07:15:15Z</time>
      </trkpt>
      <trkpt lat="45.83958" lon="2.95295">
        <ele>903</ele>
        <time>2021-05-30T07:15:16Z</time>
      </trkpt>
      <trkpt lat="45.83959" lon="2.95294">
        <ele>903</ele>
        <time>2021-05-30T07:15:17Z</time>
      </trkpt>
      <trkpt lat="45.8396" lon="2.95293">
        <ele>903</ele>
        <time>2021-05-30T07:15:18Z</time>
      </trkpt>
      <trkpt lat="45.8396" lon="2.95291">
        <ele>903</ele>
        <time>2021-05-30T07:15:19Z</time>
      </trkpt>
      <trkpt lat="45.8396" lon="2.9529">
        <ele>903</ele>
        <time>2021-05-30T07:15:20Z</time>
      </trkpt>
      <trkpt lat="45.83959" lon="2.95289">
        <ele>903</ele>
        <time>2021-05-30T07:15:21Z</time>
      </trkpt>
      <trkpt lat="45.83959" lon="2.95288">
        <ele>903</ele>
        <time>2021-05-30T07:15:22Z</time>
      </trkpt>
      <trkpt lat="45.83958" lon="2.95286">
        <ele>903</ele>
        <time>2021-05-30T07:15:23Z</time>
      </trkpt>
      <trkpt lat="45.83958" lon="2.95285">
        <ele>903</ele>
        <time>2021-05-30T07:15:24Z</time>
      </trkpt>
      <trkpt lat="45.83958" lon="2.95283">
        <ele>903</ele>
        <time>2021-05-30T07:15:25Z</time>
      </trkpt>
      <trkpt lat="45.83958" lon="2.95282">
        <ele>903</ele>
        <time>2021-05-30T07:15:26Z</time>
      </trkpt>
      <trkpt lat="45.83958" lon="2.9528">
        <ele>903</ele>
        <time>2021-05-30T07:15:27Z</time>
      </trkpt>
      <trkpt lat="45.83958" lon="2.95278">
        <ele>903</ele>
        <time>2021-05-30T07:15:28Z</time>
      </trkpt>
      <trkpt lat="45.83958" lon="2.95277">
        <ele>903</ele>
        <time>2021-05-30T07:15:29Z</time>
      </trkpt>
      <trkpt lat="45.83958" lon="2.95275">
        <ele>903</ele>
        <time>2021-05-30T07:15:30Z</time>
      </trkpt>
      <trkpt lat="45.83958" lon="2.95273">
        <ele>903</ele>
        <time>2021-05-30T07:15:31Z</time>
      </trkpt>
      <trkpt lat="45.83958" lon="2.95272">
        <ele>903</ele>
        <time>2021-05-30T07:15:32Z</time>
      </trkpt>
      <trkpt lat="45.83958" lon="2.95271">
        <ele>903</ele>
        <time>2021-05-30T07:15:33Z</time>
      </trkpt>
      <trkpt lat="45.83958" lon="2.95269">
        <ele>903</ele>
        <time>2021-05-30T07:15:34Z</time>
      </trkpt>
      <trkpt lat="45.83958" lon="2.95268">
        <ele>903</ele>
        <time>2021-05-30T07:15:35Z</time>
      </trkpt>
      <trkpt lat="45.83958" lon="2.95267">
        <ele>903</ele>
        <time>2021-05-30T07:15:36Z</time>
      </trkpt>
      <trkpt lat="45.83958" lon="2.95266">
        <ele>903</ele>
        <time>2021-05-30T07:15:37Z</time>
      </trkpt>
      <trkpt lat="45.83958" lon="2.95264">
        <ele>903</ele>
        <time>2021-05-30T07:15:38Z</time>
      </trkpt>
      <trkpt lat="45.83958" lon="2.95263">
        <ele>903</ele>
        <time>2021-05-30T07:15:39Z</time>
      </trkpt>
      <trkpt lat="45.83959" lon="2.95261">
        <ele>903</ele>
        <time>2021-05-30T07:15:40Z</time>
      </trkpt>
      <trkpt lat="45.83959" lon="2.9526">
        <ele>903</ele>
        <time>2021-05-30T07:15:42Z</time>
      </trkpt>
      <trkpt lat="45.8396" lon="2.95252">
        <ele>903</ele>
        <time>2021-05-30T07:15:43Z</time>
      </trkpt>
      <trkpt lat="45.8396" lon="2.95252">
        <ele>903</ele>
        <time>2021-05-30T07:15:44Z</time>
      </trkpt>
      <trkpt lat="45.8396" lon="2.95252">
        <ele>903</ele>
        <time>2021-05-30T07:15:45Z</time>
      </trkpt>
      <trkpt lat="45.8396" lon="2.95251">
        <ele>903</ele>
        <time>2021-05-30T07:15:46Z</time>
      </trkpt>
      <trkpt lat="45.83959" lon="2.9525">
        <ele>903</ele>
        <time>2021-05-30T07:15:47Z</time>
      </trkpt>
      <trkpt lat="45.83959" lon="2.95248">
        <ele>903</ele>
        <time>2021-05-30T07:15:48Z</time>
      </trkpt>
      <trkpt lat="45.83959" lon="2.95247">
        <ele>903</ele>
        <time>2021-05-30T07:15:49Z</time>
      </trkpt>
      <trkpt lat="45.83959" lon="2.95245">
        <ele>903</ele>
        <time>2021-05-30T07:15:50Z</time>
      </trkpt>
      <trkpt lat="45.83959" lon="2.95244">
        <ele>903</ele>
        <time>2021-05-30T07:15:51Z</time>
      </trkpt>
      <trkpt lat="45.8396" lon="2.95242">
        <ele>903</ele>
        <time>2021-05-30T07:15:52Z</time>
      </trkpt>
      <trkpt lat="45.8396" lon="2.95241">
        <ele>903</ele>
        <time>2021-05-30T07:15:53Z</time>
      </trkpt>
      <trkpt lat="45.8396" lon="2.95239">
        <ele>903</ele>
        <time>2021-05-30T07:15:54Z</time>
      </trkpt>
      <trkpt lat="45.8396" lon="2.95237">
        <ele>903</ele>
        <time>2021-05-30T07:15:55Z</time>
      </trkpt>
      <trkpt lat="45.83956" lon="2.95223">
        <ele>903</ele>
        <time>2021-05-30T07:16:02Z</time>
      </trkpt>
      <trkpt lat="45.83955" lon="2.95223">
        <ele>903</ele>
        <time>2021-05-30T07:16:03Z</time>
      </trkpt>
      <trkpt lat="45.83955" lon="2.95222">
        <ele>903</ele>
        <time>2021-05-30T07:16:04Z</time>
      </trkpt>
      <trkpt lat="45.83955" lon="2.9522">
        <ele>903</ele>
        <time>2021-05-30T07:16:05Z</time>
      </trkpt>
      <trkpt lat="45.83953" lon="2.95219">
        <ele>903</ele>
        <time>2021-05-30T07:16:06Z</time>
      </trkpt>
      <trkpt lat="45.83952" lon="2.95217">
        <ele>903</ele>
        <time>2021-05-30T07:16:07Z</time>
      </trkpt>
      <trkpt lat="45.83951" lon="2.95216">
        <ele>903</ele>
        <time>2021-05-30T07:16:08Z</time>
      </trkpt>
      <trkpt lat="45.8395" lon="2.95215">
        <ele>903</ele>
        <time>2021-05-30T07:16:09Z</time>
      </trkpt>
      <trkpt lat="45.83949" lon="2.95214">
        <ele>903</ele>
        <time>2021-05-30T07:16:10Z</time>
      </trkpt>
      <trkpt lat="45.83948" lon="2.95213">
        <ele>903</ele>
        <time>2021-05-30T07:16:11Z</time>
      </trkpt>
      <trkpt lat="45.83947" lon="2.95213">
        <ele>903</ele>
        <time>2021-05-30T07:16:12Z</time>
      </trkpt>
      <trkpt lat="45.83945" lon="2.95212">
        <ele>903</ele>
        <time>2021-05-30T07:16:13Z</time>
      </trkpt>
      <trkpt lat="45.83944" lon="2.95211">
        <ele>903</ele>
        <time>2021-05-30T07:16:14Z</time>
      </trkpt>
      <trkpt lat="45.83942" lon="2.9521">
        <ele>903</ele>
        <time>2021-05-30T07:16:15Z</time>
      </trkpt>
      <trkpt lat="45.83941" lon="2.95209">
        <ele>903</ele>
        <time>2021-05-30T07:16:16Z</time>
      </trkpt>
      <trkpt lat="45.8394" lon="2.95208">
        <ele>903</ele>
        <time>2021-05-30T07:16:17Z</time>
      </trkpt>
      <trkpt lat="45.83938" lon="2.95206">
        <ele>903</ele>
        <time>2021-05-30T07:16:17Z</time>
      </trkpt>
      <trkpt lat="45.83938" lon="2.95205">
        <ele>903</ele>
        <time>2021-05-30T07:16:18Z</time>
      </trkpt>
      <trkpt lat="45.83937" lon="2.95204">
        <ele>903</ele>
        <time>2021-05-30T07:16:19Z</time>
      </trkpt>
      <trkpt lat="45.83936" lon="2.95202">
        <ele>903</ele>
        <time>2021-05-30T07:16:20Z</time>
      </trkpt>
      <trkpt lat="45.83935" lon="2.95201">
        <ele>903</ele>
        <time>2021-05-30T07:16:21Z</time>
      </trkpt>
      <trkpt lat="45.83934" lon="2.952">
        <ele>903</ele>
        <time>2021-05-30T07:16:22Z</time>
      </trkpt>
      <trkpt lat="45.83933" lon="2.95198">
        <ele>903</ele>
        <time>2021-05-30T07:16:23Z</time>
      </trkpt>
      <trkpt lat="45.83932" lon="2.95197">
        <ele>903</ele>
        <time>2021-05-30T07:16:24Z</time>
      </trkpt>
      <trkpt lat="45.83931" lon="2.95195">
        <ele>903</ele>
        <time>2021-05-30T07:16:25Z</time>
      </trkpt>
      <trkpt lat="45.8393" lon="2.95194">
        <ele>903</ele>
        <time>2021-05-30T07:16:26Z</time>
      </trkpt>
      <trkpt lat="45.83929" lon="2.95192">
        <ele>903</ele>
        <time>2021-05-30T07:16:27Z</time>
      </trkpt>
      <trkpt lat="45.83927" lon="2.95191">
        <ele>903</ele>
        <time>2021-05-30T07:16:28Z</time>
      </trkpt>
      <trkpt lat="45.83926" lon="2.95189">
        <ele>903</ele>
        <time>2021-05-30T07:16:29Z</time>
      </trkpt>
      <trkpt lat="45.83926" lon="2.95188">
        <ele>903</ele>
        <time>2021-05-30T07:16:30Z</time>
      </trkpt>
      <trkpt lat="45.83925" lon="2.95187">
        <ele>903</ele>
        <time>2021-05-30T07:16:31Z</time>
      </trkpt>
      <trkpt lat="45.83924" lon="2.95185">
        <ele>903</ele>
        <time>2021-05-30T07:16:32Z</time>
      </trkpt>
      <trkpt lat="45.83923" lon="2.95183">
        <ele>903</ele>
        <time>2021-05-30T07:16:33Z</time>
      </trkpt>
      <trkpt lat="45.83922" lon="2.95181">
        <ele>903</ele>
        <time>2021-05-30T07:16:34Z</time>
      </trkpt>
      <trkpt lat="45.83922" lon="2.95179">
        <ele>903</ele>
        <time>2021-05-30T07:16:35Z</time>
      </trkpt>
      <trkpt lat="45.83921" lon="2.95176">
        <ele>903</ele>
        <time>2021-05-30T07:16:36Z</time>
      </trkpt>
      <trkpt lat="45.8392" lon="2.95174">
        <ele>903</ele>
        <time>2021-05-30T07:16:37Z</time>
      </trkpt>
      <trkpt lat="45.83919" lon="2.95172">
        <ele>903</ele>
        <time>2021-05-30T07:16:38Z</time>
      </trkpt>
      <trkpt lat="45.83918" lon="2.9517">
        <ele>903</ele>
        <time>2021-05-30T07:16:39Z</time>
      </trkpt>
      <trkpt lat="45.83917" lon="2.95167">
        <ele>903</ele>
        <time>2021-05-30T07:16:40Z</time>
      </trkpt>
      <trkpt lat="45.83916" lon="2.95165">
        <ele>903</ele>
        <time>2021-05-30T07:16:41Z</time>
      </trkpt>
      <trkpt lat="45.83915" lon="2.95163">
        <ele>903</ele>
        <time>2021-05-30T07:16:42Z</time>
      </trkpt>
      <trkpt lat="45.83915" lon="2.95161">
        <ele>903</ele>
        <time>2021-05-30T07:16:43Z</time>
      </trkpt>
      <trkpt lat="45.83914" lon="2.95158">
        <ele>903</ele>
        <time>2021-05-30T07:16:44Z</time>
      </trkpt>
      <trkpt lat="45.83913" lon="2.95155">
        <ele>903</ele>
        <time>2021-05-30T07:16:45Z</time>
      </trkpt>
      <trkpt lat="45.83912" lon="2.95153">
        <ele>903</ele>
        <time>2021-05-30T07:16:46Z</time>
      </trkpt>
      <trkpt lat="45.83912" lon="2.95151">
        <ele>903</ele>
        <time>2021-05-30T07:16:47Z</time>
      </trkpt>
      <trkpt lat="45.83912" lon="2.95149">
        <ele>903</ele>
        <time>2021-05-30T07:16:48Z</time>
      </trkpt>
      <trkpt lat="45.8391" lon="2.95148">
        <ele>903</ele>
        <time>2021-05-30T07:16:49Z</time>
      </trkpt>
      <trkpt lat="45.8391" lon="2.95146">
        <ele>903</ele>
        <time>2021-05-30T07:16:50Z</time>
      </trkpt>
      <trkpt lat="45.8391" lon="2.95144">
        <ele>903</ele>
        <time>2021-05-30T07:16:51Z</time>
      </trkpt>
      <trkpt lat="45.83909" lon="2.95142">
        <ele>903</ele>
        <time>2021-05-30T07:16:52Z</time>
      </trkpt>
      <trkpt lat="45.83909" lon="2.9514">
        <ele>903</ele>
        <time>2021-05-30T07:16:53Z</time>
      </trkpt>
      <trkpt lat="45.83909" lon="2.95137">
        <ele>903</ele>
        <time>2021-05-30T07:16:54Z</time>
      </trkpt>
      <trkpt lat="45.83909" lon="2.95135">
        <ele>903</ele>
        <time>2021-05-30T07:16:55Z</time>
      </trkpt>
      <trkpt lat="45.83909" lon="2.95133">
        <ele>903</ele>
        <time>2021-05-30T07:16:56Z</time>
      </trkpt>
      <trkpt lat="45.83909" lon="2.9513">
        <ele>903</ele>
        <time>2021-05-30T07:16:57Z</time>
      </trkpt>
      <trkpt lat="45.83909" lon="2.95128">
        <ele>903</ele>
        <time>2021-05-30T07:16:58Z</time>
      </trkpt>
      <trkpt lat="45.83909" lon="2.95125">
        <ele>903</ele>
        <time>2021-05-30T07:16:59Z</time>
      </trkpt>
      <trkpt lat="45.83909" lon="2.95123">
        <ele>903</ele>
        <time>2021-05-30T07:17:00Z</time>
      </trkpt>
      <trkpt lat="45.83909" lon="2.95121">
        <ele>903</ele>
        <time>2021-05-30T07:17:01Z</time>
      </trkpt>
      <trkpt lat="45.83909" lon="2.95119">
        <ele>903</ele>
        <time>2021-05-30T07:17:02Z</time>
      </trkpt>
      <trkpt lat="45.83909" lon="2.95117">
        <ele>903</ele>
        <time>2021-05-30T07:17:03Z</time>
      </trkpt>
      <trkpt lat="45.83909" lon="2.95115">
        <ele>903</ele>
        <time>2021-05-30T07:17:04Z</time>
      </trkpt>
      <trkpt lat="45.83909" lon="2.95113">
        <ele>903</ele>
        <time>2021-05-30T07:17:05Z</time>
      </trkpt>
      <trkpt lat="45.8391" lon="2.95111">
        <ele>903</ele>
        <time>2021-05-30T07:17:06Z</time>
      </trkpt>
      <trkpt lat="45.8391" lon="2.95109">
        <ele>903</ele>
        <time>2021-05-30T07:17:07Z</time>
      </trkpt>
      <trkpt lat="45.83909" lon="2.95107">
        <ele>903</ele>
        <time>2021-05-30T07:17:08Z</time>
      </trkpt>
      <trkpt lat="45.83909" lon="2.95105">
        <ele>903</ele>
        <time>2021-05-30T07:17:09Z</time>
      </trkpt>
      <trkpt lat="45.83909" lon="2.95103">
        <ele>903</ele>
        <time>2021-05-30T07:17:10Z</time>
      </trkpt>
      <trkpt lat="45.83909" lon="2.95101">
        <ele>903</ele>
        <time>2021-05-30T07:17:11Z</time>
      </trkpt>
      <trkpt lat="45.83909" lon="2.951">
        <ele>903</ele>
        <time>2021-05-30T07:17:12Z</time>
      </trkpt>
      <trkpt lat="45.83908" lon="2.95098">
        <ele>903</ele>
        <time>2021-05-30T07:17:13Z</time>
      </trkpt>
      <trkpt lat="45.83908" lon="2.95096">
        <ele>903</ele>
        <time>2021-05-30T07:17:14Z</time>
      </trkpt>
      <trkpt lat="45.83908" lon="2.95094">
        <ele>903</ele>
        <time>2021-05-30T07:17:15Z</time>
      </trkpt>
      <trkpt lat="45.83907" lon="2.95092">
        <ele>903</ele>
        <time>2021-05-30T07:17:16Z</time>
      </trkpt>
      <trkpt lat="45.83907" lon="2.9509">
        <ele>903</ele>
        <time>2021-05-30T07:17:17Z</time>
      </trkpt>
      <trkpt lat="45.83907" lon="2.95088">
        <ele>903</ele>
        <time>2021-05-30T07:17:18Z</time>
      </trkpt>
      <trkpt lat="45.83906" lon="2.95086">
        <ele>903</ele>
        <time>2021-05-30T07:17:19Z</time>
      </trkpt>
      <trkpt lat="45.83906" lon="2.95084">
        <ele>903</ele>
        <time>2021-05-30T07:17:20Z</time>
      </trkpt>
      <trkpt lat="45.83905" lon="2.95083">
        <ele>903</ele>
        <time>2021-05-30T07:17:21Z</time>
      </trkpt>
      <trkpt lat="45.83905" lon="2.95081">
        <ele>903</ele>
        <time>2021-05-30T07:17:22Z</time>
      </trkpt>
      <trkpt lat="45.83905" lon="2.95079">
        <ele>903</ele>
        <time>2021-05-30T07:17:23Z</time>
      </trkpt>
      <trkpt lat="45.83904" lon="2.95077">
        <ele>903</ele>
        <time>2021-05-30T07:17:24Z</time>
      </trkpt>
      <trkpt lat="45.83904" lon="2.95075">
        <ele>903</ele>
        <time>2021-05-30T07:17:25Z</time>
      </trkpt>
      <trkpt lat="45.83903" lon="2.95073">
        <ele>903</ele>
        <time>2021-05-30T07:17:26Z</time>
      </trkpt>
      <trkpt lat="45.83902" lon="2.95071">
        <ele>903</ele>
        <time>2021-05-30T07:17:27Z</time>
      </trkpt>
      <trkpt lat="45.83901" lon="2.95069">
        <ele>903</ele>
        <time>2021-05-30T07:17:28Z</time>
      </trkpt>
      <trkpt lat="45.83901" lon="2.95067">
        <ele>903</ele>
        <time>2021-05-30T07:17:29Z</time>
      </trkpt>
      <trkpt lat="45.839" lon="2.95065">
        <ele>903</ele>
        <time>2021-05-30T07:17:30Z</time>
      </trkpt>
      <trkpt lat="45.839" lon="2.95063">
        <ele>903</ele>
        <time>2021-05-30T07:17:31Z</time>
      </trkpt>
      <trkpt lat="45.83899" lon="2.95061">
        <ele>903</ele>
        <time>2021-05-30T07:17:32Z</time>
      </trkpt>
      <trkpt lat="45.83898" lon="2.95059">
        <ele>903</ele>
        <time>2021-05-30T07:17:33Z</time>
      </trkpt>
      <trkpt lat="45.83898" lon="2.95056">
        <ele>903</ele>
        <time>2021-05-30T07:17:34Z</time>
      </trkpt>
      <trkpt lat="45.83897" lon="2.95055">
        <ele>903</ele>
        <time>2021-05-30T07:17:35Z</time>
      </trkpt>
      <trkpt lat="45.83897" lon="2.95053">
        <ele>903</ele>
        <time>2021-05-30T07:17:36Z</time>
      </trkpt>
      <trkpt lat="45.83896" lon="2.95052">
        <ele>903</ele>
        <time>2021-05-30T07:17:37Z</time>
      </trkpt>
      <trkpt lat="45.83896" lon="2.95051">
        <ele>903</ele>
        <time>2021-05-30T07:17:38Z</time>
      </trkpt>
      <trkpt lat="45.83895" lon="2.95049">
        <ele>903</ele>
        <time>2021-05-30T07:17:39Z</time>
      </trkpt>
      <trkpt lat="45.83894" lon="2.95047">
        <ele>903</ele>
        <time>2021-05-30T07:17:40Z</time>
      </trkpt>
      <trkpt lat="45.83894" lon="2.95046">
        <ele>903</ele>
        <time>2021-05-30T07:17:41Z</time>
      </trkpt>
      <trkpt lat="45.83893" lon="2.95045">
        <ele>903</ele>
        <time>2021-05-30T07:17:42Z</time>
      </trkpt>
      <trkpt lat="45.83892" lon="2.95043">
        <ele>903</ele>
        <time>2021-05-30T07:17:43Z</time>
      </trkpt>
      <trkpt lat="45.83891" lon="2.95042">
        <ele>903</ele>
        <time>2021-05-30T07:17:44Z</time>
      </trkpt>
      <trkpt lat="45.83891" lon="2.9504">
        <ele>903</ele>
        <time>2021-05-30T07:17:45Z</time>
      </trkpt>
      <trkpt lat="45.83889" lon="2.95039">
        <ele>903</ele>
        <time>2021-05-30T07:17:46Z</time>
      </trkpt>
      <trkpt lat="45.83888" lon="2.95037">
        <ele>903</ele>
        <time>2021-05-30T07:17:47Z</time>
      </trkpt>
      <trkpt lat="45.83888" lon="2.95035">
        <ele>903</ele>
        <time>2021-05-30T07:17:48Z</time>
      </trkpt>
      <trkpt lat="45.83886" lon="2.95033">
        <ele>903</ele>
        <time>2021-05-30T07:17:49Z</time>
      </trkpt>
      <trkpt lat="45.83885" lon="2.95032">
        <ele>903</ele>
        <time>2021-05-30T07:17:50Z</time>
      </trkpt>
      <trkpt lat="45.83884" lon="2.9503">
        <ele>903</ele>
        <time>2021-05-30T07:17:51Z</time>
      </trkpt>
      <trkpt lat="45.83883" lon="2.95028">
        <ele>903</ele>
        <time>2021-05-30T07:17:52Z</time>
      </trkpt>
      <trkpt lat="45.83882" lon="2.95027">
        <ele>903</ele>
        <time>2021-05-30T07:17:53Z</time>
      </trkpt>
      <trkpt lat="45.83881" lon="2.95026">
        <ele>903</ele>
        <time>2021-05-30T07:17:54Z</time>
      </trkpt>
      <trkpt lat="45.8388" lon="2.95025">
        <ele>903</ele>
        <time>2021-05-30T07:17:55Z</time>
      </trkpt>
      <trkpt lat="45.83879" lon="2.95023">
        <ele>903</ele>
        <time>2021-05-30T07:17:56Z</time>
      </trkpt>
      <trkpt lat="45.83878" lon="2.95022">
        <ele>903</ele>
        <time>2021-05-30T07:17:57Z</time>
      </trkpt>
      <trkpt lat="45.83876" lon="2.95021">
        <ele>903</ele>
        <time>2021-05-30T07:17:58Z</time>
      </trkpt>
      <trkpt lat="45.83875" lon="2.9502">
        <ele>903</ele>
        <time>2021-05-30T07:17:59Z</time>
      </trkpt>
      <trkpt lat="45.83874" lon="2.95018">
        <ele>903</ele>
        <time>2021-05-30T07:18:00Z</time>
      </trkpt>
      <trkpt lat="45.83873" lon="2.95017">
        <ele>903</ele>
        <time>2021-05-30T07:18:01Z</time>
      </trkpt>
      <trkpt lat="45.83872" lon="2.95015">
        <ele>903</ele>
        <time>2021-05-30T07:18:02Z</time>
      </trkpt>
      <trkpt lat="45.83872" lon="2.95013">
        <ele>903</ele>
        <time>2021-05-30T07:18:03Z</time>
      </trkpt>
      <trkpt lat="45.8387" lon="2.95011">
        <ele>903</ele>
        <time>2021-05-30T07:18:04Z</time>
      </trkpt>
      <trkpt lat="45.8387" lon="2.9501">
        <ele>903</ele>
        <time>2021-05-30T07:18:05Z</time>
      </trkpt>
      <trkpt lat="45.83869" lon="2.95009">
        <ele>903</ele>
        <time>2021-05-30T07:18:06Z</time>
      </trkpt>
      <trkpt lat="45.83868" lon="2.95007">
        <ele>903</ele>
        <time>2021-05-30T07:18:07Z</time>
      </trkpt>
      <trkpt lat="45.83867" lon="2.95006">
        <ele>903</ele>
        <time>2021-05-30T07:18:08Z</time>
      </trkpt>
      <trkpt lat="45.83867" lon="2.95004">
        <ele>903</ele>
        <time>2021-05-30T07:18:09Z</time>
      </trkpt>
      <trkpt lat="45.83866" lon="2.95003">
        <ele>903</ele>
        <time>2021-05-30T07:18:10Z</time>
      </trkpt>
      <trkpt lat="45.83865" lon="2.95002">
        <ele>903</ele>
        <time>2021-05-30T07:18:11Z</time>
      </trkpt>
      <trkpt lat="45.83865" lon="2.95">
        <ele>903</ele>
        <time>2021-05-30T07:18:12Z</time>
      </trkpt>
      <trkpt lat="45.83864" lon="2.94998">
        <ele>903</ele>
        <time>2021-05-30T07:18:13Z</time>
      </trkpt>
      <trkpt lat="45.83864" lon="2.94996">
        <ele>903</ele>
        <time>2021-05-30T07:18:14Z</time>
      </trkpt>
      <trkpt lat="45.83863" lon="2.94995">
        <ele>903</ele>
        <time>2021-05-30T07:18:15Z</time>
      </trkpt>
      <trkpt lat="45.83863" lon="2.94992">
        <ele>903</ele>
        <time>2021-05-30T07:18:16Z</time>
      </trkpt>
      <trkpt lat="45.83862" lon="2.9499">
        <ele>903</ele>
        <time>2021-05-30T07:18:17Z</time>
      </trkpt>
      <trkpt lat="45.83862" lon="2.94988">
        <ele>903</ele>
        <time>2021-05-30T07:18:18Z</time>
      </trkpt>
      <trkpt lat="45.83861" lon="2.94986">
        <ele>903</ele>
        <time>2021-05-30T07:18:19Z</time>
      </trkpt>
      <trkpt lat="45.8386" lon="2.94983">
        <ele>903</ele>
        <time>2021-05-30T07:18:20Z</time>
      </trkpt>
      <trkpt lat="45.83859" lon="2.94981">
        <ele>903</ele>
        <time>2021-05-30T07:18:21Z</time>
      </trkpt>
      <trkpt lat="45.83858" lon="2.94979">
        <ele>903</ele>
        <time>2021-05-30T07:18:22Z</time>
      </trkpt>
      <trkpt lat="45.83857" lon="2.94977">
        <ele>903</ele>
        <time>2021-05-30T07:18:23Z</time>
      </trkpt>
      <trkpt lat="45.83856" lon="2.94975">
        <ele>903</ele>
        <time>2021-05-30T07:18:24Z</time>
      </trkpt>
      <trkpt lat="45.83855" lon="2.94972">
        <ele>903</ele>
        <time>2021-05-30T07:18:25Z</time>
      </trkpt>
      <trkpt lat="45.83855" lon="2.9497">
        <ele>903</ele>
        <time>2021-05-30T07:18:26Z</time>
      </trkpt>
      <trkpt lat="45.83854" lon="2.94967">
        <ele>903</ele>
        <time>2021-05-30T07:18:27Z</time>
      </trkpt>
      <trkpt lat="45.83853" lon="2.94965">
        <ele>903</ele>
        <time>2021-05-30T07:18:28Z</time>
      </trkpt>
      <trkpt lat="45.83852" lon="2.94962">
        <ele>903</ele>
        <time>2021-05-30T07:18:29Z</time>
      </trkpt>
      <trkpt lat="45.83852" lon="2.94959">
        <ele>903</ele>
        <time>2021-05-30T07:18:30Z</time>
      </trkpt>
      <trkpt lat="45.83852" lon="2.94956">
        <ele>903</ele>
        <time>2021-05-30T07:18:31Z</time>
      </trkpt>
      <trkpt lat="45.83851" lon="2.94953">
        <ele>903</ele>
        <time>2021-05-30T07:18:32Z</time>
      </trkpt>
      <trkpt lat="45.8385" lon="2.9495">
        <ele>903</ele>
        <time>2021-05-30T07:18:33Z</time>
      </trkpt>
      <trkpt lat="45.83849" lon="2.94947">
        <ele>903</ele>
        <time>2021-05-30T07:18:34Z</time>
      </trkpt>
      <trkpt lat="45.83849" lon="2.94944">
        <ele>903</ele>
        <time>2021-05-30T07:18:35Z</time>
      </trkpt>
      <trkpt lat="45.83847" lon="2.94941">
        <ele>903</ele>
        <time>2021-05-30T07:18:36Z</time>
      </trkpt>
      <trkpt lat="45.83847" lon="2.94938">
        <ele>903</ele>
        <time>2021-05-30T07:18:37Z</time>
      </trkpt>
      <trkpt lat="45.83846" lon="2.94935">
        <ele>903</ele>
        <time>2021-05-30T07:18:38Z</time>
      </trkpt>
      <trkpt lat="45.83846" lon="2.94932">
        <ele>903</ele>
        <time>2021-05-30T07:18:39Z</time>
      </trkpt>
      <trkpt lat="45.83844" lon="2.94929">
        <ele>903</ele>
        <time>2021-05-30T07:18:41Z</time>
      </trkpt>
      <trkpt lat="45.83841" lon="2.9492">
        <ele>903</ele>
        <time>2021-05-30T07:18:42Z</time>
      </trkpt>
      <trkpt lat="45.8384" lon="2.94919">
        <ele>903</ele>
        <time>2021-05-30T07:18:43Z</time>
      </trkpt>
      <trkpt lat="45.8384" lon="2.94918">
        <ele>903</ele>
        <time>2021-05-30T07:18:44Z</time>
      </trkpt>
      <trkpt lat="45.8384" lon="2.94917">
        <ele>903</ele>
        <time>2021-05-30T07:18:45Z</time>
      </trkpt>
      <trkpt lat="45.8384" lon="2.94915">
        <ele>903</ele>
        <time>2021-05-30T07:18:46Z</time>
      </trkpt>
      <trkpt lat="45.83839" lon="2.94913">
        <ele>903</ele>
        <time>2021-05-30T07:18:47Z</time>
      </trkpt>
      <trkpt lat="45.83839" lon="2.94911">
        <ele>903</ele>
        <time>2021-05-30T07:18:48Z</time>
      </trkpt>
      <trkpt lat="45.83838" lon="2.94908">
        <ele>903</ele>
        <time>2021-05-30T07:18:49Z</time>
      </trkpt>
      <trkpt lat="45.83838" lon="2.94906">
        <ele>903</ele>
        <time>2021-05-30T07:18:50Z</time>
      </trkpt>
      <trkpt lat="45.83837" lon="2.94903">
        <ele>903</ele>
        <time>2021-05-30T07:18:51Z</time>
      </trkpt>
      <trkpt lat="45.83837" lon="2.949">
        <ele>903</ele>
        <time>2021-05-30T07:18:52Z</time>
      </trkpt>
      <trkpt lat="45.83836" lon="2.94896">
        <ele>903</ele>
        <time>2021-05-30T07:18:53Z</time>
      </trkpt>
      <trkpt lat="45.83836" lon="2.94893">
        <ele>903</ele>
        <time>2021-05-30T07:18:54Z</time>
      </trkpt>
      <trkpt lat="45.83835" lon="2.9489">
        <ele>903</ele>
        <time>2021-05-30T07:18:55Z</time>
      </trkpt>
      <trkpt lat="45.83834" lon="2.94887">
        <ele>903</ele>
        <time>2021-05-30T07:18:56Z</time>
      </trkpt>
      <trkpt lat="45.83834" lon="2.94883">
        <ele>903</ele>
        <time>2021-05-30T07:18:57Z</time>
      </trkpt>
      <trkpt lat="45.83834" lon="2.9488">
        <ele>903</ele>
        <time>2021-05-30T07:18:58Z</time>
      </trkpt>
      <trkpt lat="45.83833" lon="2.94876">
        <ele>903</ele>
        <time>2021-05-30T07:18:59Z</time>
      </trkpt>
      <trkpt lat="45.83833" lon="2.94872">
        <ele>903</ele>
        <time>2021-05-30T07:19:00Z</time>
      </trkpt>
      <trkpt lat="45.83833" lon="2.94869">
        <ele>903</ele>
        <time>2021-05-30T07:19:01Z</time>
      </trkpt>
      <trkpt lat="45.83832" lon="2.94865">
        <ele>903</ele>
        <time>2021-05-30T07:19:02Z</time>
      </trkpt>
      <trkpt lat="45.83832" lon="2.94862">
        <ele>903</ele>
        <time>2021-05-30T07:19:03Z</time>
      </trkpt>
      <trkpt lat="45.83832" lon="2.94859">
        <ele>903</ele>
        <time>2021-05-30T07:19:04Z</time>
      </trkpt>
      <trkpt lat="45.83832" lon="2.94856">
        <ele>903</ele>
        <time>2021-05-30T07:19:05Z</time>
      </trkpt>
      <trkpt lat="45.83831" lon="2.94853">
        <ele>903</ele>
        <time>2021-05-30T07:19:06Z</time>
      </trkpt>
      <trkpt lat="45.83832" lon="2.9485">
        <ele>903</ele>
        <time>2021-05-30T07:19:07Z</time>
      </trkpt>
      <trkpt lat="45.83832" lon="2.94846">
        <ele>903</ele>
        <time>2021-05-30T07:19:08Z</time>
      </trkpt>
      <trkpt lat="45.83832" lon="2.94843">
        <ele>903</ele>
        <time>2021-05-30T07:19:09Z</time>
      </trkpt>
      <trkpt lat="45.83832" lon="2.94841">
        <ele>903</ele>
        <time>2021-05-30T07:19:10Z</time>
      </trkpt>
      <trkpt lat="45.83832" lon="2.94838">
        <ele>903</ele>
        <time>2021-05-30T07:19:11Z</time>
      </trkpt>
      <trkpt lat="45.83832" lon="2.94835">
        <ele>903</ele>
        <time>2021-05-30T07:19:12Z</time>
      </trkpt>
      <trkpt lat="45.83832" lon="2.94832">
        <ele>903</ele>
        <time>2021-05-30T07:19:13Z</time>
      </trkpt>
      <trkpt lat="45.83832" lon="2.94829">
        <ele>903</ele>
        <time>2021-05-30T07:19:14Z</time>
      </trkpt>
      <trkpt lat="45.83832" lon="2.94826">
        <ele>903</ele>
        <time>2021-05-30T07:19:15Z</time>
      </trkpt>
      <trkpt lat="45.83832" lon="2.94823">
        <ele>903</ele>
        <time>2021-05-30T07:19:16Z</time>
      </trkpt>
      <trkpt lat="45.83832" lon="2.94821">
        <ele>903</ele>
        <time>2021-05-30T07:19:17Z</time>
      </trkpt>
      <trkpt lat="45.83833" lon="2.94818">
        <ele>903</ele>
        <time>2021-05-30T07:19:18Z</time>
      </trkpt>
      <trkpt lat="45.83833" lon="2.94816">
        <ele>903</ele>
        <time>2021-05-30T07:19:19Z</time>
      </trkpt>
      <trkpt lat="45.83833" lon="2.94813">
        <ele>903</ele>
        <time>2021-05-30T07:19:20Z</time>
      </trkpt>
      <trkpt lat="45.83832" lon="2.94811">
        <ele>903</ele>
        <time>2021-05-30T07:19:21Z</time>
      </trkpt>
      <trkpt lat="45.83832" lon="2.94809">
        <ele>903</ele>
        <time>2021-05-30T07:19:22Z</time>
      </trkpt>
      <trkpt lat="45.83831" lon="2.94807">
        <ele>903</ele>
        <time>2021-05-30T07:19:23Z</time>
      </trkpt>
      <trkpt lat="45.83831" lon="2.94805">
        <ele>903</ele>
        <time>2021-05-30T07:19:24Z</time>
      </trkpt>
      <trkpt lat="45.83831" lon="2.94803">
        <ele>903</ele>
        <time>2021-05-30T07:19:25Z</time>
      </trkpt>
      <trkpt lat="45.83831" lon="2.94801">
        <ele>903</ele>
        <time>2021-05-30T07:19:26Z</time>
      </trkpt>
      <trkpt lat="45.83831" lon="2.94799">
        <ele>903</ele>
        <time>2021-05-30T07:19:27Z</time>
      </trkpt>
      <trkpt lat="45.8383" lon="2.94797">
        <ele>903</ele>
        <time>2021-05-30T07:19:28Z</time>
      </trkpt>
      <trkpt lat="45.8383" lon="2.94795">
        <ele>903</ele>
        <time>2021-05-30T07:19:29Z</time>
      </trkpt>
      <trkpt lat="45.8383" lon="2.94793">
        <ele>903</ele>
        <time>2021-05-30T07:19:30Z</time>
      </trkpt>
      <trkpt lat="45.8383" lon="2.9479">
        <ele>903</ele>
        <time>2021-05-30T07:19:31Z</time>
      </trkpt>
      <trkpt lat="45.8383" lon="2.94788">
        <ele>903</ele>
        <time>2021-05-30T07:19:32Z</time>
      </trkpt>
      <trkpt lat="45.8383" lon="2.94786">
        <ele>903</ele>
        <time>2021-05-30T07:19:33Z</time>
      </trkpt>
      <trkpt lat="45.8383" lon="2.94783">
        <ele>903</ele>
        <time>2021-05-30T07:19:34Z</time>
      </trkpt>
      <trkpt lat="45.8383" lon="2.94781">
        <ele>903</ele>
        <time>2021-05-30T07:19:35Z</time>
      </trkpt>
      <trkpt lat="45.83829" lon="2.94779">
        <ele>903</ele>
        <time>2021-05-30T07:19:36Z</time>
      </trkpt>
      <trkpt lat="45.83828" lon="2.94777">
        <ele>903</ele>
        <time>2021-05-30T07:19:37Z</time>
      </trkpt>
      <trkpt lat="45.83828" lon="2.94775">
        <ele>903</ele>
        <time>2021-05-30T07:19:38Z</time>
      </trkpt>
      <trkpt lat="45.83828" lon="2.94774">
        <ele>903</ele>
        <time>2021-05-30T07:19:39Z</time>
      </trkpt>
      <trkpt lat="45.83828" lon="2.94772">
        <ele>903</ele>
        <time>2021-05-30T07:19:40Z</time>
      </trkpt>
      <trkpt lat="45.83828" lon="2.94771">
        <ele>903</ele>
        <time>2021-05-30T07:19:41Z</time>
      </trkpt>
      <trkpt lat="45.83828" lon="2.94769">
        <ele>903</ele>
        <time>2021-05-30T07:19:42Z</time>
      </trkpt>
      <trkpt lat="45.83828" lon="2.94768">
        <ele>903</ele>
        <time>2021-05-30T07:19:43Z</time>
      </trkpt>
      <trkpt lat="45.83826" lon="2.94756">
        <ele>903</ele>
        <time>2021-05-30T07:19:49Z</time>
      </trkpt>
      <trkpt lat="45.83825" lon="2.94755">
        <ele>903</ele>
        <time>2021-05-30T07:19:50Z</time>
      </trkpt>
      <trkpt lat="45.83825" lon="2.94755">
        <ele>903</ele>
        <time>2021-05-30T07:19:51Z</time>
      </trkpt>
      <trkpt lat="45.83825" lon="2.94753">
        <ele>903</ele>
        <time>2021-05-30T07:19:52Z</time>
      </trkpt>
      <trkpt lat="45.83825" lon="2.94751">
        <ele>903</ele>
        <time>2021-05-30T07:19:53Z</time>
      </trkpt>
      <trkpt lat="45.83824" lon="2.9475">
        <ele>903</ele>
        <time>2021-05-30T07:19:54Z</time>
      </trkpt>
      <trkpt lat="45.83823" lon="2.94747">
        <ele>903</ele>
        <time>2021-05-30T07:19:55Z</time>
      </trkpt>
      <trkpt lat="45.83823" lon="2.94745">
        <ele>903</ele>
        <time>2021-05-30T07:19:56Z</time>
      </trkpt>
      <trkpt lat="45.83823" lon="2.94743">
        <ele>903</ele>
        <time>2021-05-30T07:19:57Z</time>
      </trkpt>
      <trkpt lat="45.83823" lon="2.94741">
        <ele>903</ele>
        <time>2021-05-30T07:19:58Z</time>
      </trkpt>
      <trkpt lat="45.83823" lon="2.94739">
        <ele>903</ele>
        <time>2021-05-30T07:19:59Z</time>
      </trkpt>
      <trkpt lat="45.83823" lon="2.94738">
        <ele>903</ele>
        <time>2021-05-30T07:20:00Z</time>
      </trkpt>
      <trkpt lat="45.83823" lon="2.94736">
        <ele>903</ele>
        <time>2021-05-30T07:20:01Z</time>
      </trkpt>
      <trkpt lat="45.83823" lon="2.94734">
        <ele>903</ele>
        <time>2021-05-30T07:20:02Z</time>
      </trkpt>
      <trkpt lat="45.83823" lon="2.94732">
        <ele>903</ele>
        <time>2021-05-30T07:20:03Z</time>
      </trkpt>
      <trkpt lat="45.83823" lon="2.9473">
        <ele>903</ele>
        <time>2021-05-30T07:20:04Z</time>
      </trkpt>
      <trkpt lat="45.83823" lon="2.94728">
        <ele>903</ele>
        <time>2021-05-30T07:20:05Z</time>
      </trkpt>
      <trkpt lat="45.83824" lon="2.94726">
        <ele>903</ele>
        <time>2021-05-30T07:20:06Z</time>
      </trkpt>
      <trkpt lat="45.83824" lon="2.94724">
        <ele>903</ele>
        <time>2021-05-30T07:20:07Z</time>
      </trkpt>
      <trkpt lat="45.83824" lon="2.94722">
        <ele>903</ele>
        <time>2021-05-30T07:20:08Z</time>
      </trkpt>
      <trkpt lat="45.83824" lon="2.94721">
        <ele>903</ele>
        <time>2021-05-30T07:20:09Z</time>
      </trkpt>
      <trkpt lat="45.83824" lon="2.94718">
        <ele>903</ele>
        <time>2021-05-30T07:20:10Z</time>
      </trkpt>
      <trkpt lat="45.83824" lon="2.94716">
        <ele>903</ele>
        <time>2021-05-30T07:20:11Z</time>
      </trkpt>
      <trkpt lat="45.83824" lon="2.94714">
        <ele>903</ele>
        <time>2021-05-30T07:20:13Z</time>
      </trkpt>
      <trkpt lat="45.83824" lon="2.94712">
        <ele>903</ele>
        <time>2021-05-30T07:20:14Z</time>
      </trkpt>
      <trkpt lat="45.83825" lon="2.94709">
        <ele>903</ele>
        <time>2021-05-30T07:20:15Z</time>
      </trkpt>
      <trkpt lat="45.83825" lon="2.94707">
        <ele>903</ele>
        <time>2021-05-30T07:20:17Z</time>
      </trkpt>
      <trkpt lat="45.83824" lon="2.94701">
        <ele>903</ele>
        <time>2021-05-30T07:20:18Z</time>
      </trkpt>
      <trkpt lat="45.83823" lon="2.94701">
        <ele>903</ele>
        <time>2021-05-30T07:20:19Z</time>
      </trkpt>
      <trkpt lat="45.83824" lon="2.947">
        <ele>903</ele>
        <time>2021-05-30T07:20:20Z</time>
      </trkpt>
      <trkpt lat="45.83824" lon="2.94698">
        <ele>903</ele>
        <time>2021-05-30T07:20:21Z</time>
      </trkpt>
      <trkpt lat="45.83825" lon="2.94697">
        <ele>903</ele>
        <time>2021-05-30T07:20:22Z</time>
      </trkpt>
      <trkpt lat="45.83825" lon="2.94695">
        <ele>903</ele>
        <time>2021-05-30T07:20:23Z</time>
      </trkpt>
      <trkpt lat="45.83825" lon="2.94693">
        <ele>903</ele>
        <time>2021-05-30T07:20:24Z</time>
      </trkpt>
      <trkpt lat="45.83825" lon="2.94691">
        <ele>903</ele>
        <time>2021-05-30T07:20:25Z</time>
      </trkpt>
      <trkpt lat="45.83825" lon="2.9469">
        <ele>903</ele>
        <time>2021-05-30T07:20:26Z</time>
      </trkpt>
      <trkpt lat="45.83825" lon="2.94688">
        <ele>903</ele>
        <time>2021-05-30T07:20:27Z</time>
      </trkpt>
      <trkpt lat="45.83825" lon="2.94686">
        <ele>903</ele>
        <time>2021-05-30T07:20:28Z</time>
      </trkpt>
      <trkpt lat="45.83825" lon="2.94685">
        <ele>903</ele>
        <time>2021-05-30T07:20:29Z</time>
      </trkpt>
      <trkpt lat="45.83825" lon="2.94683">
        <ele>903</ele>
        <time>2021-05-30T07:20:30Z</time>
      </trkpt>
      <trkpt lat="45.83824" lon="2.9468">
        <ele>903</ele>
        <time>2021-05-30T07:20:31Z</time>
      </trkpt>
      <trkpt lat="45.83823" lon="2.94678">
        <ele>903</ele>
        <time>2021-05-30T07:20:32Z</time>
      </trkpt>
      <trkpt lat="45.83823" lon="2.94676">
        <ele>903</ele>
        <time>2021-05-30T07:20:32Z</time>
      </trkpt>
      <trkpt lat="45.83822" lon="2.94674">
        <ele>903</ele>
        <time>2021-05-30T07:20:33Z</time>
      </trkpt>
      <trkpt lat="45.83822" lon="2.94672">
        <ele>903</ele>
        <time>2021-05-30T07:20:34Z</time>
      </trkpt>
      <trkpt lat="45.83822" lon="2.9467">
        <ele>903</ele>
        <time>2021-05-30T07:20:35Z</time>
      </trkpt>
      <trkpt lat="45.83821" lon="2.94668">
        <ele>903</ele>
        <time>2021-05-30T07:20:36Z</time>
      </trkpt>
      <trkpt lat="45.83821" lon="2.94667">
        <ele>903</ele>
        <time>2021-05-30T07:20:37Z</time>
      </trkpt>
      <trkpt lat="45.83821" lon="2.94665">
        <ele>903</ele>
        <time>2021-05-30T07:20:38Z</time>
      </trkpt>
      <trkpt lat="45.83821" lon="2.94663">
        <ele>903</ele>
        <time>2021-05-30T07:20:39Z</time>
      </trkpt>
      <trkpt lat="45.83821" lon="2.94661">
        <ele>903</ele>
        <time>2021-05-30T07:20:40Z</time>
      </trkpt>
      <trkpt lat="45.8382" lon="2.9466">
        <ele>903</ele>
        <time>2021-05-30T07:20:41Z</time>
      </trkpt>
      <trkpt lat="45.8382" lon="2.94658">
        <ele>903</ele>
        <time>2021-05-30T07:20:42Z</time>
      </trkpt>
      <trkpt lat="45.8382" lon="2.94657">
        <ele>903</ele>
        <time>2021-05-30T07:20:43Z</time>
      </trkpt>
      <trkpt lat="45.8382" lon="2.94655">
        <ele>903</ele>
        <time>2021-05-30T07:20:44Z</time>
      </trkpt>
      <trkpt lat="45.8382" lon="2.94653">
        <ele>903</ele>
        <time>2021-05-30T07:20:45Z</time>
      </trkpt>
      <trkpt lat="45.8382" lon="2.94652">
        <ele>903</ele>
        <time>2021-05-30T07:20:46Z</time>
      </trkpt>
      <trkpt lat="45.83821" lon="2.9465">
        <ele>903</ele>
        <time>2021-05-30T07:20:47Z</time>
      </trkpt>
      <trkpt lat="45.83821" lon="2.94648">
        <ele>903</ele>
        <time>2021-05-30T07:20:48Z</time>
      </trkpt>
      <trkpt lat="45.83822" lon="2.94646">
        <ele>903</ele>
        <time>2021-05-30T07:20:49Z</time>
      </trkpt>
      <trkpt lat="45.83822" lon="2.94645">
        <ele>903</ele>
        <time>2021-05-30T07:20:50Z</time>
      </trkpt>
      <trkpt lat="45.83822" lon="2.94643">
        <ele>903</ele>
        <time>2021-05-30T07:20:51Z</time>
      </trkpt>
      <trkpt lat="45.83822" lon="2.94642">
        <ele>903</ele>
        <time>2021-05-30T07:20:52Z</time>
      </trkpt>
      <trkpt lat="45.83822" lon="2.9464">
        <ele>903</ele>
        <time>2021-05-30T07:20:53Z</time>
      </trkpt>
      <trkpt lat="45.83822" lon="2.94638">
        <ele>903</ele>
        <time>2021-05-30T07:20:54Z</time>
      </trkpt>
      <trkpt lat="45.83822" lon="2.94637">
        <ele>903</ele>
        <time>2021-05-30T07:20:55Z</time>
      </trkpt>
      <trkpt lat="45.83821" lon="2.94635">
        <ele>903</ele>
        <time>2021-05-30T07:20:56Z</time>
      </trkpt>
      <trkpt lat="45.83821" lon="2.94634">
        <ele>903</ele>
        <time>2021-05-30T07:20:57Z</time>
      </trkpt>
      <trkpt lat="45.8382" lon="2.94633">
        <ele>903</ele>
        <time>2021-05-30T07:20:58Z</time>
      </trkpt>
      <trkpt lat="45.83819" lon="2.94631">
        <ele>903</ele>
        <time>2021-05-30T07:20:59Z</time>
      </trkpt>
      <trkpt lat="45.83819" lon="2.9463">
        <ele>903</ele>
        <time>2021-05-30T07:21:00Z</time>
      </trkpt>
      <trkpt lat="45.83818" lon="2.94629">
        <ele>903</ele>
        <time>2021-05-30T07:21:01Z</time>
      </trkpt>
      <trkpt lat="45.83817" lon="2.94627">
        <ele>903</ele>
        <time>2021-05-30T07:21:02Z</time>
      </trkpt>
      <trkpt lat="45.83816" lon="2.94626">
        <ele>903</ele>
        <time>2021-05-30T07:21:03Z</time>
      </trkpt>
      <trkpt lat="45.83815" lon="2.94624">
        <ele>903</ele>
        <time>2021-05-30T07:21:04Z</time>
      </trkpt>
      <trkpt lat="45.83814" lon="2.94623">
        <ele>903</ele>
        <time>2021-05-30T07:21:05Z</time>
      </trkpt>
      <trkpt lat="45.83813" lon="2.94621">
        <ele>903</ele>
        <time>2021-05-30T07:21:06Z</time>
      </trkpt>
      <trkpt lat="45.83812" lon="2.9462">
        <ele>903</ele>
        <time>2021-05-30T07:21:07Z</time>
      </trkpt>
      <trkpt lat="45.8381" lon="2.94618">
        <ele>903</ele>
        <time>2021-05-30T07:21:08Z</time>
      </trkpt>
      <trkpt lat="45.8381" lon="2.94616">
        <ele>903</ele>
        <time>2021-05-30T07:21:09Z</time>
      </trkpt>
      <trkpt lat="45.83809" lon="2.94613">
        <ele>903</ele>
        <time>2021-05-30T07:21:10Z</time>
      </trkpt>
      <trkpt lat="45.83809" lon="2.94611">
        <ele>903</ele>
        <time>2021-05-30T07:21:11Z</time>
      </trkpt>
      <trkpt lat="45.83807" lon="2.94608">
        <ele>903</ele>
        <time>2021-05-30T07:21:12Z</time>
      </trkpt>
      <trkpt lat="45.83807" lon="2.94605">
        <ele>903</ele>
        <time>2021-05-30T07:21:13Z</time>
      </trkpt>
      <trkpt lat="45.83807" lon="2.94602">
        <ele>903</ele>
        <time>2021-05-30T07:21:14Z</time>
      </trkpt>
      <trkpt lat="45.83806" lon="2.94598">
        <ele>903</ele>
        <time>2021-05-30T07:21:15Z</time>
      </trkpt>
      <trkpt lat="45.83805" lon="2.94595">
        <ele>903</ele>
        <time>2021-05-30T07:21:16Z</time>
      </trkpt>
      <trkpt lat="45.83804" lon="2.94592">
        <ele>903</ele>
        <time>2021-05-30T07:21:17Z</time>
      </trkpt>
      <trkpt lat="45.83804" lon="2.94589">
        <ele>903</ele>
        <time>2021-05-30T07:21:18Z</time>
      </trkpt>
      <trkpt lat="45.83802" lon="2.94586">
        <ele>903</ele>
        <time>2021-05-30T07:21:19Z</time>
      </trkpt>
      <trkpt lat="45.83802" lon="2.94583">
        <ele>903</ele>
        <time>2021-05-30T07:21:20Z</time>
      </trkpt>
      <trkpt lat="45.83801" lon="2.9458">
        <ele>903</ele>
        <time>2021-05-30T07:21:21Z</time>
      </trkpt>
      <trkpt lat="45.83801" lon="2.94576">
        <ele>903</ele>
        <time>2021-05-30T07:21:22Z</time>
      </trkpt>
      <trkpt lat="45.838" lon="2.94573">
        <ele>903</ele>
        <time>2021-05-30T07:21:23Z</time>
      </trkpt>
      <trkpt lat="45.83799" lon="2.9457">
        <ele>903</ele>
        <time>2021-05-30T07:21:24Z</time>
      </trkpt>
      <trkpt lat="45.83798" lon="2.94566">
        <ele>903</ele>
        <time>2021-05-30T07:21:25Z</time>
      </trkpt>
      <trkpt lat="45.83798" lon="2.94563">
        <ele>903</ele>
        <time>2021-05-30T07:21:26Z</time>
      </trkpt>
      <trkpt lat="45.83797" lon="2.9456">
        <ele>903</ele>
        <time>2021-05-30T07:21:27Z</time>
      </trkpt>
      <trkpt lat="45.83796" lon="2.94558">
        <ele>903</ele>
        <time>2021-05-30T07:21:28Z</time>
      </trkpt>
      <trkpt lat="45.83795" lon="2.94554">
        <ele>903</ele>
        <time>2021-05-30T07:21:29Z</time>
      </trkpt>
      <trkpt lat="45.83795" lon="2.9455">
        <ele>903</ele>
        <time>2021-05-30T07:21:30Z</time>
      </trkpt>
      <trkpt lat="45.83794" lon="2.94546">
        <ele>903</ele>
        <time>2021-05-30T07:21:31Z</time>
      </trkpt>
      <trkpt lat="45.83793" lon="2.94542">
        <ele>903</ele>
        <time>2021-05-30T07:21:32Z</time>
      </trkpt>
      <trkpt lat="45.83792" lon="2.94539">
        <ele>903</ele>
        <time>2021-05-30T07:21:33Z</time>
      </trkpt>
      <trkpt lat="45.83791" lon="2.94535">
        <ele>903</ele>
        <time>2021-05-30T07:21:34Z</time>
      </trkpt>
      <trkpt lat="45.8379" lon="2.94531">
        <ele>903</ele>
        <time>2021-05-30T07:21:35Z</time>
      </trkpt>
      <trkpt lat="45.83789" lon="2.94527">
        <ele>903</ele>
        <time>2021-05-30T07:21:36Z</time>
      </trkpt>
      <trkpt lat="45.83789" lon="2.94523">
        <ele>903</ele>
        <time>2021-05-30T07:21:37Z</time>
      </trkpt>
      <trkpt lat="45.83788" lon="2.94519">
        <ele>903</ele>
        <time>2021-05-30T07:21:38Z</time>
      </trkpt>
      <trkpt lat="45.83787" lon="2.94515">
        <ele>903</ele>
        <time>2021-05-30T07:21:39Z</time>
      </trkpt>
      <trkpt lat="45.83786" lon="2.9451">
        <ele>903</ele>
        <time>2021-05-30T07:21:40Z</time>
      </trkpt>
      <trkpt lat="45.83785" lon="2.94506">
        <ele>903</ele>
        <time>2021-05-30T07:21:41Z</time>
      </trkpt>
      <trkpt lat="45.83785" lon="2.94502">
        <ele>903</ele>
        <time>2021-05-30T07:21:42Z</time>
      </trkpt>
      <trkpt lat="45.83783" lon="2.94497">
        <ele>903</ele>
        <time>2021-05-30T07:21:43Z</time>
      </trkpt>
      <trkpt lat="45.83783" lon="2.94493">
        <ele>903</ele>
        <time>2021-05-30T07:21:44Z</time>
      </trkpt>
      <trkpt lat="45.83781" lon="2.94489">
        <ele>903</ele>
        <time>2021-05-30T07:21:45Z</time>
      </trkpt>
      <trkpt lat="45.83781" lon="2.94485">
        <ele>903</ele>
        <time>2021-05-30T07:21:46Z</time>
      </trkpt>
      <trkpt lat="45.8378" lon="2.94482">
        <ele>903</ele>
        <time>2021-05-30T07:21:47Z</time>
      </trkpt>
      <trkpt lat="45.83779" lon="2.94478">
        <ele>903</ele>
        <time>2021-05-30T07:21:48Z</time>
      </trkpt>
      <trkpt lat="45.83778" lon="2.94474">
        <ele>903</ele>
        <time>2021-05-30T07:21:49Z</time>
      </trkpt>
      <trkpt lat="45.83777" lon="2.9447">
        <ele>903</ele>
        <time>2021-05-30T07:21:50Z</time>
      </trkpt>
      <trkpt lat="45.83776" lon="2.94466">
        <ele>903</ele>
        <time>2021-05-30T07:21:51Z</time>
      </trkpt>
      <trkpt lat="45.83775" lon="2.94462">
        <ele>903</ele>
        <time>2021-05-30T07:21:52Z</time>
      </trkpt>
      <trkpt lat="45.83774" lon="2.94457">
        <ele>903</ele>
        <time>2021-05-30T07:21:53Z</time>
      </trkpt>
      <trkpt lat="45.83773" lon="2.94453">
        <ele>903</ele>
        <time>2021-05-30T07:21:54Z</time>
      </trkpt>
      <trkpt lat="45.83773" lon="2.94449">
        <ele>903</ele>
        <time>2021-05-30T07:21:55Z</time>
      </trkpt>
      <trkpt lat="45.83772" lon="2.94445">
        <ele>903</ele>
        <time>2021-05-30T07:21:56Z</time>
      </trkpt>
      <trkpt lat="45.83771" lon="2.94441">
        <ele>903</ele>
        <time>2021-05-30T07:21:57Z</time>
      </trkpt>
      <trkpt lat="45.83771" lon="2.94438">
        <ele>903</ele>
        <time>2021-05-30T07:21:58Z</time>
      </trkpt>
      <trkpt lat="45.8377" lon="2.94435">
        <ele>903</ele>
        <time>2021-05-30T07:21:59Z</time>
      </trkpt>
      <trkpt lat="45.83769" lon="2.94431">
        <ele>903</ele>
        <time>2021-05-30T07:22:00Z</time>
      </trkpt>
      <trkpt lat="45.83768" lon="2.94428">
        <ele>903</ele>
        <time>2021-05-30T07:22:01Z</time>
      </trkpt>
      <trkpt lat="45.83767" lon="2.94424">
        <ele>903</ele>
        <time>2021-05-30T07:22:02Z</time>
      </trkpt>
      <trkpt lat="45.83766" lon="2.94419">
        <ele>903</ele>
        <time>2021-05-30T07:22:03Z</time>
      </trkpt>
      <trkpt lat="45.83765" lon="2.94415">
        <ele>903</ele>
        <time>2021-05-30T07:22:04Z</time>
      </trkpt>
      <trkpt lat="45.83765" lon="2.94411">
        <ele>903</ele>
        <time>2021-05-30T07:22:05Z</time>
      </trkpt>
      <trkpt lat="45.83764" lon="2.94407">
        <ele>903</ele>
        <time>2021-05-30T07:22:06Z</time>
      </trkpt>
      <trkpt lat="45.83763" lon="2.94403">
        <ele>903</ele>
        <time>2021-05-30T07:22:07Z</time>
      </trkpt>
      <trkpt lat="45.83762" lon="2.944">
        <ele>903</ele>
        <time>2021-05-30T07:22:08Z</time>
      </trkpt>
      <trkpt lat="45.83762" lon="2.94397">
        <ele>903</ele>
        <time>2021-05-30T07:22:09Z</time>
      </trkpt>
      <trkpt lat="45.83762" lon="2.94394">
        <ele>903</ele>
        <time>2021-05-30T07:22:10Z</time>
      </trkpt>
      <trkpt lat="45.83761" lon="2.94391">
        <ele>903</ele>
        <time>2021-05-30T07:22:11Z</time>
      </trkpt>
      <trkpt lat="45.83761" lon="2.94389">
        <ele>903</ele>
        <time>2021-05-30T07:22:12Z</time>
      </trkpt>
      <trkpt lat="45.8376" lon="2.94386">
        <ele>903</ele>
        <time>2021-05-30T07:22:13Z</time>
      </trkpt>
      <trkpt lat="45.83759" lon="2.94383">
        <ele>903</ele>
        <time>2021-05-30T07:22:14Z</time>
      </trkpt>
      <trkpt lat="45.83759" lon="2.9438">
        <ele>903</ele>
        <time>2021-05-30T07:22:15Z</time>
      </trkpt>
      <trkpt lat="45.83758" lon="2.94377">
        <ele>903</ele>
        <time>2021-05-30T07:22:16Z</time>
      </trkpt>
      <trkpt lat="45.83758" lon="2.94373">
        <ele>903</ele>
        <time>2021-05-30T07:22:17Z</time>
      </trkpt>
      <trkpt lat="45.83757" lon="2.9437">
        <ele>903</ele>
        <time>2021-05-30T07:22:18Z</time>
      </trkpt>
      <trkpt lat="45.83756" lon="2.94365">
        <ele>903</ele>
        <time>2021-05-30T07:22:19Z</time>
      </trkpt>
      <trkpt lat="45.83755" lon="2.94361">
        <ele>903</ele>
        <time>2021-05-30T07:22:20Z</time>
      </trkpt>
      <trkpt lat="45.83754" lon="2.94358">
        <ele>903</ele>
        <time>2021-05-30T07:22:21Z</time>
      </trkpt>
      <trkpt lat="45.83754" lon="2.94355">
        <ele>903</ele>
        <time>2021-05-30T07:22:22Z</time>
      </trkpt>
      <trkpt lat="45.83755" lon="2.94354">
        <ele>903</ele>
        <time>2021-05-30T07:25:18Z</time>
      </trkpt>
      <trkpt lat="45.83755" lon="2.94354">
        <ele>903</ele>
        <time>2021-05-30T07:25:19Z</time>
      </trkpt>
      <trkpt lat="45.83756" lon="2.94354">
        <ele>903</ele>
        <time>2021-05-30T07:25:20Z</time>
      </trkpt>
      <trkpt lat="45.83756" lon="2.94353">
        <ele>903</ele>
        <time>2021-05-30T07:25:21Z</time>
      </trkpt>
      <trkpt lat="45.83757" lon="2.94353">
        <ele>903</ele>
        <time>2021-05-30T07:25:22Z</time>
      </trkpt>
      <trkpt lat="45.83758" lon="2.94352">
        <ele>903</ele>
        <time>2021-05-30T07:25:23Z</time>
      </trkpt>
      <trkpt lat="45.83759" lon="2.94351">
        <ele>903</ele>
        <time>2021-05-30T07:25:24Z</time>
      </trkpt>
      <trkpt lat="45.83761" lon="2.94351">
        <ele>903</ele>
        <time>2021-05-30T07:25:25Z</time>
      </trkpt>
      <trkpt lat="45.83762" lon="2.9435">
        <ele>903</ele>
        <time>2021-05-30T07:25:26Z</time>
      </trkpt>
      <trkpt lat="45.83762" lon="2.9435">
        <ele>903</ele>
        <time>2021-05-30T07:25:27Z</time>
      </trkpt>
      <trkpt lat="45.83764" lon="2.94349">
        <ele>903</ele>
        <time>2021-05-30T07:25:28Z</time>
      </trkpt>
      <trkpt lat="45.83765" lon="2.94348">
        <ele>903</ele>
        <time>2021-05-30T07:25:29Z</time>
      </trkpt>
      <trkpt lat="45.83766" lon="2.94347">
        <ele>903</ele>
        <time>2021-05-30T07:25:30Z</time>
      </trkpt>
      <trkpt lat="45.83768" lon="2.94346">
        <ele>903</ele>
        <time>2021-05-30T07:25:31Z</time>
      </trkpt>
      <trkpt lat="45.83769" lon="2.94346">
        <ele>903</ele>
        <time>2021-05-30T07:25:32Z</time>
      </trkpt>
      <trkpt lat="45.8377" lon="2.94345">
        <ele>903</ele>
        <time>2021-05-30T07:25:33Z</time>
      </trkpt>
      <trkpt lat="45.83771" lon="2.94344">
        <ele>903</ele>
        <time>2021-05-30T07:25:34Z</time>
      </trkpt>
      <trkpt lat="45.83772" lon="2.94343">
        <ele>903</ele>
        <time>2021-05-30T07:25:35Z</time>
      </trkpt>
      <trkpt lat="45.83774" lon="2.94342">
        <ele>903</ele>
        <time>2021-05-30T07:25:36Z</time>
      </trkpt>
      <trkpt lat="45.83775" lon="2.94341">
        <ele>903</ele>
        <time>2021-05-30T07:25:37Z</time>
      </trkpt>
      <trkpt lat="45.83776" lon="2.9434">
        <ele>903</ele>
        <time>2021-05-30T07:25:39Z</time>
      </trkpt>
      <trkpt lat="45.83778" lon="2.94339">
        <ele>903</ele>
        <time>2021-05-30T07:25:40Z</time>
      </trkpt>
      <trkpt lat="45.83783" lon="2.94335">
        <ele>903</ele>
        <time>2021-05-30T07:25:41Z</time>
      </trkpt>
      <trkpt lat="45.83783" lon="2.94335">
        <ele>903</ele>
        <time>2021-05-30T07:25:42Z</time>
      </trkpt>
      <trkpt lat="45.83784" lon="2.94334">
        <ele>903</ele>
        <time>2021-05-30T07:25:43Z</time>
      </trkpt>
      <trkpt lat="45.83785" lon="2.94334">
        <ele>903</ele>
        <time>2021-05-30T07:25:44Z</time>
      </trkpt>
      <trkpt lat="45.83786" lon="2.94333">
        <ele>903</ele>
        <time>2021-05-30T07:25:45Z</time>
      </trkpt>
      <trkpt lat="45.83786" lon="2.94332">
        <ele>903</ele>
        <time>2021-05-30T07:25:46Z</time>
      </trkpt>
      <trkpt lat="45.83788" lon="2.94331">
        <ele>903</ele>
        <time>2021-05-30T07:25:47Z</time>
      </trkpt>
      <trkpt lat="45.83789" lon="2.9433">
        <ele>903</ele>
        <time>2021-05-30T07:25:48Z</time>
      </trkpt>
      <trkpt lat="45.8379" lon="2.9433">
        <ele>903</ele>
        <time>2021-05-30T07:25:49Z</time>
      </trkpt>
      <trkpt lat="45.83791" lon="2.94329">
        <ele>903</ele>
        <time>2021-05-30T07:25:50Z</time>
      </trkpt>
      <trkpt lat="45.83792" lon="2.94328">
        <ele>903</ele>
        <time>2021-05-30T07:25:51Z</time>
      </trkpt>
      <trkpt lat="45.83794" lon="2.94327">
        <ele>903</ele>
        <time>2021-05-30T07:25:52Z</time>
      </trkpt>
      <trkpt lat="45.83795" lon="2.94326">
        <ele>903</ele>
        <time>2021-05-30T07:25:53Z</time>
      </trkpt>
      <trkpt lat="45.83796" lon="2.94325">
        <ele>903</ele>
        <time>2021-05-30T07:25:54Z</time>
      </trkpt>
      <trkpt lat="45.83797" lon="2.94324">
        <ele>903</ele>
        <time>2021-05-30T07:25:55Z</time>
      </trkpt>
      <trkpt lat="45.83798" lon="2.94323">
        <ele>903</ele>
        <time>2021-05-30T07:25:56Z</time>
      </trkpt>
      <trkpt lat="45.83799" lon="2.94322">
        <ele>903</ele>
        <time>2021-05-30T07:25:57Z</time>
      </trkpt>
      <trkpt lat="45.83801" lon="2.94322">
        <ele>903</ele>
        <time>2021-05-30T07:25:58Z</time>
      </trkpt>
      <trkpt lat="45.83802" lon="2.94321">
        <ele>903</ele>
        <time>2021-05-30T07:25:59Z</time>
      </trkpt>
      <trkpt lat="45.83803" lon="2.9432">
        <ele>903</ele>
        <time>2021-05-30T07:26:00Z</time>
      </trkpt>
      <trkpt lat="45.83804" lon="2.94319">
        <ele>903</ele>
        <time>2021-05-30T07:26:01Z</time>
      </trkpt>
      <trkpt lat="45.83806" lon="2.94318">
        <ele>903</ele>
        <time>2021-05-30T07:26:02Z</time>
      </trkpt>
      <trkpt lat="45.83807" lon="2.94317">
        <ele>903</ele>
        <time>2021-05-30T07:26:03Z</time>
      </trkpt>
      <trkpt lat="45.83809" lon="2.94316">
        <ele>903</ele>
        <time>2021-05-30T07:26:04Z</time>
      </trkpt>
      <trkpt lat="45.8381" lon="2.94315">
        <ele>903</ele>
        <time>2021-05-30T07:26:05Z</time>
      </trkpt>
      <trkpt lat="45.83811" lon="2.94314">
        <ele>903</ele>
        <time>2021-05-30T07:26:06Z</time>
      </trkpt>
      <trkpt lat="45.83813" lon="2.94314">
        <ele>903</ele>
        <time>2021-05-30T07:26:07Z</time>
      </trkpt>
      <trkpt lat="45.83814" lon="2.94313">
        <ele>903</ele>
        <time>2021-05-30T07:26:08Z</time>
      </trkpt>
      <trkpt lat="45.83815" lon="2.94312">
        <ele>903</ele>
        <time>2021-05-30T07:26:09Z</time>
      </trkpt>
      <trkpt lat="45.83816" lon="2.94311">
        <ele>903</ele>
        <time>2021-05-30T07:26:10Z</time>
      </trkpt>
      <trkpt lat="45.83818" lon="2.9431">
        <ele>903</ele>
        <time>2021-05-30T07:26:11Z</time>
      </trkpt>
      <trkpt lat="45.83819" lon="2.9431">
        <ele>903</ele>
        <time>2021-05-30T07:26:12Z</time>
      </trkpt>
      <trkpt lat="45.8382" lon="2.94309">
        <ele>903</ele>
        <time>2021-05-30T07:26:13Z</time>
      </trkpt>
      <trkpt lat="45.83822" lon="2.94308">
        <ele>903</ele>
        <time>2021-05-30T07:26:14Z</time>
      </trkpt>
      <trkpt lat="45.83824" lon="2.94307">
        <ele>903</ele>
        <time>2021-05-30T07:26:15Z</time>
      </trkpt>
      <trkpt lat="45.83825" lon="2.94307">
        <ele>903</ele>
        <time>2021-05-30T07:26:16Z</time>
      </trkpt>
      <trkpt lat="45.83827" lon="2.94306">
        <ele>903</ele>
        <time>2021-05-30T07:26:17Z</time>
      </trkpt>
      <trkpt lat="45.83829" lon="2.94305">
        <ele>903</ele>
        <time>2021-05-30T07:26:18Z</time>
      </trkpt>
      <trkpt lat="45.83831" lon="2.94305">
        <ele>903</ele>
        <time>2021-05-30T07:26:19Z</time>
      </trkpt>
      <trkpt lat="45.83832" lon="2.94304">
        <ele>903</ele>
        <time>2021-05-30T07:26:20Z</time>
      </trkpt>
      <trkpt lat="45.83833" lon="2.94303">
        <ele>903</ele>
        <time>2021-05-30T07:26:21Z</time>
      </trkpt>
      <trkpt lat="45.83835" lon="2.94302">
        <ele>903</ele>
        <time>2021-05-30T07:26:22Z</time>
      </trkpt>
      <trkpt lat="45.83836" lon="2.94301">
        <ele>903</ele>
        <time>2021-05-30T07:26:23Z</time>
      </trkpt>
      <trkpt lat="45.83838" lon="2.943">
        <ele>903</ele>
        <time>2021-05-30T07:26:24Z</time>
      </trkpt>
      <trkpt lat="45.83839" lon="2.94299">
        <ele>903</ele>
        <time>2021-05-30T07:26:25Z</time>
      </trkpt>
      <trkpt lat="45.83841" lon="2.94298">
        <ele>903</ele>
        <time>2021-05-30T07:26:26Z</time>
      </trkpt>
      <trkpt lat="45.83843" lon="2.94297">
        <ele>903</ele>
        <time>2021-05-30T07:26:27Z</time>
      </trkpt>
      <trkpt lat="45.83844" lon="2.94295">
        <ele>903</ele>
        <time>2021-05-30T07:26:28Z</time>
      </trkpt>
      <trkpt lat="45.83845" lon="2.94294">
        <ele>903</ele>
        <time>2021-05-30T07:26:29Z</time>
      </trkpt>
      <trkpt lat="45.83846" lon="2.94293">
        <ele>903</ele>
        <time>2021-05-30T07:26:30Z</time>
      </trkpt>
      <trkpt lat="45.83848" lon="2.94292">
        <ele>903</ele>
        <time>2021-05-30T07:26:31Z</time>
      </trkpt>
      <trkpt lat="45.83849" lon="2.94291">
        <ele>903</ele>
        <time>2021-05-30T07:26:32Z</time>
      </trkpt>
      <trkpt lat="45.83851" lon="2.94289">
        <ele>903</ele>
        <time>2021-05-30T07:26:33Z</time>
      </trkpt>
      <trkpt lat="45.83852" lon="2.94288">
        <ele>903</ele>
        <time>2021-05-30T07:26:34Z</time>
      </trkpt>
      <trkpt lat="45.83854" lon="2.94287">
        <ele>903</ele>
        <time>2021-05-30T07:26:35Z</time>
      </trkpt>
      <trkpt lat="45.83855" lon="2.94286">
        <ele>903</ele>
        <time>2021-05-30T07:26:36Z</time>
      </trkpt>
      <trkpt lat="45.83857" lon="2.94284">
        <ele>903</ele>
        <time>2021-05-30T07:26:37Z</time>
      </trkpt>
      <trkpt lat="45.83858" lon="2.94283">
        <ele>903</ele>
        <time>2021-05-30T07:26:39Z</time>
      </trkpt>
      <trkpt lat="45.83863" lon="2.94277">
        <ele>903</ele>
        <time>2021-05-30T07:26:40Z</time>
      </trkpt>
      <trkpt lat="45.83863" lon="2.94277">
        <ele>903</ele>
        <time>2021-05-30T07:26:41Z</time>
      </trkpt>
      <trkpt lat="45.83864" lon="2.94276">
        <ele>903</ele>
        <time>2021-05-30T07:26:42Z</time>
      </trkpt>
      <trkpt lat="45.83865" lon="2.94275">
        <ele>903</ele>
        <time>2021-05-30T07:26:43Z</time>
      </trkpt>
      <trkpt lat="45.83867" lon="2.94274">
        <ele>903</ele>
        <time>2021-05-30T07:26:44Z</time>
      </trkpt>
      <trkpt lat="45.83867" lon="2.94272">
        <ele>903</ele>
        <time>2021-05-30T07:26:45Z</time>
      </trkpt>
      <trkpt lat="45.83869" lon="2.94271">
        <ele>903</ele>
        <time>2021-05-30T07:26:46Z</time>
      </trkpt>
      <trkpt lat="45.8387" lon="2.94269">
        <ele>903</ele>
        <time>2021-05-30T07:26:47Z</time>
      </trkpt>
      <trkpt lat="45.83872" lon="2.94268">
        <ele>903</ele>
        <time>2021-05-30T07:26:48Z</time>
      </trkpt>
      <trkpt lat="45.83873" lon="2.94267">
        <ele>903</ele>
        <time>2021-05-30T07:26:49Z</time>
      </trkpt>
      <trkpt lat="45.83874" lon="2.94265">
        <ele>903</ele>
        <time>2021-05-30T07:26:50Z</time>
      </trkpt>
      <trkpt lat="45.83875" lon="2.94264">
        <ele>903</ele>
        <time>2021-05-30T07:26:51Z</time>
      </trkpt>
      <trkpt lat="45.83876" lon="2.94262">
        <ele>903</ele>
        <time>2021-05-30T07:26:52Z</time>
      </trkpt>
      <trkpt lat="45.83877" lon="2.94261">
        <ele>903</ele>
        <time>2021-05-30T07:26:53Z</time>
      </trkpt>
      <trkpt lat="45.83879" lon="2.94259">
        <ele>903</ele>
        <time>2021-05-30T07:26:54Z</time>
      </trkpt>
      <trkpt lat="45.8388" lon="2.94258">
        <ele>903</ele>
        <time>2021-05-30T07:26:55Z</time>
      </trkpt>
      <trkpt lat="45.83881" lon="2.94256">
        <ele>903</ele>
        <time>2021-05-30T07:26:56Z</time>
      </trkpt>
      <trkpt lat="45.83882" lon="2.94255">
        <ele>903</ele>
        <time>2021-05-30T07:26:57Z</time>
      </trkpt>
      <trkpt lat="45.83883" lon="2.94253">
        <ele>903</ele>
        <time>2021-05-30T07:26:58Z</time>
      </trkpt>
      <trkpt lat="45.83884" lon="2.94252">
        <ele>903</ele>
        <time>2021-05-30T07:26:59Z</time>
      </trkpt>
      <trkpt lat="45.83885" lon="2.9425">
        <ele>903</ele>
        <time>2021-05-30T07:27:00Z</time>
      </trkpt>
      <trkpt lat="45.83887" lon="2.94249">
        <ele>903</ele>
        <time>2021-05-30T07:27:01Z</time>
      </trkpt>
      <trkpt lat="45.83888" lon="2.94247">
        <ele>903</ele>
        <time>2021-05-30T07:27:02Z</time>
      </trkpt>
      <trkpt lat="45.83889" lon="2.94246">
        <ele>903</ele>
        <time>2021-05-30T07:27:03Z</time>
      </trkpt>
      <trkpt lat="45.83891" lon="2.94244">
        <ele>903</ele>
        <time>2021-05-30T07:27:04Z</time>
      </trkpt>
      <trkpt lat="45.83892" lon="2.94242">
        <ele>903</ele>
        <time>2021-05-30T07:27:05Z</time>
      </trkpt>
      <trkpt lat="45.83893" lon="2.94241">
        <ele>903</ele>
        <time>2021-05-30T07:27:06Z</time>
      </trkpt>
      <trkpt lat="45.83894" lon="2.94239">
        <ele>903</ele>
        <time>2021-05-30T07:27:07Z</time>
      </trkpt>
      <trkpt lat="45.83896" lon="2.94238">
        <ele>903</ele>
        <time>2021-05-30T07:27:08Z</time>
      </trkpt>
      <trkpt lat="45.83897" lon="2.94236">
        <ele>903</ele>
        <time>2021-05-30T07:27:09Z</time>
      </trkpt>
      <trkpt lat="45.83898" lon="2.94235">
        <ele>903</ele>
        <time>2021-05-30T07:27:10Z</time>
      </trkpt>
      <trkpt lat="45.83899" lon="2.94233">
        <ele>903</ele>
        <time>2021-05-30T07:27:11Z</time>
      </trkpt>
      <trkpt lat="45.839" lon="2.94232">
        <ele>903</ele>
        <time>2021-05-30T07:27:12Z</time>
      </trkpt>
      <trkpt lat="45.83901" lon="2.9423">
        <ele>903</ele>
        <time>2021-05-30T07:27:13Z</time>
      </trkpt>
      <trkpt lat="45.83902" lon="2.94229">
        <ele>903</ele>
        <time>2021-05-30T07:27:14Z</time>
      </trkpt>
      <trkpt lat="45.83903" lon="2.94227">
        <ele>903</ele>
        <time>2021-05-30T07:27:15Z</time>
      </trkpt>
      <trkpt lat="45.83904" lon="2.94225">
        <ele>903</ele>
        <time>2021-05-30T07:27:16Z</time>
      </trkpt>
      <trkpt lat="45.83905" lon="2.94224">
        <ele>903</ele>
        <time>2021-05-30T07:27:17Z</time>
      </trkpt>
      <trkpt lat="45.83906" lon="2.94223">
        <ele>903</ele>
        <time>2021-05-30T07:27:18Z</time>
      </trkpt>
      <trkpt lat="45.83907" lon="2.94221">
        <ele>903</ele>
        <time>2021-05-30T07:27:19Z</time>
      </trkpt>
      <trkpt lat="45.83909" lon="2.9422">
        <ele>903</ele>
        <time>2021-05-30T07:27:20Z</time>
      </trkpt>
      <trkpt lat="45.8391" lon="2.94218">
        <ele>903</ele>
        <time>2021-05-30T07:27:21Z</time>
      </trkpt>
      <trkpt lat="45.83911" lon="2.94217">
        <ele>903</ele>
        <time>2021-05-30T07:27:22Z</time>
      </trkpt>
      <trkpt lat="45.83912" lon="2.94216">
        <ele>903</ele>
        <time>2021-05-30T07:27:23Z</time>
      </trkpt>
      <trkpt lat="45.83913" lon="2.94214">
        <ele>903</ele>
        <time>2021-05-30T07:27:24Z</time>
      </trkpt>
      <trkpt lat="45.83915" lon="2.94213">
        <ele>903</ele>
        <time>2021-05-30T07:27:25Z</time>
      </trkpt>
      <trkpt lat="45.83916" lon="2.94211">
        <ele>903</ele>
        <time>2021-05-30T07:27:26Z</time>
      </trkpt>
      <trkpt lat="45.83917" lon="2.9421">
        <ele>903</ele>
        <time>2021-05-30T07:27:27Z</time>
      </trkpt>
      <trkpt lat="45.83919" lon="2.94209">
        <ele>903</ele>
        <time>2021-05-30T07:27:28Z</time>
      </trkpt>
      <trkpt lat="45.8392" lon="2.94207">
        <ele>903</ele>
        <time>2021-05-30T07:27:29Z</time>
      </trkpt>
      <trkpt lat="45.83921" lon="2.94206">
        <ele>903</ele>
        <time>2021-05-30T07:27:30Z</time>
      </trkpt>
      <trkpt lat="45.83922" lon="2.94205">
        <ele>903</ele>
        <time>2021-05-30T07:27:31Z</time>
      </trkpt>
      <trkpt lat="45.83923" lon="2.94203">
        <ele>903</ele>
        <time>2021-05-30T07:27:32Z</time>
      </trkpt>
      <trkpt lat="45.83924" lon="2.94202">
        <ele>903</ele>
        <time>2021-05-30T07:27:33Z</time>
      </trkpt>
      <trkpt lat="45.83925" lon="2.94201">
        <ele>903</ele>
        <time>2021-05-30T07:27:34Z</time>
      </trkpt>
      <trkpt lat="45.83926" lon="2.94199">
        <ele>903</ele>
        <time>2021-05-30T07:27:35Z</time>
      </trkpt>
      <trkpt lat="45.83927" lon="2.94198">
        <ele>903</ele>
        <time>2021-05-30T07:27:36Z</time>
      </trkpt>
      <trkpt lat="45.83928" lon="2.94197">
        <ele>903</ele>
        <time>2021-05-30T07:27:37Z</time>
      </trkpt>
      <trkpt lat="45.83929" lon="2.94196">
        <ele>903</ele>
        <time>2021-05-30T07:27:38Z</time>
      </trkpt>
      <trkpt lat="45.8393" lon="2.94195">
        <ele>903</ele>
        <time>2021-05-30T07:27:39Z</time>
      </trkpt>
      <trkpt lat="45.8393" lon="2.94194">
        <ele>903</ele>
        <time>2021-05-30T07:27:40Z</time>
      </trkpt>
      <trkpt lat="45.83931" lon="2.94192">
        <ele>903</ele>
        <time>2021-05-30T07:27:41Z</time>
      </trkpt>
      <trkpt lat="45.83932" lon="2.94191">
        <ele>903</ele>
        <time>2021-05-30T07:27:42Z</time>
      </trkpt>
      <trkpt lat="45.83933" lon="2.9419">
        <ele>903</ele>
        <time>2021-05-30T07:27:43Z</time>
      </trkpt>
      <trkpt lat="45.83933" lon="2.94189">
        <ele>903</ele>
        <time>2021-05-30T07:27:44Z</time>
      </trkpt>
      <trkpt lat="45.83934" lon="2.94188">
        <ele>903</ele>
        <time>2021-05-30T07:27:45Z</time>
      </trkpt>
      <trkpt lat="45.83936" lon="2.94186">
        <ele>903</ele>
        <time>2021-05-30T07:27:46Z</time>
      </trkpt>
      <trkpt lat="45.83936" lon="2.94185">
        <ele>903</ele>
        <time>2021-05-30T07:27:47Z</time>
      </trkpt>
      <trkpt lat="45.83937" lon="2.94184">
        <ele>903</ele>
        <time>2021-05-30T07:27:48Z</time>
      </trkpt>
      <trkpt lat="45.83938" lon="2.94183">
        <ele>903</ele>
        <time>2021-05-30T07:27:49Z</time>
      </trkpt>
      <trkpt lat="45.83939" lon="2.94182">
        <ele>903</ele>
        <time>2021-05-30T07:27:50Z</time>
      </trkpt>
      <trkpt lat="45.8394" lon="2.94181">
        <ele>903</ele>
        <time>2021-05-30T07:27:51Z</time>
      </trkpt>
      <trkpt lat="45.83941" lon="2.9418">
        <ele>903</ele>
        <time>2021-05-30T07:27:52Z</time>
      </trkpt>
      <trkpt lat="45.83942" lon="2.94179">
        <ele>903</ele>
        <time>2021-05-30T07:27:53Z</time>
      </trkpt>
      <trkpt lat="45.83943" lon="2.94178">
        <ele>903</ele>
        <time>2021-05-30T07:27:54Z</time>
      </trkpt>
      <trkpt lat="45.83944" lon="2.94177">
        <ele>903</ele>
        <time>2021-05-30T07:27:55Z</time>
      </trkpt>
      <trkpt lat="45.83944" lon="2.94176">
        <ele>903</ele>
        <time>2021-05-30T07:27:56Z</time>
      </trkpt>
      <trkpt lat="45.83945" lon="2.94175">
        <ele>903</ele>
        <time>2021-05-30T07:27:57Z</time>
      </trkpt>
      <trkpt lat="45.83946" lon="2.94174">
        <ele>903</ele>
        <time>2021-05-30T07:27:58Z</time>
      </trkpt>
      <trkpt lat="45.83947" lon="2.94172">
        <ele>903</ele>
        <time>2021-05-30T07:27:59Z</time>
      </trkpt>
      <trkpt lat="45.83948" lon="2.94171">
        <ele>903</ele>
        <time>2021-05-30T07:28:00Z</time>
      </trkpt>
      <trkpt lat="45.83948" lon="2.9417">
        <ele>903</ele>
        <time>2021-05-30T07:28:01Z</time>
      </trkpt>
      <trkpt lat="45.83949" lon="2.94169">
        <ele>903</ele>
        <time>2021-05-30T07:28:02Z</time>
      </trkpt>
      <trkpt lat="45.8395" lon="2.94167">
        <ele>903</ele>
        <time>2021-05-30T07:28:03Z</time>
      </trkpt>
      <trkpt lat="45.83951" lon="2.94166">
        <ele>903</ele>
        <time>2021-05-30T07:28:04Z</time>
      </trkpt>
      <trkpt lat="45.83952" lon="2.94165">
        <ele>903</ele>
        <time>2021-05-30T07:28:05Z</time>
      </trkpt>
      <trkpt lat="45.83952" lon="2.94164">
        <ele>903</ele>
        <time>2021-05-30T07:28:06Z</time>
      </trkpt>
      <trkpt lat="45.83954" lon="2.94162">
        <ele>903</ele>
        <time>2021-05-30T07:28:07Z</time>
      </trkpt>
      <trkpt lat="45.83955" lon="2.94161">
        <ele>903</ele>
        <time>2021-05-30T07:28:08Z</time>
      </trkpt>
      <trkpt lat="45.83955" lon="2.94159">
        <ele>903</ele>
        <time>2021-05-30T07:28:09Z</time>
      </trkpt>
      <trkpt lat="45.83956" lon="2.94157">
        <ele>903</ele>
        <time>2021-05-30T07:28:10Z</time>
      </trkpt>
      <trkpt lat="45.83957" lon="2.94156">
        <ele>903</ele>
        <time>2021-05-30T07:28:11Z</time>
      </trkpt>
      <trkpt lat="45.83957" lon="2.94155">
        <ele>903</ele>
        <time>2021-05-30T07:28:12Z</time>
      </trkpt>
      <trkpt lat="45.83958" lon="2.94154">
        <ele>903</ele>
        <time>2021-05-30T07:28:13Z</time>
      </trkpt>
      <trkpt lat="45.83958" lon="2.94152">
        <ele>903</ele>
        <time>2021-05-30T07:28:14Z</time>
      </trkpt>
      <trkpt lat="45.8396" lon="2.94151">
        <ele>903</ele>
        <time>2021-05-30T07:28:15Z</time>
      </trkpt>
      <trkpt lat="45.8396" lon="2.9415">
        <ele>903</ele>
        <time>2021-05-30T07:28:16Z</time>
      </trkpt>
      <trkpt lat="45.83961" lon="2.94149">
        <ele>903</ele>
        <time>2021-05-30T07:28:17Z</time>
      </trkpt>
      <trkpt lat="45.83962" lon="2.94147">
        <ele>903</ele>
        <time>2021-05-30T07:28:18Z</time>
      </trkpt>
      <trkpt lat="45.83962" lon="2.94146">
        <ele>903</ele>
        <time>2021-05-30T07:28:19Z</time>
      </trkpt>
      <trkpt lat="45.83963" lon="2.94145">
        <ele>903</ele>
        <time>2021-05-30T07:28:20Z</time>
      </trkpt>
      <trkpt lat="45.83963" lon="2.94145">
        <ele>903</ele>
        <time>2021-05-30T07:28:21Z</time>
      </trkpt>
      <trkpt lat="45.83964" lon="2.94144">
        <ele>903</ele>
        <time>2021-05-30T07:28:22Z</time>
      </trkpt>
      <trkpt lat="45.83964" lon="2.94142">
        <ele>903</ele>
        <time>2021-05-30T07:28:23Z</time>
      </trkpt>
      <trkpt lat="45.83965" lon="2.94141">
        <ele>903</ele>
        <time>2021-05-30T07:28:24Z</time>
      </trkpt>
      <trkpt lat="45.83965" lon="2.9414">
        <ele>903</ele>
        <time>2021-05-30T07:28:25Z</time>
      </trkpt>
      <trkpt lat="45.83966" lon="2.94139">
        <ele>903</ele>
        <time>2021-05-30T07:28:26Z</time>
      </trkpt>
      <trkpt lat="45.83967" lon="2.94138">
        <ele>903</ele>
        <time>2021-05-30T07:28:27Z</time>
      </trkpt>
      <trkpt lat="45.83967" lon="2.94137">
        <ele>903</ele>
        <time>2021-05-30T07:28:28Z</time>
      </trkpt>
      <trkpt lat="45.83968" lon="2.94137">
        <ele>903</ele>
        <time>2021-05-30T07:28:29Z</time>
      </trkpt>
      <trkpt lat="45.83969" lon="2.94136">
        <ele>903</ele>
        <time>2021-05-30T07:28:30Z</time>
      </trkpt>
      <trkpt lat="45.83969" lon="2.94135">
        <ele>903</ele>
        <time>2021-05-30T07:28:31Z</time>
      </trkpt>
      <trkpt lat="45.8397" lon="2.94134">
        <ele>903</ele>
        <time>2021-05-30T07:28:32Z</time>
      </trkpt>
      <trkpt lat="45.83971" lon="2.94133">
        <ele>903</ele>
        <time>2021-05-30T07:28:33Z</time>
      </trkpt>
      <trkpt lat="45.83971" lon="2.94132">
        <ele>903</ele>
        <time>2021-05-30T07:28:34Z</time>
      </trkpt>
      <trkpt lat="45.83972" lon="2.94131">
        <ele>903</ele>
        <time>2021-05-30T07:28:35Z</time>
      </trkpt>
      <trkpt lat="45.83973" lon="2.94131">
        <ele>903</ele>
        <time>2021-05-30T07:28:36Z</time>
      </trkpt>
      <trkpt lat="45.83975" lon="2.9413">
        <ele>903</ele>
        <time>2021-05-30T07:28:37Z</time>
      </trkpt>
      <trkpt lat="45.83976" lon="2.94129">
        <ele>903</ele>
        <time>2021-05-30T07:28:38Z</time>
      </trkpt>
      <trkpt lat="45.83976" lon="2.94128">
        <ele>903</ele>
        <time>2021-05-30T07:28:40Z</time>
      </trkpt>
      <trkpt lat="45.83981" lon="2.94125">
        <ele>903</ele>
        <time>2021-05-30T07:28:41Z</time>
      </trkpt>
      <trkpt lat="45.83982" lon="2.94125">
        <ele>903</ele>
        <time>2021-05-30T07:28:42Z</time>
      </trkpt>
      <trkpt lat="45.83982" lon="2.94125">
        <ele>903</ele>
        <time>2021-05-30T07:28:43Z</time>
      </trkpt>
      <trkpt lat="45.83983" lon="2.94124">
        <ele>903</ele>
        <time>2021-05-30T07:28:44Z</time>
      </trkpt>
      <trkpt lat="45.83984" lon="2.94123">
        <ele>903</ele>
        <time>2021-05-30T07:28:45Z</time>
      </trkpt>
      <trkpt lat="45.83986" lon="2.94123">
        <ele>903</ele>
        <time>2021-05-30T07:28:46Z</time>
      </trkpt>
      <trkpt lat="45.83987" lon="2.94122">
        <ele>903</ele>
        <time>2021-05-30T07:28:47Z</time>
      </trkpt>
      <trkpt lat="45.83988" lon="2.94121">
        <ele>903</ele>
        <time>2021-05-30T07:28:48Z</time>
      </trkpt>
      <trkpt lat="45.83989" lon="2.94121">
        <ele>903</ele>
        <time>2021-05-30T07:28:49Z</time>
      </trkpt>
      <trkpt lat="45.83991" lon="2.94121">
        <ele>903</ele>
        <time>2021-05-30T07:28:50Z</time>
      </trkpt>
      <trkpt lat="45.83992" lon="2.9412">
        <ele>903</ele>
        <time>2021-05-30T07:28:51Z</time>
      </trkpt>
      <trkpt lat="45.83993" lon="2.9412">
        <ele>903</ele>
        <time>2021-05-30T07:28:52Z</time>
      </trkpt>
      <trkpt lat="45.83994" lon="2.94119">
        <ele>903</ele>
        <time>2021-05-30T07:28:53Z</time>
      </trkpt>
      <trkpt lat="45.83995" lon="2.94118">
        <ele>903</ele>
        <time>2021-05-30T07:28:54Z</time>
      </trkpt>
      <trkpt lat="45.83997" lon="2.94117">
        <ele>903</ele>
        <time>2021-05-30T07:28:55Z</time>
      </trkpt>
      <trkpt lat="45.83998" lon="2.94116">
        <ele>903</ele>
        <time>2021-05-30T07:28:56Z</time>
      </trkpt>
      <trkpt lat="45.84" lon="2.94115">
        <ele>903</ele>
        <time>2021-05-30T07:28:57Z</time>
      </trkpt>
      <trkpt lat="45.84001" lon="2.94114">
        <ele>903</ele>
        <time>2021-05-30T07:28:58Z</time>
      </trkpt>
      <trkpt lat="45.84003" lon="2.94113">
        <ele>903</ele>
        <time>2021-05-30T07:28:59Z</time>
      </trkpt>
      <trkpt lat="45.84004" lon="2.94112">
        <ele>903</ele>
        <time>2021-05-30T07:29:00Z</time>
      </trkpt>
      <trkpt lat="45.84006" lon="2.94112">
        <ele>903</ele>
        <time>2021-05-30T07:29:01Z</time>
      </trkpt>
      <trkpt lat="45.84007" lon="2.94111">
        <ele>903</ele>
        <time>2021-05-30T07:29:02Z</time>
      </trkpt>
      <trkpt lat="45.84008" lon="2.94111">
        <ele>903</ele>
        <time>2021-05-30T07:29:02Z</time>
      </trkpt>
      <trkpt lat="45.8401" lon="2.94111">
        <ele>903</ele>
        <time>2021-05-30T07:29:03Z</time>
      </trkpt>
      <trkpt lat="45.84012" lon="2.94111">
        <ele>903</ele>
        <time>2021-05-30T07:29:04Z</time>
      </trkpt>
      <trkpt lat="45.84014" lon="2.94111">
        <ele>903</ele>
        <time>2021-05-30T07:29:05Z</time>
      </trkpt>
      <trkpt lat="45.84015" lon="2.94111">
        <ele>903</ele>
        <time>2021-05-30T07:29:06Z</time>
      </trkpt>
      <trkpt lat="45.84016" lon="2.94111">
        <ele>903</ele>
        <time>2021-05-30T07:29:07Z</time>
      </trkpt>
      <trkpt lat="45.84018" lon="2.9411">
        <ele>903</ele>
        <time>2021-05-30T07:29:08Z</time>
      </trkpt>
      <trkpt lat="45.84019" lon="2.9411">
        <ele>903</ele>
        <time>2021-05-30T07:29:09Z</time>
      </trkpt>
      <trkpt lat="45.84021" lon="2.9411">
        <ele>903</ele>
        <time>2021-05-30T07:29:10Z</time>
      </trkpt>
      <trkpt lat="45.84021" lon="2.9411">
        <ele>903</ele>
        <time>2021-05-30T07:29:11Z</time>
      </trkpt>
      <trkpt lat="45.84023" lon="2.9411">
        <ele>903</ele>
        <time>2021-05-30T07:29:12Z</time>
      </trkpt>
      <trkpt lat="45.84024" lon="2.9411">
        <ele>903</ele>
        <time>2021-05-30T07:29:13Z</time>
      </trkpt>
      <trkpt lat="45.84026" lon="2.9411">
        <ele>903</ele>
        <time>2021-05-30T07:29:14Z</time>
      </trkpt>
      <trkpt lat="45.84028" lon="2.9411">
        <ele>903</ele>
        <time>2021-05-30T07:29:15Z</time>
      </trkpt>
      <trkpt lat="45.84029" lon="2.9411">
        <ele>903</ele>
        <time>2021-05-30T07:29:16Z</time>
      </trkpt>
      <trkpt lat="45.84031" lon="2.9411">
        <ele>903</ele>
        <time>2021-05-30T07:29:17Z</time>
      </trkpt>
      <trkpt lat="45.84032" lon="2.9411">
        <ele>903</ele>
        <time>2021-05-30T07:29:18Z</time>
      </trkpt>
      <trkpt lat="45.84034" lon="2.94109">
        <ele>903</ele>
        <time>2021-05-30T07:29:19Z</time>
      </trkpt>
      <trkpt lat="45.84036" lon="2.94109">
        <ele>903</ele>
        <time>2021-05-30T07:29:20Z</time>
      </trkpt>
      <trkpt lat="45.84037" lon="2.94108">
        <ele>903</ele>
        <time>2021-05-30T07:29:21Z</time>
      </trkpt>
      <trkpt lat="45.84039" lon="2.94108">
        <ele>903</ele>
        <time>2021-05-30T07:29:22Z</time>
      </trkpt>
      <trkpt lat="45.84041" lon="2.94107">
        <ele>903</ele>
        <time>2021-05-30T07:29:23Z</time>
      </trkpt>
      <trkpt lat="45.84043" lon="2.94106">
        <ele>903</ele>
        <time>2021-05-30T07:29:24Z</time>
      </trkpt>
      <trkpt lat="45.84045" lon="2.94106">
        <ele>903</ele>
        <time>2021-05-30T07:29:25Z</time>
      </trkpt>
      <trkpt lat="45.84047" lon="2.94106">
        <ele>903</ele>
        <time>2021-05-30T07:29:26Z</time>
      </trkpt>
      <trkpt lat="45.84049" lon="2.94105">
        <ele>903</ele>
        <time>2021-05-30T07:29:27Z</time>
      </trkpt>
      <trkpt lat="45.84051" lon="2.94105">
        <ele>903</ele>
        <time>2021-05-30T07:29:28Z</time>
      </trkpt>
      <trkpt lat="45.84054" lon="2.94104">
        <ele>903</ele>
        <time>2021-05-30T07:29:29Z</time>
      </trkpt>
      <trkpt lat="45.84056" lon="2.94104">
        <ele>903</ele>
        <time>2021-05-30T07:29:30Z</time>
      </trkpt>
      <trkpt lat="45.84057" lon="2.94103">
        <ele>903</ele>
        <time>2021-05-30T07:29:31Z</time>
      </trkpt>
      <trkpt lat="45.8406" lon="2.94102">
        <ele>903</ele>
        <time>2021-05-30T07:29:32Z</time>
      </trkpt>
      <trkpt lat="45.84061" lon="2.94102">
        <ele>903</ele>
        <time>2021-05-30T07:29:33Z</time>
      </trkpt>
      <trkpt lat="45.84063" lon="2.94101">
        <ele>903</ele>
        <time>2021-05-30T07:29:34Z</time>
      </trkpt>
      <trkpt lat="45.84065" lon="2.94101">
        <ele>903</ele>
        <time>2021-05-30T07:29:35Z</time>
      </trkpt>
      <trkpt lat="45.84066" lon="2.941">
        <ele>903</ele>
        <time>2021-05-30T07:29:36Z</time>
      </trkpt>
      <trkpt lat="45.84068" lon="2.94098">
        <ele>903</ele>
        <time>2021-05-30T07:29:38Z</time>
      </trkpt>
      <trkpt lat="45.84076" lon="2.94093">
        <ele>903</ele>
        <time>2021-05-30T07:29:39Z</time>
      </trkpt>
      <trkpt lat="45.84076" lon="2.94093">
        <ele>903</ele>
        <time>2021-05-30T07:29:40Z</time>
      </trkpt>
      <trkpt lat="45.84078" lon="2.94092">
        <ele>903</ele>
        <time>2021-05-30T07:29:41Z</time>
      </trkpt>
      <trkpt lat="45.84078" lon="2.94091">
        <ele>903</ele>
        <time>2021-05-30T07:29:42Z</time>
      </trkpt>
      <trkpt lat="45.8408" lon="2.9409">
        <ele>903</ele>
        <time>2021-05-30T07:29:43Z</time>
      </trkpt>
      <trkpt lat="45.84081" lon="2.9409">
        <ele>903</ele>
        <time>2021-05-30T07:29:44Z</time>
      </trkpt>
      <trkpt lat="45.84082" lon="2.94089">
        <ele>903</ele>
        <time>2021-05-30T07:29:45Z</time>
      </trkpt>
      <trkpt lat="45.84084" lon="2.94088">
        <ele>903</ele>
        <time>2021-05-30T07:29:46Z</time>
      </trkpt>
      <trkpt lat="45.84086" lon="2.94087">
        <ele>903</ele>
        <time>2021-05-30T07:29:47Z</time>
      </trkpt>
      <trkpt lat="45.84087" lon="2.94086">
        <ele>903</ele>
        <time>2021-05-30T07:29:48Z</time>
      </trkpt>
      <trkpt lat="45.84088" lon="2.94085">
        <ele>903</ele>
        <time>2021-05-30T07:29:49Z</time>
      </trkpt>
      <trkpt lat="45.8409" lon="2.94084">
        <ele>903</ele>
        <time>2021-05-30T07:29:50Z</time>
      </trkpt>
      <trkpt lat="45.84091" lon="2.94083">
        <ele>903</ele>
        <time>2021-05-30T07:29:51Z</time>
      </trkpt>
      <trkpt lat="45.84092" lon="2.94082">
        <ele>903</ele>
        <time>2021-05-30T07:29:52Z</time>
      </trkpt>
      <trkpt lat="45.84093" lon="2.94081">
        <ele>903</ele>
        <time>2021-05-30T07:29:53Z</time>
      </trkpt>
      <trkpt lat="45.84094" lon="2.9408">
        <ele>903</ele>
        <time>2021-05-30T07:29:54Z</time>
      </trkpt>
      <trkpt lat="45.84096" lon="2.94078">
        <ele>903</ele>
        <time>2021-05-30T07:29:55Z</time>
      </trkpt>
      <trkpt lat="45.84097" lon="2.94076">
        <ele>903</ele>
        <time>2021-05-30T07:29:56Z</time>
      </trkpt>
      <trkpt lat="45.84098" lon="2.94075">
        <ele>903</ele>
        <time>2021-05-30T07:29:57Z</time>
      </trkpt>
      <trkpt lat="45.84099" lon="2.94073">
        <ele>903</ele>
        <time>2021-05-30T07:29:58Z</time>
      </trkpt>
      <trkpt lat="45.84101" lon="2.94072">
        <ele>903</ele>
        <time>2021-05-30T07:29:59Z</time>
      </trkpt>
      <trkpt lat="45.84102" lon="2.94071">
        <ele>903</ele>
        <time>2021-05-30T07:30:00Z</time>
      </trkpt>
      <trkpt lat="45.84104" lon="2.9407">
        <ele>903</ele>
        <time>2021-05-30T07:30:01Z</time>
      </trkpt>
      <trkpt lat="45.84105" lon="2.94069">
        <ele>903</ele>
        <time>2021-05-30T07:30:02Z</time>
      </trkpt>
      <trkpt lat="45.84108" lon="2.94067">
        <ele>903</ele>
        <time>2021-05-30T07:30:03Z</time>
      </trkpt>
      <trkpt lat="45.84109" lon="2.94066">
        <ele>903</ele>
        <time>2021-05-30T07:30:04Z</time>
      </trkpt>
      <trkpt lat="45.84111" lon="2.94065">
        <ele>903</ele>
        <time>2021-05-30T07:30:05Z</time>
      </trkpt>
      <trkpt lat="45.84113" lon="2.94064">
        <ele>903</ele>
        <time>2021-05-30T07:30:06Z</time>
      </trkpt>
      <trkpt lat="45.84114" lon="2.94063">
        <ele>903</ele>
        <time>2021-05-30T07:30:07Z</time>
      </trkpt>
      <trkpt lat="45.84116" lon="2.94061">
        <ele>903</ele>
        <time>2021-05-30T07:30:08Z</time>
      </trkpt>
      <trkpt lat="45.84117" lon="2.9406">
        <ele>903</ele>
        <time>2021-05-30T07:30:09Z</time>
      </trkpt>
      <trkpt lat="45.84119" lon="2.94058">
        <ele>903</ele>
        <time>2021-05-30T07:30:10Z</time>
      </trkpt>
      <trkpt lat="45.8412" lon="2.94057">
        <ele>903</ele>
        <time>2021-05-30T07:30:11Z</time>
      </trkpt>
      <trkpt lat="45.84121" lon="2.94056">
        <ele>903</ele>
        <time>2021-05-30T07:30:12Z</time>
      </trkpt>
      <trkpt lat="45.84123" lon="2.94055">
        <ele>903</ele>
        <time>2021-05-30T07:30:13Z</time>
      </trkpt>
      <trkpt lat="45.84123" lon="2.94055">
        <ele>903</ele>
        <time>2021-05-30T07:30:14Z</time>
      </trkpt>
      <trkpt lat="45.84125" lon="2.94053">
        <ele>903</ele>
        <time>2021-05-30T07:30:15Z</time>
      </trkpt>
      <trkpt lat="45.84126" lon="2.94052">
        <ele>903</ele>
        <time>2021-05-30T07:30:16Z</time>
      </trkpt>
      <trkpt lat="45.84127" lon="2.94051">
        <ele>903</ele>
        <time>2021-05-30T07:30:17Z</time>
      </trkpt>
      <trkpt lat="45.84129" lon="2.94049">
        <ele>903</ele>
        <time>2021-05-30T07:30:18Z</time>
      </trkpt>
      <trkpt lat="45.8413" lon="2.94048">
        <ele>903</ele>
        <time>2021-05-30T07:30:19Z</time>
      </trkpt>
      <trkpt lat="45.84132" lon="2.94046">
        <ele>903</ele>
        <time>2021-05-30T07:30:20Z</time>
      </trkpt>
      <trkpt lat="45.84133" lon="2.94044">
        <ele>903</ele>
        <time>2021-05-30T07:30:21Z</time>
      </trkpt>
      <trkpt lat="45.84134" lon="2.94042">
        <ele>903</ele>
        <time>2021-05-30T07:30:22Z</time>
      </trkpt>
      <trkpt lat="45.84136" lon="2.9404">
        <ele>903</ele>
        <time>2021-05-30T07:30:23Z</time>
      </trkpt>
      <trkpt lat="45.84137" lon="2.94038">
        <ele>903</ele>
        <time>2021-05-30T07:30:24Z</time>
      </trkpt>
      <trkpt lat="45.84138" lon="2.94037">
        <ele>903</ele>
        <time>2021-05-30T07:30:25Z</time>
      </trkpt>
      <trkpt lat="45.8414" lon="2.94035">
        <ele>903</ele>
        <time>2021-05-30T07:30:26Z</time>
      </trkpt>
      <trkpt lat="45.84141" lon="2.94034">
        <ele>903</ele>
        <time>2021-05-30T07:30:27Z</time>
      </trkpt>
      <trkpt lat="45.84143" lon="2.94032">
        <ele>903</ele>
        <time>2021-05-30T07:30:28Z</time>
      </trkpt>
      <trkpt lat="45.84145" lon="2.94031">
        <ele>903</ele>
        <time>2021-05-30T07:30:29Z</time>
      </trkpt>
      <trkpt lat="45.84147" lon="2.94029">
        <ele>903</ele>
        <time>2021-05-30T07:30:30Z</time>
      </trkpt>
      <trkpt lat="45.84148" lon="2.94027">
        <ele>903</ele>
        <time>2021-05-30T07:30:31Z</time>
      </trkpt>
      <trkpt lat="45.8415" lon="2.94025">
        <ele>903</ele>
        <time>2021-05-30T07:30:32Z</time>
      </trkpt>
      <trkpt lat="45.84152" lon="2.94023">
        <ele>903</ele>
        <time>2021-05-30T07:30:33Z</time>
      </trkpt>
      <trkpt lat="45.84153" lon="2.94021">
        <ele>903</ele>
        <time>2021-05-30T07:30:34Z</time>
      </trkpt>
      <trkpt lat="45.84155" lon="2.9402">
        <ele>903</ele>
        <time>2021-05-30T07:30:35Z</time>
      </trkpt>
      <trkpt lat="45.84156" lon="2.94018">
        <ele>903</ele>
        <time>2021-05-30T07:30:36Z</time>
      </trkpt>
      <trkpt lat="45.84158" lon="2.94017">
        <ele>903</ele>
        <time>2021-05-30T07:30:37Z</time>
      </trkpt>
      <trkpt lat="45.84159" lon="2.94015">
        <ele>903</ele>
        <time>2021-05-30T07:30:38Z</time>
      </trkpt>
      <trkpt lat="45.84161" lon="2.94013">
        <ele>903</ele>
        <time>2021-05-30T07:30:39Z</time>
      </trkpt>
      <trkpt lat="45.84162" lon="2.94011">
        <ele>903</ele>
        <time>2021-05-30T07:30:40Z</time>
      </trkpt>
      <trkpt lat="45.84164" lon="2.94009">
        <ele>903</ele>
        <time>2021-05-30T07:30:41Z</time>
      </trkpt>
      <trkpt lat="45.84165" lon="2.94007">
        <ele>903</ele>
        <time>2021-05-30T07:30:42Z</time>
      </trkpt>
      <trkpt lat="45.84167" lon="2.94005">
        <ele>903</ele>
        <time>2021-05-30T07:30:43Z</time>
      </trkpt>
      <trkpt lat="45.84169" lon="2.94004">
        <ele>903</ele>
        <time>2021-05-30T07:30:44Z</time>
      </trkpt>
      <trkpt lat="45.8417" lon="2.94002">
        <ele>903</ele>
        <time>2021-05-30T07:30:45Z</time>
      </trkpt>
      <trkpt lat="45.84172" lon="2.94">
        <ele>903</ele>
        <time>2021-05-30T07:30:46Z</time>
      </trkpt>
      <trkpt lat="45.84173" lon="2.93998">
        <ele>903</ele>
        <time>2021-05-30T07:30:47Z</time>
      </trkpt>
      <trkpt lat="45.84175" lon="2.93996">
        <ele>903</ele>
        <time>2021-05-30T07:30:48Z</time>
      </trkpt>
      <trkpt lat="45.84176" lon="2.93995">
        <ele>903</ele>
        <time>2021-05-30T07:30:49Z</time>
      </trkpt>
      <trkpt lat="45.84177" lon="2.93993">
        <ele>903</ele>
        <time>2021-05-30T07:30:50Z</time>
      </trkpt>
      <trkpt lat="45.84179" lon="2.93991">
        <ele>903</ele>
        <time>2021-05-30T07:30:51Z</time>
      </trkpt>
      <trkpt lat="45.8418" lon="2.93989">
        <ele>903</ele>
        <time>2021-05-30T07:30:52Z</time>
      </trkpt>
      <trkpt lat="45.84182" lon="2.93988">
        <ele>903</ele>
        <time>2021-05-30T07:30:53Z</time>
      </trkpt>
      <trkpt lat="45.84183" lon="2.93986">
        <ele>903</ele>
        <time>2021-05-30T07:30:54Z</time>
      </trkpt>
      <trkpt lat="45.84184" lon="2.93984">
        <ele>903</ele>
        <time>2021-05-30T07:30:55Z</time>
      </trkpt>
      <trkpt lat="45.84186" lon="2.93982">
        <ele>903</ele>
        <time>2021-05-30T07:30:56Z</time>
      </trkpt>
      <trkpt lat="45.84187" lon="2.9398">
        <ele>903</ele>
        <time>2021-05-30T07:30:57Z</time>
      </trkpt>
      <trkpt lat="45.84189" lon="2.93979">
        <ele>903</ele>
        <time>2021-05-30T07:30:58Z</time>
      </trkpt>
      <trkpt lat="45.8419" lon="2.93977">
        <ele>903</ele>
        <time>2021-05-30T07:30:59Z</time>
      </trkpt>
      <trkpt lat="45.84192" lon="2.93976">
        <ele>903</ele>
        <time>2021-05-30T07:31:00Z</time>
      </trkpt>
      <trkpt lat="45.84193" lon="2.93974">
        <ele>903</ele>
        <time>2021-05-30T07:31:01Z</time>
      </trkpt>
      <trkpt lat="45.84195" lon="2.93972">
        <ele>903</ele>
        <time>2021-05-30T07:31:02Z</time>
      </trkpt>
      <trkpt lat="45.84197" lon="2.93971">
        <ele>903</ele>
        <time>2021-05-30T07:31:03Z</time>
      </trkpt>
      <trkpt lat="45.84199" lon="2.93969">
        <ele>903</ele>
        <time>2021-05-30T07:31:04Z</time>
      </trkpt>
      <trkpt lat="45.842" lon="2.93967">
        <ele>903</ele>
        <time>2021-05-30T07:31:05Z</time>
      </trkpt>
      <trkpt lat="45.84202" lon="2.93965">
        <ele>903</ele>
        <time>2021-05-30T07:31:06Z</time>
      </trkpt>
      <trkpt lat="45.84203" lon="2.93964">
        <ele>903</ele>
        <time>2021-05-30T07:31:07Z</time>
      </trkpt>
      <trkpt lat="45.84205" lon="2.93962">
        <ele>903</ele>
        <time>2021-05-30T07:31:08Z</time>
      </trkpt>
      <trkpt lat="45.84207" lon="2.9396">
        <ele>903</ele>
        <time>2021-05-30T07:31:09Z</time>
      </trkpt>
      <trkpt lat="45.84208" lon="2.93958">
        <ele>903</ele>
        <time>2021-05-30T07:31:10Z</time>
      </trkpt>
      <trkpt lat="45.84211" lon="2.93956">
        <ele>903</ele>
        <time>2021-05-30T07:31:11Z</time>
      </trkpt>
      <trkpt lat="45.84212" lon="2.93954">
        <ele>903</ele>
        <time>2021-05-30T07:31:12Z</time>
      </trkpt>
      <trkpt lat="45.84214" lon="2.93953">
        <ele>903</ele>
        <time>2021-05-30T07:31:13Z</time>
      </trkpt>
      <trkpt lat="45.84216" lon="2.93951">
        <ele>903</ele>
        <time>2021-05-30T07:31:14Z</time>
      </trkpt>
      <trkpt lat="45.84217" lon="2.9395">
        <ele>903</ele>
        <time>2021-05-30T07:31:15Z</time>
      </trkpt>
      <trkpt lat="45.84219" lon="2.93948">
        <ele>903</ele>
        <time>2021-05-30T07:31:16Z</time>
      </trkpt>
      <trkpt lat="45.8422" lon="2.93947">
        <ele>903</ele>
        <time>2021-05-30T07:31:17Z</time>
      </trkpt>
      <trkpt lat="45.84222" lon="2.93945">
        <ele>903</ele>
        <time>2021-05-30T07:31:18Z</time>
      </trkpt>
      <trkpt lat="45.84223" lon="2.93944">
        <ele>903</ele>
        <time>2021-05-30T07:31:19Z</time>
      </trkpt>
      <trkpt lat="45.84225" lon="2.93943">
        <ele>903</ele>
        <time>2021-05-30T07:31:20Z</time>
      </trkpt>
      <trkpt lat="45.84226" lon="2.93942">
        <ele>903</ele>
        <time>2021-05-30T07:31:21Z</time>
      </trkpt>
      <trkpt lat="45.84228" lon="2.93941">
        <ele>903</ele>
        <time>2021-05-30T07:31:22Z</time>
      </trkpt>
      <trkpt lat="45.84229" lon="2.9394">
        <ele>903</ele>
        <time>2021-05-30T07:31:23Z</time>
      </trkpt>
      <trkpt lat="45.8423" lon="2.93939">
        <ele>903</ele>
        <time>2021-05-30T07:31:24Z</time>
      </trkpt>
      <trkpt lat="45.84232" lon="2.93938">
        <ele>903</ele>
        <time>2021-05-30T07:31:25Z</time>
      </trkpt>
      <trkpt lat="45.84233" lon="2.93937">
        <ele>903</ele>
        <time>2021-05-30T07:31:26Z</time>
      </trkpt>
      <trkpt lat="45.84234" lon="2.93935">
        <ele>903</ele>
        <time>2021-05-30T07:31:27Z</time>
      </trkpt>
      <trkpt lat="45.84235" lon="2.93934">
        <ele>903</ele>
        <time>2021-05-30T07:31:28Z</time>
      </trkpt>
      <trkpt lat="45.84237" lon="2.93933">
        <ele>903</ele>
        <time>2021-05-30T07:31:29Z</time>
      </trkpt>
      <trkpt lat="45.84238" lon="2.93932">
        <ele>903</ele>
        <time>2021-05-30T07:31:30Z</time>
      </trkpt>
      <trkpt lat="45.84239" lon="2.9393">
        <ele>903</ele>
        <time>2021-05-30T07:31:31Z</time>
      </trkpt>
      <trkpt lat="45.84241" lon="2.93929">
        <ele>903</ele>
        <time>2021-05-30T07:31:32Z</time>
      </trkpt>
      <trkpt lat="45.84242" lon="2.93927">
        <ele>903</ele>
        <time>2021-05-30T07:31:33Z</time>
      </trkpt>
      <trkpt lat="45.84243" lon="2.93925">
        <ele>903</ele>
        <time>2021-05-30T07:31:34Z</time>
      </trkpt>
      <trkpt lat="45.84244" lon="2.93924">
        <ele>903</ele>
        <time>2021-05-30T07:31:35Z</time>
      </trkpt>
      <trkpt lat="45.84245" lon="2.93922">
        <ele>903</ele>
        <time>2021-05-30T07:31:36Z</time>
      </trkpt>
      <trkpt lat="45.84246" lon="2.93921">
        <ele>903</ele>
        <time>2021-05-30T07:31:37Z</time>
      </trkpt>
      <trkpt lat="45.84247" lon="2.9392">
        <ele>903</ele>
        <time>2021-05-30T07:31:38Z</time>
      </trkpt>
      <trkpt lat="45.84248" lon="2.93918">
        <ele>903</ele>
        <time>2021-05-30T07:31:39Z</time>
      </trkpt>
      <trkpt lat="45.8425" lon="2.93917">
        <ele>903</ele>
        <time>2021-05-30T07:31:40Z</time>
      </trkpt>
      <trkpt lat="45.84251" lon="2.93916">
        <ele>903</ele>
        <time>2021-05-30T07:31:41Z</time>
      </trkpt>
      <trkpt lat="45.84253" lon="2.93914">
        <ele>903</ele>
        <time>2021-05-30T07:31:42Z</time>
      </trkpt>
      <trkpt lat="45.84255" lon="2.93913">
        <ele>903</ele>
        <time>2021-05-30T07:31:43Z</time>
      </trkpt>
      <trkpt lat="45.84256" lon="2.93912">
        <ele>903</ele>
        <time>2021-05-30T07:31:44Z</time>
      </trkpt>
      <trkpt lat="45.84258" lon="2.9391">
        <ele>903</ele>
        <time>2021-05-30T07:31:45Z</time>
      </trkpt>
      <trkpt lat="45.84259" lon="2.93909">
        <ele>903</ele>
        <time>2021-05-30T07:31:46Z</time>
      </trkpt>
      <trkpt lat="45.84262" lon="2.93908">
        <ele>903</ele>
        <time>2021-05-30T07:31:47Z</time>
      </trkpt>
      <trkpt lat="45.84264" lon="2.93907">
        <ele>903</ele>
        <time>2021-05-30T07:31:48Z</time>
      </trkpt>
      <trkpt lat="45.84266" lon="2.93906">
        <ele>903</ele>
        <time>2021-05-30T07:31:49Z</time>
      </trkpt>
      <trkpt lat="45.84269" lon="2.93905">
        <ele>903</ele>
        <time>2021-05-30T07:31:50Z</time>
      </trkpt>
      <trkpt lat="45.84271" lon="2.93905">
        <ele>903</ele>
        <time>2021-05-30T07:31:51Z</time>
      </trkpt>
      <trkpt lat="45.84274" lon="2.93904">
        <ele>903</ele>
        <time>2021-05-30T07:31:52Z</time>
      </trkpt>
      <trkpt lat="45.84275" lon="2.93904">
        <ele>903</ele>
        <time>2021-05-30T07:31:53Z</time>
      </trkpt>
      <trkpt lat="45.84277" lon="2.93904">
        <ele>903</ele>
        <time>2021-05-30T07:31:54Z</time>
      </trkpt>
      <trkpt lat="45.84279" lon="2.93903">
        <ele>903</ele>
        <time>2021-05-30T07:31:55Z</time>
      </trkpt>
      <trkpt lat="45.8428" lon="2.93902">
        <ele>903</ele>
        <time>2021-05-30T07:31:56Z</time>
      </trkpt>
      <trkpt lat="45.84281" lon="2.93902">
        <ele>903</ele>
        <time>2021-05-30T07:31:57Z</time>
      </trkpt>
      <trkpt lat="45.84283" lon="2.93901">
        <ele>903</ele>
        <time>2021-05-30T07:31:58Z</time>
      </trkpt>
      <trkpt lat="45.84284" lon="2.939">
        <ele>903</ele>
        <time>2021-05-30T07:31:59Z</time>
      </trkpt>
      <trkpt lat="45.84286" lon="2.93899">
        <ele>903</ele>
        <time>2021-05-30T07:32:00Z</time>
      </trkpt>
      <trkpt lat="45.84287" lon="2.93898">
        <ele>903</ele>
        <time>2021-05-30T07:32:01Z</time>
      </trkpt>
      <trkpt lat="45.84289" lon="2.93897">
        <ele>903</ele>
        <time>2021-05-30T07:32:02Z</time>
      </trkpt>
      <trkpt lat="45.8429" lon="2.93896">
        <ele>903</ele>
        <time>2021-05-30T07:32:03Z</time>
      </trkpt>
      <trkpt lat="45.84292" lon="2.93894">
        <ele>903</ele>
        <time>2021-05-30T07:32:04Z</time>
      </trkpt>
      <trkpt lat="45.84293" lon="2.93893">
        <ele>903</ele>
        <time>2021-05-30T07:32:05Z</time>
      </trkpt>
      <trkpt lat="45.84295" lon="2.93892">
        <ele>903</ele>
        <time>2021-05-30T07:32:06Z</time>
      </trkpt>
      <trkpt lat="45.84297" lon="2.9389">
        <ele>903</ele>
        <time>2021-05-30T07:32:07Z</time>
      </trkpt>
      <trkpt lat="45.843" lon="2.93889">
        <ele>903</ele>
        <time>2021-05-30T07:32:08Z</time>
      </trkpt>
      <trkpt lat="45.84302" lon="2.93887">
        <ele>903</ele>
        <time>2021-05-30T07:32:09Z</time>
      </trkpt>
      <trkpt lat="45.84304" lon="2.93886">
        <ele>903</ele>
        <time>2021-05-30T07:32:10Z</time>
      </trkpt>
      <trkpt lat="45.84306" lon="2.93885">
        <ele>903</ele>
        <time>2021-05-30T07:32:11Z</time>
      </trkpt>
      <trkpt lat="45.84308" lon="2.93883">
        <ele>903</ele>
        <time>2021-05-30T07:32:12Z</time>
      </trkpt>
      <trkpt lat="45.8431" lon="2.93882">
        <ele>903</ele>
        <time>2021-05-30T07:32:13Z</time>
      </trkpt>
      <trkpt lat="45.84312" lon="2.93881">
        <ele>903</ele>
        <time>2021-05-30T07:32:14Z</time>
      </trkpt>
      <trkpt lat="45.84314" lon="2.9388">
        <ele>903</ele>
        <time>2021-05-30T07:32:15Z</time>
      </trkpt>
      <trkpt lat="45.84316" lon="2.93879">
        <ele>903</ele>
        <time>2021-05-30T07:32:16Z</time>
      </trkpt>
      <trkpt lat="45.84318" lon="2.93878">
        <ele>903</ele>
        <time>2021-05-30T07:32:17Z</time>
      </trkpt>
      <trkpt lat="45.8432" lon="2.93877">
        <ele>903</ele>
        <time>2021-05-30T07:32:18Z</time>
      </trkpt>
      <trkpt lat="45.84322" lon="2.93876">
        <ele>903</ele>
        <time>2021-05-30T07:32:19Z</time>
      </trkpt>
      <trkpt lat="45.84324" lon="2.93875">
        <ele>903</ele>
        <time>2021-05-30T07:32:20Z</time>
      </trkpt>
      <trkpt lat="45.84325" lon="2.93874">
        <ele>903</ele>
        <time>2021-05-30T07:32:21Z</time>
      </trkpt>
      <trkpt lat="45.84327" lon="2.93873">
        <ele>903</ele>
        <time>2021-05-30T07:32:22Z</time>
      </trkpt>
      <trkpt lat="45.84329" lon="2.93872">
        <ele>903</ele>
        <time>2021-05-30T07:32:23Z</time>
      </trkpt>
      <trkpt lat="45.84331" lon="2.9387">
        <ele>903</ele>
        <time>2021-05-30T07:32:24Z</time>
      </trkpt>
      <trkpt lat="45.84332" lon="2.93869">
        <ele>903</ele>
        <time>2021-05-30T07:32:25Z</time>
      </trkpt>
      <trkpt lat="45.84334" lon="2.93868">
        <ele>903</ele>
        <time>2021-05-30T07:32:26Z</time>
      </trkpt>
      <trkpt lat="45.84337" lon="2.93866">
        <ele>903</ele>
        <time>2021-05-30T07:32:27Z</time>
      </trkpt>
      <trkpt lat="45.84338" lon="2.93865">
        <ele>903</ele>
        <time>2021-05-30T07:32:28Z</time>
      </trkpt>
      <trkpt lat="45.8434" lon="2.93864">
        <ele>903</ele>
        <time>2021-05-30T07:32:29Z</time>
      </trkpt>
      <trkpt lat="45.84342" lon="2.93862">
        <ele>903</ele>
        <time>2021-05-30T07:32:30Z</time>
      </trkpt>
      <trkpt lat="45.84344" lon="2.93861">
        <ele>903</ele>
        <time>2021-05-30T07:32:31Z</time>
      </trkpt>
      <trkpt lat="45.84345" lon="2.9386">
        <ele>903</ele>
        <time>2021-05-30T07:32:32Z</time>
      </trkpt>
      <trkpt lat="45.84347" lon="2.93859">
        <ele>903</ele>
        <time>2021-05-30T07:32:33Z</time>
      </trkpt>
      <trkpt lat="45.84349" lon="2.93858">
        <ele>903</ele>
        <time>2021-05-30T07:32:34Z</time>
      </trkpt>
      <trkpt lat="45.8435" lon="2.93857">
        <ele>903</ele>
        <time>2021-05-30T07:32:35Z</time>
      </trkpt>
      <trkpt lat="45.84352" lon="2.93856">
        <ele>903</ele>
        <time>2021-05-30T07:32:36Z</time>
      </trkpt>
      <trkpt lat="45.84353" lon="2.93854">
        <ele>903</ele>
        <time>2021-05-30T07:32:38Z</time>
      </trkpt>
      <trkpt lat="45.84361" lon="2.9385">
        <ele>903</ele>
        <time>2021-05-30T07:32:39Z</time>
      </trkpt>
      <trkpt lat="45.84361" lon="2.9385">
        <ele>903</ele>
        <time>2021-05-30T07:32:40Z</time>
      </trkpt>
      <trkpt lat="45.84362" lon="2.93849">
        <ele>903</ele>
        <time>2021-05-30T07:32:41Z</time>
      </trkpt>
      <trkpt lat="45.84363" lon="2.93849">
        <ele>903</ele>
        <time>2021-05-30T07:32:42Z</time>
      </trkpt>
      <trkpt lat="45.84364" lon="2.93848">
        <ele>903</ele>
        <time>2021-05-30T07:32:43Z</time>
      </trkpt>
      <trkpt lat="45.84366" lon="2.93847">
        <ele>903</ele>
        <time>2021-05-30T07:32:44Z</time>
      </trkpt>
      <trkpt lat="45.84367" lon="2.93846">
        <ele>903</ele>
        <time>2021-05-30T07:32:45Z</time>
      </trkpt>
      <trkpt lat="45.84368" lon="2.93846">
        <ele>903</ele>
        <time>2021-05-30T07:32:46Z</time>
      </trkpt>
      <trkpt lat="45.8437" lon="2.93844">
        <ele>903</ele>
        <time>2021-05-30T07:32:47Z</time>
      </trkpt>
      <trkpt lat="45.84371" lon="2.93843">
        <ele>903</ele>
        <time>2021-05-30T07:32:48Z</time>
      </trkpt>
      <trkpt lat="45.84373" lon="2.93842">
        <ele>903</ele>
        <time>2021-05-30T07:32:49Z</time>
      </trkpt>
      <trkpt lat="45.84374" lon="2.93841">
        <ele>903</ele>
        <time>2021-05-30T07:32:50Z</time>
      </trkpt>
      <trkpt lat="45.84376" lon="2.93839">
        <ele>903</ele>
        <time>2021-05-30T07:32:51Z</time>
      </trkpt>
      <trkpt lat="45.84377" lon="2.93838">
        <ele>903</ele>
        <time>2021-05-30T07:32:52Z</time>
      </trkpt>
      <trkpt lat="45.84379" lon="2.93837">
        <ele>903</ele>
        <time>2021-05-30T07:32:53Z</time>
      </trkpt>
      <trkpt lat="45.8438" lon="2.93836">
        <ele>903</ele>
        <time>2021-05-30T07:32:54Z</time>
      </trkpt>
      <trkpt lat="45.84382" lon="2.93835">
        <ele>903</ele>
        <time>2021-05-30T07:32:55Z</time>
      </trkpt>
      <trkpt lat="45.84383" lon="2.93834">
        <ele>903</ele>
        <time>2021-05-30T07:32:56Z</time>
      </trkpt>
      <trkpt lat="45.84385" lon="2.93832">
        <ele>903</ele>
        <time>2021-05-30T07:32:57Z</time>
      </trkpt>
      <trkpt lat="45.84386" lon="2.93831">
        <ele>903</ele>
        <time>2021-05-30T07:32:58Z</time>
      </trkpt>
      <trkpt lat="45.84388" lon="2.9383">
        <ele>903</ele>
        <time>2021-05-30T07:32:59Z</time>
      </trkpt>
      <trkpt lat="45.8439" lon="2.93828">
        <ele>903</ele>
        <time>2021-05-30T07:33:00Z</time>
      </trkpt>
      <trkpt lat="45.84391" lon="2.93827">
        <ele>903</ele>
        <time>2021-05-30T07:33:01Z</time>
      </trkpt>
      <trkpt lat="45.84392" lon="2.93826">
        <ele>903</ele>
        <time>2021-05-30T07:33:02Z</time>
      </trkpt>
      <trkpt lat="45.84394" lon="2.93825">
        <ele>903</ele>
        <time>2021-05-30T07:33:03Z</time>
      </trkpt>
      <trkpt lat="45.84395" lon="2.93824">
        <ele>903</ele>
        <time>2021-05-30T07:33:04Z</time>
      </trkpt>
      <trkpt lat="45.84397" lon="2.93822">
        <ele>903</ele>
        <time>2021-05-30T07:33:05Z</time>
      </trkpt>
      <trkpt lat="45.84398" lon="2.93821">
        <ele>903</ele>
        <time>2021-05-30T07:33:06Z</time>
      </trkpt>
      <trkpt lat="45.844" lon="2.93819">
        <ele>903</ele>
        <time>2021-05-30T07:33:07Z</time>
      </trkpt>
      <trkpt lat="45.84401" lon="2.93818">
        <ele>903</ele>
        <time>2021-05-30T07:33:08Z</time>
      </trkpt>
      <trkpt lat="45.84403" lon="2.93817">
        <ele>903</ele>
        <time>2021-05-30T07:33:09Z</time>
      </trkpt>
      <trkpt lat="45.84404" lon="2.93815">
        <ele>903</ele>
        <time>2021-05-30T07:33:10Z</time>
      </trkpt>
      <trkpt lat="45.84406" lon="2.93814">
        <ele>903</ele>
        <time>2021-05-30T07:33:11Z</time>
      </trkpt>
      <trkpt lat="45.84407" lon="2.93813">
        <ele>903</ele>
        <time>2021-05-30T07:33:12Z</time>
      </trkpt>
      <trkpt lat="45.84409" lon="2.93811">
        <ele>903</ele>
        <time>2021-05-30T07:33:13Z</time>
      </trkpt>
      <trkpt lat="45.8441" lon="2.9381">
        <ele>903</ele>
        <time>2021-05-30T07:33:14Z</time>
      </trkpt>
      <trkpt lat="45.84412" lon="2.93809">
        <ele>903</ele>
        <time>2021-05-30T07:33:15Z</time>
      </trkpt>
      <trkpt lat="45.84413" lon="2.93808">
        <ele>903</ele>
        <time>2021-05-30T07:33:16Z</time>
      </trkpt>
      <trkpt lat="45.84414" lon="2.93807">
        <ele>903</ele>
        <time>2021-05-30T07:33:17Z</time>
      </trkpt>
      <trkpt lat="45.84416" lon="2.93805">
        <ele>903</ele>
        <time>2021-05-30T07:33:17Z</time>
      </trkpt>
      <trkpt lat="45.84418" lon="2.93804">
        <ele>903</ele>
        <time>2021-05-30T07:33:18Z</time>
      </trkpt>
      <trkpt lat="45.84419" lon="2.93803">
        <ele>903</ele>
        <time>2021-05-30T07:33:19Z</time>
      </trkpt>
      <trkpt lat="45.8442" lon="2.93802">
        <ele>903</ele>
        <time>2021-05-30T07:33:20Z</time>
      </trkpt>
      <trkpt lat="45.84422" lon="2.93801">
        <ele>903</ele>
        <time>2021-05-30T07:33:21Z</time>
      </trkpt>
      <trkpt lat="45.84423" lon="2.938">
        <ele>903</ele>
        <time>2021-05-30T07:33:22Z</time>
      </trkpt>
      <trkpt lat="45.84425" lon="2.93799">
        <ele>903</ele>
        <time>2021-05-30T07:33:23Z</time>
      </trkpt>
      <trkpt lat="45.84427" lon="2.93798">
        <ele>903</ele>
        <time>2021-05-30T07:33:24Z</time>
      </trkpt>
      <trkpt lat="45.84428" lon="2.93797">
        <ele>903</ele>
        <time>2021-05-30T07:33:25Z</time>
      </trkpt>
      <trkpt lat="45.8443" lon="2.93796">
        <ele>903</ele>
        <time>2021-05-30T07:33:26Z</time>
      </trkpt>
      <trkpt lat="45.84432" lon="2.93795">
        <ele>903</ele>
        <time>2021-05-30T07:33:27Z</time>
      </trkpt>
      <trkpt lat="45.84433" lon="2.93794">
        <ele>903</ele>
        <time>2021-05-30T07:33:28Z</time>
      </trkpt>
      <trkpt lat="45.84435" lon="2.93793">
        <ele>903</ele>
        <time>2021-05-30T07:33:29Z</time>
      </trkpt>
      <trkpt lat="45.84436" lon="2.93792">
        <ele>903</ele>
        <time>2021-05-30T07:33:30Z</time>
      </trkpt>
      <trkpt lat="45.84438" lon="2.93791">
        <ele>903</ele>
        <time>2021-05-30T07:33:31Z</time>
      </trkpt>
      <trkpt lat="45.8444" lon="2.9379">
        <ele>903</ele>
        <time>2021-05-30T07:33:32Z</time>
      </trkpt>
      <trkpt lat="45.84441" lon="2.93789">
        <ele>903</ele>
        <time>2021-05-30T07:33:33Z</time>
      </trkpt>
      <trkpt lat="45.84443" lon="2.93788">
        <ele>903</ele>
        <time>2021-05-30T07:33:34Z</time>
      </trkpt>
      <trkpt lat="45.84444" lon="2.93787">
        <ele>903</ele>
        <time>2021-05-30T07:33:35Z</time>
      </trkpt>
      <trkpt lat="45.84446" lon="2.93786">
        <ele>903</ele>
        <time>2021-05-30T07:33:36Z</time>
      </trkpt>
      <trkpt lat="45.84447" lon="2.93785">
        <ele>903</ele>
        <time>2021-05-30T07:33:38Z</time>
      </trkpt>
      <trkpt lat="45.84454" lon="2.9378">
        <ele>903</ele>
        <time>2021-05-30T07:33:39Z</time>
      </trkpt>
      <trkpt lat="45.84454" lon="2.9378">
        <ele>903</ele>
        <time>2021-05-30T07:33:40Z</time>
      </trkpt>
      <trkpt lat="45.84455" lon="2.9378">
        <ele>903</ele>
        <time>2021-05-30T07:33:41Z</time>
      </trkpt>
      <trkpt lat="45.84455" lon="2.93779">
        <ele>903</ele>
        <time>2021-05-30T07:33:42Z</time>
      </trkpt>
      <trkpt lat="45.84456" lon="2.93779">
        <ele>903</ele>
        <time>2021-05-30T07:33:43Z</time>
      </trkpt>
      <trkpt lat="45.84458" lon="2.93778">
        <ele>903</ele>
        <time>2021-05-30T07:33:44Z</time>
      </trkpt>
      <trkpt lat="45.84459" lon="2.93777">
        <ele>903</ele>
        <time>2021-05-30T07:33:45Z</time>
      </trkpt>
      <trkpt lat="45.8446" lon="2.93776">
        <ele>903</ele>
        <time>2021-05-30T07:33:46Z</time>
      </trkpt>
      <trkpt lat="45.84461" lon="2.93775">
        <ele>903</ele>
        <time>2021-05-30T07:33:47Z</time>
      </trkpt>
      <trkpt lat="45.84462" lon="2.93775">
        <ele>903</ele>
        <time>2021-05-30T07:33:48Z</time>
      </trkpt>
      <trkpt lat="45.84464" lon="2.93774">
        <ele>903</ele>
        <time>2021-05-30T07:33:49Z</time>
      </trkpt>
      <trkpt lat="45.84465" lon="2.93773">
        <ele>903</ele>
        <time>2021-05-30T07:33:50Z</time>
      </trkpt>
      <trkpt lat="45.84467" lon="2.93772">
        <ele>903</ele>
        <time>2021-05-30T07:33:51Z</time>
      </trkpt>
      <trkpt lat="45.84468" lon="2.93772">
        <ele>903</ele>
        <time>2021-05-30T07:33:52Z</time>
      </trkpt>
      <trkpt lat="45.8447" lon="2.93771">
        <ele>903</ele>
        <time>2021-05-30T07:33:53Z</time>
      </trkpt>
      <trkpt lat="45.84471" lon="2.9377">
        <ele>903</ele>
        <time>2021-05-30T07:33:54Z</time>
      </trkpt>
      <trkpt lat="45.84472" lon="2.93769">
        <ele>903</ele>
        <time>2021-05-30T07:33:55Z</time>
      </trkpt>
      <trkpt lat="45.84473" lon="2.93768">
        <ele>903</ele>
        <time>2021-05-30T07:33:56Z</time>
      </trkpt>
      <trkpt lat="45.84476" lon="2.93767">
        <ele>903</ele>
        <time>2021-05-30T07:33:57Z</time>
      </trkpt>
      <trkpt lat="45.84477" lon="2.93767">
        <ele>903</ele>
        <time>2021-05-30T07:33:58Z</time>
      </trkpt>
      <trkpt lat="45.84478" lon="2.93766">
        <ele>903</ele>
        <time>2021-05-30T07:33:59Z</time>
      </trkpt>
      <trkpt lat="45.8448" lon="2.93765">
        <ele>903</ele>
        <time>2021-05-30T07:34:00Z</time>
      </trkpt>
      <trkpt lat="45.84481" lon="2.93764">
        <ele>903</ele>
        <time>2021-05-30T07:34:01Z</time>
      </trkpt>
      <trkpt lat="45.84483" lon="2.93763">
        <ele>903</ele>
        <time>2021-05-30T07:34:02Z</time>
      </trkpt>
      <trkpt lat="45.84485" lon="2.93762">
        <ele>903</ele>
        <time>2021-05-30T07:34:03Z</time>
      </trkpt>
      <trkpt lat="45.84485" lon="2.93761">
        <ele>903</ele>
        <time>2021-05-30T07:34:04Z</time>
      </trkpt>
      <trkpt lat="45.84487" lon="2.93761">
        <ele>903</ele>
        <time>2021-05-30T07:34:05Z</time>
      </trkpt>
      <trkpt lat="45.84488" lon="2.93759">
        <ele>903</ele>
        <time>2021-05-30T07:34:06Z</time>
      </trkpt>
      <trkpt lat="45.8449" lon="2.93758">
        <ele>903</ele>
        <time>2021-05-30T07:34:07Z</time>
      </trkpt>
      <trkpt lat="45.84491" lon="2.93757">
        <ele>903</ele>
        <time>2021-05-30T07:34:08Z</time>
      </trkpt>
      <trkpt lat="45.84493" lon="2.93757">
        <ele>903</ele>
        <time>2021-05-30T07:34:09Z</time>
      </trkpt>
      <trkpt lat="45.84494" lon="2.93756">
        <ele>903</ele>
        <time>2021-05-30T07:34:10Z</time>
      </trkpt>
      <trkpt lat="45.84495" lon="2.93755">
        <ele>903</ele>
        <time>2021-05-30T07:34:11Z</time>
      </trkpt>
      <trkpt lat="45.84496" lon="2.93754">
        <ele>903</ele>
        <time>2021-05-30T07:34:12Z</time>
      </trkpt>
      <trkpt lat="45.84498" lon="2.93753">
        <ele>903</ele>
        <time>2021-05-30T07:34:13Z</time>
      </trkpt>
      <trkpt lat="45.84499" lon="2.93752">
        <ele>903</ele>
        <time>2021-05-30T07:34:14Z</time>
      </trkpt>
      <trkpt lat="45.845" lon="2.93751">
        <ele>903</ele>
        <time>2021-05-30T07:34:15Z</time>
      </trkpt>
      <trkpt lat="45.84502" lon="2.9375">
        <ele>903</ele>
        <time>2021-05-30T07:34:16Z</time>
      </trkpt>
      <trkpt lat="45.84503" lon="2.93749">
        <ele>903</ele>
        <time>2021-05-30T07:34:17Z</time>
      </trkpt>
      <trkpt lat="45.84504" lon="2.93748">
        <ele>903</ele>
        <time>2021-05-30T07:34:18Z</time>
      </trkpt>
      <trkpt lat="45.84506" lon="2.93747">
        <ele>903</ele>
        <time>2021-05-30T07:34:19Z</time>
      </trkpt>
      <trkpt lat="45.84507" lon="2.93746">
        <ele>903</ele>
        <time>2021-05-30T07:34:20Z</time>
      </trkpt>
      <trkpt lat="45.84509" lon="2.93745">
        <ele>903</ele>
        <time>2021-05-30T07:34:21Z</time>
      </trkpt>
      <trkpt lat="45.8451" lon="2.93744">
        <ele>903</ele>
        <time>2021-05-30T07:34:22Z</time>
      </trkpt>
      <trkpt lat="45.84511" lon="2.93743">
        <ele>903</ele>
        <time>2021-05-30T07:34:23Z</time>
      </trkpt>
      <trkpt lat="45.84512" lon="2.93742">
        <ele>903</ele>
        <time>2021-05-30T07:34:24Z</time>
      </trkpt>
      <trkpt lat="45.84514" lon="2.93742">
        <ele>903</ele>
        <time>2021-05-30T07:34:25Z</time>
      </trkpt>
      <trkpt lat="45.84516" lon="2.93741">
        <ele>903</ele>
        <time>2021-05-30T07:34:26Z</time>
      </trkpt>
      <trkpt lat="45.84517" lon="2.9374">
        <ele>903</ele>
        <time>2021-05-30T07:34:27Z</time>
      </trkpt>
      <trkpt lat="45.84519" lon="2.93739">
        <ele>903</ele>
        <time>2021-05-30T07:34:28Z</time>
      </trkpt>
      <trkpt lat="45.84521" lon="2.93738">
        <ele>903</ele>
        <time>2021-05-30T07:34:29Z</time>
      </trkpt>
      <trkpt lat="45.84522" lon="2.93737">
        <ele>903</ele>
        <time>2021-05-30T07:34:30Z</time>
      </trkpt>
      <trkpt lat="45.84524" lon="2.93736">
        <ele>903</ele>
        <time>2021-05-30T07:34:31Z</time>
      </trkpt>
      <trkpt lat="45.84526" lon="2.93736">
        <ele>903</ele>
        <time>2021-05-30T07:34:32Z</time>
      </trkpt>
      <trkpt lat="45.84527" lon="2.93735">
        <ele>903</ele>
        <time>2021-05-30T07:34:33Z</time>
      </trkpt>
      <trkpt lat="45.8453" lon="2.93734">
        <ele>903</ele>
        <time>2021-05-30T07:34:34Z</time>
      </trkpt>
      <trkpt lat="45.84531" lon="2.93733">
        <ele>903</ele>
        <time>2021-05-30T07:34:35Z</time>
      </trkpt>
      <trkpt lat="45.84533" lon="2.93733">
        <ele>903</ele>
        <time>2021-05-30T07:34:37Z</time>
      </trkpt>
      <trkpt lat="45.84534" lon="2.93732">
        <ele>903</ele>
        <time>2021-05-30T07:34:38Z</time>
      </trkpt>
      <trkpt lat="45.84539" lon="2.93727">
        <ele>903</ele>
        <time>2021-05-30T07:34:39Z</time>
      </trkpt>
      <trkpt lat="45.84539" lon="2.93727">
        <ele>903</ele>
        <time>2021-05-30T07:34:40Z</time>
      </trkpt>
      <trkpt lat="45.8454" lon="2.93726">
        <ele>903</ele>
        <time>2021-05-30T07:34:41Z</time>
      </trkpt>
      <trkpt lat="45.84541" lon="2.93726">
        <ele>903</ele>
        <time>2021-05-30T07:34:42Z</time>
      </trkpt>
      <trkpt lat="45.84542" lon="2.93725">
        <ele>903</ele>
        <time>2021-05-30T07:34:43Z</time>
      </trkpt>
      <trkpt lat="45.84544" lon="2.93724">
        <ele>903</ele>
        <time>2021-05-30T07:34:44Z</time>
      </trkpt>
      <trkpt lat="45.84545" lon="2.93723">
        <ele>903</ele>
        <time>2021-05-30T07:34:45Z</time>
      </trkpt>
      <trkpt lat="45.84546" lon="2.93722">
        <ele>903</ele>
        <time>2021-05-30T07:34:46Z</time>
      </trkpt>
      <trkpt lat="45.84547" lon="2.93721">
        <ele>903</ele>
        <time>2021-05-30T07:34:47Z</time>
      </trkpt>
      <trkpt lat="45.84548" lon="2.9372">
        <ele>903</ele>
        <time>2021-05-30T07:34:48Z</time>
      </trkpt>
      <trkpt lat="45.84549" lon="2.93719">
        <ele>903</ele>
        <time>2021-05-30T07:34:49Z</time>
      </trkpt>
      <trkpt lat="45.84551" lon="2.93718">
        <ele>903</ele>
        <time>2021-05-30T07:34:50Z</time>
      </trkpt>
      <trkpt lat="45.84552" lon="2.93717">
        <ele>903</ele>
        <time>2021-05-30T07:34:51Z</time>
      </trkpt>
      <trkpt lat="45.84554" lon="2.93716">
        <ele>903</ele>
        <time>2021-05-30T07:34:52Z</time>
      </trkpt>
      <trkpt lat="45.84555" lon="2.93715">
        <ele>903</ele>
        <time>2021-05-30T07:34:53Z</time>
      </trkpt>
      <trkpt lat="45.84557" lon="2.93715">
        <ele>903</ele>
        <time>2021-05-30T07:34:54Z</time>
      </trkpt>
      <trkpt lat="45.84559" lon="2.93714">
        <ele>903</ele>
        <time>2021-05-30T07:34:55Z</time>
      </trkpt>
      <trkpt lat="45.8456" lon="2.93714">
        <ele>903</ele>
        <time>2021-05-30T07:34:56Z</time>
      </trkpt>
      <trkpt lat="45.84562" lon="2.93713">
        <ele>903</ele>
        <time>2021-05-30T07:34:57Z</time>
      </trkpt>
      <trkpt lat="45.84563" lon="2.93713">
        <ele>903</ele>
        <time>2021-05-30T07:34:58Z</time>
      </trkpt>
      <trkpt lat="45.84565" lon="2.93712">
        <ele>903</ele>
        <time>2021-05-30T07:34:59Z</time>
      </trkpt>
      <trkpt lat="45.84567" lon="2.93711">
        <ele>903</ele>
        <time>2021-05-30T07:35:00Z</time>
      </trkpt>
      <trkpt lat="45.84568" lon="2.9371">
        <ele>903</ele>
        <time>2021-05-30T07:35:01Z</time>
      </trkpt>
      <trkpt lat="45.8457" lon="2.9371">
        <ele>903</ele>
        <time>2021-05-30T07:35:02Z</time>
      </trkpt>
      <trkpt lat="45.84572" lon="2.93709">
        <ele>903</ele>
        <time>2021-05-30T07:35:03Z</time>
      </trkpt>
      <trkpt lat="45.84573" lon="2.93708">
        <ele>903</ele>
        <time>2021-05-30T07:35:04Z</time>
      </trkpt>
      <trkpt lat="45.84575" lon="2.93707">
        <ele>903</ele>
        <time>2021-05-30T07:35:05Z</time>
      </trkpt>
      <trkpt lat="45.84577" lon="2.93706">
        <ele>903</ele>
        <time>2021-05-30T07:35:06Z</time>
      </trkpt>
      <trkpt lat="45.84579" lon="2.93705">
        <ele>903</ele>
        <time>2021-05-30T07:35:07Z</time>
      </trkpt>
      <trkpt lat="45.8458" lon="2.93704">
        <ele>903</ele>
        <time>2021-05-30T07:35:08Z</time>
      </trkpt>
      <trkpt lat="45.84582" lon="2.93703">
        <ele>903</ele>
        <time>2021-05-30T07:35:09Z</time>
      </trkpt>
      <trkpt lat="45.84584" lon="2.93702">
        <ele>903</ele>
        <time>2021-05-30T07:35:10Z</time>
      </trkpt>
      <trkpt lat="45.84586" lon="2.93701">
        <ele>903</ele>
        <time>2021-05-30T07:35:11Z</time>
      </trkpt>
      <trkpt lat="45.84587" lon="2.93701">
        <ele>903</ele>
        <time>2021-05-30T07:35:12Z</time>
      </trkpt>
      <trkpt lat="45.84589" lon="2.937">
        <ele>903</ele>
        <time>2021-05-30T07:35:13Z</time>
      </trkpt>
      <trkpt lat="45.8459" lon="2.93699">
        <ele>903</ele>
        <time>2021-05-30T07:35:14Z</time>
      </trkpt>
      <trkpt lat="45.84592" lon="2.93698">
        <ele>903</ele>
        <time>2021-05-30T07:35:15Z</time>
      </trkpt>
      <trkpt lat="45.84594" lon="2.93697">
        <ele>903</ele>
        <time>2021-05-30T07:35:16Z</time>
      </trkpt>
      <trkpt lat="45.84595" lon="2.93696">
        <ele>903</ele>
        <time>2021-05-30T07:35:17Z</time>
      </trkpt>
      <trkpt lat="45.84597" lon="2.93695">
        <ele>903</ele>
        <time>2021-05-30T07:35:18Z</time>
      </trkpt>
      <trkpt lat="45.84598" lon="2.93694">
        <ele>903</ele>
        <time>2021-05-30T07:35:19Z</time>
      </trkpt>
      <trkpt lat="45.846" lon="2.93693">
        <ele>903</ele>
        <time>2021-05-30T07:35:20Z</time>
      </trkpt>
      <trkpt lat="45.84601" lon="2.93692">
        <ele>903</ele>
        <time>2021-05-30T07:35:21Z</time>
      </trkpt>
      <trkpt lat="45.84603" lon="2.93691">
        <ele>903</ele>
        <time>2021-05-30T07:35:22Z</time>
      </trkpt>
      <trkpt lat="45.84604" lon="2.9369">
        <ele>903</ele>
        <time>2021-05-30T07:35:23Z</time>
      </trkpt>
      <trkpt lat="45.84606" lon="2.93689">
        <ele>903</ele>
        <time>2021-05-30T07:35:24Z</time>
      </trkpt>
      <trkpt lat="45.84607" lon="2.93688">
        <ele>903</ele>
        <time>2021-05-30T07:35:25Z</time>
      </trkpt>
      <trkpt lat="45.84609" lon="2.93686">
        <ele>903</ele>
        <time>2021-05-30T07:35:26Z</time>
      </trkpt>
      <trkpt lat="45.8461" lon="2.93685">
        <ele>903</ele>
        <time>2021-05-30T07:35:27Z</time>
      </trkpt>
      <trkpt lat="45.84612" lon="2.93684">
        <ele>903</ele>
        <time>2021-05-30T07:35:28Z</time>
      </trkpt>
      <trkpt lat="45.84613" lon="2.93683">
        <ele>903</ele>
        <time>2021-05-30T07:35:29Z</time>
      </trkpt>
      <trkpt lat="45.84615" lon="2.93682">
        <ele>903</ele>
        <time>2021-05-30T07:35:30Z</time>
      </trkpt>
      <trkpt lat="45.84616" lon="2.93681">
        <ele>903</ele>
        <time>2021-05-30T07:35:31Z</time>
      </trkpt>
      <trkpt lat="45.84618" lon="2.9368">
        <ele>903</ele>
        <time>2021-05-30T07:35:32Z</time>
      </trkpt>
      <trkpt lat="45.8462" lon="2.93679">
        <ele>903</ele>
        <time>2021-05-30T07:35:33Z</time>
      </trkpt>
      <trkpt lat="45.84621" lon="2.93678">
        <ele>903</ele>
        <time>2021-05-30T07:35:34Z</time>
      </trkpt>
      <trkpt lat="45.84623" lon="2.93677">
        <ele>903</ele>
        <time>2021-05-30T07:35:35Z</time>
      </trkpt>
      <trkpt lat="45.84624" lon="2.93676">
        <ele>903</ele>
        <time>2021-05-30T07:35:36Z</time>
      </trkpt>
      <trkpt lat="45.84626" lon="2.93675">
        <ele>903</ele>
        <time>2021-05-30T07:35:37Z</time>
      </trkpt>
      <trkpt lat="45.84627" lon="2.93674">
        <ele>903</ele>
        <time>2021-05-30T07:35:38Z</time>
      </trkpt>
      <trkpt lat="45.84629" lon="2.93673">
        <ele>903</ele>
        <time>2021-05-30T07:35:39Z</time>
      </trkpt>
      <trkpt lat="45.84631" lon="2.93673">
        <ele>903</ele>
        <time>2021-05-30T07:35:40Z</time>
      </trkpt>
      <trkpt lat="45.84633" lon="2.93672">
        <ele>903</ele>
        <time>2021-05-30T07:35:41Z</time>
      </trkpt>
      <trkpt lat="45.84634" lon="2.93671">
        <ele>903</ele>
        <time>2021-05-30T07:35:42Z</time>
      </trkpt>
      <trkpt lat="45.84636" lon="2.9367">
        <ele>903</ele>
        <time>2021-05-30T07:35:43Z</time>
      </trkpt>
      <trkpt lat="45.84637" lon="2.93669">
        <ele>903</ele>
        <time>2021-05-30T07:35:44Z</time>
      </trkpt>
      <trkpt lat="45.84639" lon="2.93668">
        <ele>903</ele>
        <time>2021-05-30T07:35:45Z</time>
      </trkpt>
      <trkpt lat="45.8464" lon="2.93667">
        <ele>903</ele>
        <time>2021-05-30T07:35:46Z</time>
      </trkpt>
      <trkpt lat="45.84642" lon="2.93666">
        <ele>903</ele>
        <time>2021-05-30T07:35:47Z</time>
      </trkpt>
      <trkpt lat="45.84643" lon="2.93666">
        <ele>903</ele>
        <time>2021-05-30T07:35:48Z</time>
      </trkpt>
      <trkpt lat="45.84645" lon="2.93665">
        <ele>903</ele>
        <time>2021-05-30T07:35:49Z</time>
      </trkpt>
      <trkpt lat="45.84646" lon="2.93664">
        <ele>903</ele>
        <time>2021-05-30T07:35:50Z</time>
      </trkpt>
      <trkpt lat="45.84648" lon="2.93663">
        <ele>903</ele>
        <time>2021-05-30T07:35:51Z</time>
      </trkpt>
      <trkpt lat="45.84649" lon="2.93663">
        <ele>903</ele>
        <time>2021-05-30T07:35:52Z</time>
      </trkpt>
      <trkpt lat="45.84651" lon="2.93662">
        <ele>903</ele>
        <time>2021-05-30T07:35:53Z</time>
      </trkpt>
      <trkpt lat="45.84652" lon="2.93661">
        <ele>903</ele>
        <time>2021-05-30T07:35:54Z</time>
      </trkpt>
      <trkpt lat="45.84654" lon="2.93661">
        <ele>903</ele>
        <time>2021-05-30T07:35:55Z</time>
      </trkpt>
      <trkpt lat="45.84656" lon="2.9366">
        <ele>903</ele>
        <time>2021-05-30T07:35:56Z</time>
      </trkpt>
      <trkpt lat="45.84657" lon="2.93659">
        <ele>903</ele>
        <time>2021-05-30T07:35:57Z</time>
      </trkpt>
      <trkpt lat="45.84659" lon="2.93658">
        <ele>903</ele>
        <time>2021-05-30T07:35:58Z</time>
      </trkpt>
      <trkpt lat="45.8466" lon="2.93658">
        <ele>903</ele>
        <time>2021-05-30T07:35:59Z</time>
      </trkpt>
      <trkpt lat="45.84662" lon="2.93657">
        <ele>903</ele>
        <time>2021-05-30T07:36:00Z</time>
      </trkpt>
      <trkpt lat="45.84663" lon="2.93656">
        <ele>903</ele>
        <time>2021-05-30T07:36:01Z</time>
      </trkpt>
      <trkpt lat="45.84665" lon="2.93656">
        <ele>903</ele>
        <time>2021-05-30T07:36:02Z</time>
      </trkpt>
      <trkpt lat="45.84666" lon="2.93655">
        <ele>903</ele>
        <time>2021-05-30T07:36:03Z</time>
      </trkpt>
      <trkpt lat="45.84668" lon="2.93654">
        <ele>903</ele>
        <time>2021-05-30T07:36:04Z</time>
      </trkpt>
      <trkpt lat="45.8467" lon="2.93653">
        <ele>903</ele>
        <time>2021-05-30T07:36:05Z</time>
      </trkpt>
      <trkpt lat="45.84672" lon="2.93652">
        <ele>903</ele>
        <time>2021-05-30T07:36:06Z</time>
      </trkpt>
      <trkpt lat="45.84673" lon="2.93651">
        <ele>903</ele>
        <time>2021-05-30T07:36:07Z</time>
      </trkpt>
      <trkpt lat="45.84675" lon="2.9365">
        <ele>903</ele>
        <time>2021-05-30T07:36:08Z</time>
      </trkpt>
      <trkpt lat="45.84676" lon="2.93649">
        <ele>903</ele>
        <time>2021-05-30T07:36:09Z</time>
      </trkpt>
      <trkpt lat="45.84678" lon="2.93649">
        <ele>903</ele>
        <time>2021-05-30T07:36:10Z</time>
      </trkpt>
      <trkpt lat="45.84679" lon="2.93648">
        <ele>903</ele>
        <time>2021-05-30T07:36:11Z</time>
      </trkpt>
      <trkpt lat="45.84681" lon="2.93646">
        <ele>903</ele>
        <time>2021-05-30T07:36:12Z</time>
      </trkpt>
      <trkpt lat="45.84683" lon="2.93645">
        <ele>903</ele>
        <time>2021-05-30T07:36:13Z</time>
      </trkpt>
      <trkpt lat="45.84684" lon="2.93644">
        <ele>903</ele>
        <time>2021-05-30T07:36:14Z</time>
      </trkpt>
      <trkpt lat="45.84686" lon="2.93643">
        <ele>903</ele>
        <time>2021-05-30T07:36:15Z</time>
      </trkpt>
      <trkpt lat="45.84687" lon="2.93642">
        <ele>903</ele>
        <time>2021-05-30T07:36:16Z</time>
      </trkpt>
      <trkpt lat="45.84689" lon="2.93641">
        <ele>903</ele>
        <time>2021-05-30T07:36:17Z</time>
      </trkpt>
      <trkpt lat="45.8469" lon="2.9364">
        <ele>903</ele>
        <time>2021-05-30T07:36:18Z</time>
      </trkpt>
      <trkpt lat="45.84691" lon="2.93639">
        <ele>903</ele>
        <time>2021-05-30T07:36:19Z</time>
      </trkpt>
      <trkpt lat="45.84693" lon="2.93638">
        <ele>903</ele>
        <time>2021-05-30T07:36:20Z</time>
      </trkpt>
      <trkpt lat="45.84694" lon="2.93637">
        <ele>903</ele>
        <time>2021-05-30T07:36:21Z</time>
      </trkpt>
      <trkpt lat="45.84696" lon="2.93636">
        <ele>903</ele>
        <time>2021-05-30T07:36:22Z</time>
      </trkpt>
      <trkpt lat="45.84697" lon="2.93635">
        <ele>903</ele>
        <time>2021-05-30T07:36:23Z</time>
      </trkpt>
      <trkpt lat="45.84699" lon="2.93634">
        <ele>903</ele>
        <time>2021-05-30T07:36:24Z</time>
      </trkpt>
      <trkpt lat="45.847" lon="2.93632">
        <ele>903</ele>
        <time>2021-05-30T07:36:25Z</time>
      </trkpt>
      <trkpt lat="45.84702" lon="2.93631">
        <ele>903</ele>
        <time>2021-05-30T07:36:26Z</time>
      </trkpt>
      <trkpt lat="45.84703" lon="2.9363">
        <ele>903</ele>
        <time>2021-05-30T07:36:27Z</time>
      </trkpt>
      <trkpt lat="45.84705" lon="2.93629">
        <ele>903</ele>
        <time>2021-05-30T07:36:28Z</time>
      </trkpt>
      <trkpt lat="45.84706" lon="2.93628">
        <ele>903</ele>
        <time>2021-05-30T07:36:29Z</time>
      </trkpt>
      <trkpt lat="45.84708" lon="2.93627">
        <ele>903</ele>
        <time>2021-05-30T07:36:30Z</time>
      </trkpt>
      <trkpt lat="45.84709" lon="2.93626">
        <ele>903</ele>
        <time>2021-05-30T07:36:31Z</time>
      </trkpt>
      <trkpt lat="45.84711" lon="2.93625">
        <ele>903</ele>
        <time>2021-05-30T07:36:32Z</time>
      </trkpt>
      <trkpt lat="45.84712" lon="2.93624">
        <ele>903</ele>
        <time>2021-05-30T07:36:33Z</time>
      </trkpt>
      <trkpt lat="45.84714" lon="2.93623">
        <ele>903</ele>
        <time>2021-05-30T07:36:34Z</time>
      </trkpt>
      <trkpt lat="45.84715" lon="2.93622">
        <ele>903</ele>
        <time>2021-05-30T07:36:35Z</time>
      </trkpt>
      <trkpt lat="45.84717" lon="2.93621">
        <ele>903</ele>
        <time>2021-05-30T07:36:36Z</time>
      </trkpt>
      <trkpt lat="45.84718" lon="2.9362">
        <ele>903</ele>
        <time>2021-05-30T07:36:37Z</time>
      </trkpt>
      <trkpt lat="45.8472" lon="2.93619">
        <ele>903</ele>
        <time>2021-05-30T07:36:38Z</time>
      </trkpt>
      <trkpt lat="45.84721" lon="2.93618">
        <ele>903</ele>
        <time>2021-05-30T07:36:39Z</time>
      </trkpt>
      <trkpt lat="45.84723" lon="2.93617">
        <ele>903</ele>
        <time>2021-05-30T07:36:40Z</time>
      </trkpt>
      <trkpt lat="45.84724" lon="2.93616">
        <ele>903</ele>
        <time>2021-05-30T07:36:41Z</time>
      </trkpt>
      <trkpt lat="45.84726" lon="2.93615">
        <ele>903</ele>
        <time>2021-05-30T07:36:42Z</time>
      </trkpt>
      <trkpt lat="45.84728" lon="2.93614">
        <ele>903</ele>
        <time>2021-05-30T07:36:43Z</time>
      </trkpt>
      <trkpt lat="45.84729" lon="2.93613">
        <ele>903</ele>
        <time>2021-05-30T07:36:44Z</time>
      </trkpt>
      <trkpt lat="45.84731" lon="2.93612">
        <ele>903</ele>
        <time>2021-05-30T07:36:45Z</time>
      </trkpt>
      <trkpt lat="45.84732" lon="2.9361">
        <ele>903</ele>
        <time>2021-05-30T07:36:46Z</time>
      </trkpt>
      <trkpt lat="45.84733" lon="2.93609">
        <ele>903</ele>
        <time>2021-05-30T07:36:47Z</time>
      </trkpt>
      <trkpt lat="45.84734" lon="2.93608">
        <ele>903</ele>
        <time>2021-05-30T07:36:48Z</time>
      </trkpt>
      <trkpt lat="45.84736" lon="2.93607">
        <ele>903</ele>
        <time>2021-05-30T07:36:49Z</time>
      </trkpt>
      <trkpt lat="45.84737" lon="2.93606">
        <ele>903</ele>
        <time>2021-05-30T07:36:50Z</time>
      </trkpt>
      <trkpt lat="45.84738" lon="2.93604">
        <ele>903</ele>
        <time>2021-05-30T07:36:51Z</time>
      </trkpt>
      <trkpt lat="45.84739" lon="2.93603">
        <ele>903</ele>
        <time>2021-05-30T07:36:52Z</time>
      </trkpt>
      <trkpt lat="45.84741" lon="2.93602">
        <ele>903</ele>
        <time>2021-05-30T07:36:53Z</time>
      </trkpt>
      <trkpt lat="45.84742" lon="2.936">
        <ele>903</ele>
        <time>2021-05-30T07:36:54Z</time>
      </trkpt>
      <trkpt lat="45.84744" lon="2.93598">
        <ele>903</ele>
        <time>2021-05-30T07:36:55Z</time>
      </trkpt>
      <trkpt lat="45.84744" lon="2.93597">
        <ele>903</ele>
        <time>2021-05-30T07:36:56Z</time>
      </trkpt>
      <trkpt lat="45.84745" lon="2.93595">
        <ele>903</ele>
        <time>2021-05-30T07:36:57Z</time>
      </trkpt>
      <trkpt lat="45.84747" lon="2.93594">
        <ele>903</ele>
        <time>2021-05-30T07:36:58Z</time>
      </trkpt>
      <trkpt lat="45.84748" lon="2.93592">
        <ele>903</ele>
        <time>2021-05-30T07:36:59Z</time>
      </trkpt>
      <trkpt lat="45.84749" lon="2.9359">
        <ele>903</ele>
        <time>2021-05-30T07:37:00Z</time>
      </trkpt>
      <trkpt lat="45.8475" lon="2.93589">
        <ele>903</ele>
        <time>2021-05-30T07:37:01Z</time>
      </trkpt>
      <trkpt lat="45.84751" lon="2.93587">
        <ele>903</ele>
        <time>2021-05-30T07:37:02Z</time>
      </trkpt>
      <trkpt lat="45.84752" lon="2.93586">
        <ele>903</ele>
        <time>2021-05-30T07:37:03Z</time>
      </trkpt>
      <trkpt lat="45.84753" lon="2.93585">
        <ele>903</ele>
        <time>2021-05-30T07:37:04Z</time>
      </trkpt>
      <trkpt lat="45.84754" lon="2.93583">
        <ele>903</ele>
        <time>2021-05-30T07:37:05Z</time>
      </trkpt>
      <trkpt lat="45.84755" lon="2.93582">
        <ele>903</ele>
        <time>2021-05-30T07:37:06Z</time>
      </trkpt>
      <trkpt lat="45.84756" lon="2.93581">
        <ele>903</ele>
        <time>2021-05-30T07:37:07Z</time>
      </trkpt>
      <trkpt lat="45.84756" lon="2.9358">
        <ele>903</ele>
        <time>2021-05-30T07:37:08Z</time>
      </trkpt>
      <trkpt lat="45.84757" lon="2.93578">
        <ele>903</ele>
        <time>2021-05-30T07:37:09Z</time>
      </trkpt>
      <trkpt lat="45.84758" lon="2.93576">
        <ele>903</ele>
        <time>2021-05-30T07:37:10Z</time>
      </trkpt>
      <trkpt lat="45.84759" lon="2.93575">
        <ele>903</ele>
        <time>2021-05-30T07:37:11Z</time>
      </trkpt>
      <trkpt lat="45.8476" lon="2.93573">
        <ele>903</ele>
        <time>2021-05-30T07:37:12Z</time>
      </trkpt>
      <trkpt lat="45.84761" lon="2.93571">
        <ele>903</ele>
        <time>2021-05-30T07:37:13Z</time>
      </trkpt>
      <trkpt lat="45.84762" lon="2.93569">
        <ele>903</ele>
        <time>2021-05-30T07:37:14Z</time>
      </trkpt>
      <trkpt lat="45.84763" lon="2.93567">
        <ele>903</ele>
        <time>2021-05-30T07:37:15Z</time>
      </trkpt>
      <trkpt lat="45.84764" lon="2.93564">
        <ele>903</ele>
        <time>2021-05-30T07:37:16Z</time>
      </trkpt>
      <trkpt lat="45.84765" lon="2.93562">
        <ele>903</ele>
        <time>2021-05-30T07:37:17Z</time>
      </trkpt>
      <trkpt lat="45.84766" lon="2.9356">
        <ele>903</ele>
        <time>2021-05-30T07:37:18Z</time>
      </trkpt>
      <trkpt lat="45.84766" lon="2.93558">
        <ele>903</ele>
        <time>2021-05-30T07:37:19Z</time>
      </trkpt>
      <trkpt lat="45.84768" lon="2.93555">
        <ele>903</ele>
        <time>2021-05-30T07:37:20Z</time>
      </trkpt>
      <trkpt lat="45.84769" lon="2.93553">
        <ele>903</ele>
        <time>2021-05-30T07:37:21Z</time>
      </trkpt>
      <trkpt lat="45.8477" lon="2.93551">
        <ele>903</ele>
        <time>2021-05-30T07:37:22Z</time>
      </trkpt>
      <trkpt lat="45.84771" lon="2.93549">
        <ele>903</ele>
        <time>2021-05-30T07:37:23Z</time>
      </trkpt>
      <trkpt lat="45.84772" lon="2.93547">
        <ele>903</ele>
        <time>2021-05-30T07:37:24Z</time>
      </trkpt>
      <trkpt lat="45.84773" lon="2.93545">
        <ele>903</ele>
        <time>2021-05-30T07:37:25Z</time>
      </trkpt>
      <trkpt lat="45.84774" lon="2.93544">
        <ele>903</ele>
        <time>2021-05-30T07:37:26Z</time>
      </trkpt>
      <trkpt lat="45.84775" lon="2.93542">
        <ele>903</ele>
        <time>2021-05-30T07:37:27Z</time>
      </trkpt>
      <trkpt lat="45.84776" lon="2.9354">
        <ele>903</ele>
        <time>2021-05-30T07:37:28Z</time>
      </trkpt>
      <trkpt lat="45.84778" lon="2.93538">
        <ele>903</ele>
        <time>2021-05-30T07:37:29Z</time>
      </trkpt>
      <trkpt lat="45.84779" lon="2.93537">
        <ele>903</ele>
        <time>2021-05-30T07:37:30Z</time>
      </trkpt>
      <trkpt lat="45.8478" lon="2.93535">
        <ele>903</ele>
        <time>2021-05-30T07:37:31Z</time>
      </trkpt>
      <trkpt lat="45.84781" lon="2.93533">
        <ele>903</ele>
        <time>2021-05-30T07:37:32Z</time>
      </trkpt>
      <trkpt lat="45.84783" lon="2.93531">
        <ele>903</ele>
        <time>2021-05-30T07:37:32Z</time>
      </trkpt>
      <trkpt lat="45.84784" lon="2.93529">
        <ele>903</ele>
        <time>2021-05-30T07:37:33Z</time>
      </trkpt>
      <trkpt lat="45.84785" lon="2.93527">
        <ele>903</ele>
        <time>2021-05-30T07:37:34Z</time>
      </trkpt>
      <trkpt lat="45.84786" lon="2.93525">
        <ele>903</ele>
        <time>2021-05-30T07:37:35Z</time>
      </trkpt>
      <trkpt lat="45.84787" lon="2.93523">
        <ele>903</ele>
        <time>2021-05-30T07:37:36Z</time>
      </trkpt>
      <trkpt lat="45.84789" lon="2.93521">
        <ele>903</ele>
        <time>2021-05-30T07:37:37Z</time>
      </trkpt>
      <trkpt lat="45.8479" lon="2.93519">
        <ele>903</ele>
        <time>2021-05-30T07:37:38Z</time>
      </trkpt>
      <trkpt lat="45.84792" lon="2.93517">
        <ele>903</ele>
        <time>2021-05-30T07:37:39Z</time>
      </trkpt>
      <trkpt lat="45.84793" lon="2.93515">
        <ele>903</ele>
        <time>2021-05-30T07:37:40Z</time>
      </trkpt>
      <trkpt lat="45.84794" lon="2.93513">
        <ele>903</ele>
        <time>2021-05-30T07:37:41Z</time>
      </trkpt>
      <trkpt lat="45.84796" lon="2.93511">
        <ele>903</ele>
        <time>2021-05-30T07:37:42Z</time>
      </trkpt>
      <trkpt lat="45.84797" lon="2.93509">
        <ele>903</ele>
        <time>2021-05-30T07:37:43Z</time>
      </trkpt>
      <trkpt lat="45.84798" lon="2.93508">
        <ele>903</ele>
        <time>2021-05-30T07:37:44Z</time>
      </trkpt>
      <trkpt lat="45.848" lon="2.93506">
        <ele>903</ele>
        <time>2021-05-30T07:37:45Z</time>
      </trkpt>
      <trkpt lat="45.84801" lon="2.93504">
        <ele>903</ele>
        <time>2021-05-30T07:37:46Z</time>
      </trkpt>
      <trkpt lat="45.84802" lon="2.93502">
        <ele>903</ele>
        <time>2021-05-30T07:37:47Z</time>
      </trkpt>
      <trkpt lat="45.84804" lon="2.93501">
        <ele>903</ele>
        <time>2021-05-30T07:37:48Z</time>
      </trkpt>
      <trkpt lat="45.84805" lon="2.93499">
        <ele>903</ele>
        <time>2021-05-30T07:37:49Z</time>
      </trkpt>
      <trkpt lat="45.84806" lon="2.93497">
        <ele>903</ele>
        <time>2021-05-30T07:37:50Z</time>
      </trkpt>
      <trkpt lat="45.84808" lon="2.93495">
        <ele>903</ele>
        <time>2021-05-30T07:37:51Z</time>
      </trkpt>
      <trkpt lat="45.8481" lon="2.93493">
        <ele>903</ele>
        <time>2021-05-30T07:37:52Z</time>
      </trkpt>
      <trkpt lat="45.84811" lon="2.93491">
        <ele>903</ele>
        <time>2021-05-30T07:37:53Z</time>
      </trkpt>
      <trkpt lat="45.84812" lon="2.93489">
        <ele>903</ele>
        <time>2021-05-30T07:37:54Z</time>
      </trkpt>
      <trkpt lat="45.84814" lon="2.93487">
        <ele>903</ele>
        <time>2021-05-30T07:37:55Z</time>
      </trkpt>
      <trkpt lat="45.84815" lon="2.93485">
        <ele>903</ele>
        <time>2021-05-30T07:37:56Z</time>
      </trkpt>
      <trkpt lat="45.84816" lon="2.93483">
        <ele>903</ele>
        <time>2021-05-30T07:37:57Z</time>
      </trkpt>
      <trkpt lat="45.84817" lon="2.93481">
        <ele>903</ele>
        <time>2021-05-30T07:37:58Z</time>
      </trkpt>
      <trkpt lat="45.84819" lon="2.9348">
        <ele>903</ele>
        <time>2021-05-30T07:37:59Z</time>
      </trkpt>
      <trkpt lat="45.8482" lon="2.93478">
        <ele>903</ele>
        <time>2021-05-30T07:38:00Z</time>
      </trkpt>
      <trkpt lat="45.84821" lon="2.93476">
        <ele>903</ele>
        <time>2021-05-30T07:38:01Z</time>
      </trkpt>
      <trkpt lat="45.84822" lon="2.93474">
        <ele>903</ele>
        <time>2021-05-30T07:38:02Z</time>
      </trkpt>
      <trkpt lat="45.84823" lon="2.93472">
        <ele>903</ele>
        <time>2021-05-30T07:38:03Z</time>
      </trkpt>
      <trkpt lat="45.84824" lon="2.9347">
        <ele>903</ele>
        <time>2021-05-30T07:38:04Z</time>
      </trkpt>
      <trkpt lat="45.84826" lon="2.93469">
        <ele>903</ele>
        <time>2021-05-30T07:38:05Z</time>
      </trkpt>
      <trkpt lat="45.84826" lon="2.93467">
        <ele>903</ele>
        <time>2021-05-30T07:38:06Z</time>
      </trkpt>
      <trkpt lat="45.84827" lon="2.93465">
        <ele>903</ele>
        <time>2021-05-30T07:38:07Z</time>
      </trkpt>
      <trkpt lat="45.84828" lon="2.93464">
        <ele>903</ele>
        <time>2021-05-30T07:38:08Z</time>
      </trkpt>
      <trkpt lat="45.84829" lon="2.93462">
        <ele>903</ele>
        <time>2021-05-30T07:38:09Z</time>
      </trkpt>
      <trkpt lat="45.8483" lon="2.93461">
        <ele>903</ele>
        <time>2021-05-30T07:38:10Z</time>
      </trkpt>
      <trkpt lat="45.84831" lon="2.93459">
        <ele>903</ele>
        <time>2021-05-30T07:38:11Z</time>
      </trkpt>
      <trkpt lat="45.84832" lon="2.93457">
        <ele>903</ele>
        <time>2021-05-30T07:38:12Z</time>
      </trkpt>
      <trkpt lat="45.84833" lon="2.93455">
        <ele>903</ele>
        <time>2021-05-30T07:38:13Z</time>
      </trkpt>
      <trkpt lat="45.84834" lon="2.93454">
        <ele>903</ele>
        <time>2021-05-30T07:38:14Z</time>
      </trkpt>
      <trkpt lat="45.84835" lon="2.93452">
        <ele>903</ele>
        <time>2021-05-30T07:38:15Z</time>
      </trkpt>
      <trkpt lat="45.84835" lon="2.9345">
        <ele>903</ele>
        <time>2021-05-30T07:38:16Z</time>
      </trkpt>
      <trkpt lat="45.84837" lon="2.93448">
        <ele>903</ele>
        <time>2021-05-30T07:38:17Z</time>
      </trkpt>
      <trkpt lat="45.84838" lon="2.93446">
        <ele>903</ele>
        <time>2021-05-30T07:38:18Z</time>
      </trkpt>
      <trkpt lat="45.84839" lon="2.93444">
        <ele>903</ele>
        <time>2021-05-30T07:38:19Z</time>
      </trkpt>
      <trkpt lat="45.84839" lon="2.93442">
        <ele>903</ele>
        <time>2021-05-30T07:38:20Z</time>
      </trkpt>
      <trkpt lat="45.8484" lon="2.93441">
        <ele>903</ele>
        <time>2021-05-30T07:38:21Z</time>
      </trkpt>
      <trkpt lat="45.84841" lon="2.93439">
        <ele>903</ele>
        <time>2021-05-30T07:38:22Z</time>
      </trkpt>
      <trkpt lat="45.84842" lon="2.93437">
        <ele>903</ele>
        <time>2021-05-30T07:38:23Z</time>
      </trkpt>
      <trkpt lat="45.84842" lon="2.93435">
        <ele>903</ele>
        <time>2021-05-30T07:38:24Z</time>
      </trkpt>
      <trkpt lat="45.84843" lon="2.93433">
        <ele>903</ele>
        <time>2021-05-30T07:38:25Z</time>
      </trkpt>
      <trkpt lat="45.84844" lon="2.93432">
        <ele>903</ele>
        <time>2021-05-30T07:38:26Z</time>
      </trkpt>
      <trkpt lat="45.84845" lon="2.9343">
        <ele>903</ele>
        <time>2021-05-30T07:38:27Z</time>
      </trkpt>
      <trkpt lat="45.84845" lon="2.93428">
        <ele>903</ele>
        <time>2021-05-30T07:38:28Z</time>
      </trkpt>
      <trkpt lat="45.84846" lon="2.93427">
        <ele>903</ele>
        <time>2021-05-30T07:38:29Z</time>
      </trkpt>
      <trkpt lat="45.84847" lon="2.93425">
        <ele>903</ele>
        <time>2021-05-30T07:38:30Z</time>
      </trkpt>
      <trkpt lat="45.84847" lon="2.93424">
        <ele>903</ele>
        <time>2021-05-30T07:38:31Z</time>
      </trkpt>
      <trkpt lat="45.84848" lon="2.93422">
        <ele>903</ele>
        <time>2021-05-30T07:38:32Z</time>
      </trkpt>
      <trkpt lat="45.84849" lon="2.9342">
        <ele>903</ele>
        <time>2021-05-30T07:38:33Z</time>
      </trkpt>
      <trkpt lat="45.8485" lon="2.93418">
        <ele>903</ele>
        <time>2021-05-30T07:38:34Z</time>
      </trkpt>
      <trkpt lat="45.84851" lon="2.93417">
        <ele>903</ele>
        <time>2021-05-30T07:38:35Z</time>
      </trkpt>
      <trkpt lat="45.84852" lon="2.93415">
        <ele>903</ele>
        <time>2021-05-30T07:38:36Z</time>
      </trkpt>
      <trkpt lat="45.84853" lon="2.93414">
        <ele>903</ele>
        <time>2021-05-30T07:38:37Z</time>
      </trkpt>
      <trkpt lat="45.84853" lon="2.93412">
        <ele>903</ele>
        <time>2021-05-30T07:38:38Z</time>
      </trkpt>
      <trkpt lat="45.84855" lon="2.93411">
        <ele>903</ele>
        <time>2021-05-30T07:38:39Z</time>
      </trkpt>
      <trkpt lat="45.84856" lon="2.93409">
        <ele>903</ele>
        <time>2021-05-30T07:38:40Z</time>
      </trkpt>
      <trkpt lat="45.84856" lon="2.93407">
        <ele>903</ele>
        <time>2021-05-30T07:38:41Z</time>
      </trkpt>
      <trkpt lat="45.84858" lon="2.93406">
        <ele>903</ele>
        <time>2021-05-30T07:38:42Z</time>
      </trkpt>
      <trkpt lat="45.84858" lon="2.93404">
        <ele>903</ele>
        <time>2021-05-30T07:38:43Z</time>
      </trkpt>
      <trkpt lat="45.84859" lon="2.93402">
        <ele>903</ele>
        <time>2021-05-30T07:38:44Z</time>
      </trkpt>
      <trkpt lat="45.8486" lon="2.93401">
        <ele>903</ele>
        <time>2021-05-30T07:38:45Z</time>
      </trkpt>
      <trkpt lat="45.84861" lon="2.93399">
        <ele>903</ele>
        <time>2021-05-30T07:38:46Z</time>
      </trkpt>
      <trkpt lat="45.84862" lon="2.93398">
        <ele>903</ele>
        <time>2021-05-30T07:38:47Z</time>
      </trkpt>
      <trkpt lat="45.84863" lon="2.93397">
        <ele>903</ele>
        <time>2021-05-30T07:38:48Z</time>
      </trkpt>
      <trkpt lat="45.84863" lon="2.93395">
        <ele>903</ele>
        <time>2021-05-30T07:38:49Z</time>
      </trkpt>
      <trkpt lat="45.84864" lon="2.93394">
        <ele>903</ele>
        <time>2021-05-30T07:38:50Z</time>
      </trkpt>
      <trkpt lat="45.84865" lon="2.93392">
        <ele>903</ele>
        <time>2021-05-30T07:38:51Z</time>
      </trkpt>
      <trkpt lat="45.84865" lon="2.93391">
        <ele>903</ele>
        <time>2021-05-30T07:38:52Z</time>
      </trkpt>
      <trkpt lat="45.84866" lon="2.9339">
        <ele>903</ele>
        <time>2021-05-30T07:38:53Z</time>
      </trkpt>
      <trkpt lat="45.84866" lon="2.93388">
        <ele>903</ele>
        <time>2021-05-30T07:38:54Z</time>
      </trkpt>
      <trkpt lat="45.84867" lon="2.93387">
        <ele>903</ele>
        <time>2021-05-30T07:38:55Z</time>
      </trkpt>
      <trkpt lat="45.84868" lon="2.93386">
        <ele>903</ele>
        <time>2021-05-30T07:38:56Z</time>
      </trkpt>
      <trkpt lat="45.84868" lon="2.93384">
        <ele>903</ele>
        <time>2021-05-30T07:38:57Z</time>
      </trkpt>
      <trkpt lat="45.84868" lon="2.93383">
        <ele>903</ele>
        <time>2021-05-30T07:38:58Z</time>
      </trkpt>
      <trkpt lat="45.84869" lon="2.93383">
        <ele>903</ele>
        <time>2021-05-30T07:38:59Z</time>
      </trkpt>
      <trkpt lat="45.84869" lon="2.93382">
        <ele>903</ele>
        <time>2021-05-30T07:39:00Z</time>
      </trkpt>
      <trkpt lat="45.8487" lon="2.93381">
        <ele>903</ele>
        <time>2021-05-30T07:39:01Z</time>
      </trkpt>
      <trkpt lat="45.84871" lon="2.9338">
        <ele>903</ele>
        <time>2021-05-30T07:39:02Z</time>
      </trkpt>
      <trkpt lat="45.84871" lon="2.93379">
        <ele>903</ele>
        <time>2021-05-30T07:39:03Z</time>
      </trkpt>
      <trkpt lat="45.84872" lon="2.93378">
        <ele>903</ele>
        <time>2021-05-30T07:39:04Z</time>
      </trkpt>
      <trkpt lat="45.84873" lon="2.93377">
        <ele>903</ele>
        <time>2021-05-30T07:39:05Z</time>
      </trkpt>
      <trkpt lat="45.84874" lon="2.93375">
        <ele>903</ele>
        <time>2021-05-30T07:39:06Z</time>
      </trkpt>
      <trkpt lat="45.84874" lon="2.93374">
        <ele>903</ele>
        <time>2021-05-30T07:39:07Z</time>
      </trkpt>
      <trkpt lat="45.84875" lon="2.93373">
        <ele>903</ele>
        <time>2021-05-30T07:39:08Z</time>
      </trkpt>
      <trkpt lat="45.84876" lon="2.93372">
        <ele>903</ele>
        <time>2021-05-30T07:39:09Z</time>
      </trkpt>
      <trkpt lat="45.84877" lon="2.93371">
        <ele>903</ele>
        <time>2021-05-30T07:39:10Z</time>
      </trkpt>
      <trkpt lat="45.84877" lon="2.9337">
        <ele>903</ele>
        <time>2021-05-30T07:39:11Z</time>
      </trkpt>
      <trkpt lat="45.84879" lon="2.93368">
        <ele>903</ele>
        <time>2021-05-30T07:39:12Z</time>
      </trkpt>
      <trkpt lat="45.8488" lon="2.93368">
        <ele>903</ele>
        <time>2021-05-30T07:39:13Z</time>
      </trkpt>
      <trkpt lat="45.84881" lon="2.93367">
        <ele>903</ele>
        <time>2021-05-30T07:39:14Z</time>
      </trkpt>
      <trkpt lat="45.84882" lon="2.93366">
        <ele>903</ele>
        <time>2021-05-30T07:39:15Z</time>
      </trkpt>
      <trkpt lat="45.84883" lon="2.93365">
        <ele>903</ele>
        <time>2021-05-30T07:39:16Z</time>
      </trkpt>
      <trkpt lat="45.84884" lon="2.93364">
        <ele>903</ele>
        <time>2021-05-30T07:39:17Z</time>
      </trkpt>
      <trkpt lat="45.84886" lon="2.93362">
        <ele>903</ele>
        <time>2021-05-30T07:39:18Z</time>
      </trkpt>
      <trkpt lat="45.84887" lon="2.93361">
        <ele>903</ele>
        <time>2021-05-30T07:39:19Z</time>
      </trkpt>
      <trkpt lat="45.84889" lon="2.9336">
        <ele>903</ele>
        <time>2021-05-30T07:39:20Z</time>
      </trkpt>
      <trkpt lat="45.84889" lon="2.93359">
        <ele>903</ele>
        <time>2021-05-30T07:39:21Z</time>
      </trkpt>
      <trkpt lat="45.8489" lon="2.93358">
        <ele>903</ele>
        <time>2021-05-30T07:39:22Z</time>
      </trkpt>
      <trkpt lat="45.84891" lon="2.93356">
        <ele>903</ele>
        <time>2021-05-30T07:39:23Z</time>
      </trkpt>
      <trkpt lat="45.84892" lon="2.93355">
        <ele>903</ele>
        <time>2021-05-30T07:39:24Z</time>
      </trkpt>
      <trkpt lat="45.84893" lon="2.93354">
        <ele>903</ele>
        <time>2021-05-30T07:39:25Z</time>
      </trkpt>
      <trkpt lat="45.84894" lon="2.93352">
        <ele>903</ele>
        <time>2021-05-30T07:39:26Z</time>
      </trkpt>
      <trkpt lat="45.84895" lon="2.93351">
        <ele>903</ele>
        <time>2021-05-30T07:39:27Z</time>
      </trkpt>
      <trkpt lat="45.84895" lon="2.93349">
        <ele>903</ele>
        <time>2021-05-30T07:39:28Z</time>
      </trkpt>
      <trkpt lat="45.84896" lon="2.93348">
        <ele>903</ele>
        <time>2021-05-30T07:39:29Z</time>
      </trkpt>
      <trkpt lat="45.84897" lon="2.93347">
        <ele>903</ele>
        <time>2021-05-30T07:39:30Z</time>
      </trkpt>
      <trkpt lat="45.84898" lon="2.93345">
        <ele>903</ele>
        <time>2021-05-30T07:39:31Z</time>
      </trkpt>
      <trkpt lat="45.84898" lon="2.93344">
        <ele>903</ele>
        <time>2021-05-30T07:39:32Z</time>
      </trkpt>
      <trkpt lat="45.84899" lon="2.93343">
        <ele>903</ele>
        <time>2021-05-30T07:39:33Z</time>
      </trkpt>
      <trkpt lat="45.849" lon="2.93342">
        <ele>903</ele>
        <time>2021-05-30T07:39:34Z</time>
      </trkpt>
      <trkpt lat="45.849" lon="2.9334">
        <ele>903</ele>
        <time>2021-05-30T07:39:35Z</time>
      </trkpt>
      <trkpt lat="45.84901" lon="2.93339">
        <ele>903</ele>
        <time>2021-05-30T07:39:36Z</time>
      </trkpt>
      <trkpt lat="45.84902" lon="2.93338">
        <ele>903</ele>
        <time>2021-05-30T07:39:37Z</time>
      </trkpt>
      <trkpt lat="45.84902" lon="2.93336">
        <ele>903</ele>
        <time>2021-05-30T07:39:38Z</time>
      </trkpt>
      <trkpt lat="45.84903" lon="2.93335">
        <ele>903</ele>
        <time>2021-05-30T07:39:39Z</time>
      </trkpt>
      <trkpt lat="45.84903" lon="2.93333">
        <ele>903</ele>
        <time>2021-05-30T07:39:40Z</time>
      </trkpt>
      <trkpt lat="45.84904" lon="2.93332">
        <ele>903</ele>
        <time>2021-05-30T07:39:41Z</time>
      </trkpt>
      <trkpt lat="45.84904" lon="2.93331">
        <ele>903</ele>
        <time>2021-05-30T07:39:42Z</time>
      </trkpt>
      <trkpt lat="45.84904" lon="2.93329">
        <ele>903</ele>
        <time>2021-05-30T07:39:43Z</time>
      </trkpt>
      <trkpt lat="45.84905" lon="2.93327">
        <ele>903</ele>
        <time>2021-05-30T07:39:44Z</time>
      </trkpt>
      <trkpt lat="45.84906" lon="2.93325">
        <ele>903</ele>
        <time>2021-05-30T07:39:45Z</time>
      </trkpt>
      <trkpt lat="45.84906" lon="2.93323">
        <ele>903</ele>
        <time>2021-05-30T07:39:46Z</time>
      </trkpt>
      <trkpt lat="45.84907" lon="2.93322">
        <ele>903</ele>
        <time>2021-05-30T07:39:47Z</time>
      </trkpt>
      <trkpt lat="45.84907" lon="2.9332">
        <ele>903</ele>
        <time>2021-05-30T07:39:48Z</time>
      </trkpt>
      <trkpt lat="45.84908" lon="2.93318">
        <ele>903</ele>
        <time>2021-05-30T07:39:49Z</time>
      </trkpt>
      <trkpt lat="45.84908" lon="2.93317">
        <ele>903</ele>
        <time>2021-05-30T07:39:50Z</time>
      </trkpt>
      <trkpt lat="45.84909" lon="2.93315">
        <ele>903</ele>
        <time>2021-05-30T07:39:51Z</time>
      </trkpt>
      <trkpt lat="45.84909" lon="2.93313">
        <ele>903</ele>
        <time>2021-05-30T07:39:52Z</time>
      </trkpt>
      <trkpt lat="45.8491" lon="2.93312">
        <ele>903</ele>
        <time>2021-05-30T07:39:53Z</time>
      </trkpt>
      <trkpt lat="45.8491" lon="2.9331">
        <ele>903</ele>
        <time>2021-05-30T07:39:54Z</time>
      </trkpt>
      <trkpt lat="45.84911" lon="2.93309">
        <ele>903</ele>
        <time>2021-05-30T07:39:55Z</time>
      </trkpt>
      <trkpt lat="45.84912" lon="2.93307">
        <ele>903</ele>
        <time>2021-05-30T07:39:56Z</time>
      </trkpt>
      <trkpt lat="45.84913" lon="2.93305">
        <ele>903</ele>
        <time>2021-05-30T07:39:57Z</time>
      </trkpt>
      <trkpt lat="45.84913" lon="2.93304">
        <ele>903</ele>
        <time>2021-05-30T07:39:58Z</time>
      </trkpt>
      <trkpt lat="45.84913" lon="2.93302">
        <ele>903</ele>
        <time>2021-05-30T07:39:59Z</time>
      </trkpt>
      <trkpt lat="45.84914" lon="2.933">
        <ele>903</ele>
        <time>2021-05-30T07:40:00Z</time>
      </trkpt>
      <trkpt lat="45.84914" lon="2.93298">
        <ele>903</ele>
        <time>2021-05-30T07:40:01Z</time>
      </trkpt>
      <trkpt lat="45.84915" lon="2.93296">
        <ele>903</ele>
        <time>2021-05-30T07:40:02Z</time>
      </trkpt>
      <trkpt lat="45.84916" lon="2.93294">
        <ele>903</ele>
        <time>2021-05-30T07:40:03Z</time>
      </trkpt>
      <trkpt lat="45.84916" lon="2.93291">
        <ele>903</ele>
        <time>2021-05-30T07:40:04Z</time>
      </trkpt>
      <trkpt lat="45.84916" lon="2.93289">
        <ele>903</ele>
        <time>2021-05-30T07:40:05Z</time>
      </trkpt>
      <trkpt lat="45.84916" lon="2.93287">
        <ele>903</ele>
        <time>2021-05-30T07:40:06Z</time>
      </trkpt>
      <trkpt lat="45.84916" lon="2.93285">
        <ele>903</ele>
        <time>2021-05-30T07:40:07Z</time>
      </trkpt>
      <trkpt lat="45.84916" lon="2.93283">
        <ele>903</ele>
        <time>2021-05-30T07:40:08Z</time>
      </trkpt>
      <trkpt lat="45.84916" lon="2.93281">
        <ele>903</ele>
        <time>2021-05-30T07:40:09Z</time>
      </trkpt>
      <trkpt lat="45.84916" lon="2.93278">
        <ele>903</ele>
        <time>2021-05-30T07:40:10Z</time>
      </trkpt>
      <trkpt lat="45.84917" lon="2.93276">
        <ele>903</ele>
        <time>2021-05-30T07:40:11Z</time>
      </trkpt>
      <trkpt lat="45.84917" lon="2.93274">
        <ele>903</ele>
        <time>2021-05-30T07:40:12Z</time>
      </trkpt>
      <trkpt lat="45.84917" lon="2.93272">
        <ele>903</ele>
        <time>2021-05-30T07:40:13Z</time>
      </trkpt>
      <trkpt lat="45.84917" lon="2.9327">
        <ele>903</ele>
        <time>2021-05-30T07:40:14Z</time>
      </trkpt>
      <trkpt lat="45.84917" lon="2.93268">
        <ele>903</ele>
        <time>2021-05-30T07:40:15Z</time>
      </trkpt>
      <trkpt lat="45.84917" lon="2.93266">
        <ele>903</ele>
        <time>2021-05-30T07:40:16Z</time>
      </trkpt>
      <trkpt lat="45.84918" lon="2.93264">
        <ele>903</ele>
        <time>2021-05-30T07:40:17Z</time>
      </trkpt>
      <trkpt lat="45.84919" lon="2.93262">
        <ele>903</ele>
        <time>2021-05-30T07:40:18Z</time>
      </trkpt>
      <trkpt lat="45.84919" lon="2.9326">
        <ele>903</ele>
        <time>2021-05-30T07:40:19Z</time>
      </trkpt>
      <trkpt lat="45.84919" lon="2.93258">
        <ele>903</ele>
        <time>2021-05-30T07:40:20Z</time>
      </trkpt>
      <trkpt lat="45.8492" lon="2.93255">
        <ele>903</ele>
        <time>2021-05-30T07:40:21Z</time>
      </trkpt>
      <trkpt lat="45.8492" lon="2.93253">
        <ele>903</ele>
        <time>2021-05-30T07:40:22Z</time>
      </trkpt>
      <trkpt lat="45.8492" lon="2.93251">
        <ele>903</ele>
        <time>2021-05-30T07:40:23Z</time>
      </trkpt>
      <trkpt lat="45.8492" lon="2.93248">
        <ele>903</ele>
        <time>2021-05-30T07:40:24Z</time>
      </trkpt>
      <trkpt lat="45.84921" lon="2.93246">
        <ele>903</ele>
        <time>2021-05-30T07:40:25Z</time>
      </trkpt>
      <trkpt lat="45.84921" lon="2.93244">
        <ele>903</ele>
        <time>2021-05-30T07:40:26Z</time>
      </trkpt>
      <trkpt lat="45.84922" lon="2.93242">
        <ele>903</ele>
        <time>2021-05-30T07:40:27Z</time>
      </trkpt>
      <trkpt lat="45.84922" lon="2.9324">
        <ele>903</ele>
        <time>2021-05-30T07:40:28Z</time>
      </trkpt>
      <trkpt lat="45.84922" lon="2.93237">
        <ele>903</ele>
        <time>2021-05-30T07:40:29Z</time>
      </trkpt>
      <trkpt lat="45.84923" lon="2.93235">
        <ele>903</ele>
        <time>2021-05-30T07:40:30Z</time>
      </trkpt>
      <trkpt lat="45.84924" lon="2.93233">
        <ele>903</ele>
        <time>2021-05-30T07:40:31Z</time>
      </trkpt>
      <trkpt lat="45.84924" lon="2.93231">
        <ele>903</ele>
        <time>2021-05-30T07:40:32Z</time>
      </trkpt>
      <trkpt lat="45.84925" lon="2.93228">
        <ele>903</ele>
        <time>2021-05-30T07:40:33Z</time>
      </trkpt>
      <trkpt lat="45.84926" lon="2.93225">
        <ele>903</ele>
        <time>2021-05-30T07:40:34Z</time>
      </trkpt>
      <trkpt lat="45.84927" lon="2.93222">
        <ele>903</ele>
        <time>2021-05-30T07:40:35Z</time>
      </trkpt>
      <trkpt lat="45.84928" lon="2.93219">
        <ele>903</ele>
        <time>2021-05-30T07:40:36Z</time>
      </trkpt>
      <trkpt lat="45.84929" lon="2.93215">
        <ele>903</ele>
        <time>2021-05-30T07:40:37Z</time>
      </trkpt>
      <trkpt lat="45.84929" lon="2.93212">
        <ele>903</ele>
        <time>2021-05-30T07:40:38Z</time>
      </trkpt>
      <trkpt lat="45.8493" lon="2.93209">
        <ele>903</ele>
        <time>2021-05-30T07:40:39Z</time>
      </trkpt>
      <trkpt lat="45.84931" lon="2.93206">
        <ele>903</ele>
        <time>2021-05-30T07:40:40Z</time>
      </trkpt>
      <trkpt lat="45.84932" lon="2.93203">
        <ele>903</ele>
        <time>2021-05-30T07:40:41Z</time>
      </trkpt>
      <trkpt lat="45.84933" lon="2.932">
        <ele>903</ele>
        <time>2021-05-30T07:40:42Z</time>
      </trkpt>
      <trkpt lat="45.84934" lon="2.93197">
        <ele>903</ele>
        <time>2021-05-30T07:40:43Z</time>
      </trkpt>
      <trkpt lat="45.84934" lon="2.93194">
        <ele>903</ele>
        <time>2021-05-30T07:40:44Z</time>
      </trkpt>
      <trkpt lat="45.84935" lon="2.93191">
        <ele>903</ele>
        <time>2021-05-30T07:40:45Z</time>
      </trkpt>
      <trkpt lat="45.84937" lon="2.93188">
        <ele>903</ele>
        <time>2021-05-30T07:40:46Z</time>
      </trkpt>
      <trkpt lat="45.84937" lon="2.93185">
        <ele>903</ele>
        <time>2021-05-30T07:40:47Z</time>
      </trkpt>
      <trkpt lat="45.84938" lon="2.93182">
        <ele>903</ele>
        <time>2021-05-30T07:40:48Z</time>
      </trkpt>
      <trkpt lat="45.84939" lon="2.93179">
        <ele>903</ele>
        <time>2021-05-30T07:40:49Z</time>
      </trkpt>
      <trkpt lat="45.8494" lon="2.93176">
        <ele>903</ele>
        <time>2021-05-30T07:40:50Z</time>
      </trkpt>
      <trkpt lat="45.8494" lon="2.93173">
        <ele>903</ele>
        <time>2021-05-30T07:40:51Z</time>
      </trkpt>
      <trkpt lat="45.84941" lon="2.9317">
        <ele>903</ele>
        <time>2021-05-30T07:40:52Z</time>
      </trkpt>
      <trkpt lat="45.84942" lon="2.93168">
        <ele>903</ele>
        <time>2021-05-30T07:40:53Z</time>
      </trkpt>
      <trkpt lat="45.84942" lon="2.93165">
        <ele>903</ele>
        <time>2021-05-30T07:40:54Z</time>
      </trkpt>
      <trkpt lat="45.84943" lon="2.93162">
        <ele>903</ele>
        <time>2021-05-30T07:40:55Z</time>
      </trkpt>
      <trkpt lat="45.84944" lon="2.93159">
        <ele>903</ele>
        <time>2021-05-30T07:40:56Z</time>
      </trkpt>
      <trkpt lat="45.84944" lon="2.93157">
        <ele>903</ele>
        <time>2021-05-30T07:40:57Z</time>
      </trkpt>
      <trkpt lat="45.84945" lon="2.93154">
        <ele>903</ele>
        <time>2021-05-30T07:40:58Z</time>
      </trkpt>
      <trkpt lat="45.84946" lon="2.93152">
        <ele>903</ele>
        <time>2021-05-30T07:40:59Z</time>
      </trkpt>
      <trkpt lat="45.84947" lon="2.93149">
        <ele>903</ele>
        <time>2021-05-30T07:41:00Z</time>
      </trkpt>
      <trkpt lat="45.84948" lon="2.93146">
        <ele>903</ele>
        <time>2021-05-30T07:41:01Z</time>
      </trkpt>
      <trkpt lat="45.84949" lon="2.93144">
        <ele>903</ele>
        <time>2021-05-30T07:41:02Z</time>
      </trkpt>
      <trkpt lat="45.8495" lon="2.93141">
        <ele>903</ele>
        <time>2021-05-30T07:41:03Z</time>
      </trkpt>
      <trkpt lat="45.84951" lon="2.93138">
        <ele>903</ele>
        <time>2021-05-30T07:41:04Z</time>
      </trkpt>
      <trkpt lat="45.84952" lon="2.93135">
        <ele>903</ele>
        <time>2021-05-30T07:41:05Z</time>
      </trkpt>
      <trkpt lat="45.84952" lon="2.93133">
        <ele>903</ele>
        <time>2021-05-30T07:41:06Z</time>
      </trkpt>
      <trkpt lat="45.84953" lon="2.9313">
        <ele>903</ele>
        <time>2021-05-30T07:41:07Z</time>
      </trkpt>
      <trkpt lat="45.84954" lon="2.93128">
        <ele>903</ele>
        <time>2021-05-30T07:41:08Z</time>
      </trkpt>
      <trkpt lat="45.84955" lon="2.93125">
        <ele>903</ele>
        <time>2021-05-30T07:41:09Z</time>
      </trkpt>
      <trkpt lat="45.84955" lon="2.93122">
        <ele>903</ele>
        <time>2021-05-30T07:41:10Z</time>
      </trkpt>
      <trkpt lat="45.84956" lon="2.9312">
        <ele>903</ele>
        <time>2021-05-30T07:41:11Z</time>
      </trkpt>
      <trkpt lat="45.84957" lon="2.93118">
        <ele>903</ele>
        <time>2021-05-30T07:41:12Z</time>
      </trkpt>
      <trkpt lat="45.84958" lon="2.93115">
        <ele>903</ele>
        <time>2021-05-30T07:41:13Z</time>
      </trkpt>
      <trkpt lat="45.84959" lon="2.93113">
        <ele>903</ele>
        <time>2021-05-30T07:41:14Z</time>
      </trkpt>
      <trkpt lat="45.84959" lon="2.93111">
        <ele>903</ele>
        <time>2021-05-30T07:41:15Z</time>
      </trkpt>
      <trkpt lat="45.8496" lon="2.93108">
        <ele>903</ele>
        <time>2021-05-30T07:41:16Z</time>
      </trkpt>
      <trkpt lat="45.84961" lon="2.93106">
        <ele>903</ele>
        <time>2021-05-30T07:41:17Z</time>
      </trkpt>
      <trkpt lat="45.84962" lon="2.93104">
        <ele>903</ele>
        <time>2021-05-30T07:41:18Z</time>
      </trkpt>
      <trkpt lat="45.84963" lon="2.93101">
        <ele>903</ele>
        <time>2021-05-30T07:41:19Z</time>
      </trkpt>
      <trkpt lat="45.84964" lon="2.93099">
        <ele>903</ele>
        <time>2021-05-30T07:41:20Z</time>
      </trkpt>
      <trkpt lat="45.84964" lon="2.93096">
        <ele>903</ele>
        <time>2021-05-30T07:41:21Z</time>
      </trkpt>
      <trkpt lat="45.84965" lon="2.93093">
        <ele>903</ele>
        <time>2021-05-30T07:41:22Z</time>
      </trkpt>
      <trkpt lat="45.84966" lon="2.93091">
        <ele>903</ele>
        <time>2021-05-30T07:41:23Z</time>
      </trkpt>
      <trkpt lat="45.84967" lon="2.93088">
        <ele>903</ele>
        <time>2021-05-30T07:41:24Z</time>
      </trkpt>
      <trkpt lat="45.84968" lon="2.93086">
        <ele>903</ele>
        <time>2021-05-30T07:41:25Z</time>
      </trkpt>
      <trkpt lat="45.84969" lon="2.93083">
        <ele>903</ele>
        <time>2021-05-30T07:41:26Z</time>
      </trkpt>
      <trkpt lat="45.84969" lon="2.93081">
        <ele>903</ele>
        <time>2021-05-30T07:41:27Z</time>
      </trkpt>
      <trkpt lat="45.84971" lon="2.93078">
        <ele>903</ele>
        <time>2021-05-30T07:41:28Z</time>
      </trkpt>
      <trkpt lat="45.84971" lon="2.93075">
        <ele>903</ele>
        <time>2021-05-30T07:41:29Z</time>
      </trkpt>
      <trkpt lat="45.84972" lon="2.93072">
        <ele>903</ele>
        <time>2021-05-30T07:41:30Z</time>
      </trkpt>
      <trkpt lat="45.84973" lon="2.93069">
        <ele>903</ele>
        <time>2021-05-30T07:41:31Z</time>
      </trkpt>
      <trkpt lat="45.84974" lon="2.93066">
        <ele>903</ele>
        <time>2021-05-30T07:41:32Z</time>
      </trkpt>
      <trkpt lat="45.84975" lon="2.93064">
        <ele>903</ele>
        <time>2021-05-30T07:41:33Z</time>
      </trkpt>
      <trkpt lat="45.84976" lon="2.93061">
        <ele>903</ele>
        <time>2021-05-30T07:41:34Z</time>
      </trkpt>
      <trkpt lat="45.84977" lon="2.93058">
        <ele>903</ele>
        <time>2021-05-30T07:41:36Z</time>
      </trkpt>
      <trkpt lat="45.84979" lon="2.93055">
        <ele>903</ele>
        <time>2021-05-30T07:41:37Z</time>
      </trkpt>
      <trkpt lat="45.84983" lon="2.93045">
        <ele>903</ele>
        <time>2021-05-30T07:41:38Z</time>
      </trkpt>
      <trkpt lat="45.84983" lon="2.93045">
        <ele>903</ele>
        <time>2021-05-30T07:41:39Z</time>
      </trkpt>
      <trkpt lat="45.84983" lon="2.93043">
        <ele>903</ele>
        <time>2021-05-30T07:41:40Z</time>
      </trkpt>
      <trkpt lat="45.84983" lon="2.93041">
        <ele>903</ele>
        <time>2021-05-30T07:41:41Z</time>
      </trkpt>
      <trkpt lat="45.84984" lon="2.93039">
        <ele>903</ele>
        <time>2021-05-30T07:41:42Z</time>
      </trkpt>
      <trkpt lat="45.84985" lon="2.93037">
        <ele>903</ele>
        <time>2021-05-30T07:41:43Z</time>
      </trkpt>
      <trkpt lat="45.84986" lon="2.93035">
        <ele>903</ele>
        <time>2021-05-30T07:41:44Z</time>
      </trkpt>
      <trkpt lat="45.84986" lon="2.93032">
        <ele>903</ele>
        <time>2021-05-30T07:41:45Z</time>
      </trkpt>
      <trkpt lat="45.84987" lon="2.9303">
        <ele>903</ele>
        <time>2021-05-30T07:41:46Z</time>
      </trkpt>
      <trkpt lat="45.84987" lon="2.93027">
        <ele>903</ele>
        <time>2021-05-30T07:41:47Z</time>
      </trkpt>
      <trkpt lat="45.84988" lon="2.93025">
        <ele>903</ele>
        <time>2021-05-30T07:41:47Z</time>
      </trkpt>
      <trkpt lat="45.84989" lon="2.93023">
        <ele>903</ele>
        <time>2021-05-30T07:41:48Z</time>
      </trkpt>
      <trkpt lat="45.8499" lon="2.9302">
        <ele>903</ele>
        <time>2021-05-30T07:41:49Z</time>
      </trkpt>
      <trkpt lat="45.8499" lon="2.93018">
        <ele>903</ele>
        <time>2021-05-30T07:41:50Z</time>
      </trkpt>
      <trkpt lat="45.84991" lon="2.93016">
        <ele>903</ele>
        <time>2021-05-30T07:41:51Z</time>
      </trkpt>
      <trkpt lat="45.84992" lon="2.93013">
        <ele>903</ele>
        <time>2021-05-30T07:41:52Z</time>
      </trkpt>
      <trkpt lat="45.84993" lon="2.93011">
        <ele>903</ele>
        <time>2021-05-30T07:41:53Z</time>
      </trkpt>
      <trkpt lat="45.84993" lon="2.93009">
        <ele>903</ele>
        <time>2021-05-30T07:41:54Z</time>
      </trkpt>
      <trkpt lat="45.84994" lon="2.93006">
        <ele>903</ele>
        <time>2021-05-30T07:41:55Z</time>
      </trkpt>
      <trkpt lat="45.84995" lon="2.93004">
        <ele>903</ele>
        <time>2021-05-30T07:41:56Z</time>
      </trkpt>
      <trkpt lat="45.84996" lon="2.93001">
        <ele>903</ele>
        <time>2021-05-30T07:41:57Z</time>
      </trkpt>
      <trkpt lat="45.84996" lon="2.92999">
        <ele>903</ele>
        <time>2021-05-30T07:41:58Z</time>
      </trkpt>
      <trkpt lat="45.84998" lon="2.92996">
        <ele>903</ele>
        <time>2021-05-30T07:41:59Z</time>
      </trkpt>
      <trkpt lat="45.84998" lon="2.92994">
        <ele>903</ele>
        <time>2021-05-30T07:42:00Z</time>
      </trkpt>
      <trkpt lat="45.84999" lon="2.92991">
        <ele>903</ele>
        <time>2021-05-30T07:42:01Z</time>
      </trkpt>
      <trkpt lat="45.85" lon="2.92989">
        <ele>903</ele>
        <time>2021-05-30T07:42:02Z</time>
      </trkpt>
      <trkpt lat="45.85001" lon="2.92986">
        <ele>903</ele>
        <time>2021-05-30T07:42:03Z</time>
      </trkpt>
      <trkpt lat="45.85002" lon="2.92983">
        <ele>903</ele>
        <time>2021-05-30T07:42:04Z</time>
      </trkpt>
      <trkpt lat="45.85003" lon="2.92979">
        <ele>903</ele>
        <time>2021-05-30T07:42:05Z</time>
      </trkpt>
      <trkpt lat="45.85004" lon="2.92976">
        <ele>903</ele>
        <time>2021-05-30T07:42:06Z</time>
      </trkpt>
      <trkpt lat="45.85005" lon="2.92973">
        <ele>903</ele>
        <time>2021-05-30T07:42:07Z</time>
      </trkpt>
      <trkpt lat="45.85006" lon="2.9297">
        <ele>903</ele>
        <time>2021-05-30T07:42:08Z</time>
      </trkpt>
      <trkpt lat="45.85007" lon="2.92967">
        <ele>903</ele>
        <time>2021-05-30T07:42:09Z</time>
      </trkpt>
      <trkpt lat="45.85008" lon="2.92964">
        <ele>903</ele>
        <time>2021-05-30T07:42:10Z</time>
      </trkpt>
      <trkpt lat="45.85009" lon="2.92962">
        <ele>903</ele>
        <time>2021-05-30T07:42:11Z</time>
      </trkpt>
      <trkpt lat="45.85009" lon="2.92959">
        <ele>903</ele>
        <time>2021-05-30T07:42:12Z</time>
      </trkpt>
      <trkpt lat="45.8501" lon="2.92956">
        <ele>903</ele>
        <time>2021-05-30T07:42:13Z</time>
      </trkpt>
      <trkpt lat="45.85011" lon="2.92954">
        <ele>903</ele>
        <time>2021-05-30T07:42:14Z</time>
      </trkpt>
      <trkpt lat="45.85012" lon="2.92952">
        <ele>903</ele>
        <time>2021-05-30T07:42:15Z</time>
      </trkpt>
      <trkpt lat="45.85013" lon="2.92949">
        <ele>903</ele>
        <time>2021-05-30T07:42:16Z</time>
      </trkpt>
      <trkpt lat="45.85014" lon="2.92947">
        <ele>903</ele>
        <time>2021-05-30T07:42:17Z</time>
      </trkpt>
      <trkpt lat="45.85015" lon="2.92944">
        <ele>903</ele>
        <time>2021-05-30T07:42:18Z</time>
      </trkpt>
      <trkpt lat="45.85016" lon="2.92941">
        <ele>903</ele>
        <time>2021-05-30T07:42:19Z</time>
      </trkpt>
      <trkpt lat="45.85017" lon="2.92938">
        <ele>903</ele>
        <time>2021-05-30T07:42:20Z</time>
      </trkpt>
      <trkpt lat="45.85019" lon="2.92935">
        <ele>903</ele>
        <time>2021-05-30T07:42:21Z</time>
      </trkpt>
      <trkpt lat="45.85019" lon="2.92932">
        <ele>903</ele>
        <time>2021-05-30T07:42:22Z</time>
      </trkpt>
      <trkpt lat="45.85021" lon="2.9293">
        <ele>903</ele>
        <time>2021-05-30T07:42:23Z</time>
      </trkpt>
      <trkpt lat="45.85022" lon="2.92928">
        <ele>903</ele>
        <time>2021-05-30T07:42:24Z</time>
      </trkpt>
      <trkpt lat="45.85022" lon="2.92925">
        <ele>903</ele>
        <time>2021-05-30T07:42:25Z</time>
      </trkpt>
      <trkpt lat="45.85024" lon="2.92923">
        <ele>903</ele>
        <time>2021-05-30T07:42:26Z</time>
      </trkpt>
      <trkpt lat="45.85025" lon="2.9292">
        <ele>903</ele>
        <time>2021-05-30T07:42:27Z</time>
      </trkpt>
      <trkpt lat="45.85025" lon="2.92918">
        <ele>903</ele>
        <time>2021-05-30T07:42:28Z</time>
      </trkpt>
      <trkpt lat="45.85027" lon="2.92915">
        <ele>903</ele>
        <time>2021-05-30T07:42:29Z</time>
      </trkpt>
      <trkpt lat="45.85028" lon="2.92913">
        <ele>903</ele>
        <time>2021-05-30T07:42:30Z</time>
      </trkpt>
      <trkpt lat="45.85029" lon="2.9291">
        <ele>903</ele>
        <time>2021-05-30T07:42:31Z</time>
      </trkpt>
      <trkpt lat="45.8503" lon="2.92908">
        <ele>903</ele>
        <time>2021-05-30T07:42:32Z</time>
      </trkpt>
      <trkpt lat="45.85031" lon="2.92905">
        <ele>903</ele>
        <time>2021-05-30T07:42:33Z</time>
      </trkpt>
      <trkpt lat="45.85032" lon="2.92903">
        <ele>903</ele>
        <time>2021-05-30T07:42:35Z</time>
      </trkpt>
      <trkpt lat="45.85037" lon="2.92892">
        <ele>903</ele>
        <time>2021-05-30T07:42:36Z</time>
      </trkpt>
      <trkpt lat="45.85037" lon="2.92891">
        <ele>903</ele>
        <time>2021-05-30T07:42:37Z</time>
      </trkpt>
      <trkpt lat="45.85038" lon="2.9289">
        <ele>903</ele>
        <time>2021-05-30T07:42:38Z</time>
      </trkpt>
      <trkpt lat="45.85038" lon="2.92887">
        <ele>903</ele>
        <time>2021-05-30T07:42:39Z</time>
      </trkpt>
      <trkpt lat="45.8504" lon="2.92885">
        <ele>903</ele>
        <time>2021-05-30T07:42:40Z</time>
      </trkpt>
      <trkpt lat="45.8504" lon="2.92882">
        <ele>903</ele>
        <time>2021-05-30T07:42:41Z</time>
      </trkpt>
      <trkpt lat="45.85041" lon="2.92879">
        <ele>903</ele>
        <time>2021-05-30T07:42:42Z</time>
      </trkpt>
      <trkpt lat="45.85042" lon="2.92877">
        <ele>903</ele>
        <time>2021-05-30T07:42:43Z</time>
      </trkpt>
      <trkpt lat="45.85043" lon="2.92874">
        <ele>903</ele>
        <time>2021-05-30T07:42:44Z</time>
      </trkpt>
      <trkpt lat="45.85044" lon="2.92871">
        <ele>903</ele>
        <time>2021-05-30T07:42:45Z</time>
      </trkpt>
      <trkpt lat="45.85045" lon="2.92868">
        <ele>903</ele>
        <time>2021-05-30T07:42:46Z</time>
      </trkpt>
      <trkpt lat="45.85046" lon="2.92866">
        <ele>903</ele>
        <time>2021-05-30T07:42:47Z</time>
      </trkpt>
      <trkpt lat="45.85047" lon="2.92863">
        <ele>903</ele>
        <time>2021-05-30T07:42:48Z</time>
      </trkpt>
      <trkpt lat="45.85048" lon="2.9286">
        <ele>903</ele>
        <time>2021-05-30T07:42:49Z</time>
      </trkpt>
      <trkpt lat="45.85049" lon="2.92857">
        <ele>903</ele>
        <time>2021-05-30T07:42:50Z</time>
      </trkpt>
      <trkpt lat="45.85049" lon="2.92855">
        <ele>903</ele>
        <time>2021-05-30T07:42:51Z</time>
      </trkpt>
      <trkpt lat="45.8505" lon="2.92852">
        <ele>903</ele>
        <time>2021-05-30T07:42:52Z</time>
      </trkpt>
      <trkpt lat="45.85051" lon="2.92849">
        <ele>903</ele>
        <time>2021-05-30T07:42:53Z</time>
      </trkpt>
      <trkpt lat="45.85052" lon="2.92846">
        <ele>903</ele>
        <time>2021-05-30T07:42:54Z</time>
      </trkpt>
      <trkpt lat="45.85053" lon="2.92843">
        <ele>903</ele>
        <time>2021-05-30T07:42:55Z</time>
      </trkpt>
      <trkpt lat="45.85054" lon="2.9284">
        <ele>903</ele>
        <time>2021-05-30T07:42:56Z</time>
      </trkpt>
      <trkpt lat="45.85054" lon="2.92836">
        <ele>903</ele>
        <time>2021-05-30T07:42:57Z</time>
      </trkpt>
      <trkpt lat="45.85055" lon="2.92833">
        <ele>903</ele>
        <time>2021-05-30T07:42:58Z</time>
      </trkpt>
      <trkpt lat="45.85056" lon="2.9283">
        <ele>903</ele>
        <time>2021-05-30T07:42:59Z</time>
      </trkpt>
      <trkpt lat="45.85057" lon="2.92826">
        <ele>903</ele>
        <time>2021-05-30T07:43:00Z</time>
      </trkpt>
      <trkpt lat="45.85058" lon="2.92823">
        <ele>903</ele>
        <time>2021-05-30T07:43:01Z</time>
      </trkpt>
      <trkpt lat="45.85059" lon="2.9282">
        <ele>903</ele>
        <time>2021-05-30T07:43:02Z</time>
      </trkpt>
      <trkpt lat="45.8506" lon="2.92817">
        <ele>903</ele>
        <time>2021-05-30T07:43:03Z</time>
      </trkpt>
      <trkpt lat="45.85061" lon="2.92814">
        <ele>903</ele>
        <time>2021-05-30T07:43:04Z</time>
      </trkpt>
      <trkpt lat="45.85061" lon="2.9281">
        <ele>903</ele>
        <time>2021-05-30T07:43:05Z</time>
      </trkpt>
      <trkpt lat="45.85062" lon="2.92808">
        <ele>903</ele>
        <time>2021-05-30T07:43:06Z</time>
      </trkpt>
      <trkpt lat="45.85063" lon="2.92805">
        <ele>903</ele>
        <time>2021-05-30T07:43:07Z</time>
      </trkpt>
      <trkpt lat="45.85064" lon="2.92802">
        <ele>903</ele>
        <time>2021-05-30T07:43:08Z</time>
      </trkpt>
      <trkpt lat="45.85064" lon="2.92799">
        <ele>903</ele>
        <time>2021-05-30T07:43:09Z</time>
      </trkpt>
      <trkpt lat="45.85066" lon="2.92795">
        <ele>903</ele>
        <time>2021-05-30T07:43:10Z</time>
      </trkpt>
      <trkpt lat="45.85066" lon="2.92792">
        <ele>903</ele>
        <time>2021-05-30T07:43:11Z</time>
      </trkpt>
      <trkpt lat="45.85067" lon="2.92789">
        <ele>903</ele>
        <time>2021-05-30T07:43:12Z</time>
      </trkpt>
      <trkpt lat="45.85067" lon="2.92786">
        <ele>903</ele>
        <time>2021-05-30T07:43:13Z</time>
      </trkpt>
      <trkpt lat="45.85068" lon="2.92783">
        <ele>903</ele>
        <time>2021-05-30T07:43:14Z</time>
      </trkpt>
      <trkpt lat="45.85069" lon="2.9278">
        <ele>903</ele>
        <time>2021-05-30T07:43:15Z</time>
      </trkpt>
      <trkpt lat="45.85069" lon="2.92777">
        <ele>903</ele>
        <time>2021-05-30T07:43:16Z</time>
      </trkpt>
      <trkpt lat="45.8507" lon="2.92774">
        <ele>903</ele>
        <time>2021-05-30T07:43:17Z</time>
      </trkpt>
      <trkpt lat="45.8507" lon="2.92772">
        <ele>903</ele>
        <time>2021-05-30T07:43:18Z</time>
      </trkpt>
      <trkpt lat="45.85071" lon="2.9277">
        <ele>903</ele>
        <time>2021-05-30T07:43:19Z</time>
      </trkpt>
      <trkpt lat="45.85072" lon="2.92768">
        <ele>903</ele>
        <time>2021-05-30T07:43:20Z</time>
      </trkpt>
      <trkpt lat="45.85072" lon="2.92766">
        <ele>903</ele>
        <time>2021-05-30T07:43:21Z</time>
      </trkpt>
      <trkpt lat="45.85073" lon="2.92764">
        <ele>903</ele>
        <time>2021-05-30T07:43:22Z</time>
      </trkpt>
      <trkpt lat="45.85074" lon="2.92762">
        <ele>903</ele>
        <time>2021-05-30T07:43:23Z</time>
      </trkpt>
      <trkpt lat="45.85074" lon="2.9276">
        <ele>903</ele>
        <time>2021-05-30T07:43:24Z</time>
      </trkpt>
      <trkpt lat="45.85075" lon="2.92758">
        <ele>903</ele>
        <time>2021-05-30T07:43:25Z</time>
      </trkpt>
      <trkpt lat="45.85075" lon="2.92756">
        <ele>903</ele>
        <time>2021-05-30T07:43:26Z</time>
      </trkpt>
      <trkpt lat="45.85076" lon="2.92754">
        <ele>903</ele>
        <time>2021-05-30T07:43:27Z</time>
      </trkpt>
      <trkpt lat="45.85076" lon="2.92752">
        <ele>903</ele>
        <time>2021-05-30T07:43:28Z</time>
      </trkpt>
      <trkpt lat="45.85077" lon="2.9275">
        <ele>903</ele>
        <time>2021-05-30T07:43:29Z</time>
      </trkpt>
      <trkpt lat="45.85078" lon="2.92748">
        <ele>903</ele>
        <time>2021-05-30T07:43:30Z</time>
      </trkpt>
      <trkpt lat="45.85078" lon="2.92746">
        <ele>903</ele>
        <time>2021-05-30T07:43:31Z</time>
      </trkpt>
      <trkpt lat="45.85079" lon="2.92744">
        <ele>903</ele>
        <time>2021-05-30T07:43:32Z</time>
      </trkpt>
      <trkpt lat="45.85079" lon="2.92742">
        <ele>903</ele>
        <time>2021-05-30T07:43:33Z</time>
      </trkpt>
      <trkpt lat="45.8508" lon="2.9274">
        <ele>903</ele>
        <time>2021-05-30T07:43:34Z</time>
      </trkpt>
      <trkpt lat="45.8508" lon="2.92738">
        <ele>903</ele>
        <time>2021-05-30T07:43:35Z</time>
      </trkpt>
      <trkpt lat="45.8508" lon="2.92736">
        <ele>903</ele>
        <time>2021-05-30T07:43:36Z</time>
      </trkpt>
      <trkpt lat="45.85081" lon="2.92734">
        <ele>903</ele>
        <time>2021-05-30T07:43:37Z</time>
      </trkpt>
      <trkpt lat="45.85082" lon="2.92733">
        <ele>903</ele>
        <time>2021-05-30T07:43:38Z</time>
      </trkpt>
      <trkpt lat="45.85082" lon="2.92732">
        <ele>903</ele>
        <time>2021-05-30T07:43:39Z</time>
      </trkpt>
      <trkpt lat="45.85082" lon="2.9273">
        <ele>903</ele>
        <time>2021-05-30T07:43:40Z</time>
      </trkpt>
      <trkpt lat="45.85083" lon="2.92728">
        <ele>903</ele>
        <time>2021-05-30T07:43:41Z</time>
      </trkpt>
      <trkpt lat="45.85084" lon="2.92727">
        <ele>903</ele>
        <time>2021-05-30T07:43:42Z</time>
      </trkpt>
      <trkpt lat="45.85085" lon="2.92725">
        <ele>903</ele>
        <time>2021-05-30T07:43:43Z</time>
      </trkpt>
      <trkpt lat="45.85085" lon="2.92723">
        <ele>903</ele>
        <time>2021-05-30T07:43:44Z</time>
      </trkpt>
      <trkpt lat="45.85086" lon="2.92721">
        <ele>903</ele>
        <time>2021-05-30T07:43:45Z</time>
      </trkpt>
      <trkpt lat="45.85086" lon="2.92719">
        <ele>903</ele>
        <time>2021-05-30T07:43:46Z</time>
      </trkpt>
      <trkpt lat="45.85088" lon="2.92717">
        <ele>903</ele>
        <time>2021-05-30T07:43:47Z</time>
      </trkpt>
      <trkpt lat="45.85088" lon="2.92715">
        <ele>903</ele>
        <time>2021-05-30T07:43:48Z</time>
      </trkpt>
      <trkpt lat="45.85088" lon="2.92713">
        <ele>903</ele>
        <time>2021-05-30T07:43:49Z</time>
      </trkpt>
      <trkpt lat="45.85089" lon="2.92711">
        <ele>903</ele>
        <time>2021-05-30T07:43:50Z</time>
      </trkpt>
      <trkpt lat="45.85089" lon="2.92708">
        <ele>903</ele>
        <time>2021-05-30T07:43:51Z</time>
      </trkpt>
      <trkpt lat="45.8509" lon="2.92706">
        <ele>903</ele>
        <time>2021-05-30T07:43:52Z</time>
      </trkpt>
      <trkpt lat="45.85091" lon="2.92703">
        <ele>903</ele>
        <time>2021-05-30T07:43:53Z</time>
      </trkpt>
      <trkpt lat="45.85091" lon="2.92701">
        <ele>903</ele>
        <time>2021-05-30T07:43:54Z</time>
      </trkpt>
      <trkpt lat="45.85092" lon="2.92698">
        <ele>903</ele>
        <time>2021-05-30T07:43:55Z</time>
      </trkpt>
      <trkpt lat="45.85093" lon="2.92695">
        <ele>903</ele>
        <time>2021-05-30T07:43:56Z</time>
      </trkpt>
      <trkpt lat="45.85094" lon="2.92693">
        <ele>903</ele>
        <time>2021-05-30T07:43:57Z</time>
      </trkpt>
      <trkpt lat="45.85095" lon="2.9269">
        <ele>903</ele>
        <time>2021-05-30T07:43:58Z</time>
      </trkpt>
      <trkpt lat="45.85095" lon="2.92688">
        <ele>903</ele>
        <time>2021-05-30T07:43:59Z</time>
      </trkpt>
      <trkpt lat="45.85096" lon="2.92685">
        <ele>903</ele>
        <time>2021-05-30T07:44:00Z</time>
      </trkpt>
      <trkpt lat="45.85097" lon="2.92683">
        <ele>903</ele>
        <time>2021-05-30T07:44:01Z</time>
      </trkpt>
      <trkpt lat="45.85097" lon="2.92681">
        <ele>903</ele>
        <time>2021-05-30T07:44:02Z</time>
      </trkpt>
      <trkpt lat="45.85098" lon="2.92678">
        <ele>903</ele>
        <time>2021-05-30T07:44:03Z</time>
      </trkpt>
      <trkpt lat="45.85098" lon="2.92676">
        <ele>903</ele>
        <time>2021-05-30T07:44:04Z</time>
      </trkpt>
      <trkpt lat="45.85099" lon="2.92673">
        <ele>903</ele>
        <time>2021-05-30T07:44:05Z</time>
      </trkpt>
      <trkpt lat="45.851" lon="2.92671">
        <ele>903</ele>
        <time>2021-05-30T07:44:06Z</time>
      </trkpt>
      <trkpt lat="45.85101" lon="2.92668">
        <ele>903</ele>
        <time>2021-05-30T07:44:07Z</time>
      </trkpt>
      <trkpt lat="45.85101" lon="2.92665">
        <ele>903</ele>
        <time>2021-05-30T07:44:08Z</time>
      </trkpt>
      <trkpt lat="45.85103" lon="2.92663">
        <ele>903</ele>
        <time>2021-05-30T07:44:09Z</time>
      </trkpt>
      <trkpt lat="45.85103" lon="2.9266">
        <ele>903</ele>
        <time>2021-05-30T07:44:10Z</time>
      </trkpt>
      <trkpt lat="45.85104" lon="2.92657">
        <ele>903</ele>
        <time>2021-05-30T07:44:11Z</time>
      </trkpt>
      <trkpt lat="45.85104" lon="2.92655">
        <ele>903</ele>
        <time>2021-05-30T07:44:12Z</time>
      </trkpt>
      <trkpt lat="45.85106" lon="2.92652">
        <ele>903</ele>
        <time>2021-05-30T07:44:13Z</time>
      </trkpt>
      <trkpt lat="45.85106" lon="2.9265">
        <ele>903</ele>
        <time>2021-05-30T07:44:14Z</time>
      </trkpt>
      <trkpt lat="45.85107" lon="2.92647">
        <ele>903</ele>
        <time>2021-05-30T07:44:15Z</time>
      </trkpt>
      <trkpt lat="45.85107" lon="2.92644">
        <ele>903</ele>
        <time>2021-05-30T07:44:16Z</time>
      </trkpt>
      <trkpt lat="45.85108" lon="2.92642">
        <ele>903</ele>
        <time>2021-05-30T07:44:17Z</time>
      </trkpt>
      <trkpt lat="45.85109" lon="2.92639">
        <ele>903</ele>
        <time>2021-05-30T07:44:18Z</time>
      </trkpt>
      <trkpt lat="45.85109" lon="2.92637">
        <ele>903</ele>
        <time>2021-05-30T07:44:19Z</time>
      </trkpt>
      <trkpt lat="45.8511" lon="2.92634">
        <ele>903</ele>
        <time>2021-05-30T07:44:20Z</time>
      </trkpt>
      <trkpt lat="45.85111" lon="2.92632">
        <ele>903</ele>
        <time>2021-05-30T07:44:21Z</time>
      </trkpt>
      <trkpt lat="45.85112" lon="2.92629">
        <ele>903</ele>
        <time>2021-05-30T07:44:22Z</time>
      </trkpt>
      <trkpt lat="45.85112" lon="2.92626">
        <ele>903</ele>
        <time>2021-05-30T07:44:23Z</time>
      </trkpt>
      <trkpt lat="45.85113" lon="2.92624">
        <ele>903</ele>
        <time>2021-05-30T07:44:24Z</time>
      </trkpt>
      <trkpt lat="45.85114" lon="2.92622">
        <ele>903</ele>
        <time>2021-05-30T07:44:25Z</time>
      </trkpt>
      <trkpt lat="45.85114" lon="2.9262">
        <ele>903</ele>
        <time>2021-05-30T07:44:26Z</time>
      </trkpt>
      <trkpt lat="45.85115" lon="2.92618">
        <ele>903</ele>
        <time>2021-05-30T07:44:27Z</time>
      </trkpt>
      <trkpt lat="45.85116" lon="2.92616">
        <ele>903</ele>
        <time>2021-05-30T07:44:28Z</time>
      </trkpt>
      <trkpt lat="45.85116" lon="2.92614">
        <ele>903</ele>
        <time>2021-05-30T07:44:29Z</time>
      </trkpt>
      <trkpt lat="45.85117" lon="2.92611">
        <ele>903</ele>
        <time>2021-05-30T07:44:30Z</time>
      </trkpt>
      <trkpt lat="45.85118" lon="2.92609">
        <ele>903</ele>
        <time>2021-05-30T07:44:31Z</time>
      </trkpt>
      <trkpt lat="45.85119" lon="2.92607">
        <ele>903</ele>
        <time>2021-05-30T07:44:32Z</time>
      </trkpt>
      <trkpt lat="45.85119" lon="2.92604">
        <ele>903</ele>
        <time>2021-05-30T07:44:33Z</time>
      </trkpt>
      <trkpt lat="45.8512" lon="2.92602">
        <ele>903</ele>
        <time>2021-05-30T07:44:34Z</time>
      </trkpt>
      <trkpt lat="45.8512" lon="2.926">
        <ele>903</ele>
        <time>2021-05-30T07:44:35Z</time>
      </trkpt>
      <trkpt lat="45.85121" lon="2.92598">
        <ele>903</ele>
        <time>2021-05-30T07:44:36Z</time>
      </trkpt>
      <trkpt lat="45.85122" lon="2.92596">
        <ele>903</ele>
        <time>2021-05-30T07:44:37Z</time>
      </trkpt>
      <trkpt lat="45.85122" lon="2.92594">
        <ele>903</ele>
        <time>2021-05-30T07:44:38Z</time>
      </trkpt>
      <trkpt lat="45.85123" lon="2.92591">
        <ele>903</ele>
        <time>2021-05-30T07:44:39Z</time>
      </trkpt>
      <trkpt lat="45.85124" lon="2.92589">
        <ele>903</ele>
        <time>2021-05-30T07:44:40Z</time>
      </trkpt>
      <trkpt lat="45.85124" lon="2.92586">
        <ele>903</ele>
        <time>2021-05-30T07:44:41Z</time>
      </trkpt>
      <trkpt lat="45.85125" lon="2.92584">
        <ele>903</ele>
        <time>2021-05-30T07:44:42Z</time>
      </trkpt>
      <trkpt lat="45.85126" lon="2.92582">
        <ele>903</ele>
        <time>2021-05-30T07:44:43Z</time>
      </trkpt>
      <trkpt lat="45.85127" lon="2.92579">
        <ele>903</ele>
        <time>2021-05-30T07:44:44Z</time>
      </trkpt>
      <trkpt lat="45.85127" lon="2.92577">
        <ele>903</ele>
        <time>2021-05-30T07:44:45Z</time>
      </trkpt>
      <trkpt lat="45.85128" lon="2.92575">
        <ele>903</ele>
        <time>2021-05-30T07:44:46Z</time>
      </trkpt>
      <trkpt lat="45.85128" lon="2.92573">
        <ele>903</ele>
        <time>2021-05-30T07:44:47Z</time>
      </trkpt>
      <trkpt lat="45.8513" lon="2.92571">
        <ele>903</ele>
        <time>2021-05-30T07:44:48Z</time>
      </trkpt>
      <trkpt lat="45.8513" lon="2.92569">
        <ele>903</ele>
        <time>2021-05-30T07:44:49Z</time>
      </trkpt>
      <trkpt lat="45.85131" lon="2.92566">
        <ele>903</ele>
        <time>2021-05-30T07:44:50Z</time>
      </trkpt>
      <trkpt lat="45.85132" lon="2.92564">
        <ele>903</ele>
        <time>2021-05-30T07:44:51Z</time>
      </trkpt>
      <trkpt lat="45.85133" lon="2.92561">
        <ele>903</ele>
        <time>2021-05-30T07:44:52Z</time>
      </trkpt>
      <trkpt lat="45.85134" lon="2.92558">
        <ele>903</ele>
        <time>2021-05-30T07:44:53Z</time>
      </trkpt>
      <trkpt lat="45.85135" lon="2.92555">
        <ele>903</ele>
        <time>2021-05-30T07:44:54Z</time>
      </trkpt>
      <trkpt lat="45.85137" lon="2.92553">
        <ele>903</ele>
        <time>2021-05-30T07:44:55Z</time>
      </trkpt>
      <trkpt lat="45.85138" lon="2.92551">
        <ele>903</ele>
        <time>2021-05-30T07:44:56Z</time>
      </trkpt>
      <trkpt lat="45.85139" lon="2.9255">
        <ele>903</ele>
        <time>2021-05-30T07:44:57Z</time>
      </trkpt>
      <trkpt lat="45.8514" lon="2.92549">
        <ele>903</ele>
        <time>2021-05-30T07:44:58Z</time>
      </trkpt>
      <trkpt lat="45.85142" lon="2.92548">
        <ele>903</ele>
        <time>2021-05-30T07:44:59Z</time>
      </trkpt>
      <trkpt lat="45.85143" lon="2.92547">
        <ele>903</ele>
        <time>2021-05-30T07:45:00Z</time>
      </trkpt>
      <trkpt lat="45.85144" lon="2.92547">
        <ele>903</ele>
        <time>2021-05-30T07:45:01Z</time>
      </trkpt>
      <trkpt lat="45.85145" lon="2.92547">
        <ele>903</ele>
        <time>2021-05-30T07:45:02Z</time>
      </trkpt>
      <trkpt lat="45.85147" lon="2.92547">
        <ele>903</ele>
        <time>2021-05-30T07:45:03Z</time>
      </trkpt>
      <trkpt lat="45.85148" lon="2.92548">
        <ele>903</ele>
        <time>2021-05-30T07:45:04Z</time>
      </trkpt>
      <trkpt lat="45.8515" lon="2.92548">
        <ele>903</ele>
        <time>2021-05-30T07:45:05Z</time>
      </trkpt>
      <trkpt lat="45.85151" lon="2.92548">
        <ele>903</ele>
        <time>2021-05-30T07:45:06Z</time>
      </trkpt>
      <trkpt lat="45.85152" lon="2.92549">
        <ele>903</ele>
        <time>2021-05-30T07:45:07Z</time>
      </trkpt>
      <trkpt lat="45.85154" lon="2.9255">
        <ele>903</ele>
        <time>2021-05-30T07:45:08Z</time>
      </trkpt>
      <trkpt lat="45.85155" lon="2.9255">
        <ele>903</ele>
        <time>2021-05-30T07:45:09Z</time>
      </trkpt>
      <trkpt lat="45.85156" lon="2.92551">
        <ele>903</ele>
        <time>2021-05-30T07:45:10Z</time>
      </trkpt>
      <trkpt lat="45.85157" lon="2.92551">
        <ele>903</ele>
        <time>2021-05-30T07:45:11Z</time>
      </trkpt>
      <trkpt lat="45.85158" lon="2.92552">
        <ele>903</ele>
        <time>2021-05-30T07:45:12Z</time>
      </trkpt>
      <trkpt lat="45.85159" lon="2.92552">
        <ele>903</ele>
        <time>2021-05-30T07:45:13Z</time>
      </trkpt>
      <trkpt lat="45.8516" lon="2.92552">
        <ele>903</ele>
        <time>2021-05-30T07:45:14Z</time>
      </trkpt>
      <trkpt lat="45.85162" lon="2.92553">
        <ele>903</ele>
        <time>2021-05-30T07:45:15Z</time>
      </trkpt>
      <trkpt lat="45.85163" lon="2.92553">
        <ele>903</ele>
        <time>2021-05-30T07:45:16Z</time>
      </trkpt>
      <trkpt lat="45.85164" lon="2.92554">
        <ele>903</ele>
        <time>2021-05-30T07:45:17Z</time>
      </trkpt>
      <trkpt lat="45.85165" lon="2.92554">
        <ele>903</ele>
        <time>2021-05-30T07:45:18Z</time>
      </trkpt>
      <trkpt lat="45.85167" lon="2.92554">
        <ele>903</ele>
        <time>2021-05-30T07:45:19Z</time>
      </trkpt>
      <trkpt lat="45.85168" lon="2.92554">
        <ele>903</ele>
        <time>2021-05-30T07:45:20Z</time>
      </trkpt>
      <trkpt lat="45.85169" lon="2.92554">
        <ele>903</ele>
        <time>2021-05-30T07:45:21Z</time>
      </trkpt>
      <trkpt lat="45.8517" lon="2.92553">
        <ele>903</ele>
        <time>2021-05-30T07:45:22Z</time>
      </trkpt>
      <trkpt lat="45.85172" lon="2.92553">
        <ele>903</ele>
        <time>2021-05-30T07:45:23Z</time>
      </trkpt>
      <trkpt lat="45.85173" lon="2.92552">
        <ele>903</ele>
        <time>2021-05-30T07:45:24Z</time>
      </trkpt>
      <trkpt lat="45.85173" lon="2.92552">
        <ele>903</ele>
        <time>2021-05-30T07:45:25Z</time>
      </trkpt>
      <trkpt lat="45.85175" lon="2.92551">
        <ele>903</ele>
        <time>2021-05-30T07:45:26Z</time>
      </trkpt>
      <trkpt lat="45.85175" lon="2.9255">
        <ele>903</ele>
        <time>2021-05-30T07:45:27Z</time>
      </trkpt>
      <trkpt lat="45.85176" lon="2.92549">
        <ele>903</ele>
        <time>2021-05-30T07:45:28Z</time>
      </trkpt>
      <trkpt lat="45.85177" lon="2.92548">
        <ele>903</ele>
        <time>2021-05-30T07:45:29Z</time>
      </trkpt>
      <trkpt lat="45.85178" lon="2.92547">
        <ele>903</ele>
        <time>2021-05-30T07:45:30Z</time>
      </trkpt>
      <trkpt lat="45.8518" lon="2.92546">
        <ele>903</ele>
        <time>2021-05-30T07:45:31Z</time>
      </trkpt>
      <trkpt lat="45.85181" lon="2.92545">
        <ele>903</ele>
        <time>2021-05-30T07:45:32Z</time>
      </trkpt>
      <trkpt lat="45.85182" lon="2.92544">
        <ele>903</ele>
        <time>2021-05-30T07:45:33Z</time>
      </trkpt>
      <trkpt lat="45.85182" lon="2.92543">
        <ele>903</ele>
        <time>2021-05-30T07:45:35Z</time>
      </trkpt>
      <trkpt lat="45.85185" lon="2.9254">
        <ele>903</ele>
        <time>2021-05-30T07:45:36Z</time>
      </trkpt>
      <trkpt lat="45.85185" lon="2.9254">
        <ele>903</ele>
        <time>2021-05-30T07:45:37Z</time>
      </trkpt>
      <trkpt lat="45.85185" lon="2.9254">
        <ele>903</ele>
        <time>2021-05-30T07:45:38Z</time>
      </trkpt>
      <trkpt lat="45.85186" lon="2.9254">
        <ele>903</ele>
        <time>2021-05-30T07:45:39Z</time>
      </trkpt>
      <trkpt lat="45.85186" lon="2.92539">
        <ele>903</ele>
        <time>2021-05-30T07:45:40Z</time>
      </trkpt>
      <trkpt lat="45.85186" lon="2.92539">
        <ele>903</ele>
        <time>2021-05-30T07:45:41Z</time>
      </trkpt>
      <trkpt lat="45.85187" lon="2.92538">
        <ele>903</ele>
        <time>2021-05-30T07:45:42Z</time>
      </trkpt>
      <trkpt lat="45.85187" lon="2.92537">
        <ele>903</ele>
        <time>2021-05-30T07:45:43Z</time>
      </trkpt>
      <trkpt lat="45.85188" lon="2.92536">
        <ele>903</ele>
        <time>2021-05-30T07:45:44Z</time>
      </trkpt>
      <trkpt lat="45.85189" lon="2.92535">
        <ele>903</ele>
        <time>2021-05-30T07:45:45Z</time>
      </trkpt>
      <trkpt lat="45.8519" lon="2.92534">
        <ele>903</ele>
        <time>2021-05-30T07:45:46Z</time>
      </trkpt>
      <trkpt lat="45.85191" lon="2.92533">
        <ele>903</ele>
        <time>2021-05-30T07:45:47Z</time>
      </trkpt>
      <trkpt lat="45.85191" lon="2.92532">
        <ele>903</ele>
        <time>2021-05-30T07:45:48Z</time>
      </trkpt>
      <trkpt lat="45.85192" lon="2.92531">
        <ele>903</ele>
        <time>2021-05-30T07:45:49Z</time>
      </trkpt>
      <trkpt lat="45.85193" lon="2.9253">
        <ele>903</ele>
        <time>2021-05-30T07:45:50Z</time>
      </trkpt>
      <trkpt lat="45.85194" lon="2.9253">
        <ele>903</ele>
        <time>2021-05-30T07:45:51Z</time>
      </trkpt>
      <trkpt lat="45.85194" lon="2.92529">
        <ele>903</ele>
        <time>2021-05-30T07:45:52Z</time>
      </trkpt>
      <trkpt lat="45.85195" lon="2.92527">
        <ele>903</ele>
        <time>2021-05-30T07:45:53Z</time>
      </trkpt>
      <trkpt lat="45.85196" lon="2.92526">
        <ele>903</ele>
        <time>2021-05-30T07:45:54Z</time>
      </trkpt>
      <trkpt lat="45.85197" lon="2.92525">
        <ele>903</ele>
        <time>2021-05-30T07:45:55Z</time>
      </trkpt>
      <trkpt lat="45.85197" lon="2.92523">
        <ele>903</ele>
        <time>2021-05-30T07:45:56Z</time>
      </trkpt>
      <trkpt lat="45.85198" lon="2.92522">
        <ele>903</ele>
        <time>2021-05-30T07:45:57Z</time>
      </trkpt>
      <trkpt lat="45.85199" lon="2.9252">
        <ele>903</ele>
        <time>2021-05-30T07:45:58Z</time>
      </trkpt>
      <trkpt lat="45.852" lon="2.92518">
        <ele>903</ele>
        <time>2021-05-30T07:45:59Z</time>
      </trkpt>
      <trkpt lat="45.852" lon="2.92516">
        <ele>903</ele>
        <time>2021-05-30T07:46:00Z</time>
      </trkpt>
      <trkpt lat="45.85201" lon="2.92514">
        <ele>903</ele>
        <time>2021-05-30T07:46:01Z</time>
      </trkpt>
      <trkpt lat="45.85201" lon="2.92513">
        <ele>903</ele>
        <time>2021-05-30T07:46:02Z</time>
      </trkpt>
      <trkpt lat="45.85202" lon="2.92511">
        <ele>903</ele>
        <time>2021-05-30T07:46:02Z</time>
      </trkpt>
      <trkpt lat="45.85202" lon="2.92509">
        <ele>903</ele>
        <time>2021-05-30T07:46:03Z</time>
      </trkpt>
      <trkpt lat="45.85203" lon="2.92508">
        <ele>903</ele>
        <time>2021-05-30T07:46:04Z</time>
      </trkpt>
      <trkpt lat="45.85203" lon="2.92506">
        <ele>903</ele>
        <time>2021-05-30T07:46:05Z</time>
      </trkpt>
      <trkpt lat="45.85204" lon="2.92504">
        <ele>903</ele>
        <time>2021-05-30T07:46:06Z</time>
      </trkpt>
      <trkpt lat="45.85205" lon="2.92502">
        <ele>903</ele>
        <time>2021-05-30T07:46:07Z</time>
      </trkpt>
      <trkpt lat="45.85206" lon="2.92501">
        <ele>903</ele>
        <time>2021-05-30T07:46:08Z</time>
      </trkpt>
      <trkpt lat="45.85207" lon="2.925">
        <ele>903</ele>
        <time>2021-05-30T07:46:09Z</time>
      </trkpt>
      <trkpt lat="45.85209" lon="2.92499">
        <ele>903</ele>
        <time>2021-05-30T07:46:10Z</time>
      </trkpt>
      <trkpt lat="45.8521" lon="2.92499">
        <ele>903</ele>
        <time>2021-05-30T07:46:11Z</time>
      </trkpt>
      <trkpt lat="45.85212" lon="2.92498">
        <ele>903</ele>
        <time>2021-05-30T07:46:12Z</time>
      </trkpt>
      <trkpt lat="45.85212" lon="2.92498">
        <ele>903</ele>
        <time>2021-05-30T07:46:13Z</time>
      </trkpt>
      <trkpt lat="45.85214" lon="2.92498">
        <ele>903</ele>
        <time>2021-05-30T07:46:14Z</time>
      </trkpt>
      <trkpt lat="45.85215" lon="2.92498">
        <ele>903</ele>
        <time>2021-05-30T07:46:15Z</time>
      </trkpt>
      <trkpt lat="45.85216" lon="2.92497">
        <ele>903</ele>
        <time>2021-05-30T07:46:16Z</time>
      </trkpt>
      <trkpt lat="45.85217" lon="2.92497">
        <ele>903</ele>
        <time>2021-05-30T07:46:17Z</time>
      </trkpt>
      <trkpt lat="45.85218" lon="2.92497">
        <ele>903</ele>
        <time>2021-05-30T07:46:18Z</time>
      </trkpt>
      <trkpt lat="45.85219" lon="2.92497">
        <ele>903</ele>
        <time>2021-05-30T07:46:19Z</time>
      </trkpt>
      <trkpt lat="45.8522" lon="2.92497">
        <ele>903</ele>
        <time>2021-05-30T07:46:20Z</time>
      </trkpt>
      <trkpt lat="45.85221" lon="2.92497">
        <ele>903</ele>
        <time>2021-05-30T07:46:23Z</time>
      </trkpt>
      <trkpt lat="45.85221" lon="2.92497">
        <ele>903</ele>
        <time>2021-05-30T07:46:24Z</time>
      </trkpt>
      <trkpt lat="45.85221" lon="2.92497">
        <ele>903</ele>
        <time>2021-05-30T07:46:25Z</time>
      </trkpt>
    </trkseg>
  </trk>
</gpx>